BCO-DMO ERDDAP
Accessing BCO-DMO data
log in    
Brought to you by BCO-DMO    
 
 
time longitude latitude cast_id cast_no press temp temp_2 cond cond_2 O2_v trans fluor turbidity depth density density_2 sal sal_2 sound_vel sound_vel_2 O2 flag
UTC degrees_east degrees_north unitless unitless decibars degrees Celsius degrees Celsius Siemens/meter [S/m] Siemens/meter [S/m] volts unitless milligrams/cubic meter [mg/m^3] NTU m kilograms/cubic meter [kg/m^3] kilograms/cubic meter [kg/m^3] practical salinity units [PSU] practical salinity units [PSU] meters/second [m/s] meters/second [m/s] micromol/liter [umol/l] unitless
2017-10-14T12:30:45Z -46.0552 22.8008 at3901001 1 28.179 27.4749 27.4758 5.9234 5.9231 2.3719 97.0437 0.0164 0.0944 28.0 1024.5898 1024.5876 37.528 37.5254 1543.32 1543.32 189.723 0.0
2017-10-14T12:30:45Z -46.0552 22.8008 at3901001 1 29.185 27.4748 27.4719 5.9233 5.9227 2.3739 97.117 0.0263 0.0911 29.0 1024.5934 1024.5929 37.527 37.525 1543.33 1543.32 189.957 0.0
2017-10-14T12:30:45Z -46.0552 22.8008 at3901001 1 30.192 27.4744 27.4766 5.9232 5.9233 2.3743 96.9322 0.0126 0.0897 30.0 1024.5974 1024.5961 37.5263 37.5256 1543.35 1543.35 190.019 0.0
2017-10-14T12:30:45Z -46.0552 22.8008 at3901001 1 31.198 27.4638 27.4636 5.922 5.9219 2.3761 97.0288 -0.0105 0.0846 31.0 1024.6051 1024.6045 37.5262 37.5254 1543.34 1543.34 190.258 0.0
2017-10-14T12:30:45Z -46.0552 22.8008 at3901001 1 32.205 27.4437 27.4457 5.9194 5.9198 2.3784 97.1233 -0.0064 0.0887 32.0 1024.6137 1024.6142 37.5233 37.5248 1543.31 1543.31 190.581 0.0
2017-10-14T12:30:45Z -46.0552 22.8008 at3901001 1 33.211 27.4274 27.4301 5.9178 5.918 2.378 97.0937 0.029 0.0913 33.0 1024.6241 1024.6229 37.5244 37.5239 1543.29 1543.3 190.609 0.0
2017-10-14T12:30:45Z -46.0552 22.8008 at3901001 1 34.218 27.4141 27.4155 5.9163 5.9164 2.3789 97.0594 0.0119 0.085 34.0 1024.6324 1024.6322 37.5239 37.5242 1543.28 1543.28 190.77 0.0
2017-10-14T12:30:45Z -46.0552 22.8008 at3901001 1 35.224 27.405 27.4067 5.9151 5.9153 2.3779 97.0956 0.031 0.0891 35.0 1024.6387 1024.6385 37.5226 37.523 1543.27 1543.28 190.716 0.0
2017-10-14T12:30:45Z -46.0552 22.8008 at3901001 1 36.231 27.3858 27.388 5.9129 5.9132 2.3805 97.1088 0.0239 0.0841 36.0 1024.6487 1024.6483 37.5219 37.5222 1543.25 1543.25 191.06 0.0
2017-10-14T12:30:45Z -46.0552 22.8008 at3901001 1 37.237 27.3652 27.3673 5.9104 5.9107 2.3856 97.1209 0.0325 0.0932 37.0 1024.6588 1024.6583 37.5206 37.5209 1543.21 1543.22 191.671 0.0
2017-10-14T12:30:45Z -46.0552 22.8008 at3901001 1 38.244 27.3752 27.3694 5.9118 5.911 2.388 97.1407 0.0375 0.0927 38.0 1024.661 1024.6621 37.5222 37.5211 1543.26 1543.24 191.907 0.0
2017-10-14T12:30:45Z -46.0552 22.8008 at3901001 1 39.25 27.354 27.3487 5.9088 5.9087 2.391 97.1183 0.0539 0.0921 39.0 1024.6684 1024.6729 37.5171 37.5209 1543.22 1543.21 192.299 0.0
2017-10-14T12:30:45Z -46.0552 22.8008 at3901001 1 40.257 27.3094 27.3132 5.9034 5.9043 2.3922 97.0838 0.0438 0.0901 40.0 1024.6848 1024.6865 37.514 37.5178 1543.13 1543.15 192.594 0.0
2017-10-14T12:30:45Z -46.0552 22.8008 at3901001 1 41.263 27.2615 27.2646 5.8963 5.8972 2.3931 97.0926 0.0222 0.0946 41.0 1024.6951 1024.6971 37.5012 37.5053 1543.03 1543.04 192.872 0.0
2017-10-14T12:30:45Z -46.0552 22.8008 at3901001 1 42.27 27.234 27.2355 5.8943 5.8945 2.3998 97.1167 0.0278 0.0967 42.0 1024.7138 1024.7135 37.5085 37.5087 1542.99 1543.0 193.654 0.0
2017-10-14T12:30:45Z -46.0552 22.8008 at3901001 1 43.276 27.2976 27.2691 5.9022 5.8985 2.3909 97.1338 0.0532 0.0913 43.0 1024.7013 1024.7083 37.5136 37.5106 1543.16 1543.09 192.567 0.0
2017-10-14T12:30:45Z -46.0552 22.8008 at3901001 1 44.283 27.2479 27.2578 5.8978 5.8997 2.3849 97.1289 0.0324 0.0918 44.0 1024.7281 1024.7293 37.5221 37.5279 1543.07 1543.1 192.126 0.0
2017-10-14T12:30:45Z -46.0552 22.8008 at3901001 1 45.289 27.0228 27.0291 5.8733 5.8761 2.3997 97.0427 0.0311 0.0965 45.0 1024.8091 1024.8184 37.5271 37.5421 1542.59 1542.62 194.35 0.0
2017-10-14T12:30:45Z -46.0552 22.8008 at3901001 1 46.296 26.7454 26.7406 5.8392 5.8396 2.4192 97.1405 0.0574 0.0955 46.0 1024.8857 1024.8923 37.5046 37.5114 1541.95 1541.95 197.285 0.0
2017-10-14T12:30:45Z -46.0552 22.8008 at3901001 1 47.302 26.7612 26.5359 5.84 5.812 2.4296 97.1706 0.0458 0.1097 47.0 1024.8794 1024.9362 37.4973 37.4769 1542.0 1541.46 198.334 0.0
2017-10-14T12:30:45Z -46.0552 22.8008 at3901001 1 48.309 26.4879 26.4701 5.8047 5.804 2.4451 97.199 0.0389 0.0998 48.0 1024.9447 1024.9578 37.4621 37.4719 1541.36 1541.32 200.885 0.0
2017-10-14T12:30:45Z -46.0552 22.8008 at3901001 1 49.316 26.3969 26.3993 5.7955 5.7964 2.4439 97.1911 0.0514 0.0952 49.0 1024.9832 1024.9858 37.469 37.4734 1541.17 1541.18 201.074 0.0
2017-10-14T12:30:45Z -46.0552 22.8008 at3901001 1 50.322 26.2893 26.2914 5.7819 5.7829 2.4446 97.2097 0.0604 0.0944 50.0 1025.0128 1025.0159 37.4571 37.4622 1540.93 1540.94 201.542 0.0
2017-10-14T12:30:45Z -46.0552 22.8008 at3901001 1 51.329 26.2129 26.2136 5.772 5.7727 2.4508 97.2189 0.054 0.0914 51.0 1025.0332 1025.0362 37.4464 37.4507 1540.76 1540.76 202.473 0.0
2017-10-14T12:30:45Z -46.0552 22.8008 at3901001 1 52.335 26.226 26.1702 5.7739 5.7669 2.4544 97.2466 0.0703 0.0982 52.0 1025.0354 1025.0489 37.4491 37.4435 1540.81 1540.67 202.821 0.0
2017-10-14T12:30:45Z -46.0552 22.8008 at3901001 1 53.342 25.9314 25.9362 5.7354 5.7376 2.4572 97.24 0.0586 0.0903 53.0 1025.101 1025.1086 37.4071 37.4191 1540.1 1540.12 204.168 0.0
2017-10-14T12:30:45Z -46.0552 22.8008 at3901001 1 54.348 25.7979 25.7989 5.7205 5.7208 2.4615 97.2315 0.0575 0.0927 54.0 1025.1466 1025.1471 37.4062 37.4072 1539.8 1539.8 205.089 0.0
2017-10-14T12:30:45Z -46.0552 22.8008 at3901001 1 55.355 25.7891 25.7903 5.72 5.7202 2.4638 97.259 0.0731 0.0903 55.0 1025.1559 1025.1559 37.409 37.4095 1539.8 1539.8 205.38 0.0
2017-10-14T12:30:45Z -46.0552 22.8008 at3901001 1 56.362 25.7694 25.7693 5.7178 5.7181 2.466 97.2385 0.088 0.0853 56.0 1025.1664 1025.1679 37.409 37.411 1539.77 1539.77 205.704 0.0
2017-10-14T12:30:45Z -46.0552 22.8008 at3901001 1 57.368 25.721 25.7154 5.712 5.7117 2.4623 97.2465 0.0814 0.0844 57.0 1025.1835 1025.1868 37.4058 37.408 1539.67 1539.66 205.51 0.0
2017-10-14T12:30:45Z -46.0552 22.8008 at3901001 1 58.375 25.6708 25.6156 5.7057 5.7001 2.4663 97.2606 0.0906 0.0894 58.0 1025.199 1025.2191 37.3999 37.4036 1539.56 1539.44 206.128 0.0
2017-10-14T12:30:45Z -46.0552 22.8008 at3901001 1 59.382 25.4887 25.4908 5.6845 5.6858 2.4664 97.2583 0.0549 0.09 59.0 1025.254 1025.2597 37.3918 37.4001 1539.14 1539.16 206.787 0.0
2017-10-14T12:30:45Z -46.0552 22.8008 at3901001 1 60.388 25.2875 25.2893 5.6605 5.663 2.4645 97.2623 0.075 0.0829 60.0 1025.3109 1025.3238 37.3787 37.3964 1538.67 1538.69 207.318 0.0
2017-10-14T12:30:45Z -46.0552 22.8008 at3901001 1 61.395 24.9025 24.9057 5.6146 5.6179 2.4657 97.2586 0.0934 0.0863 61.0 1025.4153 1025.4308 37.354 37.3758 1537.74 1537.77 208.826 0.0
2017-10-14T12:30:45Z -46.0552 22.8008 at3901001 1 62.401 25.0284 24.9311 5.6324 5.6204 2.4782 97.2742 0.0961 0.0873 62.0 1025.4022 1025.4254 37.3824 37.3734 1538.09 1537.85 209.702 0.0
2017-10-14T12:30:45Z -46.0552 22.8008 at3901001 1 63.408 24.9511 24.9081 5.6186 5.6177 2.4679 97.2785 0.0619 0.0882 63.0 1025.4001 1025.435 37.3424 37.3712 1537.88 1537.81 208.953 0.0
2017-10-14T12:30:45Z -46.0552 22.8008 at3901001 1 64.415 24.4623 24.4633 5.5634 5.5646 2.4727 97.2682 0.0999 0.0876 64.0 1025.5467 1025.5522 37.3329 37.3406 1536.71 1536.72 211.208 0.0
2017-10-14T12:30:45Z -46.0552 22.8008 at3901001 1 65.421 24.3848 24.3858 5.5543 5.5548 2.4769 97.2801 0.0908 0.0851 65.0 1025.5709 1025.5729 37.3281 37.3311 1536.53 1536.54 211.957 0.0
2017-10-14T12:30:45Z -46.0552 22.8008 at3901001 1 66.428 24.4134 24.3657 5.558 5.5525 2.4714 97.2703 0.1079 0.091 66.0 1025.5696 1025.5824 37.3321 37.3298 1536.62 1536.5 211.286 0.0
2017-10-14T12:30:45Z -46.0552 22.8008 at3901001 1 67.435 24.2525 24.25 5.5376 5.5385 2.4688 97.2917 0.0954 0.0881 67.0 1025.6068 1025.6143 37.3112 37.3202 1536.22 1536.23 211.633 0.0
2017-10-14T12:30:45Z -46.0552 22.8008 at3901001 1 68.441 24.1472 24.1396 5.5259 5.5254 2.4686 97.3114 0.123 0.0903 68.0 1025.6419 1025.6461 37.3099 37.3124 1535.98 1535.96 212.003 0.0
2017-10-14T12:30:45Z -46.0552 22.8008 at3901001 1 69.448 24.0755 24.0792 5.518 5.5188 2.4611 97.3297 0.1204 0.0925 69.0 1025.6673 1025.6687 37.3093 37.3125 1535.82 1535.83 211.482 0.0
2017-10-14T12:30:45Z -46.0552 22.8008 at3901001 1 70.455 24.0235 24.024 5.5122 5.5127 2.465 97.2847 0.1284 0.0916 70.0 1025.6866 1025.6888 37.3084 37.3115 1535.71 1535.71 212.104 0.0
2017-10-14T12:30:45Z -46.0552 22.8008 at3901001 1 71.461 23.9265 23.9218 5.5008 5.5009 2.4631 97.3582 0.1335 0.0883 71.0 1025.7155 1025.7204 37.3025 37.3071 1535.48 1535.47 212.276 0.0
2017-10-14T12:30:45Z -46.0552 22.8008 at3901001 1 72.468 23.8146 23.8152 5.4884 5.489 2.4551 97.3635 0.1355 0.0844 72.0 1025.7522 1025.7551 37.301 37.3051 1535.22 1535.23 211.837 0.0
2017-10-14T12:30:45Z -46.0552 22.8008 at3901001 1 73.475 23.7479 23.7484 5.4812 5.4815 2.4515 97.3594 0.1426 0.085 73.0 1025.7768 1025.7783 37.3015 37.3037 1535.07 1535.08 211.708 0.0
2017-10-14T12:30:45Z -46.0552 22.8008 at3901001 1 74.481 23.7099 23.7105 5.4771 5.4773 2.4539 97.3784 0.1424 0.0883 74.0 1025.7924 1025.7932 37.3014 37.3027 1534.99 1535.0 212.128 0.0
2017-10-14T12:30:45Z -46.0552 22.8008 at3901001 1 75.488 23.6652 23.6651 5.472 5.4723 2.4527 97.3747 0.1585 0.0836 75.0 1025.8085 1025.8107 37.2993 37.3023 1534.9 1534.9 212.187 0.0
2017-10-14T12:30:45Z -46.0552 22.8008 at3901001 1 76.495 23.5898 23.591 5.4637 5.4641 2.4454 97.3936 0.1581 0.0875 76.0 1025.8348 1025.8362 37.2988 37.3011 1534.73 1534.73 211.694 0.0
2017-10-14T12:30:45Z -46.0552 22.8008 at3901001 1 77.501 23.5684 23.553 5.4612 5.4595 2.4395 97.4155 0.1544 0.0864 77.0 1025.8443 1025.849 37.2972 37.2974 1534.69 1534.65 211.154 0.0
2017-10-14T12:30:45Z -46.0552 22.8008 at3901001 1 78.508 23.5327 23.5345 5.4573 5.4576 2.4312 97.4436 0.1746 0.084 78.0 1025.8594 1025.8595 37.2974 37.2983 1534.62 1534.62 210.404 0.0
2017-10-14T12:30:45Z -46.0552 22.8008 at3901001 1 79.515 23.5242 23.5259 5.4566 5.4568 2.4305 97.4175 0.1617 0.0827 79.0 1025.8668 1025.8667 37.2982 37.2987 1534.61 1534.62 210.381 0.0
2017-10-14T12:30:45Z -46.0552 22.8008 at3901001 1 80.521 23.5 23.5018 5.4535 5.4541 2.4278 97.4518 0.1507 0.0824 80.0 1025.876 1025.8775 37.2951 37.2979 1534.57 1534.57 210.205 0.0
2017-10-14T12:30:45Z -46.0552 22.8008 at3901001 1 81.528 23.4968 23.4822 5.4536 5.4515 2.434 97.4389 0.162 0.0922 81.0 1025.8836 1025.8848 37.2982 37.294 1534.58 1534.54 210.908 0.0
2017-10-14T12:30:45Z -46.0552 22.8008 at3901001 1 82.535 23.4044 23.388 5.442 5.4408 2.4298 97.4351 0.1786 0.0887 82.0 1025.906 1025.9144 37.286 37.2906 1534.35 1534.31 210.816 0.0
2017-10-14T12:30:45Z -46.0552 22.8008 at3901001 1 83.542 23.3317 23.3329 5.4337 5.4341 2.4243 97.4359 0.1782 0.0835 83.0 1025.9296 1025.931 37.2831 37.2854 1534.18 1534.19 210.509 0.0
2017-10-14T12:30:45Z -46.0552 22.8008 at3901001 1 84.548 23.2875 23.2893 5.4287 5.4291 2.4194 97.4528 0.1881 0.0824 84.0 1025.9456 1025.9464 37.2813 37.2829 1534.09 1534.09 210.158 0.0
2017-10-14T12:30:45Z -46.0552 22.8008 at3901001 1 85.555 23.2673 23.2687 5.4264 5.4267 2.4173 97.4687 0.1886 0.0836 85.0 1025.9553 1025.9554 37.2805 37.2812 1534.05 1534.05 210.02 0.0
2017-10-14T12:30:45Z -46.0552 22.8008 at3901001 1 86.562 23.2523 23.2538 5.4247 5.425 2.416 97.492 0.2099 0.086 86.0 1025.9636 1025.9636 37.2799 37.2804 1534.03 1534.03 209.961 0.0
2017-10-14T12:30:45Z -46.0552 22.8008 at3901001 1 87.569 23.232 23.2333 5.4224 5.4226 2.4126 97.4826 0.1905 0.0844 87.0 1025.9728 1025.9728 37.2784 37.2789 1533.99 1534.0 209.687 0.0
2017-10-14T12:30:45Z -46.0552 22.8008 at3901001 1 88.575 23.2165 23.2179 5.4206 5.4208 2.4073 97.5045 0.1948 0.0855 88.0 1025.9808 1025.981 37.2772 37.278 1533.97 1533.97 209.195 0.0
2017-10-14T12:30:45Z -46.0552 22.8008 at3901001 1 89.582 23.2031 23.2045 5.4192 5.4194 2.4018 97.5037 0.1847 0.0827 89.0 1025.9891 1025.9889 37.2772 37.2775 1533.95 1533.96 208.659 0.0
2017-10-14T12:30:45Z -46.0552 22.8008 at3901001 1 90.589 23.1891 23.1906 5.4175 5.4178 2.404 97.501 0.1903 0.0819 90.0 1025.9968 1025.9968 37.2762 37.2768 1533.93 1533.94 208.98 0.0
2017-10-14T12:30:45Z -46.0552 22.8008 at3901001 1 91.596 23.1816 23.1833 5.4168 5.417 2.401 97.5181 0.1959 0.0839 91.0 1026.0033 1026.0029 37.2761 37.2763 1533.93 1533.94 208.698 0.0
2017-10-14T12:30:45Z -46.0552 22.8008 at3901001 1 92.602 23.1478 23.1487 5.4125 5.413 2.4026 97.5203 0.2074 0.0884 92.0 1026.014 1026.0162 37.2715 37.2747 1533.86 1533.86 209.031 0.0
2017-10-14T12:30:45Z -46.0552 22.8008 at3901001 1 93.609 23.1065 23.1076 5.4078 5.4082 2.3982 97.54 0.2302 0.0859 93.0 1026.0292 1026.0302 37.2699 37.2716 1533.77 1533.77 208.716 0.0
2017-10-14T12:30:45Z -46.0552 22.8008 at3901001 1 94.616 23.0627 23.0708 5.4025 5.4039 2.3933 97.5479 0.2244 0.0861 94.0 1026.0431 1026.0434 37.2655 37.269 1533.67 1533.7 208.367 0.0
2017-10-14T12:30:45Z -46.0552 22.8008 at3901001 1 95.623 23.0284 23.0289 5.3987 5.3988 2.3888 97.5317 0.2209 0.0825 95.0 1026.0566 1026.0569 37.2643 37.2649 1533.6 1533.6 208.01 0.0
2017-10-14T12:30:45Z -46.0552 22.8008 at3901001 1 96.629 23.0265 23.0279 5.3985 5.3987 2.3884 97.5468 0.1993 0.0829 96.0 1026.0614 1026.0614 37.2642 37.2647 1533.61 1533.61 208.001 0.0
2017-10-14T12:30:45Z -46.0552 22.8008 at3901001 1 97.636 23.0246 23.0339 5.3983 5.3993 2.3868 97.5756 0.2077 0.0897 97.0 1026.066 1026.0634 37.2638 37.2639 1533.62 1533.65 207.862 0.0
2017-10-14T12:30:45Z -46.0552 22.8008 at3901001 1 98.643 23.0195 23.0234 5.3978 5.3983 2.387 97.5608 0.2065 0.0875 98.0 1026.0716 1026.0714 37.2635 37.2648 1533.63 1533.64 207.93 0.0
2017-10-14T12:30:45Z -46.0552 22.8008 at3901001 1 99.65 23.0127 23.0153 5.397 5.3974 2.3876 97.5893 0.194 0.0763 99.0 1026.0776 1026.0773 37.2631 37.2637 1533.63 1533.63 208.042 0.0
2017-10-14T12:30:45Z -46.0552 22.8008 at3901001 1 100.657 23.0126 23.0138 5.397 5.3972 2.3861 97.5938 0.2015 0.0851 100.0 1026.0818 1026.0818 37.2629 37.2634 1533.64 1533.64 207.903 0.0
2017-10-14T12:30:45Z -46.0552 22.8008 at3901001 1 101.664 23.0229 23.0272 5.3982 5.3988 2.3876 97.5669 0.2152 0.0872 101.0 1026.0831 1026.0827 37.2628 37.264 1533.68 1533.7 208.06 0.0
2017-10-14T12:30:45Z -46.0552 22.8008 at3901001 1 102.67 22.9165 22.9494 5.3851 5.389 2.3781 97.5336 0.2303 0.0876 102.0 1026.1094 1026.1016 37.2508 37.2532 1533.42 1533.5 207.423 0.0
2017-10-14T12:30:45Z -46.0552 22.8008 at3901001 1 103.677 22.9089 22.9304 5.3844 5.387 2.3728 97.6503 0.2079 0.0821 103.0 1026.1167 1026.1118 37.2518 37.2536 1533.42 1533.47 206.894 0.0
2017-10-14T12:30:45Z -46.0552 22.8008 at3901001 1 104.684 22.9107 22.9112 5.3847 5.3849 2.3727 97.6291 0.1841 0.0926 104.0 1026.1207 1026.1214 37.252 37.2531 1533.44 1533.44 206.903 0.0
2017-10-14T12:30:45Z -46.0552 22.8008 at3901001 1 105.691 22.9129 22.9135 5.385 5.3852 2.3756 97.6297 0.1907 0.0859 105.0 1026.1245 1026.1253 37.2522 37.2534 1533.46 1533.46 207.24 0.0
2017-10-14T12:30:45Z -46.0552 22.8008 at3901001 1 106.698 22.8836 22.8827 5.3809 5.3815 2.3709 97.6372 0.1785 0.0877 106.0 1026.1321 1026.1362 37.2451 37.2502 1533.4 1533.4 206.851 0.0
2017-10-14T12:30:45Z -46.0552 22.8008 at3901001 1 107.705 22.8202 22.8209 5.3734 5.3739 2.3662 97.6346 0.1991 0.0825 107.0 1026.1506 1026.1529 37.2395 37.2428 1533.25 1533.25 206.593 0.0
2017-10-14T12:30:45Z -46.0552 22.8008 at3901001 1 108.711 22.7925 22.8036 5.3701 5.3715 2.3643 97.6482 0.2084 0.0893 108.0 1026.1615 1026.159 37.2375 37.2385 1533.19 1533.22 206.508 0.0
2017-10-14T12:30:45Z -46.0552 22.8008 at3901001 1 109.718 22.7976 22.7855 5.3708 5.3694 2.3619 97.6586 0.2182 0.0903 109.0 1026.1648 1026.1678 37.2381 37.2374 1533.22 1533.19 206.243 0.0
2017-10-14T12:30:45Z -46.0552 22.8008 at3901001 1 110.725 22.7544 22.7559 5.3653 5.3659 2.3604 97.6383 0.2022 0.0839 110.0 1026.1768 1026.179 37.2316 37.2351 1533.12 1533.13 206.261 0.0
2017-10-14T12:30:45Z -46.0552 22.8008 at3901001 1 111.732 22.7268 22.7279 5.362 5.3625 2.3582 97.6496 0.1725 0.0886 111.0 1026.1872 1026.1888 37.229 37.2315 1533.06 1533.07 206.151 0.0
2017-10-14T12:30:45Z -46.0552 22.8008 at3901001 1 112.739 22.7238 22.722 5.3618 5.3618 2.356 97.6502 0.2194 0.086 112.0 1026.1929 1026.1944 37.2297 37.231 1533.07 1533.07 205.934 0.0
2017-10-14T12:30:45Z -46.0552 22.8008 at3901001 1 113.746 22.6706 22.6628 5.3546 5.3546 2.355 97.6584 0.2159 0.0953 113.0 1026.204 1026.2113 37.2182 37.2249 1532.94 1532.93 206.058 0.0
2017-10-14T12:30:45Z -46.0552 22.8008 at3901001 1 114.753 22.6268 22.6283 5.3497 5.3502 2.3492 97.6594 0.2178 0.0832 114.0 1026.2197 1026.2214 37.2165 37.2193 1532.84 1532.85 205.592 0.0
2017-10-14T12:30:45Z -46.0552 22.8008 at3901001 1 115.76 22.6149 22.6165 5.3483 5.3487 2.3474 97.6528 0.2133 0.0823 115.0 1026.2265 1026.2278 37.2152 37.2175 1532.83 1532.84 205.463 0.0
2017-10-14T12:30:45Z -46.0552 22.8008 at3901001 1 116.766 22.6107 22.6209 5.3479 5.3493 2.3478 97.6675 0.244 0.0888 116.0 1026.2321 1026.2309 37.2153 37.2176 1532.83 1532.86 205.543 0.0
2017-10-14T12:30:45Z -46.0552 22.8008 at3901001 1 117.773 22.5971 22.5958 5.346 5.3462 2.3451 97.6732 0.2526 0.0763 117.0 1026.2379 1026.2405 37.212 37.2149 1532.81 1532.81 205.321 0.0
2017-10-14T12:30:45Z -46.0552 22.8008 at3901001 1 118.78 22.5344 22.5393 5.3378 5.3392 2.3405 97.669 0.2289 0.086 118.0 1026.2515 1026.2553 37.2003 37.2072 1532.66 1532.68 205.067 0.0
2017-10-14T12:30:45Z -46.0552 22.8008 at3901001 1 119.787 22.4885 22.5082 5.3325 5.3347 2.3363 97.6773 0.2704 0.0848 119.0 1026.267 1026.2616 37.1975 37.1979 1532.55 1532.6 204.786 0.0
2017-10-14T12:30:45Z -46.0552 22.8008 at3901001 1 120.794 22.463 22.4646 5.329 5.3297 2.3347 97.7006 0.2314 0.0852 120.0 1026.2745 1026.2771 37.192 37.196 1532.5 1532.51 204.734 0.0
2017-10-14T12:30:45Z -46.0552 22.8008 at3901001 1 121.801 22.4357 22.4373 5.3257 5.3262 2.3306 97.7036 0.243 0.0865 121.0 1026.2845 1026.2858 37.189 37.1914 1532.44 1532.45 204.394 0.0
2017-10-14T12:30:45Z -46.0552 22.8008 at3901001 1 122.808 22.4179 22.4197 5.3234 5.324 2.3275 97.7024 0.2902 0.0824 122.0 1026.2911 1026.2929 37.1853 37.1883 1532.41 1532.42 204.147 0.0
2017-10-14T12:30:45Z -46.0552 22.8008 at3901001 1 123.815 22.3644 22.3689 5.3163 5.3175 2.322 97.6989 0.2987 0.0862 123.0 1026.3028 1026.3058 37.1747 37.1803 1532.27 1532.29 203.752 0.0
2017-10-14T12:30:45Z -46.0552 22.8008 at3901001 1 124.822 22.2887 22.3013 5.3067 5.3084 2.3132 97.702 0.3117 0.0953 124.0 1026.3207 1026.319 37.1639 37.1665 1532.08 1532.12 203.071 0.0
2017-10-14T12:30:45Z -46.0552 22.8008 at3901001 1 125.829 22.232 22.2338 5.2993 5.3002 2.3129 97.7218 0.2551 0.082 125.0 1026.3331 1026.337 37.1531 37.159 1531.94 1531.95 203.283 0.0
2017-10-14T12:30:45Z -46.0552 22.8008 at3901001 1 126.836 22.1923 22.1936 5.2945 5.295 2.3067 97.7253 0.271 0.0768 126.0 1026.3455 1026.3474 37.1487 37.1518 1531.85 1531.86 202.751 0.0
2017-10-14T12:30:45Z -46.0552 22.8008 at3901001 1 127.842 22.1747 22.1763 5.2922 5.2927 2.2979 97.7399 0.334 0.0794 127.0 1026.3523 1026.3541 37.1453 37.1483 1531.82 1531.83 201.85 0.0
2017-10-14T12:30:45Z -46.0552 22.8008 at3901001 1 128.849 22.1304 22.1325 5.2864 5.2871 2.2965 97.7491 0.3171 0.087 128.0 1026.3629 1026.3654 37.1369 37.141 1531.71 1531.72 201.883 0.0
2017-10-14T12:30:45Z -46.0552 22.8008 at3901001 1 129.856 22.0775 22.079 5.2796 5.2802 2.2948 97.7412 0.2758 0.0764 129.0 1026.376 1026.3784 37.1285 37.1322 1531.58 1531.59 201.919 0.0
2017-10-14T12:30:45Z -46.0552 22.8008 at3901001 1 130.863 22.0606 22.068 5.2776 5.2787 2.2949 97.6957 0.2823 0.0781 130.0 1026.3839 1026.3834 37.1269 37.1289 1531.55 1531.57 202.013 0.0
2017-10-14T12:30:45Z -46.0552 22.8008 at3901001 1 131.87 22.0557 22.0555 5.277 5.2773 2.2938 97.7661 0.3155 0.0853 131.0 1026.389 1026.3906 37.126 37.1281 1531.56 1531.56 201.928 0.0
2017-10-14T12:30:45Z -46.0552 22.8008 at3901001 1 132.877 22.0169 22.0193 5.2717 5.2726 2.2925 97.7642 0.2523 0.0849 132.0 1026.3976 1026.4007 37.117 37.122 1531.46 1531.47 201.954 0.0
2017-10-14T12:30:45Z -46.0552 22.8008 at3901001 1 133.884 22.0008 22.0018 5.27 5.2703 2.2916 97.736 0.3168 0.0824 133.0 1026.406 1026.4073 37.1164 37.1184 1531.44 1531.44 201.938 0.0
2017-10-14T12:30:45Z -46.0552 22.8008 at3901001 1 134.891 21.9633 21.9634 5.2649 5.2655 2.2876 97.769 0.2976 0.0824 134.0 1026.4144 1026.4179 37.1077 37.1123 1531.35 1531.35 201.655 0.0
2017-10-14T12:30:45Z -46.0552 22.8008 at3901001 1 135.898 21.9181 21.9211 5.2591 5.2599 2.2846 97.7763 0.3247 0.0853 135.0 1026.426 1026.4279 37.1003 37.104 1531.24 1531.25 201.501 0.0
2017-10-14T12:30:45Z -46.0552 22.8008 at3901001 1 136.905 21.8729 21.875 5.2531 5.2538 2.2792 97.7888 0.3466 0.0815 136.0 1026.4361 1026.4384 37.0909 37.0948 1531.12 1531.13 201.094 0.0
2017-10-14T12:30:45Z -46.0552 22.8008 at3901001 1 137.912 21.7785 21.7796 5.2403 5.2415 2.2717 97.7857 0.2841 0.0859 137.0 1026.4509 1026.4576 37.0696 37.0788 1530.87 1530.88 200.622 0.0
2017-10-14T12:30:45Z -46.0552 22.8008 at3901001 1 138.919 21.6736 21.6751 5.2264 5.2278 2.2611 97.7987 0.2929 0.0821 138.0 1026.4692 1026.4763 37.0489 37.0588 1530.59 1530.6 199.831 0.0
2017-10-14T12:30:45Z -46.0552 22.8008 at3901001 1 139.926 21.5682 21.5699 5.2135 5.2144 2.2524 97.7979 0.2688 0.0821 139.0 1026.4936 1026.4971 37.0362 37.0415 1530.31 1530.32 199.249 0.0
2017-10-14T12:30:45Z -46.0552 22.8008 at3901001 1 140.933 21.5537 21.5859 5.2116 5.216 2.2513 97.7734 0.2786 0.088 140.0 1026.4996 1026.496 37.033 37.0402 1530.29 1530.38 199.199 0.0
2017-10-14T12:30:45Z -46.0552 22.8008 at3901001 1 141.94 21.4379 21.4375 5.1967 5.1974 2.2421 97.7574 0.3026 0.0757 141.0 1026.5215 1026.5261 37.0133 37.0192 1529.98 1529.98 198.609 0.0
2017-10-14T12:30:45Z -46.0552 22.8008 at3901001 1 142.947 21.3851 21.3864 5.1901 5.1909 2.2375 97.7841 0.2748 0.0837 142.0 1026.5345 1026.5382 37.0053 37.0106 1529.85 1529.86 198.294 0.0
2017-10-14T12:30:45Z -46.0552 22.8008 at3901001 1 143.954 21.3214 21.3276 5.1822 5.1834 2.2335 97.7884 0.296 0.0877 143.0 1026.5501 1026.5517 36.9967 37.001 1529.68 1529.71 198.101 0.0
2017-10-14T12:30:45Z -46.0552 22.8008 at3901001 1 144.961 21.251 21.2525 5.1735 5.174 2.2259 97.7833 0.3147 0.085 144.0 1026.5663 1026.5683 36.9865 36.9896 1529.5 1529.51 197.514 0.0
2017-10-14T12:30:45Z -46.0552 22.8008 at3901001 1 145.968 21.2288 21.2303 5.1707 5.1712 2.2244 97.7885 0.2882 0.0843 145.0 1026.5744 1026.5762 36.9832 36.9861 1529.46 1529.46 197.44 0.0
2017-10-14T12:30:45Z -46.0552 22.8008 at3901001 1 146.975 21.2105 21.2129 5.1683 5.169 2.2201 97.778 0.3236 0.0883 146.0 1026.5811 1026.5829 36.9796 36.9829 1529.42 1529.43 197.038 0.0
2017-10-14T12:30:45Z -46.0552 22.8008 at3901001 1 147.982 21.194 21.195 5.1663 5.1667 2.2179 97.7873 0.2858 0.0802 147.0 1026.5879 1026.5894 36.9768 36.9791 1529.39 1529.39 196.88 0.0
2017-10-14T12:30:45Z -46.0552 22.8008 at3901001 1 148.989 21.1903 21.1914 5.1659 5.1663 2.218 97.7932 0.2786 0.0844 148.0 1026.593 1026.5944 36.9764 36.9786 1529.4 1529.4 196.927 0.0
2017-10-14T12:30:45Z -46.0552 22.8008 at3901001 1 149.996 21.1846 21.1881 5.1652 5.1659 2.2156 97.7887 0.3491 0.0816 149.0 1026.5987 1026.5992 36.976 36.978 1529.4 1529.41 196.691 0.0
2017-10-14T12:30:45Z -46.0552 22.8008 at3901001 1 151.003 21.1763 21.1749 5.164 5.1643 2.212 97.7912 0.312 0.0929 150.0 1026.6031 1026.6057 36.9731 36.9761 1529.39 1529.39 196.342 0.0
2017-10-14T12:30:45Z -46.0552 22.8008 at3901001 1 152.01 21.1557 21.1567 5.1613 5.1619 2.2113 97.7917 0.2432 0.0849 151.0 1026.6098 1026.6123 36.9687 36.9723 1529.35 1529.35 196.362 0.0
2017-10-14T12:30:45Z -46.0552 22.8008 at3901001 1 153.018 21.1331 21.1342 5.1583 5.1589 2.2094 97.8053 0.2325 0.0872 152.0 1026.6164 1026.6194 36.9634 36.9676 1529.3 1529.3 196.248 0.0
2017-10-14T12:30:45Z -46.0552 22.8008 at3901001 1 154.025 21.1157 21.1179 5.1563 5.1568 2.2101 97.7446 0.2653 0.0844 153.0 1026.6242 1026.6257 36.9616 36.9643 1529.26 1529.27 196.417 0.0
2017-10-14T12:30:45Z -46.0552 22.8008 at3901001 1 155.032 21.1263 21.1311 5.1577 5.1586 2.2112 97.8284 0.2985 0.0864 154.0 1026.6272 1026.6285 36.9636 36.9671 1529.31 1529.33 196.527 0.0
2017-10-14T12:30:45Z -46.0552 22.8008 at3901001 1 156.039 21.0807 21.0736 5.1518 5.1512 2.2052 97.8131 0.2679 0.0825 155.0 1026.6375 1026.6407 36.9548 36.9563 1529.2 1529.18 196.031 0.0
2017-10-14T12:30:45Z -46.0552 22.8008 at3901001 1 157.046 21.0525 21.0538 5.148 5.1487 2.202 97.8256 0.2251 0.087 156.0 1026.6451 1026.6479 36.9487 36.9529 1529.13 1529.14 195.787 0.0
2017-10-14T12:30:45Z -46.0552 22.8008 at3901001 1 158.053 21.04 21.0446 5.1467 5.1475 2.2013 97.8225 0.2596 0.0828 157.0 1026.6529 1026.6536 36.9487 36.9513 1529.12 1529.13 195.781 0.0
2017-10-14T12:30:45Z -46.0552 22.8008 at3901001 1 159.06 21.0388 21.0402 5.1465 5.1471 2.2038 97.8417 0.2566 0.0829 158.0 1026.657 1026.6589 36.9479 36.9509 1529.13 1529.14 196.09 0.0
2017-10-14T12:30:45Z -46.0552 22.8008 at3901001 1 160.067 20.9847 20.9861 5.1395 5.1402 2.1987 97.8333 0.2371 0.081 159.0 1026.6681 1026.6713 36.9372 36.9419 1528.99 1529.0 195.728 0.0
2017-10-14T12:30:45Z -46.0552 22.8008 at3901001 1 161.074 20.9368 20.9401 5.1335 5.1342 2.1943 97.8626 0.2934 0.0816 160.0 1026.6803 1026.6817 36.9301 36.933 1528.87 1528.88 195.42 0.0
2017-10-14T12:30:45Z -46.0552 22.8008 at3901001 1 162.081 20.9182 20.9201 5.1313 5.1318 2.1905 97.8099 0.3019 0.087 161.0 1026.6882 1026.6897 36.9279 36.9306 1528.83 1528.84 195.071 0.0
2017-10-14T12:30:45Z -46.0552 22.8008 at3901001 1 163.088 20.8912 20.894 5.1278 5.1286 2.1876 97.8512 0.2093 0.0879 162.0 1026.696 1026.6984 36.9226 36.9269 1528.77 1528.78 194.856 0.0
2017-10-14T12:30:45Z -46.0552 22.8008 at3901001 1 164.096 20.8759 20.8802 5.1261 5.1269 2.1861 97.7806 0.2629 0.085 163.0 1026.7038 1026.7045 36.9217 36.9241 1528.75 1528.76 194.764 0.0
2017-10-14T12:30:45Z -46.0552 22.8008 at3901001 1 165.103 20.8386 20.8395 5.1211 5.1217 2.1769 97.8855 0.2514 0.0826 164.0 1026.7121 1026.7147 36.9133 36.9171 1528.65 1528.66 193.869 0.0
2017-10-14T12:30:45Z -46.0552 22.8008 at3901001 1 166.11 20.7634 20.7664 5.1113 5.1124 2.1668 97.8824 0.2068 0.0827 165.0 1026.726 1026.73 36.8986 36.9051 1528.45 1528.47 192.997 0.0
2017-10-14T12:30:45Z -46.0552 22.8008 at3901001 1 167.117 20.662 20.6632 5.0989 5.0997 2.1606 97.8987 0.18 0.0915 166.0 1026.7481 1026.7516 36.8853 36.8905 1528.18 1528.19 192.663 0.0
2017-10-14T12:30:45Z -46.0552 22.8008 at3901001 1 168.124 20.6411 20.642 5.0963 5.0968 2.1572 97.9012 0.1701 0.0837 167.0 1026.7556 1026.7578 36.882 36.8852 1528.13 1528.14 192.369 0.0
2017-10-14T12:30:45Z -46.0552 22.8008 at3901001 1 169.131 20.6259 20.6429 5.0945 5.0967 2.1557 97.9179 0.2025 0.0834 168.0 1026.7624 1026.7604 36.8798 36.8832 1528.11 1528.16 192.271 0.0
2017-10-14T12:30:45Z -46.0552 22.8008 at3901001 1 170.138 20.5724 20.5736 5.0874 5.0881 2.1478 97.9262 0.2122 0.0805 169.0 1026.7724 1026.776 36.8679 36.8731 1527.97 1527.98 191.57 0.0
2017-10-14T12:30:45Z -46.0552 22.8008 at3901001 1 171.146 20.5357 20.5367 5.0827 5.0834 2.1435 97.9254 0.1408 0.0763 170.0 1026.7817 1026.7853 36.8612 36.8664 1527.88 1527.88 191.225 0.0
2017-10-14T12:30:45Z -46.0552 22.8008 at3901001 1 172.153 20.4765 20.4854 5.0749 5.0766 2.1378 97.9261 0.1419 0.0896 171.0 1026.7927 1026.795 36.8488 36.855 1527.72 1527.75 190.799 0.0
2017-10-14T12:30:45Z -46.0552 22.8008 at3901001 1 173.16 20.4819 20.4811 5.0762 5.0761 2.1329 97.9079 0.1895 0.0824 172.0 1026.7997 1026.8002 36.8541 36.8546 1527.76 1527.75 190.227 0.0
2017-10-14T12:30:45Z -46.0552 22.8008 at3901001 1 174.167 20.3559 20.3562 5.0592 5.0607 2.1246 97.9431 0.1553 0.084 173.0 1026.8157 1026.8249 36.8244 36.8367 1527.4 1527.41 189.749 0.0
2017-10-14T12:30:45Z -46.0552 22.8008 at3901001 1 175.174 20.2499 20.2507 5.0468 5.0473 2.1179 97.9518 0.159 0.0869 174.0 1026.8418 1026.8442 36.8152 36.8187 1527.11 1527.12 189.355 0.0
2017-10-14T12:30:45Z -46.0552 22.8008 at3901001 1 176.181 20.2208 20.2215 5.0432 5.0436 2.1141 97.9575 0.167 0.0772 175.0 1026.8504 1026.8527 36.8104 36.8137 1527.04 1527.05 189.04 0.0
2017-10-14T12:30:45Z -46.0552 22.8008 at3901001 1 177.189 20.189 20.1914 5.0393 5.0401 2.1089 97.9739 0.1538 0.0744 176.0 1026.8601 1026.8623 36.8062 36.81 1526.97 1526.98 188.56 0.0
2017-10-14T12:30:45Z -46.0552 22.8008 at3901001 1 178.196 20.1468 20.1478 5.0341 5.0347 2.1066 97.9888 0.1383 0.0764 177.0 1026.8711 1026.8735 36.7999 36.8034 1526.86 1526.87 188.464 0.0
2017-10-14T12:30:45Z -46.0552 22.8008 at3901001 1 179.203 20.1305 20.1314 5.0321 5.0326 2.1035 97.9859 0.1397 0.0868 178.0 1026.8779 1026.8802 36.7974 36.8006 1526.83 1526.84 188.181 0.0
2017-10-14T12:30:45Z -46.0552 22.8008 at3901001 1 180.21 20.0885 20.09 5.0266 5.0275 2.0963 98.0 0.1448 0.0767 179.0 1026.8865 1026.8908 36.7881 36.7942 1526.72 1526.73 187.522 0.0
2017-10-14T12:30:45Z -46.0552 22.8008 at3901001 1 181.217 19.9992 20.0129 5.0156 5.0179 2.0919 97.9957 0.1097 0.0844 180.0 1026.9049 1026.9065 36.7749 36.7819 1526.48 1526.53 187.342 0.0
2017-10-14T12:30:45Z -46.0552 22.8008 at3901001 1 182.225 19.9605 19.9863 5.011 5.0145 2.0815 97.9938 0.1611 0.0853 181.0 1026.9166 1026.9141 36.7709 36.7768 1526.39 1526.46 186.267 0.0
2017-10-14T12:30:45Z -46.0552 22.8008 at3901001 1 183.232 19.9229 19.9232 5.0061 5.0066 2.0777 98.0109 0.0963 0.0823 182.0 1026.925 1026.9279 36.7631 36.7669 1526.29 1526.29 185.982 0.0
2017-10-14T12:30:45Z -46.0552 22.8008 at3901001 1 184.239 19.8874 19.8886 5.0012 5.0023 2.0764 98.0247 0.101 0.0822 183.0 1026.9313 1026.9368 36.7531 36.7607 1526.2 1526.21 185.98 0.0
2017-10-14T12:30:45Z -46.0552 22.8008 at3901001 1 185.246 19.8058 19.809 4.9915 4.9922 2.0737 98.0025 0.1119 0.0824 184.0 1026.9507 1026.9517 36.7441 36.7466 1525.98 1525.99 185.963 0.0
2017-10-14T12:30:45Z -46.0552 22.8008 at3901001 1 186.253 19.8234 19.8005 4.9935 4.9914 2.0713 98.0406 0.115 0.0802 185.0 1026.951 1026.9586 36.7449 36.7469 1526.04 1525.98 185.646 0.0
2017-10-14T12:30:45Z -46.0552 22.8008 at3901001 1 187.261 19.786 19.7868 4.9899 4.9904 2.0665 98.0386 0.1083 0.0824 186.0 1026.9668 1026.9695 36.7469 36.7507 1525.96 1525.97 185.231 0.0
2017-10-14T12:30:45Z -46.0552 22.8008 at3901001 1 188.268 19.7606 19.7607 4.9867 4.9871 2.0649 98.0479 0.1033 0.0824 187.0 1026.9748 1026.9771 36.7428 36.7458 1525.9 1525.9 185.152 0.0
2017-10-14T12:30:45Z -46.0552 22.8008 at3901001 1 189.275 19.7537 19.755 4.9859 4.9864 2.0648 98.0332 0.0744 0.0768 188.0 1026.9804 1026.9823 36.7419 36.7448 1525.9 1525.91 185.189 0.0
2017-10-14T12:30:45Z -46.0552 22.8008 at3901001 1 190.282 19.757 19.7562 4.9865 4.9866 2.0667 98.0483 0.094 0.0779 189.0 1026.9846 1026.9862 36.7428 36.7447 1525.93 1525.92 185.418 0.0
2017-10-14T12:30:45Z -46.0552 22.8008 at3901001 1 191.29 19.6886 19.6932 4.9774 4.9791 2.0618 98.0531 0.0678 0.0823 190.0 1026.9955 1027.0018 36.7275 36.7374 1525.73 1525.76 185.111 0.0
2017-10-14T12:30:45Z -46.0552 22.8008 at3901001 1 192.297 19.6353 19.6364 4.9712 4.9722 2.0584 98.0439 0.0677 0.0878 191.0 1027.0102 1027.0152 36.7225 36.7295 1525.6 1525.61 184.908 0.0
2017-10-14T12:30:45Z -46.0552 22.8008 at3901001 1 193.304 19.5911 19.592 4.966 4.9666 2.0556 98.0628 0.0795 0.077 192.0 1027.0224 1027.0253 36.7173 36.7214 1525.49 1525.49 184.75 0.0
2017-10-14T12:30:45Z -46.0552 22.8008 at3901001 1 194.311 19.5689 19.5706 4.9632 4.9637 2.0542 98.0606 0.1027 0.0735 193.0 1027.0299 1027.0314 36.7137 36.7163 1525.44 1525.44 184.696 0.0
2017-10-14T12:30:45Z -46.0552 22.8008 at3901001 1 195.319 19.542 19.545 4.96 4.9608 2.0492 98.0705 0.0937 0.0761 194.0 1027.0387 1027.0406 36.7102 36.7137 1525.37 1525.39 184.211 0.0
2017-10-14T12:30:45Z -46.0552 22.8008 at3901001 1 196.326 19.5257 19.5413 4.958 4.9603 2.0502 98.07 0.0855 0.0871 195.0 1027.0453 1027.0455 36.7074 36.7131 1525.34 1525.39 184.407 0.0
2017-10-14T12:30:45Z -46.0552 22.8008 at3901001 1 197.333 19.4873 19.4883 4.9535 4.9538 2.0483 98.0536 0.056 0.074 196.0 1027.0563 1027.0577 36.7028 36.705 1525.25 1525.25 184.345 0.0
2017-10-14T12:30:45Z -46.0552 22.8008 at3901001 1 198.341 19.4933 19.4935 4.9549 4.9549 2.0461 98.0091 0.0404 0.0802 197.0 1027.064 1027.0639 36.7092 36.7091 1525.29 1525.29 184.075 0.0
2017-10-14T12:30:45Z -46.0552 22.8008 at3901001 1 199.348 19.5089 19.509 4.9579 4.9581 2.0425 98.0715 0.0335 0.07 198.0 1027.0727 1027.0734 36.7203 36.7213 1525.36 1525.36 183.605 0.0
2017-10-14T12:30:45Z -46.0552 22.8008 at3901001 1 200.355 19.512 19.5094 4.9581 4.9579 2.04 98.0759 0.0719 0.0814 199.0 1027.075 1027.0762 36.7187 36.7193 1525.38 1525.38 183.326 0.0
2017-10-14T12:30:45Z -46.0552 22.8008 at3901001 1 201.362 19.5157 19.5164 4.9599 4.9602 2.0336 98.0889 0.0596 0.077 200.0 1027.0868 1027.0882 36.7297 36.7318 1525.42 1525.43 182.556 0.0
2017-10-14T12:30:45Z -46.0552 22.8008 at3901001 1 202.37 19.493 19.4946 4.9574 4.9584 2.0272 98.088 0.0302 0.0763 201.0 1027.0966 1027.1012 36.7288 36.7354 1525.38 1525.39 181.893 0.0
2017-10-14T12:30:45Z -46.0552 22.8008 at3901001 1 203.377 19.427 19.4281 4.9493 4.9501 2.0226 98.0956 0.0304 0.0791 202.0 1027.1105 1027.115 36.7185 36.7247 1525.2 1525.21 181.591 0.0
2017-10-14T12:30:45Z -46.0552 22.8008 at3901001 1 204.385 19.3985 19.3975 4.9457 4.9458 2.0246 98.1014 0.0323 0.0806 203.0 1027.1183 1027.1202 36.7132 36.7153 1525.13 1525.13 181.952 0.0
2017-10-14T12:30:45Z -46.0552 22.8008 at3901001 1 205.392 19.3706 19.3778 4.9417 4.9433 2.0211 98.0416 0.0327 0.0754 204.0 1027.1235 1027.1271 36.7046 36.7117 1525.06 1525.08 181.665 0.0
2017-10-14T12:30:45Z -46.0552 22.8008 at3901001 1 206.399 19.3474 19.3482 4.9396 4.9398 2.0219 98.112 0.0246 0.0808 205.0 1027.1355 1027.1363 36.7066 36.7078 1525.01 1525.01 181.859 0.0
2017-10-14T12:30:45Z -46.0552 22.8008 at3901001 1 207.406 19.3473 19.3484 4.9395 4.94 2.0225 98.1115 0.0344 0.0824 206.0 1027.1394 1027.1415 36.7059 36.709 1525.03 1525.03 181.955 0.0
2017-10-14T12:30:45Z -46.0552 22.8008 at3901001 1 208.414 19.3217 19.3229 4.9359 4.9366 2.0216 98.1071 0.0114 0.0776 207.0 1027.1441 1027.1474 36.6975 36.7023 1524.96 1524.97 181.956 0.0
2017-10-14T12:30:45Z -46.0552 22.8008 at3901001 1 209.421 19.2569 19.2571 4.9272 4.9278 2.0222 98.1076 0.0587 0.0777 208.0 1027.1532 1027.1571 36.6814 36.6865 1524.78 1524.78 182.288 0.0
2017-10-14T12:30:45Z -46.0552 22.8008 at3901001 1 210.428 19.2016 19.2023 4.9202 4.9208 2.0233 98.1104 0.0287 0.0752 209.0 1027.1647 1027.1676 36.6717 36.6757 1524.63 1524.63 182.639 0.0
2017-10-14T12:30:45Z -46.0552 22.8008 at3901001 1 211.436 19.1598 19.1614 4.9153 4.9161 2.0186 98.1315 0.016 0.0728 210.0 1027.1761 1027.1797 36.6665 36.6718 1524.52 1524.53 182.236 0.0
2017-10-14T12:30:45Z -46.0552 22.8008 at3901001 1 212.443 19.1286 19.1289 4.9121 4.9125 2.0146 98.133 0.0187 0.0758 211.0 1027.1893 1027.1917 36.6674 36.6706 1524.45 1524.45 181.882 0.0
2017-10-14T12:30:45Z -46.0552 22.8008 at3901001 1 213.45 19.1185 19.1191 4.9112 4.9116 2.0123 98.1021 -0.0028 0.0794 212.0 1027.1969 1027.1988 36.6681 36.6708 1524.44 1524.44 181.659 0.0
2017-10-14T12:30:45Z -46.0552 22.8008 at3901001 1 214.458 19.1174 19.1182 4.9114 4.9118 2.0101 98.1332 0.0161 0.0823 213.0 1027.2036 1027.2053 36.6708 36.6733 1524.46 1524.46 181.422 0.0
2017-10-14T12:30:45Z -46.0552 22.8008 at3901001 1 215.465 19.1091 19.1082 4.9105 4.9107 2.0071 98.1382 0.0078 0.0797 214.0 1027.2093 1027.2113 36.6696 36.672 1524.45 1524.45 181.115 0.0
2017-10-14T12:30:45Z -46.0552 22.8008 at3901001 1 216.473 19.0925 19.0936 4.9103 4.9108 1.995 98.1377 0.017 0.0792 215.0 1027.2279 1027.23 36.6826 36.6857 1524.43 1524.44 179.719 0.0
2017-10-14T12:30:45Z -46.0552 22.8008 at3901001 1 217.48 19.068 19.0686 4.9083 4.9088 1.9833 98.1448 -6.0E-4 0.0839 216.0 1027.242 1027.2443 36.6869 36.6902 1524.39 1524.39 178.415 0.0
2017-10-14T12:30:45Z -46.0552 22.8008 at3901001 1 218.487 19.0414 19.0431 4.9046 4.9053 1.9793 98.1457 -0.0123 0.0773 217.0 1027.2474 1027.2504 36.6791 36.6837 1524.32 1524.33 178.05 0.0
2017-10-14T12:30:45Z -46.0552 22.8008 at3901001 1 219.495 19.0177 19.0192 4.9016 4.9022 1.9808 98.1589 -0.0217 0.0822 218.0 1027.2545 1027.2569 36.6747 36.6782 1524.26 1524.27 178.34 0.0
2017-10-14T12:30:45Z -46.0552 22.8008 at3901001 1 220.502 18.9959 18.9967 4.8987 4.8993 1.9833 98.1657 -0.0068 0.0712 219.0 1027.2603 1027.2631 36.6691 36.673 1524.21 1524.22 178.737 0.0
2017-10-14T12:30:45Z -46.0552 22.8008 at3901001 1 221.51 18.9775 18.9793 4.8964 4.897 1.9844 98.1597 0.0076 0.0766 220.0 1027.2665 1027.2691 36.6652 36.6691 1524.17 1524.18 178.958 0.0
2017-10-14T12:30:45Z -46.0552 22.8008 at3901001 1 222.517 18.9465 18.9427 4.8918 4.8922 1.9808 98.1567 0.0034 0.0733 221.0 1027.2704 1027.2762 36.6539 36.6602 1524.09 1524.08 178.652 0.0
2017-10-14T12:30:45Z -46.0552 22.8008 at3901001 1 223.524 18.8839 18.885 4.8843 4.8848 1.9843 98.1539 -0.0161 0.0799 222.0 1027.2844 1027.2865 36.6452 36.6483 1523.92 1523.93 179.317 0.0
2017-10-14T12:30:45Z -46.0552 22.8008 at3901001 1 224.532 18.8778 18.8789 4.8834 4.8839 1.9861 98.1646 -0.0311 0.0739 223.0 1027.2888 1027.2911 36.6432 36.6466 1523.91 1523.92 179.58 0.0
2017-10-14T12:30:45Z -46.0552 22.8008 at3901001 1 225.539 18.8713 18.8688 4.8827 4.8827 1.9884 98.1593 -0.0258 0.0726 224.0 1027.2942 1027.2968 36.6422 36.6448 1523.91 1523.91 179.902 0.0
2017-10-14T12:30:45Z -46.0552 22.8008 at3901001 1 226.547 18.8679 18.8682 4.8825 4.8829 1.9874 98.1591 0.0102 0.0794 225.0 1027.3001 1027.3023 36.6431 36.6461 1523.92 1523.93 179.813 0.0
2017-10-14T12:30:45Z -46.0552 22.8008 at3901001 1 227.554 18.8638 18.8643 4.8821 4.8825 1.9879 98.1637 -0.0145 0.0836 226.0 1027.3054 1027.3074 36.6429 36.6457 1523.92 1523.93 179.904 0.0
2017-10-14T12:30:45Z -46.0552 22.8008 at3901001 1 228.561 18.847 18.8465 4.8801 4.8804 1.9883 98.1674 0.0 0.0785 227.0 1027.3122 1027.3147 36.6404 36.6435 1523.89 1523.89 180.036 0.0
2017-10-14T12:30:45Z -46.0552 22.8008 at3901001 1 229.569 18.8431 18.8431 4.8799 4.8802 1.9882 98.1712 -0.0143 0.0783 228.0 1027.3188 1027.3211 36.642 36.6449 1523.9 1523.9 180.058 0.0
2017-10-14T12:30:45Z -46.0552 22.8008 at3901001 1 230.576 18.8193 18.8202 4.8767 4.8774 1.9846 98.1718 -0.0202 0.071 229.0 1027.3249 1027.3283 36.6361 36.6409 1523.84 1523.85 179.732 0.0
2017-10-14T12:30:45Z -46.0552 22.8008 at3901001 1 231.584 18.8044 18.8051 4.8751 4.8756 1.9827 98.1709 -0.0392 0.0818 230.0 1027.3327 1027.335 36.6355 36.6388 1523.81 1523.82 179.57 0.0
2017-10-14T12:30:45Z -46.0552 22.8008 at3901001 1 232.591 18.7956 18.7966 4.8739 4.8745 1.9818 98.1617 -0.0488 0.078 231.0 1027.3371 1027.34 36.6325 36.6367 1523.8 1523.81 179.523 0.0
2017-10-14T12:30:45Z -46.0552 22.8008 at3901001 1 233.599 18.763 18.7634 4.8695 4.8702 1.9847 98.1688 -0.0359 0.0802 232.0 1027.3435 1027.3474 36.6242 36.6294 1523.72 1523.72 180.008 0.0
2017-10-14T12:30:45Z -46.0552 22.8008 at3901001 1 234.606 18.7707 18.7554 4.8708 4.8692 1.9875 98.1685 0.0115 0.0715 233.0 1027.3487 1027.3526 36.6278 36.6277 1523.76 1523.72 180.337 0.0
2017-10-14T12:30:45Z -46.0552 22.8008 at3901001 1 235.614 18.7322 18.7337 4.8665 4.8671 1.9802 98.1688 -0.0061 0.0747 234.0 1027.361 1027.3634 36.6251 36.6288 1523.66 1523.67 179.608 0.0
2017-10-14T12:30:45Z -46.0552 22.8008 at3901001 1 236.621 18.721 18.7217 4.8674 4.8675 1.9734 98.176 -0.0217 0.0763 235.0 1027.3811 1027.3815 36.6419 36.6426 1523.67 1523.67 178.825 0.0
2017-10-14T12:30:45Z -46.0552 22.8008 at3901001 1 237.628 18.7243 18.7248 4.8682 4.8685 1.9672 98.1862 -0.0256 0.0798 236.0 1027.3874 1027.3889 36.6456 36.6476 1523.7 1523.7 178.081 0.0
2017-10-14T12:30:45Z -46.0552 22.8008 at3901001 1 238.636 18.7329 18.7334 4.87 4.8702 1.9605 98.1851 -0.0258 0.0766 237.0 1027.3953 1027.3959 36.653 36.6541 1523.75 1523.75 177.254 0.0
2017-10-14T12:30:45Z -46.0552 22.8008 at3901001 1 239.644 18.7337 18.7344 4.8707 4.8712 1.9518 98.1926 -0.0169 0.0784 238.0 1027.4031 1027.4054 36.6578 36.661 1523.77 1523.78 176.212 0.0
2017-10-14T12:30:45Z -46.0552 22.8008 at3901001 1 240.651 18.7218 18.7227 4.8692 4.8697 1.9473 98.1998 -0.0408 0.0762 239.0 1027.4087 1027.411 36.6553 36.6587 1523.75 1523.76 175.727 0.0
2017-10-14T12:30:45Z -46.0552 22.8008 at3901001 1 241.658 18.7108 18.7114 4.8678 4.8683 1.9453 98.2054 -0.039 0.0763 240.0 1027.4136 1027.4164 36.6523 36.6562 1523.73 1523.74 175.547 0.0
2017-10-14T12:30:45Z -46.0552 22.8008 at3901001 1 242.666 18.6998 18.701 4.8666 4.8671 1.9451 98.2011 -0.014 0.0759 241.0 1027.4207 1027.4226 36.6521 36.655 1523.72 1523.73 175.578 0.0
2017-10-14T12:30:45Z -46.0552 22.8008 at3901001 1 243.674 18.6968 18.6975 4.8663 4.8667 1.9441 98.202 -0.0333 0.0763 242.0 1027.4257 1027.4277 36.6519 36.6547 1523.73 1523.73 175.487 0.0
2017-10-14T12:30:45Z -46.0552 22.8008 at3901001 1 244.681 18.6841 18.6841 4.8647 4.8651 1.9439 98.2024 -0.0438 0.0743 243.0 1027.4308 1027.434 36.6486 36.6528 1523.7 1523.71 175.531 0.0
2017-10-14T12:30:45Z -46.0552 22.8008 at3901001 1 245.689 18.6689 18.6686 4.8628 4.8632 1.9444 98.2107 -0.0405 0.078 244.0 1027.4374 1027.4399 36.6462 36.6494 1523.67 1523.68 175.666 0.0
2017-10-14T12:30:45Z -46.0552 22.8008 at3901001 1 246.696 18.649 18.6487 4.86 4.8605 1.9431 98.2081 -0.0387 0.0827 245.0 1027.4419 1027.4454 36.6397 36.6442 1523.63 1523.63 175.606 0.0
2017-10-14T12:30:45Z -46.0552 22.8008 at3901001 1 247.704 18.6221 18.6229 4.8566 4.8572 1.9442 98.2187 -0.0528 0.0824 246.0 1027.4487 1027.452 36.6339 36.6384 1523.56 1523.57 175.844 0.0
2017-10-14T12:30:45Z -46.0552 22.8008 at3901001 1 248.711 18.5994 18.6011 4.8537 4.8544 1.9453 98.2128 -0.0532 0.0795 247.0 1027.4552 1027.4587 36.629 36.6341 1523.51 1523.52 176.082 0.0
2017-10-14T12:30:45Z -46.0552 22.8008 at3901001 1 249.719 18.5762 18.5782 4.8504 4.8515 1.9465 98.1982 -0.0392 0.0704 248.0 1027.4599 1027.4652 36.6215 36.6291 1523.45 1523.46 176.339 0.0
2017-10-14T12:30:45Z -46.0552 22.8008 at3901001 1 250.726 18.5235 18.5231 4.8433 4.8445 1.9476 98.2057 -0.0551 0.0753 249.0 1027.4673 1027.4753 36.6078 36.618 1523.3 1523.31 176.685 0.0
2017-10-14T12:30:45Z -46.0552 22.8008 at3901001 1 251.734 18.4648 18.4652 4.8364 4.8371 1.9498 98.2077 -0.0448 0.0839 250.0 1027.4818 1027.4858 36.6012 36.6066 1523.14 1523.15 177.169 0.0
2017-10-14T12:30:45Z -46.0552 22.8008 at3901001 1 252.741 18.4467 18.4484 4.8344 4.835 1.9524 98.2065 -0.0314 0.0811 251.0 1027.4898 1027.4918 36.5998 36.6031 1523.1 1523.11 177.57 0.0
2017-10-14T12:30:45Z -46.0552 22.8008 at3901001 1 253.749 18.4447 18.4449 4.8342 4.8346 1.955 98.2099 -0.0264 0.0835 252.0 1027.4946 1027.4966 36.5998 36.6025 1523.11 1523.12 177.922 0.0
2017-10-14T12:30:45Z -46.0552 22.8008 at3901001 1 254.756 18.4403 18.4407 4.8337 4.8341 1.957 98.1786 -0.0163 0.075 253.0 1027.4992 1027.5015 36.5985 36.6017 1523.12 1523.12 178.198 0.0
2017-10-14T12:30:45Z -46.0552 22.8008 at3901001 1 255.764 18.4234 18.4247 4.8314 4.8321 1.9568 98.2132 -0.0347 0.0759 254.0 1027.5044 1027.5079 36.594 36.599 1523.08 1523.09 178.254 0.0
2017-10-14T12:30:45Z -46.0552 22.8008 at3901001 1 256.771 18.3817 18.3822 4.8264 4.827 1.9547 98.2088 -0.0436 0.0787 255.0 1027.5149 1027.5183 36.588 36.5926 1522.97 1522.97 178.17 0.0
2017-10-14T12:30:45Z -46.0552 22.8008 at3901001 1 257.779 18.3681 18.3687 4.825 4.8254 1.9547 98.211 -0.0785 0.0804 256.0 1027.5226 1027.5247 36.5878 36.5907 1522.95 1522.95 178.23 0.0
2017-10-14T12:30:45Z -46.0552 22.8008 at3901001 1 258.787 18.3656 18.3659 4.8248 4.8252 1.9538 98.2139 -0.0696 0.0757 257.0 1027.5277 1027.5297 36.5879 36.5906 1522.95 1522.96 178.15 0.0
2017-10-14T12:30:45Z -46.0552 22.8008 at3901001 1 259.794 18.3643 18.3639 4.8247 4.825 1.9532 98.2027 -0.0526 0.0699 258.0 1027.5322 1027.5344 36.5876 36.5903 1522.97 1522.97 178.108 0.0
2017-10-14T12:30:45Z -46.0552 22.8008 at3901001 1 260.802 18.3627 18.3626 4.8245 4.8249 1.9535 98.2196 -0.048 0.0702 259.0 1027.5369 1027.539 36.5874 36.5902 1522.98 1522.98 178.171 0.0
2017-10-14T12:30:45Z -46.0552 22.8008 at3901001 1 261.81 18.3619 18.3622 4.8245 4.8249 1.954 98.2209 -0.0397 0.0702 260.0 1027.5415 1027.5434 36.5874 36.5901 1522.99 1523.0 178.263 0.0
2017-10-14T12:30:45Z -46.0552 22.8008 at3901001 1 262.817 18.3613 18.3615 4.8245 4.8248 1.9552 98.2174 -0.0443 0.076 261.0 1027.5458 1027.5479 36.5872 36.59 1523.01 1523.01 178.434 0.0
2017-10-14T12:30:45Z -46.0552 22.8008 at3901001 1 263.825 18.3406 18.3394 4.8217 4.8222 1.9539 98.2111 -0.0463 0.0773 262.0 1027.5515 1027.5556 36.5819 36.587 1522.96 1522.96 178.367 0.0
2017-10-14T12:30:45Z -46.0552 22.8008 at3901001 1 264.832 18.3264 18.3268 4.8203 4.8207 1.9525 98.2244 -0.0449 0.0697 263.0 1027.5598 1027.5617 36.5823 36.585 1522.94 1522.94 178.26 0.0
2017-10-14T12:30:45Z -46.0552 22.8008 at3901001 1 265.84 18.3234 18.3242 4.82 4.8204 1.9525 98.2195 -0.0588 0.0698 264.0 1027.5645 1027.5666 36.5817 36.5847 1522.94 1522.95 178.296 0.0
2017-10-14T12:30:45Z -46.0552 22.8008 at3901001 1 266.848 18.3162 18.3168 4.8192 4.8196 1.9513 98.2214 -0.0436 0.0702 265.0 1027.5699 1027.5724 36.5806 36.5841 1522.94 1522.94 178.194 0.0
2017-10-14T12:30:45Z -46.0552 22.8008 at3901001 1 267.855 18.313 18.3134 4.8191 4.8194 1.9497 98.2187 -0.0351 0.0721 266.0 1027.5763 1027.5779 36.5822 36.5845 1522.95 1522.95 178.029 0.0
2017-10-14T12:30:45Z -46.0552 22.8008 at3901001 1 268.863 18.3154 18.3157 4.8196 4.8199 1.9483 98.2197 -0.0296 0.0761 267.0 1027.5816 1027.5833 36.5841 36.5865 1522.97 1522.98 177.875 0.0
2017-10-14T12:30:45Z -46.0552 22.8008 at3901001 1 269.87 18.3179 18.318 4.8201 4.8205 1.9448 98.2152 -0.0678 0.0824 268.0 1027.5867 1027.5893 36.586 36.5894 1523.0 1523.0 177.447 0.0
2017-10-14T12:30:45Z -46.0552 22.8008 at3901001 1 270.878 18.3176 18.3181 4.8206 4.8209 1.9397 98.22 -0.0417 0.0824 269.0 1027.5942 1027.5957 36.59 36.592 1523.02 1523.02 176.85 0.0
2017-10-14T12:30:45Z -46.0552 22.8008 at3901001 1 271.886 18.306 18.3033 4.819 4.8193 1.9353 98.2198 -0.0533 0.0844 270.0 1027.5992 1027.6032 36.5868 36.5912 1523.0 1523.0 176.369 0.0
2017-10-14T12:30:45Z -46.0552 22.8008 at3901001 1 272.893 18.2927 18.2935 4.8177 4.8181 1.9335 98.227 -0.0385 0.0878 271.0 1027.6072 1027.6091 36.5871 36.5899 1522.98 1522.98 176.208 0.0
2017-10-14T12:30:45Z -46.0552 22.8008 at3901001 1 273.901 18.2927 18.293 4.8178 4.8181 1.9322 98.2261 -0.0215 0.0826 272.0 1027.6115 1027.6136 36.5869 36.5899 1522.99 1523.0 176.072 0.0
2017-10-14T12:30:45Z -46.0552 22.8008 at3901001 1 274.909 18.2893 18.2902 4.8173 4.8178 1.9294 98.2316 -0.0562 0.0739 273.0 1027.6159 1027.618 36.5858 36.5888 1523.0 1523.01 175.758 0.0
2017-10-14T12:30:45Z -46.0552 22.8008 at3901001 1 275.916 18.2872 18.2872 4.817 4.8174 1.9298 98.2252 -0.0691 0.0701 274.0 1027.6199 1027.6224 36.5847 36.588 1523.01 1523.01 175.838 0.0
2017-10-14T12:30:45Z -46.0552 22.8008 at3901001 1 276.924 18.2519 18.2513 4.8122 4.8126 1.9343 98.2199 -0.0319 0.0777 275.0 1027.6255 1027.6292 36.5745 36.579 1522.91 1522.92 176.551 0.0
2017-10-14T12:30:45Z -46.0552 22.8008 at3901001 1 277.932 18.2366 18.237 4.8103 4.8108 1.9365 98.2348 -0.0736 0.0762 276.0 1027.6315 1027.6343 36.5715 36.5753 1522.88 1522.89 176.894 0.0
2017-10-14T12:30:45Z -46.0552 22.8008 at3901001 1 278.939 18.2156 18.2165 4.8077 4.8083 1.9347 98.2355 -0.0514 0.0772 277.0 1027.6386 1027.6414 36.5681 36.572 1522.84 1522.84 176.766 0.0
2017-10-14T12:30:45Z -46.0552 22.8008 at3901001 1 279.947 18.204 18.2048 4.8063 4.807 1.9331 98.2176 -0.0303 0.0827 278.0 1027.6445 1027.648 36.5661 36.571 1522.82 1522.82 176.626 0.0
2017-10-14T12:30:45Z -46.0552 22.8008 at3901001 1 280.955 18.1693 18.1702 4.8023 4.8029 1.9342 98.2393 -0.0552 0.0824 279.0 1027.6549 1027.6581 36.5624 36.5669 1522.73 1522.73 176.905 0.0
2017-10-14T12:30:45Z -46.0552 22.8008 at3901001 1 281.962 18.1594 18.1595 4.8012 4.8016 1.9334 98.229 -0.0576 0.0715 280.0 1027.6606 1027.6637 36.5609 36.5649 1522.71 1522.72 176.865 0.0
2017-10-14T12:30:45Z -46.0552 22.8008 at3901001 1 282.97 18.1274 18.128 4.797 4.7977 1.9347 98.2398 -0.0347 0.077 281.0 1027.6671 1027.6712 36.553 36.5585 1522.63 1522.64 177.155 0.0
2017-10-14T12:30:45Z -46.0552 22.8008 at3901001 1 283.978 18.105 18.1055 4.7944 4.7948 1.9358 98.2441 -0.08 0.088 282.0 1027.6753 1027.6778 36.5505 36.5539 1522.58 1522.58 177.395 0.0
2017-10-14T12:30:45Z -46.0552 22.8008 at3901001 1 284.985 18.0993 18.0985 4.7937 4.794 1.9374 98.2414 -0.0386 0.07 283.0 1027.6803 1027.683 36.5494 36.5527 1522.58 1522.58 177.634 0.0
2017-10-14T12:30:45Z -46.0552 22.8008 at3901001 1 285.993 18.0898 18.0903 4.7926 4.793 1.9393 98.2431 -0.0191 0.0757 284.0 1027.6858 1027.6886 36.5478 36.5516 1522.57 1522.57 177.932 0.0
2017-10-14T12:30:45Z -46.0552 22.8008 at3901001 1 287.001 18.0749 18.0754 4.7908 4.7913 1.9401 98.2408 -0.0742 0.0769 285.0 1027.6925 1027.695 36.5458 36.5492 1522.53 1522.54 178.097 0.0
2017-10-14T12:30:45Z -46.0552 22.8008 at3901001 1 288.009 18.0645 18.0655 4.7894 4.7901 1.9386 98.2307 -0.0542 0.0809 286.0 1027.6973 1027.7005 36.5429 36.5475 1522.52 1522.53 177.974 0.0
2017-10-14T12:30:45Z -46.0552 22.8008 at3901001 1 289.016 18.02 18.0213 4.7836 4.7847 1.936 98.2417 -0.0271 0.0749 287.0 1027.7048 1027.7104 36.5323 36.54 1522.39 1522.41 177.831 0.0
2017-10-14T12:30:45Z -46.0552 22.8008 at3901001 1 290.024 17.9836 17.9844 4.7795 4.7802 1.9335 98.245 -0.0256 0.0702 288.0 1027.7161 1027.72 36.5291 36.5346 1522.3 1522.31 177.676 0.0
2017-10-14T12:30:45Z -46.0552 22.8008 at3901001 1 291.032 17.9667 17.967 4.7778 4.7782 1.9331 98.24 -0.0735 0.0699 289.0 1027.7247 1027.7273 36.5292 36.5326 1522.27 1522.27 177.697 0.0
2017-10-14T12:30:45Z -46.0552 22.8008 at3901001 1 292.04 17.9579 17.9587 4.7767 4.7772 1.9342 98.2435 -0.0557 0.0788 290.0 1027.7296 1027.7326 36.5269 36.531 1522.26 1522.26 177.893 0.0
2017-10-14T12:30:45Z -46.0552 22.8008 at3901001 1 293.047 17.9443 17.9447 4.775 4.7755 1.9362 98.2244 -0.0425 0.078 291.0 1027.7359 1027.7385 36.5249 36.5284 1522.23 1522.24 178.202 0.0
2017-10-14T12:30:45Z -46.0552 22.8008 at3901001 1 294.055 17.9312 17.9309 4.7734 4.7738 1.939 98.2345 -0.0648 0.0843 292.0 1027.7413 1027.7442 36.5218 36.5255 1522.21 1522.21 178.624 0.0
2017-10-14T12:30:45Z -46.0552 22.8008 at3901001 1 295.063 17.9162 17.9165 4.7717 4.7721 1.9367 98.2467 -0.0326 0.076 293.0 1027.7485 1027.7509 36.5206 36.5239 1522.18 1522.18 178.416 0.0
2017-10-14T12:30:45Z -46.0552 22.8008 at3901001 1 296.07 17.9021 17.9032 4.7702 4.7708 1.9313 98.2476 -0.0495 0.0828 294.0 1027.7558 1027.7588 36.5197 36.5239 1522.15 1522.16 177.815 0.0
2017-10-14T12:30:45Z -46.0552 22.8008 at3901001 1 297.078 17.8915 17.8918 4.769 4.7696 1.925 98.2515 -0.0614 0.086 295.0 1027.7619 1027.7657 36.5185 36.5235 1522.14 1522.14 177.088 0.0
2017-10-14T12:30:45Z -46.0552 22.8008 at3901001 1 298.086 17.844 17.8446 4.7631 4.764 1.9194 98.253 -0.0425 0.076 296.0 1027.7718 1027.777 36.5101 36.5171 1522.01 1522.02 176.581 0.0
2017-10-14T12:30:45Z -46.0552 22.8008 at3901001 1 299.094 17.83 17.8304 4.762 4.7624 1.9151 98.2452 -0.0392 0.0763 297.0 1027.7818 1027.784 36.5128 36.5157 1521.99 1521.99 176.106 0.0
2017-10-14T12:30:45Z -46.0552 22.8008 at3901001 1 300.102 17.8278 17.8282 4.7618 4.7622 1.9111 98.2521 -0.0548 0.0763 298.0 1027.7866 1027.7888 36.5126 36.5156 1522.0 1522.0 175.643 0.0
2017-10-14T12:30:45Z -46.0552 22.8008 at3901001 1 301.109 17.8253 17.8258 4.7616 4.762 1.9092 98.2624 -0.0459 0.0704 299.0 1027.7916 1027.7939 36.5126 36.5157 1522.0 1522.01 175.436 0.0
2017-10-14T12:30:45Z -46.0552 22.8008 at3901001 1 302.117 17.7934 17.7948 4.7574 4.7584 1.9045 98.2538 -0.0429 0.076 300.0 1027.7977 1027.8032 36.5042 36.5119 1521.92 1521.93 174.99 0.0
2017-10-14T12:30:45Z -46.0552 22.8008 at3901001 1 303.125 17.7443 17.7454 4.7519 4.7527 1.8994 98.2539 -0.0793 0.0701 301.0 1027.8117 1027.8157 36.5007 36.5063 1521.79 1521.8 174.536 0.0
2017-10-14T12:30:45Z -46.0552 22.8008 at3901001 1 304.133 17.7305 17.7308 4.7507 4.7511 1.8964 98.2571 -0.0326 0.0699 302.0 1027.8207 1027.823 36.5022 36.5053 1521.76 1521.77 174.225 0.0
2017-10-14T12:30:45Z -46.0552 22.8008 at3901001 1 305.141 17.7223 17.7227 4.7498 4.7503 1.8925 98.2583 -0.0453 0.0717 303.0 1027.8264 1027.8292 36.5013 36.505 1521.76 1521.76 173.799 0.0
2017-10-14T12:30:45Z -46.0552 22.8008 at3901001 1 306.148 17.7143 17.7147 4.7489 4.7493 1.8873 98.2692 -0.0703 0.0823 304.0 1027.832 1027.8347 36.5001 36.5039 1521.75 1521.76 173.199 0.0
2017-10-14T12:30:45Z -46.0552 22.8008 at3901001 1 307.156 17.6991 17.6995 4.7471 4.7475 1.8844 98.2645 -0.0622 0.0783 305.0 1027.8386 1027.8412 36.4981 36.5016 1521.72 1521.72 172.903 0.0
2017-10-14T12:30:45Z -46.0552 22.8008 at3901001 1 308.164 17.685 17.6855 4.7454 4.7459 1.882 98.2702 -0.0378 0.0763 306.0 1027.8444 1027.8474 36.4953 36.4994 1521.69 1521.7 172.68 0.0
2017-10-14T12:30:45Z -46.0552 22.8008 at3901001 1 309.172 17.6777 17.6782 4.7446 4.7451 1.881 98.2728 -0.0274 0.0799 307.0 1027.8505 1027.8533 36.4951 36.4989 1521.69 1521.69 172.601 0.0
2017-10-14T12:30:45Z -46.0552 22.8008 at3901001 1 310.18 17.6648 17.6655 4.7429 4.7436 1.8787 98.2729 -0.0297 0.0886 308.0 1027.8555 1027.8593 36.4917 36.4968 1521.66 1521.67 172.374 0.0
2017-10-14T12:30:45Z -46.0552 22.8008 at3901001 1 311.188 17.6434 17.6443 4.7404 4.741 1.8769 98.2729 -0.0588 0.0703 309.0 1027.8627 1027.8661 36.4884 36.4931 1521.61 1521.62 172.242 0.0
2017-10-14T12:30:45Z -46.0552 22.8008 at3901001 1 312.196 17.6292 17.6297 4.7388 4.7392 1.8787 98.2729 -0.0596 0.0796 310.0 1027.8695 1027.8722 36.4868 36.4905 1521.58 1521.59 172.535 0.0
2017-10-14T12:30:45Z -46.0552 22.8008 at3901001 1 313.203 17.618 17.6184 4.7373 4.7379 1.8793 98.2729 -0.0597 0.0777 311.0 1027.8746 1027.8776 36.4842 36.4882 1521.56 1521.57 172.681 0.0
2017-10-14T12:30:45Z -46.0552 22.8008 at3901001 1 314.211 17.5901 17.5904 4.7337 4.7344 1.8802 98.2695 -0.0644 0.0659 312.0 1027.8806 1027.885 36.4772 36.483 1521.49 1521.5 172.91 0.0
2017-10-14T12:30:45Z -46.0552 22.8008 at3901001 1 315.219 17.5571 17.5588 4.7296 4.7304 1.882 98.2668 -0.0512 0.0721 313.0 1027.8887 1027.8924 36.4711 36.4766 1521.4 1521.42 173.267 0.0
2017-10-14T12:30:45Z -46.0552 22.8008 at3901001 1 316.227 17.5306 17.5317 4.7263 4.727 1.8821 98.266 -0.0471 0.0729 314.0 1027.8959 1027.8991 36.4662 36.4707 1521.34 1521.35 173.396 0.0
2017-10-14T12:30:45Z -46.0552 22.8008 at3901001 1 317.235 17.5146 17.515 4.7243 4.7249 1.8793 98.2709 -0.0709 0.077 315.0 1027.9015 1027.9049 36.4626 36.4671 1521.3 1521.31 173.121 0.0
2017-10-14T12:30:45Z -46.0552 22.8008 at3901001 1 318.243 17.4873 17.4883 4.7208 4.7215 1.8786 98.276 -0.0533 0.0782 316.0 1027.9081 1027.9117 36.4566 36.4616 1521.23 1521.24 173.15 0.0
2017-10-14T12:30:45Z -46.0552 22.8008 at3901001 1 319.25 17.4741 17.4745 4.7194 4.7198 1.8813 98.2701 -0.051 0.0727 317.0 1027.9148 1027.9172 36.4553 36.4586 1521.21 1521.21 173.56 0.0
2017-10-14T12:30:45Z -46.0552 22.8008 at3901001 1 320.258 17.4636 17.4643 4.7178 4.7185 1.8824 98.2702 -0.0525 0.072 318.0 1027.9185 1027.9224 36.4509 36.4563 1521.19 1521.2 173.753 0.0
2017-10-14T12:30:45Z -46.0552 22.8008 at3901001 1 321.266 17.4296 17.431 4.7132 4.7144 1.8794 98.284 -0.0728 0.0763 319.0 1027.9238 1027.9304 36.4411 36.4502 1521.09 1521.11 173.528 0.0
2017-10-14T12:30:45Z -46.0552 22.8008 at3901001 1 322.274 17.3476 17.3491 4.7031 4.7044 1.8779 98.2768 -0.0201 0.076 320.0 1027.9374 1027.9444 36.4266 36.4362 1520.85 1520.87 173.649 0.0
2017-10-14T12:30:45Z -46.0552 22.8008 at3901001 1 323.282 17.3059 17.3062 4.6987 4.6992 1.8772 98.277 -0.0577 0.0763 321.0 1027.9512 1027.9544 36.4254 36.4296 1520.74 1520.75 173.715 0.0
2017-10-14T12:30:45Z -46.0552 22.8008 at3901001 1 324.29 17.2992 17.2987 4.698 4.6983 1.8767 98.2776 -0.0277 0.0783 322.0 1027.9566 1027.9594 36.4245 36.428 1520.74 1520.74 173.696 0.0
2017-10-14T12:30:45Z -46.0552 22.8008 at3901001 1 325.298 17.293 17.293 4.6973 4.6976 1.8738 98.2791 -0.0564 0.0729 323.0 1027.9621 1027.9645 36.4239 36.427 1520.74 1520.74 173.377 0.0
2017-10-14T12:30:45Z -46.0552 22.8008 at3901001 1 326.306 17.2914 17.2909 4.6972 4.6975 1.8723 98.2765 -0.0587 0.0724 324.0 1027.9669 1027.9692 36.424 36.4268 1520.75 1520.75 173.207 0.0
2017-10-14T12:30:45Z -46.0552 22.8008 at3901001 1 327.313 17.28 17.2804 4.6957 4.6962 1.8714 98.2841 -0.0364 0.0728 325.0 1027.9716 1027.9748 36.4207 36.4249 1520.73 1520.74 173.158 0.0
2017-10-14T12:30:45Z -46.0552 22.8008 at3901001 1 328.322 17.2752 17.2761 4.6953 4.6957 1.8707 98.2841 -0.0459 0.0743 326.0 1027.9777 1027.9797 36.4214 36.4243 1520.73 1520.74 173.109 0.0
2017-10-14T12:30:45Z -46.0552 22.8008 at3901001 1 329.329 17.271 17.2722 4.6947 4.6953 1.8694 98.2814 -0.0565 0.0719 327.0 1027.9816 1027.9845 36.4193 36.4235 1520.73 1520.74 172.99 0.0
2017-10-14T12:30:45Z -46.0552 22.8008 at3901001 1 330.337 17.2546 17.2588 4.6927 4.6937 1.8688 98.2867 -0.0473 0.0736 328.0 1027.9882 1027.9905 36.4169 36.4212 1520.7 1520.71 172.993 0.0
2017-10-14T12:30:45Z -46.0552 22.8008 at3901001 1 331.345 17.2412 17.2409 4.691 4.6915 1.8687 98.2893 -0.0596 0.078 329.0 1027.9932 1027.9969 36.4133 36.418 1520.67 1520.68 173.045 0.0
2017-10-14T12:30:45Z -46.0552 22.8008 at3901001 1 332.353 17.1945 17.1948 4.6849 4.686 1.8654 98.2906 -0.0744 0.0821 330.0 1028.0 1028.0072 36.4014 36.411 1520.53 1520.55 172.812 0.0
2017-10-14T12:30:45Z -46.0552 22.8008 at3901001 1 333.361 17.1434 17.1439 4.6794 4.6799 1.8612 98.2969 -0.0594 0.0824 331.0 1028.0158 1028.0186 36.3999 36.4036 1520.4 1520.4 172.482 0.0
2017-10-14T12:30:45Z -46.0552 22.8008 at3901001 1 334.369 17.1353 17.1359 4.6785 4.679 1.8575 98.276 -0.0677 0.0856 332.0 1028.0211 1028.0239 36.3984 36.4023 1520.39 1520.4 172.06 0.0
2017-10-14T12:30:45Z -46.0552 22.8008 at3901001 1 335.377 17.1141 17.1143 4.6759 4.6765 1.8521 98.254 -0.0612 0.0761 333.0 1028.0275 1028.0314 36.3942 36.3994 1520.34 1520.35 171.473 0.0
2017-10-14T12:30:45Z -46.0552 22.8008 at3901001 1 336.385 17.0729 17.0741 4.6707 4.6717 1.8452 98.29 -0.0345 0.0703 334.0 1028.0355 1028.0409 36.3857 36.3931 1520.22 1520.23 170.761 0.0
2017-10-14T12:30:45Z -46.0552 22.8008 at3901001 1 337.393 17.0283 17.0294 4.6655 4.6663 1.8394 98.2902 -0.0735 0.0753 335.0 1028.0466 1028.0508 36.3802 36.3861 1520.1 1520.11 170.194 0.0
2017-10-14T12:30:45Z -46.0552 22.8008 at3901001 1 338.401 17.0051 17.0057 4.6628 4.6635 1.8364 98.2932 -0.0498 0.076 336.0 1028.0542 1028.0582 36.3769 36.3824 1520.04 1520.05 169.915 0.0
2017-10-14T12:30:45Z -46.0552 22.8008 at3901001 1 339.409 16.9782 16.9788 4.6597 4.6603 1.8347 98.2982 -0.0301 0.0719 337.0 1028.0625 1028.0663 36.3734 36.3785 1519.97 1519.98 169.811 0.0
2017-10-14T12:30:45Z -46.0552 22.8008 at3901001 1 340.417 16.9557 16.9563 4.657 4.6576 1.8317 98.3004 -0.0407 0.0741 338.0 1028.0701 1028.0735 36.3704 36.375 1519.92 1519.93 169.528 0.0
2017-10-14T12:30:45Z -46.0552 22.8008 at3901001 1 341.425 16.9381 16.9388 4.6549 4.6555 1.8276 98.2984 -0.0514 0.0763 339.0 1028.0764 1028.0798 36.3673 36.372 1519.88 1519.89 169.092 0.0
2017-10-14T12:30:45Z -46.0552 22.8008 at3901001 1 342.433 16.9098 16.9102 4.6515 4.6522 1.8235 98.2945 -0.0462 0.0708 340.0 1028.0842 1028.0881 36.3626 36.3678 1519.81 1519.82 168.676 0.0
2017-10-14T12:30:45Z -46.0552 22.8008 at3901001 1 343.441 16.8837 16.884 4.6485 4.6491 1.8203 98.2923 -0.0584 0.0808 341.0 1028.0923 1028.0958 36.3593 36.3639 1519.74 1519.75 168.383 0.0
2017-10-14T12:30:45Z -46.0552 22.8008 at3901001 1 344.449 16.8645 16.8648 4.646 4.6467 1.8169 98.2917 -0.0222 0.064 342.0 1028.0978 1028.1022 36.3546 36.3604 1519.7 1519.7 168.042 0.0
2017-10-14T12:30:45Z -46.0552 22.8008 at3901001 1 345.457 16.8377 16.8381 4.643 4.6436 1.8138 98.2971 -0.039 0.082 343.0 1028.1067 1028.1101 36.3519 36.3564 1519.63 1519.63 167.748 0.0
2017-10-14T12:30:45Z -46.0552 22.8008 at3901001 1 346.465 16.8106 16.8113 4.6395 4.6403 1.8112 98.2994 -0.0594 0.0704 344.0 1028.1127 1028.1174 36.3453 36.3517 1519.56 1519.57 167.537 0.0
2017-10-14T12:30:45Z -46.0552 22.8008 at3901001 1 347.473 16.7749 16.7755 4.6352 4.636 1.8077 98.2994 -0.0508 0.0761 345.0 1028.1208 1028.1259 36.3388 36.3456 1519.46 1519.47 167.235 0.0
2017-10-14T12:30:45Z -46.0552 22.8008 at3901001 1 348.481 16.7248 16.7258 4.6289 4.6299 1.8049 98.2899 -0.0345 0.0817 346.0 1028.1297 1028.1357 36.3287 36.3369 1519.31 1519.33 167.07 0.0
2017-10-14T12:30:45Z -46.0552 22.8008 at3901001 1 349.489 16.6919 16.6924 4.6254 4.6259 1.8016 98.3004 -0.0713 0.0776 347.0 1028.1409 1028.1441 36.3272 36.3316 1519.23 1519.24 166.77 0.0
2017-10-14T12:30:45Z -46.0552 22.8008 at3901001 1 350.497 16.6772 16.6773 4.6235 4.6241 1.7996 98.2994 -0.0499 0.072 348.0 1028.1461 1028.15 36.3237 36.3288 1519.2 1519.2 166.59 0.0
2017-10-14T12:30:45Z -46.0552 22.8008 at3901001 1 351.505 16.6426 16.6433 4.6193 4.6201 1.7976 98.2922 -0.0265 0.083 349.0 1028.1542 1028.1584 36.3176 36.3232 1519.1 1519.11 166.476 0.0
2017-10-14T12:30:45Z -46.0552 22.8008 at3901001 1 352.513 16.6203 16.6204 4.6168 4.6173 1.7953 98.3002 -0.0676 0.0739 350.0 1028.1618 1028.1651 36.3147 36.319 1519.05 1519.05 166.272 0.0
2017-10-14T12:30:45Z -46.0552 22.8008 at3901001 1 353.521 16.6106 16.611 4.6157 4.6162 1.7931 98.3026 -0.0372 0.0792 351.0 1028.1678 1028.1706 36.3137 36.3175 1519.03 1519.04 166.04 0.0
2017-10-14T12:30:45Z -46.0552 22.8008 at3901001 1 354.529 16.604 16.6044 4.615 4.6154 1.791 98.3032 -0.0506 0.0737 352.0 1028.1733 1028.1758 36.313 36.3164 1519.03 1519.04 165.821 0.0
2017-10-14T12:30:45Z -46.0552 22.8008 at3901001 1 355.537 16.6017 16.6019 4.6148 4.6152 1.7898 98.3106 -0.0297 0.0699 353.0 1028.1782 1028.1806 36.313 36.3161 1519.04 1519.04 165.693 0.0
2017-10-14T12:30:45Z -46.0552 22.8008 at3901001 1 356.545 16.5979 16.5984 4.6144 4.6148 1.7889 98.3087 -0.0376 0.0702 354.0 1028.1831 1028.1855 36.3123 36.3157 1519.04 1519.05 165.605 0.0
2017-10-14T12:30:45Z -46.0552 22.8008 at3901001 1 357.553 16.5959 16.596 4.6142 4.6146 1.7891 98.3028 -0.0381 0.0754 355.0 1028.1878 1028.1903 36.3121 36.3154 1519.06 1519.06 165.663 0.0
2017-10-14T12:30:45Z -46.0552 22.8008 at3901001 1 358.561 16.5855 16.5856 4.6128 4.6134 1.7893 98.3023 -0.0331 0.0716 356.0 1028.1923 1028.196 36.309 36.3138 1519.04 1519.04 165.743 0.0
2017-10-14T12:30:45Z -46.0552 22.8008 at3901001 1 359.569 16.5635 16.5645 4.6102 4.6108 1.7885 98.3077 -0.0404 0.0863 357.0 1028.1993 1028.2025 36.3054 36.31 1518.98 1518.99 165.74 0.0
2017-10-14T12:30:45Z -46.0552 22.8008 at3901001 1 360.577 16.5519 16.5539 4.6089 4.6095 1.7868 98.3079 -0.0445 0.0763 358.0 1028.2051 1028.2079 36.3037 36.3078 1518.96 1518.97 165.581 0.0
2017-10-14T12:30:45Z -46.0552 22.8008 at3901001 1 361.586 16.5435 16.544 4.6079 4.6083 1.7859 98.3053 -0.0403 0.0738 359.0 1028.2105 1028.213 36.3022 36.3056 1518.95 1518.96 165.506 0.0
2017-10-14T12:30:45Z -46.0552 22.8008 at3901001 1 362.593 16.5417 16.5424 4.6078 4.6082 1.7863 98.308 -0.049 0.0749 360.0 1028.2153 1028.2175 36.3022 36.3053 1518.96 1518.97 165.589 0.0
2017-10-14T12:30:45Z -46.0552 22.8008 at3901001 1 363.602 16.5419 16.5422 4.6078 4.6082 1.7853 98.3065 -0.049 0.0824 361.0 1028.2196 1028.2219 36.3022 36.3052 1518.98 1518.99 165.476 0.0
2017-10-14T12:30:45Z -46.0552 22.8008 at3901001 1 364.61 16.5381 16.5391 4.6074 4.6079 1.7835 98.302 -0.0297 0.0795 362.0 1028.2244 1028.2267 36.3014 36.3047 1518.99 1518.99 165.278 0.0
2017-10-14T12:30:45Z -46.0552 22.8008 at3901001 1 365.618 16.537 16.5377 4.6072 4.6077 1.7809 98.3093 -0.0428 0.0746 363.0 1028.2282 1028.2313 36.3002 36.3046 1519.0 1519.0 164.975 0.0
2017-10-14T12:30:45Z -46.0552 22.8008 at3901001 1 366.626 16.5218 16.5222 4.6053 4.6058 1.779 98.3158 -0.0575 0.0705 364.0 1028.2339 1028.237 36.2972 36.3014 1518.97 1518.97 164.806 0.0
2017-10-14T12:30:45Z -46.0552 22.8008 at3901001 1 367.634 16.5004 16.4999 4.6023 4.6032 1.7778 98.3043 -0.0197 0.0813 365.0 1028.2379 1028.2439 36.2899 36.2975 1518.91 1518.92 164.741 0.0
2017-10-14T12:30:45Z -46.0552 22.8008 at3901001 1 368.642 16.4472 16.4476 4.5962 4.5968 1.7785 98.3093 -0.0301 0.073 366.0 1028.2504 1028.2541 36.2837 36.2887 1518.76 1518.76 165.035 0.0
2017-10-14T12:30:45Z -46.0552 22.8008 at3901001 1 369.65 16.437 16.4374 4.5951 4.5956 1.7785 98.3152 -0.0511 0.0811 367.0 1028.2565 1028.2591 36.2827 36.2863 1518.74 1518.75 165.077 0.0
2017-10-14T12:30:45Z -46.0552 22.8008 at3901001 1 370.658 16.43 16.4303 4.5943 4.5947 1.7754 98.3225 -0.0668 0.0734 368.0 1028.2616 1028.2642 36.2815 36.285 1518.73 1518.74 164.728 0.0
2017-10-14T12:30:45Z -46.0552 22.8008 at3901001 1 371.667 16.4228 16.4224 4.5935 4.5938 1.774 98.3117 -0.0396 0.0762 369.0 1028.2666 1028.2695 36.28 36.2837 1518.73 1518.73 164.591 0.0
2017-10-14T12:30:45Z -46.0552 22.8008 at3901001 1 372.675 16.4121 16.412 4.5922 4.5926 1.773 98.3201 -0.0322 0.0712 370.0 1028.2722 1028.2749 36.2782 36.2816 1518.71 1518.71 164.52 0.0
2017-10-14T12:30:45Z -46.0552 22.8008 at3901001 1 373.683 16.3986 16.3991 4.5905 4.5911 1.7718 98.319 -0.0596 0.0699 371.0 1028.2772 1028.2809 36.2747 36.2797 1518.68 1518.69 164.439 0.0
2017-10-14T12:30:45Z -46.0552 22.8008 at3901001 1 374.691 16.3859 16.386 4.589 4.5896 1.7719 98.319 -0.0538 0.0696 372.0 1028.2835 1028.2869 36.2732 36.2777 1518.66 1518.66 164.511 0.0
2017-10-14T12:30:45Z -46.0552 22.8008 at3901001 1 375.699 16.3677 16.368 4.5868 4.5874 1.7709 98.3197 -0.0407 0.0699 373.0 1028.2893 1028.293 36.2693 36.2743 1518.61 1518.62 164.461 0.0
2017-10-14T12:30:45Z -46.0552 22.8008 at3901001 1 376.707 16.3506 16.3513 4.5847 4.5854 1.7698 98.3182 -0.0346 0.0699 374.0 1028.2953 1028.2991 36.2661 36.2712 1518.58 1518.58 164.397 0.0
2017-10-14T12:30:45Z -46.0552 22.8008 at3901001 1 377.716 16.3173 16.3167 4.5805 4.5812 1.7675 98.3143 -0.0578 0.0718 375.0 1028.3021 1028.3071 36.2587 36.2651 1518.48 1518.49 164.233 0.0
2017-10-14T12:30:45Z -46.0552 22.8008 at3901001 1 378.723 16.2816 16.2828 4.5764 4.5771 1.7667 98.3158 -0.0357 0.0805 376.0 1028.3112 1028.315 36.2538 36.2591 1518.39 1518.4 164.276 0.0
2017-10-14T12:30:45Z -46.0552 22.8008 at3901001 1 379.732 16.2685 16.2682 4.5749 4.5753 1.7668 98.3261 -0.0217 0.0763 377.0 1028.3173 1028.3206 36.2519 36.2561 1518.36 1518.36 164.354 0.0
2017-10-14T12:30:45Z -46.0552 22.8008 at3901001 1 380.74 16.2478 16.2478 4.5724 4.5729 1.7661 98.323 -0.0405 0.0761 378.0 1028.3238 1028.327 36.2481 36.2524 1518.31 1518.32 164.345 0.0
2017-10-14T12:30:45Z -46.0552 22.8008 at3901001 1 381.748 16.2352 16.2355 4.5709 4.5714 1.7654 98.3218 -0.0315 0.0782 379.0 1028.3294 1028.3325 36.2459 36.25 1518.28 1518.29 164.326 0.0
2017-10-14T12:30:45Z -46.0552 22.8008 at3901001 1 382.756 16.2251 16.2244 4.5697 4.5701 1.7651 98.3245 -0.0305 0.0784 380.0 1028.3351 1028.3381 36.2443 36.2481 1518.27 1518.27 164.332 0.0
2017-10-14T12:30:45Z -46.0552 22.8008 at3901001 1 383.764 16.2043 16.205 4.5671 4.5678 1.7651 98.3253 -0.0396 0.0761 381.0 1028.341 1028.3448 36.2398 36.245 1518.22 1518.22 164.427 0.0
2017-10-14T12:30:45Z -46.0552 22.8008 at3901001 1 384.773 16.1791 16.1805 4.564 4.5649 1.7646 98.326 -0.0559 0.0763 382.0 1028.3477 1028.3522 36.2349 36.2413 1518.15 1518.16 164.474 0.0
2017-10-14T12:30:45Z -46.0552 22.8008 at3901001 1 385.781 16.1606 16.1573 4.562 4.5621 1.7631 98.3278 -0.0612 0.0763 383.0 1028.3553 1028.3591 36.2334 36.2373 1518.11 1518.1 164.359 0.0
2017-10-14T12:30:45Z -46.0552 22.8008 at3901001 1 386.789 16.1461 16.1451 4.5603 4.5607 1.7619 98.326 -0.0614 0.0629 384.0 1028.3614 1028.3646 36.2311 36.2349 1518.08 1518.08 164.269 0.0
2017-10-14T12:30:45Z -46.0552 22.8008 at3901001 1 387.797 16.1398 16.1406 4.5596 4.5602 1.7614 98.3221 -0.0628 0.0516 385.0 1028.3663 1028.3694 36.2298 36.234 1518.07 1518.08 164.254 0.0
2017-10-14T12:30:45Z -46.0552 22.8008 at3901001 1 388.806 16.1343 16.1346 4.5591 4.5595 1.7617 98.3131 -0.0407 0.0282 386.0 1028.3722 1028.3746 36.2299 36.2331 1518.07 1518.08 164.329 0.0
2017-10-14T12:30:45Z -46.0552 22.8008 at3901001 1 389.814 16.1352 16.1353 4.5593 4.5596 1.7613 98.3235 -0.0291 0.0484 387.0 1028.3769 1028.379 36.2306 36.2334 1518.1 1518.1 164.289 0.0
2017-10-14T12:30:45Z -46.0552 22.8008 at3901001 1 390.822 16.1426 16.139 4.5601 4.5601 1.7633 98.3185 -0.0378 0.0791 388.0 1028.3796 1028.3829 36.2307 36.2339 1518.13 1518.13 164.544 0.0
2017-10-14T12:30:45Z -46.0552 22.8008 at3901001 1 391.83 16.1165 16.1162 4.5568 4.5574 1.7614 98.3212 -0.0533 0.0775 389.0 1028.3851 1028.3902 36.224 36.2305 1518.06 1518.07 164.418 0.0
2017-10-14T12:30:45Z -46.0552 22.8008 at3901001 1 392.838 16.0898 16.0903 4.5537 4.5543 1.7597 98.3249 -0.0245 0.0802 390.0 1028.3934 1028.3972 36.2208 36.226 1517.99 1518.0 164.304 0.0
2017-10-14T12:30:45Z -46.0552 22.8008 at3901001 1 393.846 16.055 16.0563 4.5494 4.5503 1.7595 98.3305 -0.0119 0.0696 391.0 1028.4004 1028.4056 36.2134 36.2205 1517.9 1517.91 164.409 0.0
2017-10-14T12:30:45Z -46.0552 22.8008 at3901001 1 394.855 16.0278 16.0285 4.5464 4.547 1.7595 98.3334 -0.0387 0.075 392.0 1028.4095 1028.4133 36.2111 36.2162 1517.83 1517.84 164.53 0.0
2017-10-14T12:30:45Z -46.0552 22.8008 at3901001 1 395.863 16.0165 16.0165 4.5451 4.5456 1.7594 98.3377 -0.0404 0.0733 393.0 1028.4155 1028.4189 36.2097 36.2141 1517.81 1517.81 164.571 0.0
2017-10-14T12:30:45Z -46.0552 22.8008 at3901001 1 396.871 16.0049 16.0042 4.5437 4.5441 1.7595 98.3277 -0.0488 0.0712 394.0 1028.4208 1028.4241 36.2073 36.2114 1517.79 1517.79 164.639 0.0
2017-10-14T12:30:45Z -46.0552 22.8008 at3901001 1 397.879 15.9999 16.0001 4.5432 4.5436 1.7594 98.3308 -0.0549 0.0761 395.0 1028.4263 1028.4288 36.2071 36.2104 1517.79 1517.79 164.669 0.0
2017-10-14T12:30:45Z -46.0552 22.8008 at3901001 1 398.888 15.9966 15.9965 4.5427 4.5432 1.7595 98.3473 -0.0406 0.0787 396.0 1028.4301 1028.4334 36.2053 36.2095 1517.79 1517.8 164.716 0.0
2017-10-14T12:30:45Z -46.0552 22.8008 at3901001 1 399.896 15.9658 15.9663 4.5389 4.5395 1.7587 98.3396 -0.042 0.0778 397.0 1028.4365 1028.4406 36.1984 36.2038 1517.71 1517.71 164.736 0.0
2017-10-14T12:30:45Z -46.0552 22.8008 at3901001 1 400.904 15.9387 15.9402 4.5356 4.5364 1.756 98.3322 -0.0781 0.07 398.0 1028.4434 1028.4476 36.1932 36.1992 1517.63 1517.64 164.502 0.0
2017-10-14T12:30:45Z -46.0552 22.8008 at3901001 1 401.913 15.9148 15.9164 4.533 4.5336 1.7555 98.3315 -0.0429 0.0756 399.0 1028.452 1028.4547 36.1914 36.1954 1517.57 1517.58 164.535 0.0
2017-10-14T12:30:45Z -46.0552 22.8008 at3901001 1 402.921 15.9061 15.9069 4.5319 4.5325 1.7545 98.3372 -0.0298 0.0757 400.0 1028.4569 1028.46 36.1892 36.1935 1517.56 1517.57 164.455 0.0
2017-10-14T12:30:45Z -46.0552 22.8008 at3901001 1 403.929 15.902 15.9018 4.5316 4.5319 1.7542 98.3348 -0.0626 0.0725 401.0 1028.4625 1028.4649 36.1895 36.1927 1517.57 1517.57 164.451 0.0
2017-10-14T12:30:45Z -46.0552 22.8008 at3901001 1 404.937 15.879 15.8811 4.5283 4.5294 1.7539 98.3399 -0.0658 0.068 402.0 1028.4658 1028.4711 36.181 36.1887 1517.5 1517.52 164.517 0.0
2017-10-14T12:30:45Z -46.0552 22.8008 at3901001 1 405.946 15.8517 15.8522 4.5254 4.526 1.7542 98.3313 -0.0413 0.0669 403.0 1028.4752 1028.4787 36.1792 36.1839 1517.43 1517.44 164.664 0.0
2017-10-14T12:30:45Z -46.0552 22.8008 at3901001 1 406.954 15.8516 15.8385 4.5254 4.5243 1.7553 98.3405 -0.0369 0.0717 404.0 1028.4793 1028.4845 36.1788 36.1814 1517.45 1517.41 164.829 0.0
2017-10-14T12:30:45Z -46.0552 22.8008 at3901001 1 407.963 15.8255 15.8256 4.5223 4.5228 1.7547 98.3463 -0.0481 0.0739 405.0 1028.4865 1028.4902 36.1743 36.1793 1517.38 1517.38 164.861 0.0
2017-10-14T12:30:45Z -46.0552 22.8008 at3901001 1 408.971 15.809 15.8092 4.5205 4.521 1.7526 98.3425 -0.049 0.0794 406.0 1028.4939 1028.4968 36.1732 36.177 1517.34 1517.35 164.659 0.0
2017-10-14T12:30:45Z -46.0552 22.8008 at3901001 1 409.979 15.7983 15.7994 4.5186 4.5198 1.7507 98.3382 -0.0256 0.0817 407.0 1028.4947 1028.5021 36.1652 36.1751 1517.32 1517.33 164.471 0.0
2017-10-14T12:30:45Z -46.0552 22.8008 at3901001 1 410.987 15.7045 15.707 4.5064 4.5088 1.7481 98.3424 -0.0401 0.0577 408.0 1028.5029 1028.5166 36.1414 36.1601 1517.02 1517.05 164.489 0.0
2017-10-14T12:30:45Z -46.0552 22.8008 at3901001 1 411.996 15.6424 15.6422 4.5002 4.501 1.7473 98.3363 -0.0407 0.0511 409.0 1028.5218 1028.5281 36.1414 36.1494 1516.84 1516.85 164.6 0.0
2017-10-14T12:30:45Z -46.0552 22.8008 at3901001 1 413.004 15.6285 15.629 4.4989 4.4994 1.7473 98.342 -0.0592 0.0225 410.0 1028.5303 1028.5333 36.1424 36.1464 1516.82 1516.82 164.668 0.0
2017-10-14T12:30:45Z -46.0552 22.8008 at3901001 1 414.012 15.6261 15.6324 4.4987 4.4998 1.7474 98.3423 -0.0436 0.0605 411.0 1028.5349 1028.5368 36.142 36.1464 1516.82 1516.85 164.699 0.0
2017-10-14T12:30:45Z -46.0552 22.8008 at3901001 1 415.021 15.6374 15.6367 4.5 4.5003 1.7472 98.3423 -0.0513 0.0839 412.0 1028.5378 1028.54 36.1434 36.1461 1516.88 1516.88 164.664 0.0
2017-10-14T12:30:45Z -46.0552 22.8008 at3901001 1 416.029 15.6241 15.6294 4.4985 4.4996 1.7466 98.3266 -0.0466 0.0761 413.0 1028.5438 1028.5462 36.1415 36.1461 1516.85 1516.87 164.649 0.0
2017-10-14T12:30:45Z -46.0552 22.8008 at3901001 1 417.037 15.6226 15.6226 4.4985 4.4988 1.7445 98.3473 -0.0533 0.0714 414.0 1028.549 1028.5516 36.1419 36.1453 1516.86 1516.87 164.396 0.0
2017-10-14T12:30:45Z -46.0552 22.8008 at3901001 1 418.046 15.6221 15.6221 4.4985 4.4988 1.7428 98.3499 -0.0463 0.0695 415.0 1028.5538 1028.5561 36.1422 36.1453 1516.88 1516.88 164.193 0.0
2017-10-14T12:30:45Z -46.0552 22.8008 at3901001 1 419.054 15.6188 15.6186 4.498 4.4984 1.7424 98.3497 -0.0254 0.0877 416.0 1028.5577 1028.5609 36.1406 36.1447 1516.88 1516.89 164.178 0.0
2017-10-14T12:30:45Z -46.0552 22.8008 at3901001 1 420.062 15.6114 15.6124 4.4972 4.4978 1.7423 98.3435 -0.0423 0.0764 417.0 1028.5629 1028.566 36.1393 36.1438 1516.88 1516.88 164.207 0.0
2017-10-14T12:30:45Z -46.0552 22.8008 at3901001 1 421.071 15.5981 15.5981 4.4953 4.4961 1.7421 98.3476 -0.0284 0.0673 418.0 1028.5667 1028.5718 36.1345 36.1412 1516.84 1516.85 164.245 0.0
2017-10-14T12:30:45Z -46.0552 22.8008 at3901001 1 422.079 15.5476 15.5494 4.4893 4.4903 1.7426 98.3496 -0.0402 0.0715 419.0 1028.5766 1028.5818 36.1264 36.1336 1516.7 1516.71 164.516 0.0
2017-10-14T12:30:45Z -46.0552 22.8008 at3901001 1 423.088 15.5198 15.5208 4.4864 4.487 1.7435 98.3419 -0.0521 0.0803 420.0 1028.5861 1028.5893 36.1246 36.129 1516.62 1516.63 164.737 0.0
2017-10-14T12:30:45Z -46.0552 22.8008 at3901001 1 424.096 15.5111 15.5124 4.4854 4.486 1.7417 98.3489 -0.0518 0.0711 421.0 1028.5915 1028.5945 36.1232 36.1275 1516.62 1516.62 164.548 0.0
2017-10-14T12:30:45Z -46.0552 22.8008 at3901001 1 425.104 15.4807 15.4826 4.4814 4.4825 1.7403 98.3492 -0.0521 0.0764 422.0 1028.5969 1028.6022 36.1152 36.1227 1516.53 1516.54 164.492 0.0
2017-10-14T12:30:45Z -46.0552 22.8008 at3901001 1 426.113 15.4481 15.4478 4.4779 4.4784 1.7407 98.3501 -0.025 0.0763 423.0 1028.6069 1028.6105 36.1126 36.1172 1516.44 1516.44 164.683 0.0
2017-10-14T12:30:45Z -46.0552 22.8008 at3901001 1 427.121 15.4392 15.4395 4.477 4.4774 1.74 98.3481 -0.0467 0.076 424.0 1028.6128 1028.6158 36.1118 36.1158 1516.43 1516.43 164.642 0.0
2017-10-14T12:30:45Z -46.0552 22.8008 at3901001 1 428.129 15.4276 15.4275 4.4755 4.476 1.7384 98.3513 -0.0208 0.0763 425.0 1028.6178 1028.6214 36.1091 36.1137 1516.4 1516.41 164.488 0.0
2017-10-14T12:30:45Z -46.0552 22.8008 at3901001 1 429.138 15.4166 15.4163 4.4743 4.4748 1.7383 98.3525 -0.0329 0.0758 426.0 1028.6239 1028.6271 36.1079 36.1121 1516.38 1516.39 164.526 0.0
2017-10-14T12:30:45Z -46.0552 22.8008 at3901001 1 430.146 15.4057 15.4054 4.4731 4.4735 1.7387 98.3525 -0.0226 0.0718 427.0 1028.6294 1028.6326 36.106 36.1101 1516.36 1516.37 164.647 0.0
2017-10-14T12:30:45Z -46.0552 22.8008 at3901001 1 431.155 15.3912 15.3907 4.4713 4.4717 1.7366 98.3532 -0.0527 0.0758 428.0 1028.6348 1028.6382 36.1029 36.1073 1516.33 1516.34 164.442 0.0
2017-10-14T12:30:45Z -46.0552 22.8008 at3901001 1 432.163 15.3697 15.3697 4.4687 4.4693 1.7365 98.3597 -0.0422 0.0794 429.0 1028.6413 1028.645 36.0991 36.104 1516.28 1516.28 164.516 0.0
2017-10-14T12:30:45Z -46.0552 22.8008 at3901001 1 433.171 15.354 15.3554 4.4669 4.4676 1.7349 98.3562 -0.0475 0.0792 430.0 1028.6471 1028.651 36.0962 36.1017 1516.24 1516.25 164.375 0.0
2017-10-14T12:30:45Z -46.0552 22.8008 at3901001 1 434.18 15.3318 15.3323 4.4641 4.4649 1.7338 98.3558 -0.0398 0.076 431.0 1028.6528 1028.6576 36.0912 36.0977 1516.18 1516.19 164.334 0.0
2017-10-14T12:30:45Z -46.0552 22.8008 at3901001 1 435.188 15.3069 15.307 4.4613 4.4619 1.7324 98.3525 -0.0382 0.0763 432.0 1028.6604 1028.6648 36.0878 36.0936 1516.12 1516.13 164.252 0.0
2017-10-14T12:30:45Z -46.0552 22.8008 at3901001 1 436.197 15.2838 15.2841 4.4586 4.4592 1.7313 98.355 -0.0441 0.0712 433.0 1028.6672 1028.6716 36.084 36.0898 1516.06 1516.07 164.203 0.0
2017-10-14T12:30:45Z -46.0552 22.8008 at3901001 1 437.205 15.2596 15.2592 4.4557 4.4563 1.7298 98.358 -0.0458 0.0698 434.0 1028.6742 1028.6787 36.0801 36.0857 1516.0 1516.0 164.115 0.0
2017-10-14T12:30:45Z -46.0552 22.8008 at3901001 1 438.214 15.2202 15.2192 4.4512 4.4517 1.7286 98.3574 -0.0223 0.0759 435.0 1028.6835 1028.6877 36.0746 36.0798 1515.88 1515.88 164.109 0.0
2017-10-14T12:30:45Z -46.0552 22.8008 at3901001 1 439.222 15.2081 15.2088 4.4499 4.4504 1.7277 98.3601 -0.054 0.0763 436.0 1028.6896 1028.693 36.0732 36.0778 1515.86 1515.87 164.047 0.0
2017-10-14T12:30:45Z -46.0552 22.8008 at3901001 1 440.231 15.1982 15.1988 4.4488 4.4493 1.7283 98.3605 -0.0445 0.0708 437.0 1028.6956 1028.6985 36.0722 36.0761 1515.84 1515.85 164.182 0.0
2017-10-14T12:30:45Z -46.0552 22.8008 at3901001 1 441.239 15.1959 15.1963 4.4486 4.449 1.7295 98.361 -0.055 0.078 438.0 1028.7002 1028.7031 36.0718 36.0757 1515.85 1515.86 164.369 0.0
2017-10-14T12:30:45Z -46.0552 22.8008 at3901001 1 442.248 15.1915 15.1906 4.4481 4.4484 1.728 98.3596 -0.0389 0.0768 439.0 1028.7052 1028.7081 36.0712 36.0746 1515.85 1515.86 164.202 0.0
2017-10-14T12:30:45Z -46.0552 22.8008 at3901001 1 443.256 15.1536 15.154 4.4434 4.4442 1.7257 98.364 -0.0378 0.0763 440.0 1028.7118 1028.7169 36.0626 36.0695 1515.74 1515.75 164.051 0.0
2017-10-14T12:30:45Z -46.0552 22.8008 at3901001 1 444.264 15.1368 15.1368 4.4418 4.4422 1.7245 98.3382 -0.0319 0.0665 441.0 1028.7209 1028.7235 36.0637 36.0671 1515.71 1515.71 163.965 0.0
2017-10-14T12:30:45Z -46.0552 22.8008 at3901001 1 445.273 15.1352 15.1353 4.4417 4.4421 1.7234 98.346 -0.0475 0.0641 442.0 1028.7254 1028.7283 36.0634 36.0672 1515.72 1515.72 163.844 0.0
2017-10-14T12:30:45Z -46.0552 22.8008 at3901001 1 446.282 15.1335 15.1335 4.4415 4.4419 1.7239 98.3592 -0.0599 0.0641 443.0 1028.7299 1028.7329 36.063 36.0669 1515.73 1515.73 163.934 0.0
2017-10-14T12:30:45Z -46.0552 22.8008 at3901001 1 447.29 15.1296 15.1298 4.4411 4.4415 1.724 98.3619 -0.0437 0.0741 444.0 1028.7346 1028.7376 36.0621 36.0661 1515.73 1515.74 163.988 0.0
2017-10-14T12:30:45Z -46.0552 22.8008 at3901001 1 448.298 15.1191 15.1196 4.4398 4.4404 1.7242 98.3607 -0.0234 0.0721 445.0 1028.7397 1028.7431 36.0599 36.0644 1515.72 1515.72 164.077 0.0
2017-10-14T12:30:45Z -46.0552 22.8008 at3901001 1 449.307 15.1129 15.113 4.4392 4.4396 1.7257 98.3673 -0.0495 0.0743 446.0 1028.7452 1028.748 36.0594 36.063 1515.71 1515.71 164.321 0.0
2017-10-14T12:30:45Z -46.0552 22.8008 at3901001 1 450.315 15.1113 15.1114 4.4391 4.4394 1.7249 98.3727 -0.0339 0.076 447.0 1028.75 1028.7525 36.0594 36.0627 1515.72 1515.73 164.239 0.0
2017-10-14T12:30:45Z -46.0552 22.8008 at3901001 1 451.324 15.1103 15.1104 4.439 4.4394 1.7249 98.3603 -0.0241 0.0702 448.0 1028.7546 1028.7572 36.0593 36.0627 1515.74 1515.74 164.253 0.0
2017-10-14T12:30:45Z -46.0552 22.8008 at3901001 1 452.333 15.1075 15.1075 4.4387 4.4391 1.7245 98.3674 -0.0375 0.0758 449.0 1028.759 1028.7618 36.0585 36.0622 1515.74 1515.75 164.23 0.0
2017-10-14T12:30:45Z -46.0552 22.8008 at3901001 1 453.341 15.1013 15.1012 4.4379 4.4384 1.7253 98.3687 -0.0368 0.0698 450.0 1028.7639 1028.7668 36.0572 36.061 1515.74 1515.74 164.381 0.0
2017-10-14T12:30:45Z -46.0552 22.8008 at3901001 1 454.35 15.0966 15.0968 4.4374 4.4379 1.7242 98.3696 -0.0373 0.07 451.0 1028.7687 1028.7715 36.0563 36.06 1515.74 1515.74 164.273 0.0
2017-10-14T12:30:45Z -46.0552 22.8008 at3901001 1 455.358 15.0942 15.0942 4.4372 4.4376 1.7227 98.3706 -0.0397 0.0695 452.0 1028.7736 1028.7761 36.0562 36.0595 1515.75 1515.75 164.095 0.0
2017-10-14T12:30:45Z -46.0552 22.8008 at3901001 1 456.367 15.0904 15.0905 4.4368 4.4372 1.7212 98.3702 -0.034 0.0716 453.0 1028.7784 1028.7812 36.0555 36.0592 1515.75 1515.76 163.935 0.0
2017-10-14T12:30:45Z -46.0552 22.8008 at3901001 1 457.375 15.0861 15.0859 4.4363 4.4367 1.7216 98.3658 -0.029 0.0773 454.0 1028.7829 1028.7859 36.0544 36.0583 1515.75 1515.76 164.024 0.0
2017-10-14T12:30:45Z -46.0552 22.8008 at3901001 1 458.384 15.0743 15.0744 4.4348 4.4354 1.7215 98.3723 -0.0447 0.0814 455.0 1028.7874 1028.7916 36.051 36.0564 1515.73 1515.74 164.08 0.0
2017-10-14T12:30:45Z -46.0552 22.8008 at3901001 1 459.392 15.0436 15.0441 4.4312 4.4318 1.7215 98.3719 -0.0482 0.0764 456.0 1028.795 1028.7993 36.0459 36.0517 1515.64 1515.65 164.2 0.0
2017-10-14T12:30:45Z -46.0552 22.8008 at3901001 1 460.401 15.0336 15.0338 4.4303 4.4307 1.7215 98.3725 -0.0376 0.0763 457.0 1028.8022 1028.8049 36.0466 36.0502 1515.63 1515.63 164.259 0.0
2017-10-14T12:30:45Z -46.0552 22.8008 at3901001 1 461.409 15.0286 15.0292 4.4297 4.4302 1.7209 98.3673 -0.0392 0.0708 458.0 1028.8069 1028.8098 36.0454 36.0494 1515.63 1515.63 164.214 0.0
2017-10-14T12:30:45Z -46.0552 22.8008 at3901001 1 462.418 15.0215 15.0212 4.4289 4.4293 1.7213 98.3702 -0.0235 0.0704 459.0 1028.8123 1028.8151 36.0445 36.0481 1515.62 1515.62 164.317 0.0
2017-10-14T12:30:45Z -46.0552 22.8008 at3901001 1 463.427 15.0188 15.0186 4.4286 4.429 1.722 98.3774 -0.0511 0.0765 460.0 1028.8168 1028.8199 36.0439 36.0478 1515.63 1515.63 164.43 0.0
2017-10-14T12:30:45Z -46.0552 22.8008 at3901001 1 464.435 15.0084 15.0097 4.4273 4.428 1.7228 98.377 -0.068 0.0721 461.0 1028.8216 1028.8251 36.0413 36.0462 1515.61 1515.62 164.596 0.0
2017-10-14T12:30:45Z -46.0552 22.8008 at3901001 1 465.444 14.9932 14.9929 4.4256 4.4261 1.723 98.3778 -0.0275 0.0651 462.0 1028.8281 1028.8314 36.0394 36.0437 1515.58 1515.58 164.694 0.0
2017-10-14T12:30:45Z -46.0552 22.8008 at3901001 1 466.452 14.988 14.9891 4.4252 4.4257 1.7238 98.3791 -0.0394 0.0701 463.0 1028.8338 1028.8363 36.0395 36.0431 1515.58 1515.58 164.845 0.0
2017-10-14T12:30:45Z -46.0552 22.8008 at3901001 1 467.461 14.9875 14.9874 4.4251 4.4255 1.7236 98.3779 -0.0271 0.0757 464.0 1028.8381 1028.8408 36.0392 36.0427 1515.59 1515.59 164.843 0.0
2017-10-14T12:30:45Z -46.0552 22.8008 at3901001 1 468.469 14.9839 14.9842 4.4247 4.4251 1.7219 98.3748 -0.0345 0.0739 465.0 1028.8427 1028.8455 36.0384 36.0421 1515.6 1515.6 164.649 0.0
2017-10-14T12:30:45Z -46.0552 22.8008 at3901001 1 469.478 14.9816 14.9813 4.4245 4.4248 1.7217 98.379 -0.0504 0.067 466.0 1028.8474 1028.8502 36.0381 36.0416 1515.6 1515.61 164.654 0.0
2017-10-14T12:30:45Z -46.0552 22.8008 at3901001 1 470.487 14.9814 14.9814 4.4245 4.4249 1.7201 98.3802 -0.0468 0.0701 467.0 1028.8521 1028.8545 36.0383 36.0415 1515.62 1515.63 164.455 0.0
2017-10-14T12:30:45Z -46.0552 22.8008 at3901001 1 471.495 14.9775 14.9766 4.424 4.4244 1.7182 98.3778 -0.0408 0.0696 468.0 1028.8559 1028.8594 36.0363 36.0407 1515.62 1515.63 164.237 0.0
2017-10-14T12:30:45Z -46.0552 22.8008 at3901001 1 472.504 14.9582 14.9583 4.4213 4.4222 1.716 98.3708 -0.0481 0.0694 469.0 1028.8591 1028.8655 36.0291 36.0374 1515.57 1515.58 164.023 0.0
2017-10-14T12:30:45Z -46.0552 22.8008 at3901001 1 473.513 14.9048 14.9058 4.4147 4.416 1.7136 98.3808 -0.0936 0.0698 470.0 1028.867 1028.875 36.0177 36.0284 1515.41 1515.42 163.918 0.0
2017-10-14T12:30:45Z -46.0552 22.8008 at3901001 1 474.521 14.8577 14.8578 4.4096 4.4104 1.7106 98.3745 -0.0316 0.0755 471.0 1028.879 1028.8845 36.0137 36.0208 1515.27 1515.28 163.694 0.0
2017-10-14T12:30:45Z -46.0552 22.8008 at3901001 1 475.53 14.8237 14.824 4.4056 4.4063 1.7048 98.3777 -0.0231 0.076 472.0 1028.8868 1028.8918 36.0079 36.0145 1515.17 1515.18 163.052 0.0
2017-10-14T12:30:45Z -46.0552 22.8008 at3901001 1 476.539 14.7811 14.7808 4.4014 4.4013 1.675 98.379 -0.038 0.0781 473.0 1028.9016 1028.9008 36.0088 36.0077 1515.05 1515.05 159.171 0.0
2017-10-14T12:30:45Z -46.0552 22.8008 at3901001 1 477.547 14.7694 14.7515 4.4033 4.3977 1.5915 98.3791 -0.0291 0.0701 474.0 1028.9298 1028.907 36.0363 36.0014 1515.07 1514.97 147.89 0.0
2017-10-14T12:30:45Z -46.0552 22.8008 at3901001 1 478.556 14.7597 14.7399 4.4047 4.3963 1.543 98.3781 -0.0437 0.0677 475.0 1028.953 1028.9125 36.0579 35.9993 1515.08 1514.95 141.353 0.0
2017-10-14T12:30:45Z -46.0552 22.8008 at3901001 1 479.564 14.7258 14.7234 4.3967 4.3944 1.5764 98.3817 -0.0194 0.0694 476.0 1028.9321 1028.9181 36.0149 35.996 1514.94 1514.91 146.042 0.0
2017-10-14T12:30:45Z -46.0552 22.8008 at3901001 1 480.573 14.7068 14.7064 4.392 4.3924 1.5959 98.3808 -0.0263 0.0809 477.0 1028.9213 1028.9242 35.9895 35.9931 1514.86 1514.86 148.777 0.0
2017-10-14T12:30:45Z -46.0552 22.8008 at3901001 1 481.582 14.695 14.6944 4.3903 4.391 1.6022 98.3791 -0.0372 0.0816 478.0 1028.9239 1028.9294 35.9837 35.9906 1514.84 1514.84 149.702 0.0
2017-10-14T12:30:45Z -46.0552 22.8008 at3901001 1 482.59 14.6404 14.6418 4.3832 4.3847 1.6021 98.3791 -0.0603 0.082 479.0 1028.9292 1028.9384 35.9687 35.9811 1514.66 1514.68 149.888 0.0
2017-10-14T12:30:45Z -46.0552 22.8008 at3901001 1 483.599 14.5704 14.5688 4.3755 4.3763 1.595 98.3791 -0.0507 0.071 480.0 1028.9444 1028.9514 35.9622 35.9708 1514.45 1514.45 149.158 0.0
2017-10-14T12:30:45Z -46.0552 22.8008 at3901001 1 484.608 14.5399 14.54 4.3736 4.3729 1.5598 98.3777 -0.0377 0.0649 481.0 1028.9637 1028.9587 35.9726 35.9661 1514.38 1514.37 144.462 0.0
2017-10-14T12:30:45Z -46.0552 22.8008 at3901001 1 485.616 14.5389 14.5367 4.3776 4.3725 1.4939 98.3792 -0.0484 0.0709 482.0 1028.9971 1028.963 36.01 35.965 1514.43 1514.37 135.469 0.0
2017-10-14T12:30:45Z -46.0552 22.8008 at3901001 1 486.625 14.5349 14.533 4.3778 4.3722 1.4616 98.3779 -0.035 0.0705 483.0 1029.0062 1028.9681 36.0149 35.9647 1514.44 1514.38 131.098 0.0
2017-10-14T12:30:45Z -46.0552 22.8008 at3901001 1 487.634 14.5325 14.5307 4.3763 4.3719 1.4834 98.3804 -0.0431 0.069 484.0 1029.0023 1028.9728 36.0033 35.9644 1514.44 1514.39 134.099 0.0
2017-10-14T12:30:45Z -46.0552 22.8008 at3901001 1 488.642 14.5275 14.5275 4.3716 4.3716 1.5024 98.3745 -0.0455 0.0726 485.0 1028.9777 1028.9775 35.9641 35.9638 1514.39 1514.39 136.759 0.0
2017-10-14T12:30:45Z -46.0552 22.8008 at3901001 1 489.651 14.5256 14.5258 4.3733 4.3714 1.4878 98.3798 -0.0425 0.0762 486.0 1028.9957 1028.9821 35.9812 35.9636 1514.43 1514.41 134.775 0.0
2017-10-14T12:30:45Z -46.0552 22.8008 at3901001 1 490.66 14.5241 14.5218 4.3747 4.371 1.4518 98.3781 -0.0401 0.0779 487.0 1029.0108 1028.9869 35.9946 35.9629 1514.45 1514.41 129.879 0.0
2017-10-14T12:30:45Z -46.0552 22.8008 at3901001 1 491.669 14.5116 14.5003 4.3751 4.3685 1.429 98.378 -0.0364 0.0695 488.0 1029.0298 1028.9934 36.0098 35.9593 1514.45 1514.35 126.797 0.0
2017-10-14T12:30:45Z -46.0552 22.8008 at3901001 1 492.677 14.4548 14.4346 4.3679 4.3609 1.4628 98.3817 -0.041 0.069 489.0 1029.0357 1029.0052 35.9953 35.9497 1514.27 1514.15 131.59 0.0
2017-10-14T12:30:45Z -46.0552 22.8008 at3901001 1 493.686 14.3916 14.3918 4.3553 4.3559 1.5005 98.3829 -0.041 0.0661 490.0 1029.0098 1029.0136 35.9374 35.9424 1514.01 1514.02 136.991 0.0
2017-10-14T12:30:45Z -46.0552 22.8008 at3901001 1 494.695 14.3743 14.3742 4.3535 4.3539 1.5236 98.3818 -0.0451 0.0708 491.0 1029.0169 1029.0196 35.9359 35.9393 1513.97 1513.97 140.215 0.0
2017-10-14T12:30:45Z -46.0552 22.8008 at3901001 1 495.703 14.3659 14.3662 4.3523 4.3529 1.5365 98.3839 -0.0508 0.082 492.0 1029.0206 1029.0245 35.9325 35.9376 1513.96 1513.96 142.028 0.0
2017-10-14T12:30:45Z -46.0552 22.8008 at3901001 1 496.712 14.3359 14.3372 4.3488 4.3496 1.5421 98.3897 -0.0402 0.0814 493.0 1029.0281 1029.0321 35.9277 35.9333 1513.87 1513.88 142.904 0.0
2017-10-14T12:30:45Z -46.0552 22.8008 at3901001 1 497.721 14.316 14.3166 4.3466 4.3472 1.544 98.3238 -0.0314 0.0773 494.0 1029.0347 1029.0385 35.9248 35.9299 1513.82 1513.83 143.242 0.0
2017-10-14T12:30:45Z -46.0552 22.8008 at3901001 1 498.73 14.3014 14.3014 4.3451 4.3455 1.544 98.3871 -0.034 0.0721 495.0 1029.0415 1029.0445 35.9237 35.9275 1513.79 1513.79 143.308 0.0
2017-10-14T12:30:45Z -46.0552 22.8008 at3901001 1 499.738 14.2939 14.2935 4.3442 4.3446 1.544 98.3916 -0.0266 0.0709 496.0 1029.0466 1029.0497 35.9222 35.9262 1513.78 1513.78 143.346 0.0
2017-10-14T12:30:45Z -46.0552 22.8008 at3901001 1 500.747 14.2882 14.2881 4.3436 4.344 1.5427 98.3869 -0.0478 0.0697 497.0 1029.0516 1029.0546 35.9214 35.9253 1513.78 1513.78 143.202 0.0
2017-10-14T12:30:45Z -46.0552 22.8008 at3901001 1 501.756 14.2814 14.2815 4.3428 4.3433 1.5401 98.3912 -0.0593 0.0763 498.0 1029.0566 1029.0599 35.9201 35.9244 1513.77 1513.78 142.883 0.0
2017-10-14T12:30:45Z -46.0552 22.8008 at3901001 1 502.765 14.2654 14.2665 4.3409 4.3416 1.5382 98.3938 -0.0418 0.076 499.0 1029.0618 1029.066 35.9165 35.9223 1513.73 1513.74 142.692 0.0
2017-10-14T12:30:45Z -46.0552 22.8008 at3901001 1 503.774 14.2479 14.2474 4.339 4.3395 1.538 98.3834 -0.0427 0.0715 500.0 1029.069 1029.0727 35.915 35.9198 1513.69 1513.69 142.737 0.0
2017-10-14T12:30:45Z -46.0552 22.8008 at3901001 1 504.782 14.2307 14.2314 4.3368 4.3376 1.5379 98.3865 -0.0504 0.0716 501.0 1029.0735 1029.0786 35.9101 35.917 1513.65 1513.66 142.792 0.0
2017-10-14T12:30:45Z -46.0552 22.8008 at3901001 1 505.791 14.2091 14.209 4.3346 4.3351 1.538 98.3844 -0.0284 0.08 502.0 1029.0819 1029.0855 35.909 35.9137 1513.59 1513.6 142.893 0.0
2017-10-14T12:30:45Z -46.0552 22.8008 at3901001 1 506.8 14.1547 14.1531 4.3279 4.3287 1.5384 98.3885 -0.0327 0.0724 503.0 1029.0895 1029.0967 35.8975 35.9064 1513.42 1513.43 143.139 0.0
2017-10-14T12:30:45Z -46.0552 22.8008 at3901001 1 507.809 14.0696 14.0659 4.3182 4.3186 1.5376 98.3928 -0.0353 0.0717 504.0 1029.1037 1029.1096 35.8857 35.8923 1513.15 1513.14 143.304 0.0
2017-10-14T12:30:45Z -46.0552 22.8008 at3901001 1 508.817 14.0561 14.0561 4.317 4.3175 1.5352 98.3982 -0.0176 0.081 505.0 1029.1118 1029.1151 35.8866 35.8909 1513.12 1513.13 143.032 0.0
2017-10-14T12:30:45Z -46.0552 22.8008 at3901001 1 509.826 14.0478 14.0478 4.316 4.3166 1.533 98.3968 -0.0364 0.076 506.0 1029.1167 1029.1204 35.8848 35.8896 1513.11 1513.12 142.772 0.0
2017-10-14T12:30:45Z -46.0552 22.8008 at3901001 1 510.835 14.0346 14.0345 4.3145 4.315 1.5314 98.3962 -0.0622 0.069 507.0 1029.1219 1029.126 35.882 35.8873 1513.08 1513.09 142.613 0.0
2017-10-14T12:30:45Z -46.0552 22.8008 at3901001 1 511.844 14.0209 14.021 4.313 4.3135 1.5299 98.3972 -0.0432 0.0663 508.0 1029.128 1029.1319 35.8803 35.8853 1513.05 1513.06 142.459 0.0
2017-10-14T12:30:45Z -46.0552 22.8008 at3901001 1 512.853 14.0057 14.0058 4.3112 4.3118 1.528 98.4032 -0.0276 0.0674 509.0 1029.1338 1029.138 35.8777 35.8831 1513.02 1513.02 142.273 0.0
2017-10-14T12:30:45Z -46.0552 22.8008 at3901001 1 513.861 13.9835 13.9836 4.3087 4.3093 1.5259 98.3995 -0.0335 0.0763 510.0 1029.1404 1029.1447 35.8741 35.8797 1512.96 1512.96 142.059 0.0
2017-10-14T12:30:45Z -46.0552 22.8008 at3901001 1 514.87 13.967 13.9671 4.3069 4.3074 1.5245 98.4017 -0.018 0.0726 511.0 1029.1475 1029.1511 35.8729 35.8775 1512.92 1512.92 141.932 0.0
2017-10-14T12:30:45Z -46.0552 22.8008 at3901001 1 515.879 13.9496 13.9499 4.3049 4.3055 1.525 98.4012 -0.0196 0.0761 512.0 1029.1534 1029.1575 35.8698 35.8752 1512.87 1512.88 142.079 0.0
2017-10-14T12:30:45Z -46.0552 22.8008 at3901001 1 516.888 13.9088 13.9091 4.3 4.301 1.5295 98.402 -0.0384 0.0761 513.0 1029.1604 1029.1673 35.8614 35.8705 1512.75 1512.76 142.848 0.0
2017-10-14T12:30:45Z -46.0552 22.8008 at3901001 1 517.897 13.8212 13.8195 4.2905 4.291 1.5417 98.4039 -0.0337 0.0716 514.0 1029.1779 1029.1832 35.8534 35.8599 1512.47 1512.47 144.822 0.0
2017-10-14T12:30:45Z -46.0552 22.8008 at3901001 1 518.905 13.81 13.8107 4.2895 4.29 1.5509 98.4024 -0.0191 0.0781 515.0 1029.1854 1029.1885 35.8542 35.8585 1512.45 1512.46 146.153 0.0
2017-10-14T12:30:45Z -46.0552 22.8008 at3901001 1 519.914 13.8056 13.8054 4.2891 4.2895 1.5567 98.4055 -0.0421 0.07 516.0 1029.1908 1029.1939 35.8542 35.8582 1512.45 1512.46 146.992 0.0
2017-10-14T12:30:45Z -46.0552 22.8008 at3901001 1 520.923 13.8024 13.8023 4.2887 4.2892 1.5604 98.4056 -0.0604 0.0695 517.0 1029.1955 1029.1988 35.8536 35.858 1512.46 1512.47 147.538 0.0
2017-10-14T12:30:45Z -46.0552 22.8008 at3901001 1 521.932 13.7939 13.7938 4.2878 4.2883 1.563 98.4099 -0.0307 0.0774 518.0 1029.2008 1029.2044 35.8523 35.857 1512.45 1512.46 147.94 0.0
2017-10-14T12:30:45Z -46.0552 22.8008 at3901001 1 522.941 13.7802 13.7808 4.2862 4.2869 1.5661 98.4027 -0.0268 0.0794 519.0 1029.206 1029.2104 35.8495 35.8553 1512.42 1512.43 148.439 0.0
2017-10-14T12:30:45Z -46.0552 22.8008 at3901001 1 523.95 13.7698 13.7698 4.2852 4.2857 1.5709 98.4074 -0.0339 0.0761 520.0 1029.213 1029.2162 35.8499 35.854 1512.4 1512.4 149.158 0.0
2017-10-14T12:30:45Z -46.0552 22.8008 at3901001 1 524.959 13.7642 13.7641 4.2846 4.2851 1.5751 98.4065 -0.0374 0.0761 521.0 1029.2178 1029.2215 35.8487 35.8534 1512.4 1512.4 149.784 0.0
2017-10-14T12:30:45Z -46.0552 22.8008 at3901001 1 525.967 13.738 13.7384 4.2815 4.2823 1.5792 98.4191 -0.0403 0.0808 522.0 1029.2241 1029.2296 35.8437 35.851 1512.32 1512.33 150.461 0.0
2017-10-14T12:30:45Z -46.0552 22.8008 at3901001 1 526.976 13.6683 13.6693 4.2733 4.2745 1.5851 98.4114 -0.0826 0.0701 523.0 1029.2339 1029.2422 35.8309 35.842 1512.1 1512.11 151.529 0.0
2017-10-14T12:30:45Z -46.0552 22.8008 at3901001 1 527.985 13.6063 13.6064 4.2666 4.2674 1.5882 98.4127 -0.0409 0.0807 524.0 1029.2478 1029.2534 35.8258 35.833 1511.9 1511.91 152.182 0.0
2017-10-14T12:30:45Z -46.0552 22.8008 at3901001 1 528.994 13.5482 13.5485 4.2599 4.2608 1.5888 98.4163 -0.0463 0.0762 525.0 1029.2575 1029.2641 35.8162 35.8249 1511.72 1511.73 152.486 0.0
2017-10-14T12:30:45Z -46.0552 22.8008 at3901001 1 530.003 13.5208 13.5208 4.2572 4.2577 1.5917 98.4268 -0.0492 0.0747 526.0 1029.2682 1029.2717 35.8166 35.8212 1511.65 1511.65 152.989 0.0
2017-10-14T12:30:45Z -46.0552 22.8008 at3901001 1 531.012 13.5042 13.5043 4.2551 4.2559 1.5951 98.4282 -0.0245 0.0689 527.0 1029.2723 1029.2779 35.8115 35.8188 1511.6 1511.61 153.541 0.0
2017-10-14T12:30:45Z -46.0552 22.8008 at3901001 1 532.021 13.4784 13.4782 4.2526 4.253 1.599 98.4269 -0.0399 0.0699 528.0 1029.2823 1029.2859 35.8115 35.8161 1511.53 1511.54 154.198 0.0
2017-10-14T12:30:45Z -46.0552 22.8008 at3901001 1 533.03 13.476 13.4758 4.2524 4.2528 1.6031 98.4271 -0.058 0.0748 529.0 1029.2872 1029.2906 35.8114 35.8157 1511.54 1511.55 154.8 0.0
2017-10-14T12:30:45Z -46.0552 22.8008 at3901001 1 534.039 13.4695 13.4691 4.2516 4.2521 1.6064 98.431 -0.0556 0.0763 530.0 1029.292 1029.2957 35.81 35.8147 1511.54 1511.54 155.301 0.0
2017-10-14T12:30:45Z -46.0552 22.8008 at3901001 1 535.048 13.4579 13.4577 4.2504 4.2509 1.6093 98.4301 -0.0282 0.0763 531.0 1029.2982 1029.3016 35.8091 35.8135 1511.51 1511.52 155.766 0.0
2017-10-14T12:30:45Z -46.0552 22.8008 at3901001 1 536.057 13.4523 13.4521 4.2499 4.2503 1.6118 98.4346 -0.0461 0.0659 532.0 1029.3035 1029.3069 35.8087 35.8129 1511.51 1511.52 156.152 0.0
2017-10-14T12:30:45Z -46.0552 22.8008 at3901001 1 537.065 13.4372 13.437 4.248 4.2487 1.6134 98.4338 -0.0283 0.0667 533.0 1029.3084 1029.3134 35.805 35.8114 1511.48 1511.48 156.449 0.0
2017-10-14T12:30:45Z -46.0552 22.8008 at3901001 1 538.074 13.3939 13.3943 4.2431 4.2439 1.6149 98.4345 -0.0534 0.0785 534.0 1029.3172 1029.323 35.7986 35.8061 1511.34 1511.35 156.841 0.0
2017-10-14T12:30:45Z -46.0552 22.8008 at3901001 1 539.083 13.3684 13.3685 4.2405 4.2411 1.617 98.4349 -0.0417 0.079 535.0 1029.3265 1029.3303 35.7977 35.8027 1511.27 1511.28 157.233 0.0
2017-10-14T12:30:45Z -46.0552 22.8008 at3901001 1 540.092 13.345 13.3453 4.2375 4.2384 1.618 98.4322 -0.0617 0.0759 536.0 1029.3304 1029.337 35.7905 35.7991 1511.2 1511.22 157.48 0.0
2017-10-14T12:30:45Z -46.0552 22.8008 at3901001 1 541.101 13.3111 13.3113 4.234 4.2347 1.6193 98.4309 -0.043 0.0637 537.0 1029.3412 1029.3455 35.7892 35.7949 1511.11 1511.12 157.792 0.0
2017-10-14T12:30:45Z -46.0552 22.8008 at3901001 1 542.11 13.2506 13.2514 4.2265 4.228 1.6212 98.4322 -0.0381 0.0641 538.0 1029.3467 1029.3569 35.7739 35.7872 1510.91 1510.93 158.307 0.0
2017-10-14T12:30:45Z -46.0552 22.8008 at3901001 1 543.119 13.187 13.1868 4.2202 4.2207 1.6246 98.4396 -0.0144 0.079 539.0 1029.3645 1029.3685 35.7736 35.7786 1510.71 1510.72 159.018 0.0
2017-10-14T12:30:45Z -46.0552 22.8008 at3901001 1 544.128 13.1781 13.178 4.2192 4.2197 1.6286 98.4424 -0.0365 0.0775 540.0 1029.3699 1029.3735 35.7723 35.777 1510.7 1510.71 159.635 0.0
2017-10-14T12:30:45Z -46.0552 22.8008 at3901001 1 545.137 13.1669 13.1672 4.2179 4.2185 1.6298 98.429 -0.0477 0.0792 541.0 1029.3751 1029.3792 35.7701 35.7755 1510.68 1510.68 159.856 0.0
2017-10-14T12:30:45Z -46.0552 22.8008 at3901001 1 546.146 13.1487 13.1485 4.216 4.2165 1.6287 98.445 -0.0291 0.0755 542.0 1029.3822 1029.3858 35.7685 35.7732 1510.63 1510.63 159.786 0.0
2017-10-14T12:30:45Z -46.0552 22.8008 at3901001 1 547.155 13.1388 13.1385 4.2148 4.2154 1.6272 98.444 -0.0195 0.0732 543.0 1029.387 1029.3914 35.7663 35.7719 1510.61 1510.62 159.636 0.0
2017-10-14T12:30:45Z -46.0552 22.8008 at3901001 1 548.164 13.1276 13.1276 4.2137 4.2142 1.6262 98.4502 -0.0358 0.0684 544.0 1029.3932 1029.3971 35.7655 35.7705 1510.59 1510.6 159.554 0.0
2017-10-14T12:30:45Z -46.0552 22.8008 at3901001 1 549.173 13.1167 13.1171 4.2125 4.2131 1.6242 98.4123 -0.0283 0.0643 545.0 1029.3984 1029.4026 35.7635 35.7689 1510.57 1510.58 159.328 0.0
2017-10-14T12:30:45Z -46.0552 22.8008 at3901001 1 550.182 13.1033 13.1032 4.2111 4.2116 1.6218 98.4453 -0.0283 0.0716 546.0 1029.4049 1029.4087 35.7623 35.7673 1510.54 1510.54 159.059 0.0
2017-10-14T12:30:45Z -46.0552 22.8008 at3901001 1 551.191 13.0913 13.0893 4.2097 4.21 1.6186 98.4505 -0.025 0.0732 547.0 1029.4101 1029.4146 35.76 35.7653 1510.51 1510.51 158.664 0.0
2017-10-14T12:30:45Z -46.0552 22.8008 at3901001 1 552.2 13.0483 13.0476 4.2047 4.2054 1.6158 98.4482 -0.0347 0.0726 548.0 1029.4178 1029.4238 35.7525 35.76 1510.38 1510.39 158.441 0.0
2017-10-14T12:30:45Z -46.0552 22.8008 at3901001 1 553.209 13.0202 13.0204 4.2018 4.2024 1.6129 98.4525 -0.0426 0.0686 549.0 1029.4274 1029.4313 35.7514 35.7565 1510.3 1510.31 158.141 0.0
2017-10-14T12:30:45Z -46.0552 22.8008 at3901001 1 554.218 13.0102 13.01 4.2007 4.2012 1.6097 98.4563 -0.0446 0.0666 550.0 1029.4327 1029.4367 35.7497 35.7548 1510.28 1510.29 157.743 0.0
2017-10-14T12:30:45Z -46.0552 22.8008 at3901001 1 555.227 12.9947 12.9947 4.199 4.1995 1.6072 98.4437 -0.055 0.0731 551.0 1029.4384 1029.4428 35.7471 35.7527 1510.24 1510.25 157.454 0.0
2017-10-14T12:30:45Z -46.0552 22.8008 at3901001 1 556.236 12.9659 12.9657 4.1956 4.1963 1.6045 98.4509 -0.0415 0.0826 552.0 1029.4451 1029.4505 35.7421 35.749 1510.16 1510.17 157.202 0.0
2017-10-14T12:30:45Z -46.0552 22.8008 at3901001 1 557.245 12.9286 12.9283 4.1913 4.1922 1.6006 98.4578 -0.0263 0.0852 553.0 1029.4524 1029.459 35.7355 35.744 1510.04 1510.05 156.802 0.0
2017-10-14T12:30:45Z -46.0552 22.8008 at3901001 1 558.254 12.8943 12.8938 4.1877 4.1883 1.5955 98.4537 -0.0238 0.0787 554.0 1029.4621 1029.467 35.7329 35.7391 1509.94 1509.95 156.207 0.0
2017-10-14T12:30:45Z -46.0552 22.8008 at3901001 1 559.263 12.875 12.8753 4.1856 4.1862 1.5904 98.4525 -0.0612 0.0759 555.0 1029.4685 1029.473 35.7302 35.7362 1509.89 1509.9 155.564 0.0
2017-10-14T12:30:45Z -46.0552 22.8008 at3901001 1 560.272 12.8598 12.8601 4.184 4.1845 1.5855 98.4539 -0.0311 0.0684 556.0 1029.4749 1029.479 35.7286 35.734 1509.86 1509.86 154.94 0.0
2017-10-14T12:30:45Z -46.0552 22.8008 at3901001 1 561.281 12.8487 12.8488 4.1828 4.1833 1.5806 98.455 -0.0425 0.0739 557.0 1029.481 1029.4846 35.7277 35.7324 1509.83 1509.84 154.301 0.0
2017-10-14T12:30:45Z -46.0552 22.8008 at3901001 1 562.29 12.8466 12.845 4.1827 4.1829 1.5763 98.4592 -0.0418 0.0758 558.0 1029.486 1029.4894 35.7278 35.7319 1509.84 1509.84 153.704 0.0
2017-10-14T12:30:45Z -46.0552 22.8008 at3901001 1 563.299 12.8423 12.8421 4.1822 4.1827 1.5741 98.4587 -0.0525 0.0687 559.0 1029.491 1029.4944 35.7273 35.7317 1509.85 1509.85 153.423 0.0
2017-10-14T12:30:45Z -46.0552 22.8008 at3901001 1 564.308 12.8399 12.8401 4.1821 4.1825 1.5719 98.4587 -0.0408 0.0631 560.0 1029.4961 1029.4992 35.7275 35.7316 1509.86 1509.86 153.142 0.0
2017-10-14T12:30:45Z -46.0552 22.8008 at3901001 1 565.318 12.8386 12.8382 4.1819 4.1823 1.5707 98.4587 -0.0261 0.0626 561.0 1029.5005 1029.5039 35.7272 35.7314 1509.87 1509.87 152.989 0.0
2017-10-14T12:30:45Z -46.0552 22.8008 at3901001 1 566.327 12.8334 12.8332 4.1813 4.1818 1.5701 98.4587 -0.0231 0.0717 562.0 1029.5049 1029.5089 35.7256 35.7308 1509.87 1509.87 152.942 0.0
2017-10-14T12:30:45Z -46.0552 22.8008 at3901001 1 567.336 12.8196 12.8199 4.1798 4.1804 1.5694 98.4587 -0.0376 0.0735 563.0 1029.5109 1029.5148 35.7239 35.729 1509.83 1509.84 152.917 0.0
2017-10-14T12:30:45Z -46.0552 22.8008 at3901001 1 568.345 12.8127 12.8124 4.1791 4.1796 1.5668 98.4572 -0.0806 0.0695 564.0 1029.5163 1029.5201 35.7232 35.728 1509.83 1509.83 152.59 0.0
2017-10-14T12:30:45Z -46.0552 22.8008 at3901001 1 569.354 12.8034 12.8033 4.1781 4.1786 1.5646 98.4587 -0.0786 0.0743 565.0 1029.5214 1029.5254 35.7215 35.7266 1509.81 1509.82 152.324 0.0
2017-10-14T12:30:45Z -46.0552 22.8008 at3901001 1 570.363 12.7882 12.7881 4.176 4.1769 1.5617 98.4549 -0.0495 0.0796 566.0 1029.525 1029.531 35.7162 35.724 1509.77 1509.78 151.987 0.0
2017-10-14T12:30:45Z -46.0552 22.8008 at3901001 1 571.372 12.7393 12.7376 4.1709 4.1712 1.5557 98.4553 -0.0273 0.068 567.0 1029.5365 1029.541 35.7121 35.7174 1509.62 1509.62 151.298 0.0
2017-10-14T12:30:45Z -46.0552 22.8008 at3901001 1 572.381 12.735 12.7042 4.1702 4.1675 1.5489 98.4621 -0.0408 0.0729 568.0 1029.5395 1029.5486 35.7091 35.7125 1509.62 1509.52 150.367 0.0
2017-10-14T12:30:45Z -46.0552 22.8008 at3901001 1 573.39 12.6801 12.6799 4.1643 4.1648 1.5412 98.4642 -0.0411 0.0757 569.0 1029.552 1029.5557 35.7046 35.7093 1509.44 1509.45 149.46 0.0
2017-10-14T12:30:45Z -46.0552 22.8008 at3901001 1 574.399 12.6734 12.6737 4.1636 4.1641 1.5367 98.4671 -0.0376 0.0815 570.0 1029.5567 1029.5608 35.703 35.7084 1509.44 1509.44 148.861 0.0
2017-10-14T12:30:45Z -46.0552 22.8008 at3901001 1 575.408 12.6564 12.6566 4.1616 4.1623 1.5345 98.467 -0.0312 0.0863 571.0 1029.5622 1029.5671 35.6998 35.7062 1509.39 1509.4 148.614 0.0
2017-10-14T12:30:45Z -46.0552 22.8008 at3901001 1 576.417 12.6451 12.645 4.1605 4.161 1.5323 98.4606 -0.0263 0.075 572.0 1029.5691 1029.5728 35.6999 35.7047 1509.37 1509.38 148.356 0.0
2017-10-14T12:30:45Z -46.0552 22.8008 at3901001 1 577.427 12.6405 12.6398 4.1601 4.1605 1.5304 98.4632 -0.0344 0.0637 573.0 1029.5742 1029.5775 35.6995 35.7036 1509.37 1509.38 148.126 0.0
2017-10-14T12:30:45Z -46.0552 22.8008 at3901001 1 578.436 12.6359 12.6361 4.1596 4.1601 1.529 98.4658 -0.0623 0.0212 574.0 1029.5788 1029.5825 35.6984 35.7032 1509.37 1509.38 147.946 0.0
2017-10-14T12:30:45Z -46.0552 22.8008 at3901001 1 579.445 12.6306 12.6302 4.1591 4.1595 1.5275 98.4644 -0.0468 0.0244 575.0 1029.5844 1029.5876 35.6985 35.7025 1509.37 1509.37 147.769 0.0
2017-10-14T12:30:45Z -46.0552 22.8008 at3901001 1 580.454 12.6243 12.6255 4.1584 4.159 1.5266 98.4614 -0.0289 0.0431 576.0 1029.589 1029.5922 35.697 35.7014 1509.37 1509.37 147.68 0.0
2017-10-14T12:30:45Z -46.0552 22.8008 at3901001 1 581.463 12.6413 12.6377 4.1604 4.1604 1.5271 98.4605 -0.011 0.08 577.0 1029.5921 1029.5956 35.6998 35.7034 1509.44 1509.43 147.712 0.0
2017-10-14T12:30:45Z -46.0552 22.8008 at3901001 1 582.472 12.6239 12.622 4.1582 4.1587 1.526 98.463 -0.034 0.0728 578.0 1029.5964 1029.6017 35.6949 35.7012 1509.39 1509.4 147.639 0.0
2017-10-14T12:30:45Z -46.0552 22.8008 at3901001 1 583.481 12.5985 12.5983 4.1554 4.1561 1.5243 98.4615 -0.045 0.0701 579.0 1029.6036 1029.6085 35.6916 35.6979 1509.32 1509.33 147.491 0.0
2017-10-14T12:30:45Z -46.0552 22.8008 at3901001 1 584.491 12.5773 12.577 4.1531 4.1538 1.5228 98.4678 -0.0294 0.0761 580.0 1029.6105 1029.6156 35.6889 35.6955 1509.26 1509.27 147.37 0.0
2017-10-14T12:30:45Z -46.0552 22.8008 at3901001 1 585.5 12.5535 12.5518 4.1503 4.151 1.5203 98.4588 -0.0208 0.0763 581.0 1029.6163 1029.6225 35.6843 35.6919 1509.2 1509.2 147.112 0.0
2017-10-14T12:30:45Z -46.0552 22.8008 at3901001 1 586.509 12.5339 12.5336 4.1485 4.149 1.518 98.4658 -0.0208 0.076 582.0 1029.6252 1029.6289 35.6848 35.6895 1509.15 1509.15 146.863 0.0
2017-10-14T12:30:45Z -46.0552 22.8008 at3901001 1 587.518 12.5115 12.5117 4.1457 4.1465 1.5154 98.4807 -0.0246 0.0726 583.0 1029.6295 1029.6352 35.6785 35.686 1509.08 1509.09 146.578 0.0
2017-10-14T12:30:45Z -46.0552 22.8008 at3901001 1 588.527 12.4779 12.4778 4.1421 4.1427 1.5122 98.4764 -0.0297 0.0686 584.0 1029.6384 1029.6431 35.6753 35.6813 1508.98 1508.99 146.245 0.0
2017-10-14T12:30:45Z -46.0552 22.8008 at3901001 1 589.536 12.4619 12.4615 4.1405 4.1409 1.5095 98.4842 -0.0364 0.0715 585.0 1029.6453 1029.6491 35.6742 35.679 1508.94 1508.95 145.915 0.0
2017-10-14T12:30:45Z -46.0552 22.8008 at3901001 1 590.546 12.4552 12.4548 4.1398 4.1402 1.5074 98.4785 -0.0358 0.0727 586.0 1029.6506 1029.6544 35.6734 35.6782 1508.94 1508.94 145.655 0.0
2017-10-14T12:30:45Z -46.0552 22.8008 at3901001 1 591.555 12.4413 12.4409 4.1383 4.1388 1.5068 98.4845 -0.0506 0.0721 587.0 1029.6567 1029.6605 35.6718 35.6767 1508.9 1508.91 145.643 0.0
2017-10-14T12:30:45Z -46.0552 22.8008 at3901001 1 592.564 12.4369 12.4366 4.1379 4.1383 1.5087 98.4697 -0.0295 0.0702 588.0 1029.6621 1029.6655 35.6718 35.6762 1508.91 1508.91 145.942 0.0
2017-10-14T12:30:45Z -46.0552 22.8008 at3901001 1 593.573 12.4281 12.428 4.1369 4.1374 1.5101 98.4794 -0.0308 0.07 589.0 1029.667 1029.671 35.6701 35.6753 1508.89 1508.89 146.2 0.0
2017-10-14T12:30:45Z -46.0552 22.8008 at3901001 1 594.582 12.4121 12.4122 4.1351 4.1357 1.5114 98.4831 -0.0584 0.0763 590.0 1029.6726 1029.6772 35.6673 35.6732 1508.85 1508.86 146.454 0.0
2017-10-14T12:30:45Z -46.0552 22.8008 at3901001 1 595.592 12.3916 12.3915 4.1328 4.1334 1.5102 98.488 -0.0253 0.0748 591.0 1029.6787 1029.6836 35.6639 35.6702 1508.79 1508.8 146.367 0.0
2017-10-14T12:30:45Z -46.0552 22.8008 at3901001 1 596.601 12.3469 12.3467 4.1272 4.1284 1.5069 98.4854 -0.0169 0.0749 592.0 1029.683 1029.6923 35.6517 35.6637 1508.64 1508.66 146.057 0.0
2017-10-14T12:30:45Z -46.0552 22.8008 at3901001 1 597.61 12.283 12.2829 4.1205 4.1214 1.5036 98.4853 -0.038 0.0753 593.0 1029.6974 1029.7042 35.6475 35.6564 1508.44 1508.45 145.806 0.0
2017-10-14T12:30:45Z -46.0552 22.8008 at3901001 1 598.619 12.2547 12.2542 4.1178 4.1183 1.5014 98.4853 -0.0421 0.072 594.0 1029.7074 1029.7116 35.6472 35.6525 1508.36 1508.36 145.593 0.0
2017-10-14T12:30:45Z -46.0552 22.8008 at3901001 1 599.629 12.2451 12.2446 4.1167 4.1172 1.499 98.4843 -0.0114 0.0754 595.0 1029.7128 1029.7167 35.6459 35.6508 1508.34 1508.35 145.294 0.0
2017-10-14T12:30:45Z -46.0552 22.8008 at3901001 1 600.638 12.2368 12.2366 4.1159 4.1163 1.4966 98.4957 -0.0282 0.0772 596.0 1029.7184 1029.7218 35.645 35.6495 1508.33 1508.33 144.994 0.0
2017-10-14T12:30:45Z -46.0552 22.8008 at3901001 1 601.647 12.2315 12.2314 4.1153 4.1158 1.4948 98.4863 -0.0417 0.0702 597.0 1029.7231 1029.7269 35.644 35.6489 1508.33 1508.33 144.762 0.0
2017-10-14T12:30:45Z -46.0552 22.8008 at3901001 1 602.656 12.222 12.2217 4.1143 4.1148 1.4928 98.4863 -0.0475 0.081 598.0 1029.7286 1029.7323 35.6429 35.6476 1508.31 1508.31 144.525 0.0
2017-10-14T12:30:45Z -46.0552 22.8008 at3901001 1 603.666 12.2162 12.2159 4.1137 4.1142 1.4914 98.4903 -0.0439 0.0754 599.0 1029.7337 1029.7374 35.6421 35.6468 1508.31 1508.31 144.354 0.0
2017-10-14T12:30:45Z -46.0552 22.8008 at3901001 1 604.675 12.2102 12.2101 4.1131 4.1136 1.4897 98.4945 -0.0246 0.0747 600.0 1029.739 1029.7425 35.6415 35.6461 1508.3 1508.31 144.151 0.0
2017-10-14T12:30:45Z -46.0552 22.8008 at3901001 1 605.684 12.2083 12.2082 4.113 4.1134 1.4883 98.493 -0.019 0.063 601.0 1029.7439 1029.7473 35.6417 35.6459 1508.31 1508.32 143.968 0.0
2017-10-14T12:30:45Z -46.0552 22.8008 at3901001 1 606.693 12.2064 12.2063 4.1128 4.1132 1.488 98.4904 -0.0468 0.0703 602.0 1029.7484 1029.7518 35.6411 35.6456 1508.32 1508.33 143.95 0.0
2017-10-14T12:30:45Z -46.0552 22.8008 at3901001 1 607.702 12.1963 12.1942 4.1116 4.1119 1.4872 98.4919 -0.0393 0.0749 603.0 1029.7529 1029.7576 35.6386 35.6442 1508.3 1508.3 143.882 0.0
2017-10-14T12:30:45Z -46.0552 22.8008 at3901001 1 608.712 12.1832 12.1832 4.1103 4.1108 1.4863 98.4946 -0.0197 0.0757 604.0 1029.76 1029.7632 35.6385 35.6427 1508.27 1508.28 143.818 0.0
2017-10-14T12:30:45Z -46.0552 22.8008 at3901001 1 609.721 12.1815 12.1812 4.1101 4.1106 1.4846 98.5032 -0.0397 0.076 605.0 1029.7644 1029.7678 35.6379 35.6422 1508.28 1508.29 143.595 0.0
2017-10-14T12:30:45Z -46.0552 22.8008 at3901001 1 610.73 12.1759 12.1758 4.1095 4.11 1.4832 98.4976 -0.0567 0.0706 606.0 1029.7689 1029.7728 35.6364 35.6415 1508.28 1508.29 143.422 0.0
2017-10-14T12:30:45Z -46.0552 22.8008 at3901001 1 611.74 12.166 12.166 4.1084 4.1089 1.4814 98.491 -0.0325 0.0729 607.0 1029.7743 1029.7782 35.6351 35.6401 1508.26 1508.27 143.211 0.0
2017-10-14T12:30:45Z -46.0552 22.8008 at3901001 1 612.749 12.1495 12.1488 4.1066 4.1071 1.4794 98.4949 -0.0573 0.0783 608.0 1029.7799 1029.7844 35.6322 35.6378 1508.22 1508.22 142.987 0.0
2017-10-14T12:30:45Z -46.0552 22.8008 at3901001 1 613.758 12.1324 12.132 4.1047 4.1052 1.4767 98.5073 -0.0376 0.0737 609.0 1029.7864 1029.7902 35.6302 35.6351 1508.17 1508.18 142.678 0.0
2017-10-14T12:30:45Z -46.0552 22.8008 at3901001 1 614.767 12.1021 12.1016 4.1009 4.1019 1.4736 98.5055 -0.0495 0.0834 610.0 1029.7904 1029.7977 35.6217 35.631 1508.08 1508.09 142.339 0.0
2017-10-14T12:30:45Z -46.0552 22.8008 at3901001 1 615.777 12.0727 12.0727 4.0982 4.0987 1.4708 98.5076 -0.0264 0.0859 611.0 1029.8012 1029.8054 35.6221 35.6276 1507.99 1508.0 142.032 0.0
2017-10-14T12:30:45Z -46.0552 22.8008 at3901001 1 616.786 12.0476 12.0477 4.0951 4.0959 1.4677 98.5059 -0.0248 0.08 612.0 1029.8062 1029.8121 35.6162 35.6238 1507.92 1507.93 141.693 0.0
2017-10-14T12:30:45Z -46.0552 22.8008 at3901001 1 617.795 12.0265 12.0265 4.093 4.0936 1.466 98.4971 -0.0189 0.0655 613.0 1029.8142 1029.8188 35.6151 35.6211 1507.86 1507.87 141.524 0.0
2017-10-14T12:30:45Z -46.0552 22.8008 at3901001 1 618.805 12.0065 12.0059 4.0909 4.0914 1.4639 98.4977 -0.0175 0.074 614.0 1029.8211 1029.8255 35.6131 35.6186 1507.81 1507.81 141.303 0.0
2017-10-14T12:30:45Z -46.0552 22.8008 at3901001 1 619.814 11.9878 11.9878 4.0888 4.0894 1.4616 98.5032 -0.0462 0.0724 615.0 1029.8269 1029.8315 35.6098 35.6159 1507.76 1507.76 141.038 0.0
2017-10-14T12:30:45Z -46.0552 22.8008 at3901001 1 620.823 11.9724 11.9732 4.0873 4.0878 1.4609 98.5056 -0.0402 0.0698 616.0 1029.8339 1029.8373 35.609 35.6137 1507.72 1507.73 141.008 0.0
2017-10-14T12:30:45Z -46.0552 22.8008 at3901001 1 621.833 11.9695 11.9693 4.087 4.0874 1.4599 98.5092 -0.0431 0.0748 617.0 1029.8389 1029.8423 35.609 35.6134 1507.73 1507.73 140.881 0.0
2017-10-14T12:30:45Z -46.0552 22.8008 at3901001 1 622.842 11.9676 11.9674 4.0868 4.0873 1.4585 98.5059 -0.0239 0.062 618.0 1029.8433 1029.8469 35.6084 35.6131 1507.74 1507.74 140.7 0.0
2017-10-14T12:30:45Z -46.0552 22.8008 at3901001 1 623.851 11.9576 11.9574 4.0857 4.0862 1.4576 98.5082 -0.0214 0.0684 619.0 1029.8484 1029.8525 35.6066 35.6119 1507.72 1507.72 140.617 0.0
2017-10-14T12:30:45Z -46.0552 22.8008 at3901001 1 624.861 11.9429 11.9425 4.084 4.0846 1.4562 98.5022 -0.0418 0.0705 620.0 1029.8539 1029.8584 35.604 35.6098 1507.68 1507.69 140.484 0.0
2017-10-14T12:30:45Z -46.0552 22.8008 at3901001 1 625.87 11.9144 11.915 4.0807 4.0816 1.4544 98.5084 -0.0428 0.0756 621.0 1029.8596 1029.8655 35.5981 35.606 1507.59 1507.6 140.328 0.0
2017-10-14T12:30:45Z -46.0552 22.8008 at3901001 1 626.88 11.8813 11.8815 4.0771 4.0779 1.4517 98.5106 -0.0585 0.0734 622.0 1029.8679 1029.8732 35.5945 35.6014 1507.49 1507.5 140.055 0.0
2017-10-14T12:30:45Z -46.0552 22.8008 at3901001 1 627.889 11.8497 11.8507 4.0736 4.0745 1.4506 98.5052 -0.0399 0.0693 623.0 1029.8747 1029.8806 35.5893 35.5971 1507.39 1507.41 140.017 0.0
2017-10-14T12:30:45Z -46.0552 22.8008 at3901001 1 628.898 11.8281 11.8283 4.0715 4.0721 1.4478 98.5006 -0.0229 0.0759 624.0 1029.8834 1029.8877 35.589 35.5946 1507.34 1507.34 139.683 0.0
2017-10-14T12:30:45Z -46.0552 22.8008 at3901001 1 629.908 11.8134 11.8136 4.0699 4.0705 1.4454 98.5118 -0.042 0.0787 625.0 1029.889 1029.8934 35.5866 35.5925 1507.3 1507.31 139.388 0.0
2017-10-14T12:30:45Z -46.0552 22.8008 at3901001 1 630.917 11.7874 11.7881 4.0667 4.0677 1.4427 98.5095 -0.0455 0.0732 626.0 1029.8939 1029.9005 35.5804 35.5892 1507.22 1507.23 139.105 0.0
2017-10-14T12:30:45Z -46.0552 22.8008 at3901001 1 631.926 11.7173 11.7184 4.0588 4.06 1.4399 98.5105 -0.0274 0.0711 627.0 1029.9034 1029.9117 35.5687 35.5797 1506.98 1507.0 138.924 0.0
2017-10-14T12:30:45Z -46.0552 22.8008 at3901001 1 632.936 11.6687 11.6691 4.0537 4.0546 1.4368 98.5131 -0.0276 0.0792 628.0 1029.9145 1029.9208 35.5646 35.573 1506.83 1506.84 138.644 0.0
2017-10-14T12:30:45Z -46.0552 22.8008 at3901001 1 633.945 11.6271 11.6275 4.0493 4.05 1.4337 98.5127 -0.0644 0.0706 629.0 1029.9242 1029.9295 35.5607 35.5676 1506.7 1506.7 138.335 0.0
2017-10-14T12:30:45Z -46.0552 22.8008 at3901001 1 634.955 11.5945 11.5941 4.0456 4.0463 1.4304 98.5091 -0.037 0.075 630.0 1029.9311 1029.9371 35.5553 35.563 1506.59 1506.6 137.962 0.0
2017-10-14T12:30:45Z -46.0552 22.8008 at3901001 1 635.964 11.5457 11.545 4.0403 4.041 1.4275 98.5129 -0.0435 0.0787 631.0 1029.9408 1029.9466 35.5495 35.5569 1506.43 1506.44 137.708 0.0
2017-10-14T12:30:45Z -46.0552 22.8008 at3901001 1 636.973 11.5063 11.5067 4.0356 4.0368 1.4238 98.5118 -0.043 0.0783 632.0 1029.9462 1029.9544 35.5406 35.5513 1506.3 1506.32 137.303 0.0
2017-10-14T12:30:45Z -46.0552 22.8008 at3901001 1 637.983 11.4523 11.4516 4.0302 4.0308 1.4211 98.5177 -0.0286 0.0718 633.0 1029.9599 1029.9646 35.5387 35.5445 1506.13 1506.14 137.077 0.0
2017-10-14T12:30:45Z -46.0552 22.8008 at3901001 1 638.992 11.4423 11.4412 4.0293 4.0297 1.4193 98.513 -0.0493 0.0722 634.0 1029.9661 1029.9701 35.5383 35.5432 1506.11 1506.12 136.862 0.0
2017-10-14T12:30:45Z -46.0552 22.8008 at3901001 1 640.002 11.4385 11.4374 4.0289 4.0293 1.4176 98.5051 -0.0346 0.0756 635.0 1029.971 1029.975 35.5378 35.5428 1506.12 1506.12 136.646 0.0
2017-10-14T12:30:45Z -46.0552 22.8008 at3901001 1 641.011 11.4332 11.4327 4.0284 4.0288 1.4163 98.5065 -0.0163 0.0721 636.0 1029.9764 1029.9801 35.5378 35.5423 1506.11 1506.12 136.473 0.0
2017-10-14T12:30:45Z -46.0552 22.8008 at3901001 1 642.021 11.433 11.4327 4.0285 4.0289 1.4158 98.5227 -0.0363 0.0724 637.0 1029.9815 1029.9847 35.5384 35.5425 1506.13 1506.14 136.422 0.0
2017-10-14T12:30:45Z -46.0552 22.8008 at3901001 1 643.03 11.4327 11.4325 4.0285 4.029 1.4158 98.5239 -0.0336 0.0779 638.0 1029.9859 1029.9894 35.5383 35.5427 1506.15 1506.15 136.442 0.0
2017-10-14T12:30:45Z -46.0552 22.8008 at3901001 1 644.039 11.4334 11.4334 4.0287 4.0291 1.4152 98.5283 -0.0149 0.0757 639.0 1029.9907 1029.994 35.5388 35.5432 1506.17 1506.17 136.365 0.0
2017-10-14T12:30:45Z -46.0552 22.8008 at3901001 1 645.049 11.4346 11.4347 4.0289 4.0293 1.4154 98.5194 -0.0208 0.0722 640.0 1029.9952 1029.9984 35.5392 35.5434 1506.19 1506.19 136.415 0.0
2017-10-14T12:30:45Z -46.0552 22.8008 at3901001 1 646.058 11.435 11.4347 4.029 4.0294 1.4165 98.5181 -0.0166 0.0796 641.0 1029.9996 1030.003 35.5393 35.5436 1506.21 1506.21 136.586 0.0
2017-10-14T12:30:45Z -46.0552 22.8008 at3901001 1 647.068 11.4354 11.4351 4.0291 4.0295 1.417 98.5187 -0.0231 0.0752 642.0 1030.0043 1030.0077 35.5396 35.5439 1506.22 1506.23 136.677 0.0
2017-10-14T12:30:45Z -46.0552 22.8008 at3901001 1 648.077 11.4353 11.4351 4.0291 4.0296 1.4167 98.5211 -0.0421 0.0686 643.0 1030.009 1030.0122 35.5398 35.544 1506.24 1506.25 136.652 0.0
2017-10-14T12:30:45Z -46.0552 22.8008 at3901001 1 649.087 11.4354 11.4349 4.0292 4.0296 1.4164 98.5278 -0.0398 0.0685 644.0 1030.0134 1030.0169 35.5399 35.5441 1506.26 1506.26 136.627 0.0
2017-10-14T12:30:45Z -46.0552 22.8008 at3901001 1 650.096 11.4351 11.4349 4.0292 4.0297 1.4161 98.5295 -0.0345 0.0682 645.0 1030.0181 1030.0214 35.54 35.5443 1506.27 1506.28 136.594 0.0
2017-10-14T12:30:45Z -46.0552 22.8008 at3901001 1 651.106 11.4304 11.4321 4.0287 4.0294 1.4161 98.5231 -0.0417 0.0716 646.0 1030.0226 1030.0263 35.5388 35.544 1506.27 1506.29 136.625 0.0
2017-10-14T12:30:45Z -46.0552 22.8008 at3901001 1 652.115 11.4074 11.4086 4.0261 4.027 1.4171 98.5207 -0.0329 0.0751 647.0 1030.0287 1030.0338 35.5351 35.5419 1506.2 1506.22 136.869 0.0
2017-10-14T12:30:45Z -46.0552 22.8008 at3901001 1 653.125 11.3886 11.3886 4.0242 4.0248 1.4173 98.5276 -0.0209 0.0748 648.0 1030.0356 1030.0399 35.5333 35.539 1506.16 1506.16 136.981 0.0
2017-10-14T12:30:45Z -46.0552 22.8008 at3901001 1 654.134 11.3471 11.3496 4.0192 4.0206 1.4182 98.5311 -0.0574 0.0783 649.0 1030.0403 1030.0489 35.5231 35.5348 1506.02 1506.04 137.26 0.0
2017-10-14T12:30:45Z -46.0552 22.8008 at3901001 1 655.144 11.2449 11.2465 4.0079 4.0094 1.4183 98.535 -0.0254 0.0702 650.0 1030.0541 1030.064 35.509 35.5222 1505.66 1505.68 137.625 0.0
2017-10-14T12:30:45Z -46.0552 22.8008 at3901001 1 656.153 11.2045 11.2043 4.0043 4.0048 1.4167 98.521 -0.0373 0.0682 651.0 1030.0682 1030.0722 35.5112 35.5163 1505.54 1505.54 137.521 0.0
2017-10-14T12:30:45Z -46.0552 22.8008 at3901001 1 657.163 11.2001 11.1999 4.0038 4.0043 1.4151 98.5304 -0.0274 0.0771 652.0 1030.0729 1030.0767 35.5104 35.5153 1505.54 1505.54 137.309 0.0
2017-10-14T12:30:45Z -46.0552 22.8008 at3901001 1 658.172 11.1972 11.1966 4.0035 4.004 1.4145 98.5255 -0.0268 0.0747 653.0 1030.0778 1030.0815 35.5102 35.5149 1505.55 1505.55 137.245 0.0
2017-10-14T12:30:45Z -46.0552 22.8008 at3901001 1 659.182 11.1914 11.1908 4.0029 4.0034 1.4137 98.5315 -0.0416 0.0677 654.0 1030.0824 1030.0866 35.5088 35.5141 1505.54 1505.55 137.162 0.0
2017-10-14T12:30:45Z -46.0552 22.8008 at3901001 1 660.191 11.1784 11.179 4.0015 4.0021 1.4133 98.5277 -0.0261 0.0743 655.0 1030.0882 1030.0924 35.5072 35.5128 1505.51 1505.52 137.171 0.0
2017-10-14T12:30:45Z -46.0552 22.8008 at3901001 1 661.201 11.1696 11.1702 4.0006 4.0012 1.4133 98.5251 -0.0196 0.0785 656.0 1030.0935 1030.0976 35.5061 35.5116 1505.49 1505.5 137.219 0.0
2017-10-14T12:30:45Z -46.0552 22.8008 at3901001 1 662.21 11.1599 11.1607 3.9996 4.0002 1.4126 98.5328 -0.0224 0.0758 657.0 1030.0993 1030.103 35.5053 35.5103 1505.48 1505.49 137.157 0.0
2017-10-14T12:30:45Z -46.0552 22.8008 at3901001 1 663.22 11.1495 11.1498 3.9984 3.9991 1.4112 98.5376 -0.0164 0.0775 658.0 1030.1041 1030.1086 35.5031 35.509 1505.46 1505.46 136.995 0.0
2017-10-14T12:30:45Z -46.0552 22.8008 at3901001 1 664.229 11.1246 11.1233 3.9956 3.9962 1.4097 98.5347 -0.0204 0.0748 659.0 1030.1095 1030.1154 35.4981 35.5054 1505.38 1505.38 136.865 0.0
2017-10-14T12:30:45Z -46.0552 22.8008 at3901001 1 665.239 11.0762 11.0791 3.9902 3.9913 1.4064 98.5345 -0.0417 0.0729 660.0 1030.1181 1030.1236 35.4912 35.4989 1505.22 1505.24 136.553 0.0
2017-10-14T12:30:45Z -46.0552 22.8008 at3901001 1 666.248 11.0514 11.0487 3.9875 3.9879 1.403 98.5415 -0.0376 0.0695 661.0 1030.1248 1030.1303 35.4877 35.4941 1505.14 1505.14 136.125 0.0
2017-10-14T12:30:45Z -46.0552 22.8008 at3901001 1 667.258 11.0297 11.0293 3.9852 3.9858 1.3992 98.5398 -0.018 0.0743 662.0 1030.1311 1030.1359 35.4847 35.4907 1505.08 1505.09 135.638 0.0
2017-10-14T12:30:45Z -46.0552 22.8008 at3901001 1 668.268 11.0142 11.0143 3.9834 3.9841 1.3947 98.5398 -0.0448 0.075 663.0 1030.1362 1030.1414 35.4815 35.4883 1505.04 1505.05 135.026 0.0
2017-10-14T12:30:45Z -46.0552 22.8008 at3901001 1 669.277 10.9792 10.9807 3.9793 3.9804 1.3902 98.5384 -0.0292 0.0637 664.0 1030.1413 1030.1486 35.4736 35.4833 1504.92 1504.94 134.483 0.0
2017-10-14T12:30:45Z -46.0552 22.8008 at3901001 1 670.287 10.8829 10.8882 3.9684 3.9704 1.3867 98.5311 -0.04 0.0615 665.0 1030.152 1030.162 35.4575 35.4717 1504.58 1504.62 134.274 0.0
2017-10-14T12:30:45Z -46.0552 22.8008 at3901001 1 671.296 10.8532 10.8243 3.966 3.9635 1.3821 98.5377 -0.0391 0.0751 666.0 1030.1653 1030.1732 35.4614 35.4643 1504.5 1504.4 133.679 0.0
2017-10-14T12:30:45Z -46.0552 22.8008 at3901001 1 672.306 10.8091 10.8053 3.9611 3.9615 1.3787 98.5394 -0.018 0.0699 667.0 1030.1727 1030.1792 35.4542 35.4617 1504.35 1504.35 133.323 0.0
2017-10-14T12:30:45Z -46.0552 22.8008 at3901001 1 673.316 10.7939 10.7935 3.9598 3.9602 1.3772 98.5371 -0.0594 0.0741 668.0 1030.181 1030.185 35.4553 35.4604 1504.32 1504.32 133.159 0.0
2017-10-14T12:30:45Z -46.0552 22.8008 at3901001 1 674.325 10.7881 10.7866 3.9592 3.9596 1.3766 98.5418 -0.043 0.0732 669.0 1030.1858 1030.1903 35.4543 35.4597 1504.31 1504.31 133.105 0.0
2017-10-14T12:30:45Z -46.0552 22.8008 at3901001 1 675.335 10.7769 10.777 3.958 3.9586 1.3756 98.5417 -0.027 0.0736 670.0 1030.1915 1030.196 35.4531 35.4588 1504.29 1504.29 133.008 0.0
2017-10-14T12:30:45Z -46.0552 22.8008 at3901001 1 676.344 10.7563 10.7574 3.9555 3.9565 1.3755 98.54 -0.0144 0.0736 671.0 1030.1959 1030.2025 35.4478 35.4566 1504.23 1504.24 133.07 0.0
2017-10-14T12:30:45Z -46.0552 22.8008 at3901001 1 677.354 10.7344 10.7341 3.9535 3.9541 1.3754 98.5352 -0.0321 0.075 672.0 1030.2046 1030.2095 35.4479 35.4541 1504.17 1504.17 133.142 0.0
2017-10-14T12:30:45Z -46.0552 22.8008 at3901001 1 678.363 10.7277 10.7226 3.953 3.9528 1.3752 98.5389 -0.0278 0.075 673.0 1030.211 1030.2149 35.4486 35.4524 1504.16 1504.15 133.149 0.0
2017-10-14T12:30:45Z -46.0552 22.8008 at3901001 1 679.373 10.7262 10.7174 3.9526 3.9523 1.3748 98.5399 -0.0208 0.0742 674.0 1030.2135 1030.2199 35.4456 35.4518 1504.17 1504.14 133.107 0.0
2017-10-14T12:30:45Z -46.0552 22.8008 at3901001 1 680.383 10.7148 10.7147 3.9516 3.9521 1.3742 98.5484 -0.0431 0.0681 675.0 1030.221 1030.2247 35.4467 35.4515 1504.15 1504.15 133.069 0.0
2017-10-14T12:30:45Z -46.0552 22.8008 at3901001 1 681.392 10.7126 10.7124 3.9514 3.9519 1.3738 98.5453 -0.0411 0.0744 676.0 1030.2257 1030.2295 35.4465 35.4513 1504.16 1504.16 133.027 0.0
2017-10-14T12:30:45Z -46.0552 22.8008 at3901001 1 682.402 10.7094 10.7091 3.9511 3.9516 1.3722 98.5427 -0.0366 0.0774 677.0 1030.2304 1030.2343 35.4459 35.4509 1504.16 1504.16 132.82 0.0
2017-10-14T12:30:45Z -46.0552 22.8008 at3901001 1 683.411 10.7057 10.7054 3.9507 3.9512 1.3716 98.551 -0.0426 0.075 678.0 1030.2351 1030.2392 35.4453 35.4505 1504.16 1504.17 132.751 0.0
2017-10-14T12:30:45Z -46.0552 22.8008 at3901001 1 684.421 10.6942 10.6939 3.9494 3.95 1.3706 98.5523 -0.0586 0.0687 679.0 1030.2398 1030.2444 35.4427 35.4486 1504.13 1504.14 132.663 0.0
2017-10-14T12:30:45Z -46.0552 22.8008 at3901001 1 685.431 10.6822 10.6821 3.9482 3.9487 1.3699 98.5419 -0.0472 0.0687 680.0 1030.2457 1030.2499 35.4417 35.4469 1504.11 1504.11 132.599 0.0
2017-10-14T12:30:45Z -46.0552 22.8008 at3901001 1 686.44 10.6758 10.6756 3.9475 3.948 1.3683 98.5461 -0.0395 0.07 681.0 1030.2509 1030.2547 35.4409 35.4458 1504.1 1504.11 132.399 0.0
2017-10-14T12:30:45Z -46.0552 22.8008 at3901001 1 687.45 10.6715 10.6712 3.9471 3.9476 1.3668 98.553 -0.0279 0.0772 682.0 1030.2558 1030.2596 35.4404 35.4452 1504.1 1504.11 132.203 0.0
2017-10-14T12:30:45Z -46.0552 22.8008 at3901001 1 688.46 10.6683 10.668 3.9468 3.9473 1.3657 98.5495 -0.0073 0.0732 683.0 1030.2606 1030.2643 35.44 35.4447 1504.11 1504.11 132.061 0.0
2017-10-14T12:30:45Z -46.0552 22.8008 at3901001 1 689.469 10.6655 10.6654 3.9466 3.947 1.3647 98.5507 -0.0311 0.0687 684.0 1030.2653 1030.269 35.4396 35.4443 1504.11 1504.12 131.925 0.0
2017-10-14T12:30:45Z -46.0552 22.8008 at3901001 1 690.479 10.6547 10.6548 3.9453 3.9459 1.3635 98.5556 -0.0205 0.0677 685.0 1030.2697 1030.2744 35.4368 35.4428 1504.09 1504.1 131.802 0.0
2017-10-14T12:30:45Z -46.0552 22.8008 at3901001 1 691.489 10.6353 10.6348 3.9432 3.9438 1.3626 98.5495 -0.0152 0.0722 686.0 1030.2757 1030.2806 35.434 35.4402 1504.03 1504.04 131.736 0.0
2017-10-14T12:30:45Z -46.0552 22.8008 at3901001 1 692.499 10.62 10.6195 3.9417 3.9421 1.3602 98.5572 -0.0246 0.0628 687.0 1030.2823 1030.2863 35.4329 35.4379 1503.99 1504.0 131.438 0.0
2017-10-14T12:30:45Z -46.0552 22.8008 at3901001 1 693.508 10.6121 10.6129 3.9408 3.9414 1.3589 98.554 -0.0046 0.0751 688.0 1030.2873 1030.2914 35.4317 35.437 1503.98 1503.99 131.286 0.0
2017-10-14T12:30:45Z -46.0552 22.8008 at3901001 1 694.518 10.6031 10.6029 3.9399 3.9404 1.358 98.5592 -0.0671 0.0693 689.0 1030.2924 1030.2967 35.4302 35.4357 1503.97 1503.97 131.189 0.0
2017-10-14T12:30:45Z -46.0552 22.8008 at3901001 1 695.528 10.5884 10.5881 3.9381 3.9388 1.3572 98.557 -0.0405 0.0644 690.0 1030.2968 1030.3024 35.4265 35.4336 1503.92 1503.93 131.124 0.0
2017-10-14T12:30:45Z -46.0552 22.8008 at3901001 1 696.537 10.561 10.5612 3.9351 3.9359 1.3563 98.5462 -0.019 0.0664 691.0 1030.3032 1030.3093 35.4222 35.43 1503.84 1503.85 131.101 0.0
2017-10-14T12:30:45Z -46.0552 22.8008 at3901001 1 697.547 10.5373 10.537 3.9327 3.9333 1.3543 98.5536 -0.0228 0.0731 692.0 1030.3112 1030.316 35.4208 35.4269 1503.77 1503.78 130.871 0.0
2017-10-14T12:30:45Z -46.0552 22.8008 at3901001 1 698.557 10.5156 10.4943 3.9304 3.9288 1.3528 98.5541 -0.0326 0.0675 693.0 1030.3176 1030.3247 35.418 35.4219 1503.71 1503.64 130.732 0.0
2017-10-14T12:30:45Z -46.0552 22.8008 at3901001 1 699.566 10.436 10.4282 3.9216 3.9217 1.3522 98.5575 -0.0308 0.068 694.0 1030.3275 1030.3354 35.4055 35.4137 1503.43 1503.41 130.901 0.0
2017-10-14T12:30:45Z -46.0552 22.8008 at3901001 1 700.576 10.4118 10.4118 3.9193 3.9199 1.3518 98.5606 -0.0476 0.0666 695.0 1030.3363 1030.3412 35.4051 35.4114 1503.36 1503.36 130.931 0.0
2017-10-14T12:30:45Z -46.0552 22.8008 at3901001 1 701.586 10.3892 10.3902 3.9167 3.9175 1.3502 98.5576 -0.0414 0.0718 696.0 1030.3414 1030.3471 35.4004 35.408 1503.29 1503.3 130.776 0.0
2017-10-14T12:30:45Z -46.0552 22.8008 at3901001 1 702.596 10.3753 10.3748 3.9155 3.9159 1.3489 98.5648 -0.0383 0.0739 697.0 1030.3492 1030.3532 35.4013 35.4062 1503.26 1503.26 130.626 0.0
2017-10-14T12:30:45Z -46.0552 22.8008 at3901001 1 703.605 10.3694 10.3684 3.9148 3.9152 1.3478 98.5649 -0.0257 0.0661 698.0 1030.3536 1030.358 35.3997 35.4051 1503.25 1503.25 130.495 0.0
2017-10-14T12:30:45Z -46.0552 22.8008 at3901001 1 704.615 10.3642 10.3636 3.9143 3.9148 1.3466 98.5604 -0.0369 0.073 699.0 1030.3584 1030.3629 35.3988 35.4044 1503.25 1503.25 130.342 0.0
2017-10-14T12:30:45Z -46.0552 22.8008 at3901001 1 705.625 10.3516 10.3514 3.9129 3.9135 1.3448 98.5598 -0.0311 0.0707 700.0 1030.364 1030.3683 35.3971 35.4027 1503.22 1503.22 130.127 0.0
2017-10-14T12:30:45Z -46.0552 22.8008 at3901001 1 706.634 10.3453 10.3404 3.9123 3.9123 1.344 98.5619 -0.0507 0.0732 701.0 1030.3695 1030.3741 35.3969 35.4016 1503.21 1503.2 130.04 0.0
2017-10-14T12:30:45Z -46.0552 22.8008 at3901001 1 707.644 10.3333 10.3315 3.9111 3.9114 1.3429 98.5548 -0.0166 0.0752 702.0 1030.375 1030.3793 35.3953 35.4004 1503.18 1503.18 129.93 0.0
2017-10-14T12:30:45Z -46.0552 22.8008 at3901001 1 708.654 10.3227 10.323 3.91 3.9106 1.3423 98.5651 -0.0358 0.0777 703.0 1030.3807 1030.3847 35.3943 35.3994 1503.16 1503.17 129.885 0.0
2017-10-14T12:30:45Z -46.0552 22.8008 at3901001 1 709.664 10.3204 10.32 3.9099 3.9103 1.3414 98.5649 -0.0316 0.0788 704.0 1030.3859 1030.3896 35.3947 35.3993 1503.17 1503.17 129.77 0.0
2017-10-14T12:30:45Z -46.0552 22.8008 at3901001 1 710.673 10.3185 10.3186 3.9097 3.9102 1.3412 98.5604 -0.0096 0.0783 705.0 1030.3904 1030.3942 35.3942 35.3991 1503.18 1503.19 129.756 0.0
2017-10-14T12:30:45Z -46.0552 22.8008 at3901001 1 711.683 10.3172 10.3168 3.9097 3.9101 1.3412 98.5635 -0.0378 0.0674 706.0 1030.3954 1030.399 35.3945 35.3991 1503.19 1503.19 129.777 0.0
2017-10-14T12:30:45Z -46.0552 22.8008 at3901001 1 712.693 10.3167 10.3147 3.9096 3.9099 1.3408 98.5637 -0.0329 0.0777 707.0 1030.3996 1030.4038 35.394 35.399 1503.21 1503.2 129.739 0.0
2017-10-14T12:30:45Z -46.0552 22.8008 at3901001 1 713.703 10.3088 10.3083 3.9088 3.9093 1.3413 98.5633 -0.0467 0.0743 708.0 1030.4052 1030.4092 35.3935 35.3985 1503.19 1503.2 129.856 0.0
2017-10-14T12:30:45Z -46.0552 22.8008 at3901001 1 714.713 10.3072 10.3067 3.9088 3.9092 1.3425 98.5657 -0.0149 0.0648 709.0 1030.4103 1030.4139 35.3939 35.3984 1503.2 1503.21 130.051 0.0
2017-10-14T12:30:45Z -46.0552 22.8008 at3901001 1 715.722 10.3052 10.3047 3.9085 3.909 1.3426 98.5649 -0.0366 0.0664 710.0 1030.4147 1030.4189 35.3933 35.3986 1503.21 1503.22 130.089 0.0
2017-10-14T12:30:45Z -46.0552 22.8008 at3901001 1 716.732 10.2904 10.2901 3.907 3.9075 1.3434 98.5649 -0.0283 0.0672 711.0 1030.4205 1030.4251 35.3914 35.3972 1503.17 1503.18 130.276 0.0
2017-10-14T12:30:45Z -46.0552 22.8008 at3901001 1 717.742 10.2811 10.2806 3.9061 3.9066 1.3441 98.5675 -0.0463 0.0693 712.0 1030.4267 1030.4308 35.3914 35.3965 1503.16 1503.16 130.437 0.0
2017-10-14T12:30:45Z -46.0552 22.8008 at3901001 1 718.752 10.2756 10.2753 3.9055 3.9061 1.3451 98.565 -0.0373 0.0712 713.0 1030.4313 1030.4358 35.3901 35.3959 1503.15 1503.16 130.631 0.0
2017-10-14T12:30:45Z -46.0552 22.8008 at3901001 1 719.762 10.254 10.2565 3.9032 3.9041 1.3464 98.563 -0.0142 0.0652 714.0 1030.437 1030.4422 35.3865 35.3937 1503.09 1503.11 130.902 0.0
2017-10-14T12:30:45Z -46.0552 22.8008 at3901001 1 720.771 10.2063 10.2075 3.8979 3.899 1.3472 98.5657 -0.0346 0.0764 715.0 1030.4446 1030.4519 35.3789 35.3886 1502.93 1502.94 131.193 0.0
2017-10-14T12:30:45Z -46.0552 22.8008 at3901001 1 721.781 10.1572 10.1572 3.8929 3.8935 1.3471 98.5684 -0.0257 0.0766 716.0 1030.4559 1030.4603 35.3758 35.3814 1502.76 1502.77 131.358 0.0
2017-10-14T12:30:45Z -46.0552 22.8008 at3901001 1 722.791 10.128 10.1274 3.8892 3.8903 1.3461 98.5677 -0.0212 0.0704 717.0 1030.4584 1030.4671 35.3661 35.3772 1502.66 1502.67 131.316 0.0
2017-10-14T12:30:45Z -46.0552 22.8008 at3901001 1 723.801 10.0485 10.0465 3.8809 3.8817 1.346 98.5663 -0.0458 0.0676 718.0 1030.4713 1030.4799 35.3578 35.3685 1502.38 1502.39 131.566 0.0
2017-10-14T12:30:45Z -46.0552 22.8008 at3901001 1 724.811 10.0334 10.0332 3.8799 3.8804 1.3459 98.5709 -0.0422 0.0688 719.0 1030.4819 1030.486 35.362 35.3673 1502.35 1502.36 131.609 0.0
2017-10-14T12:30:45Z -46.0552 22.8008 at3901001 1 725.82 10.0315 10.0309 3.8797 3.8801 1.3453 98.5677 -0.0214 0.0703 720.0 1030.4863 1030.4903 35.3615 35.3666 1502.36 1502.37 131.526 0.0
2017-10-14T12:30:45Z -46.0552 22.8008 at3901001 1 726.83 10.0218 10.0194 3.8787 3.8789 1.3458 98.5779 -0.0266 0.0676 721.0 1030.4917 1030.4959 35.3603 35.3652 1502.34 1502.34 131.654 0.0
2017-10-14T12:30:45Z -46.0552 22.8008 at3901001 1 727.84 10.0093 10.007 3.8773 3.8777 1.3465 98.5736 -0.0192 0.0735 722.0 1030.4968 1030.5018 35.3582 35.364 1502.31 1502.31 131.827 0.0
2017-10-14T12:30:45Z -46.0552 22.8008 at3901001 1 728.85 9.9957 9.9964 3.876 3.8766 1.3464 98.569 -0.0243 0.0728 723.0 1030.503 1030.5074 35.357 35.3629 1502.28 1502.29 131.863 0.0
2017-10-14T12:30:45Z -46.0552 22.8008 at3901001 1 729.86 9.9932 9.9932 3.8758 3.8763 1.3466 98.5677 -0.0392 0.0747 724.0 1030.5085 1030.5123 35.3577 35.3627 1502.29 1502.29 131.92 0.0
2017-10-14T12:30:45Z -46.0552 22.8008 at3901001 1 730.87 9.9862 9.9861 3.8751 3.8756 1.3472 98.5804 -0.0358 0.0698 725.0 1030.5131 1030.5175 35.3562 35.3619 1502.28 1502.28 132.053 0.0
2017-10-14T12:30:45Z -46.0552 22.8008 at3901001 1 731.88 9.9804 9.9803 3.8745 3.875 1.3473 98.5736 -0.0248 0.0694 726.0 1030.5185 1030.5226 35.356 35.3612 1502.27 1502.28 132.103 0.0
2017-10-14T12:30:45Z -46.0552 22.8008 at3901001 1 732.89 9.9735 9.9729 3.8739 3.8743 1.3478 98.576 -0.0442 0.0728 727.0 1030.5238 1030.5277 35.3553 35.3603 1502.26 1502.27 132.224 0.0
2017-10-14T12:30:45Z -46.0552 22.8008 at3901001 1 733.9 9.9703 9.9696 3.8736 3.874 1.3486 98.5747 -0.0227 0.0766 728.0 1030.5287 1030.5326 35.3552 35.36 1502.27 1502.27 132.378 0.0
2017-10-14T12:30:45Z -46.0552 22.8008 at3901001 1 734.909 9.9662 9.9663 3.8732 3.8737 1.3486 98.5625 -0.019 0.0644 729.0 1030.5334 1030.5374 35.3544 35.3596 1502.27 1502.27 132.405 0.0
2017-10-14T12:30:45Z -46.0552 22.8008 at3901001 1 735.919 9.9581 9.9576 3.8723 3.8728 1.3478 98.5815 -0.0257 0.0656 730.0 1030.5386 1030.5426 35.3534 35.3584 1502.26 1502.26 132.315 0.0
2017-10-14T12:30:45Z -46.0552 22.8008 at3901001 1 736.929 9.9495 9.9485 3.8714 3.8718 1.3472 98.5885 -3.0E-4 0.0667 731.0 1030.5434 1030.5479 35.3517 35.3572 1502.24 1502.24 132.267 0.0
2017-10-14T12:30:45Z -46.0552 22.8008 at3901001 1 737.939 9.945 9.9447 3.871 3.8714 1.3466 98.5565 -0.0544 0.0727 732.0 1030.5489 1030.5525 35.3518 35.3565 1502.24 1502.25 132.216 0.0
2017-10-14T12:30:45Z -46.0552 22.8008 at3901001 1 738.949 9.9442 9.944 3.871 3.8714 1.3462 98.5772 -0.0459 0.0679 733.0 1030.5535 1030.557 35.3518 35.3563 1502.26 1502.26 132.168 0.0
2017-10-14T12:30:45Z -46.0552 22.8008 at3901001 1 739.959 9.9417 9.9412 3.8707 3.8712 1.3457 98.5788 -0.0328 0.0662 734.0 1030.5579 1030.5617 35.3511 35.3559 1502.26 1502.27 132.117 0.0
2017-10-14T12:30:45Z -46.0552 22.8008 at3901001 1 740.969 9.9379 9.9376 3.8703 3.8708 1.3449 98.5817 -0.0105 0.0732 735.0 1030.5624 1030.5665 35.3502 35.3554 1502.26 1502.27 132.021 0.0
2017-10-14T12:30:45Z -46.0552 22.8008 at3901001 1 741.979 9.9329 9.9329 3.8698 3.8703 1.3448 98.5831 -0.0136 0.0727 736.0 1030.5671 1030.5711 35.3492 35.3544 1502.26 1502.27 132.04 0.0
2017-10-14T12:30:45Z -46.0552 22.8008 at3901001 1 742.989 9.9212 9.9211 3.8684 3.869 1.3434 98.584 -0.0081 0.0686 737.0 1030.5714 1030.5763 35.3463 35.3525 1502.23 1502.24 131.881 0.0
2017-10-14T12:30:45Z -46.0552 22.8008 at3901001 1 743.998 9.8867 9.8867 3.8647 3.8654 1.3418 98.5872 -0.0314 0.0627 738.0 1030.5782 1030.5839 35.3409 35.3483 1502.12 1502.13 131.758 0.0
2017-10-14T12:30:45Z -46.0552 22.8008 at3901001 1 745.008 9.8621 9.8619 3.8621 3.8627 1.3407 98.5817 -0.046 0.0741 739.0 1030.585 1030.5905 35.3381 35.3451 1502.04 1502.05 131.679 0.0
2017-10-14T12:30:45Z -46.0552 22.8008 at3901001 1 746.018 9.8388 9.8385 3.8597 3.8602 1.3407 98.5845 -0.0118 0.0781 740.0 1030.5923 1030.5968 35.336 35.3418 1501.97 1501.98 131.768 0.0
2017-10-14T12:30:45Z -46.0552 22.8008 at3901001 1 747.028 9.8228 9.8226 3.858 3.8586 1.34 98.5916 -0.0538 0.0748 741.0 1030.5978 1030.6028 35.3337 35.3399 1501.93 1501.94 131.72 0.0
2017-10-14T12:30:45Z -46.0552 22.8008 at3901001 1 748.038 9.8012 9.8008 3.8556 3.8563 1.3389 98.5905 -0.0323 0.083 742.0 1030.6034 1030.6093 35.3299 35.3373 1501.86 1501.87 131.635 0.0
2017-10-14T12:30:45Z -46.0552 22.8008 at3901001 1 749.048 9.7461 9.745 3.8498 3.8504 1.3388 98.5875 -0.0303 0.0672 743.0 1030.6128 1030.6192 35.3231 35.3311 1501.67 1501.68 131.806 0.0
2017-10-14T12:30:45Z -46.0552 22.8008 at3901001 1 750.058 9.7347 9.7333 3.8488 3.8491 1.338 98.5857 -0.0221 0.0615 744.0 1030.6201 1030.6242 35.3241 35.329 1501.65 1501.65 131.744 0.0
2017-10-14T12:30:45Z -46.0552 22.8008 at3901001 1 751.068 9.7161 9.7151 3.8466 3.8472 1.3369 98.5893 -0.0583 0.0693 745.0 1030.6238 1030.6299 35.3187 35.3262 1501.59 1501.6 131.641 0.0
2017-10-14T12:30:45Z -46.0552 22.8008 at3901001 1 752.078 9.6933 9.6935 3.8443 3.8449 1.3362 98.5888 -0.0269 0.0738 746.0 1030.6315 1030.6365 35.3174 35.3238 1501.52 1501.53 131.618 0.0
2017-10-14T12:30:45Z -46.0552 22.8008 at3901001 1 753.088 9.674 9.6737 3.8422 3.8429 1.3353 98.5853 -0.0451 0.0734 747.0 1030.6373 1030.6426 35.3145 35.3212 1501.47 1501.47 131.556 0.0
2017-10-14T12:30:45Z -46.0552 22.8008 at3901001 1 754.098 9.6602 9.6596 3.8408 3.8414 1.3342 98.5796 -0.0337 0.0732 748.0 1030.6431 1030.648 35.3129 35.3191 1501.43 1501.44 131.444 0.0
2017-10-14T12:30:45Z -46.0552 22.8008 at3901001 1 755.108 9.64 9.6403 3.8385 3.8392 1.3327 98.585 -0.0222 0.0711 749.0 1030.6477 1030.6534 35.3083 35.3156 1501.37 1501.38 131.3 0.0
2017-10-14T12:30:45Z -46.0552 22.8008 at3901001 1 756.118 9.6157 9.615 3.8359 3.8365 1.3307 98.5741 -0.018 0.0653 750.0 1030.6545 1030.6596 35.3055 35.3119 1501.29 1501.3 131.074 0.0
2017-10-14T12:30:45Z -46.0552 22.8008 at3901001 1 757.128 9.6023 9.6009 3.8346 3.835 1.3288 98.5893 -0.0264 0.0643 751.0 1030.6607 1030.6651 35.3045 35.3098 1501.26 1501.26 130.834 0.0
2017-10-14T12:30:45Z -46.0552 22.8008 at3901001 1 758.138 9.5942 9.5938 3.8338 3.8343 1.327 98.5898 -0.0303 0.0661 752.0 1030.6658 1030.6701 35.3034 35.3089 1501.25 1501.25 130.594 0.0
2017-10-14T12:30:45Z -46.0552 22.8008 at3901001 1 759.148 9.5803 9.5798 3.8322 3.8329 1.3251 98.5885 -0.0641 0.0747 753.0 1030.6706 1030.676 35.3005 35.3074 1501.21 1501.22 130.358 0.0
2017-10-14T12:30:45Z -46.0552 22.8008 at3901001 1 760.158 9.5513 9.5504 3.8291 3.8297 1.323 98.5929 -0.0401 0.0742 754.0 1030.6774 1030.6829 35.2966 35.3036 1501.12 1501.12 130.127 0.0
2017-10-14T12:30:45Z -46.0552 22.8008 at3901001 1 761.168 9.5329 9.5323 3.8273 3.8279 1.3221 98.5903 -0.0162 0.0665 755.0 1030.684 1030.6892 35.295 35.3016 1501.07 1501.07 130.065 0.0
2017-10-14T12:30:45Z -46.0552 22.8008 at3901001 1 762.178 9.5068 9.5064 3.8244 3.8252 1.322 98.5901 -0.0129 0.0657 756.0 1030.69 1030.6965 35.2908 35.2991 1500.98 1500.99 130.138 0.0
2017-10-14T12:30:45Z -46.0552 22.8008 at3901001 1 763.188 9.4846 9.4833 3.8225 3.8229 1.3228 98.5929 -0.0268 0.066 757.0 1030.6994 1030.7041 35.292 35.2977 1500.92 1500.92 130.35 0.0
2017-10-14T12:30:45Z -46.0552 22.8008 at3901001 1 764.198 9.4793 9.479 3.822 3.8225 1.3241 98.5927 -0.0379 0.067 758.0 1030.7048 1030.7087 35.2919 35.2968 1500.92 1500.92 130.591 0.0
2017-10-14T12:30:45Z -46.0552 22.8008 at3901001 1 765.208 9.4698 9.4689 3.8209 3.8214 1.3253 98.5915 -0.0351 0.0636 759.0 1030.709 1030.7141 35.2892 35.2956 1500.9 1500.9 130.835 0.0
2017-10-14T12:30:45Z -46.0552 22.8008 at3901001 1 766.218 9.4567 9.4566 3.8197 3.8201 1.3249 98.5905 -0.0543 0.0733 760.0 1030.7155 1030.7193 35.2887 35.2936 1500.86 1500.87 130.831 0.0
2017-10-14T12:30:45Z -46.0552 22.8008 at3901001 1 767.228 9.453 9.4535 3.8193 3.8198 1.3241 98.5882 -0.021 0.0788 761.0 1030.7198 1030.7239 35.2877 35.293 1500.87 1500.87 130.737 0.0
2017-10-14T12:30:45Z -46.0552 22.8008 at3901001 1 768.238 9.45 9.45 3.819 3.8195 1.323 98.594 -0.0416 0.0775 762.0 1030.7244 1030.7285 35.2871 35.2923 1500.87 1500.88 130.576 0.0
2017-10-14T12:30:45Z -46.0552 22.8008 at3901001 1 769.248 9.4485 9.4478 3.8189 3.8193 1.322 98.5927 -0.0316 0.075 763.0 1030.7293 1030.7332 35.2872 35.292 1500.88 1500.89 130.452 0.0
2017-10-14T12:30:45Z -46.0552 22.8008 at3901001 1 770.258 9.4397 9.437 3.8177 3.8181 1.3213 98.5915 -0.0269 0.0737 764.0 1030.7321 1030.738 35.283 35.2899 1500.86 1500.86 130.387 0.0
2017-10-14T12:30:45Z -46.0552 22.8008 at3901001 1 771.268 9.4007 9.4002 3.8134 3.8142 1.3202 98.5952 -0.0381 0.0739 765.0 1030.7384 1030.7452 35.2761 35.2849 1500.73 1500.74 130.345 0.0
2017-10-14T12:30:45Z -46.0552 22.8008 at3901001 1 772.278 9.3579 9.3575 3.8091 3.8097 1.3184 98.5925 -0.062 0.0688 766.0 1030.7487 1030.7538 35.2737 35.2802 1500.59 1500.59 130.216 0.0
2017-10-14T12:30:45Z -46.0552 22.8008 at3901001 1 773.288 9.3486 9.3478 3.8083 3.8087 1.3169 98.5955 -0.0244 0.0725 767.0 1030.7547 1030.7588 35.2735 35.2786 1500.57 1500.57 130.026 0.0
2017-10-14T12:30:45Z -46.0552 22.8008 at3901001 1 774.298 9.3402 9.3399 3.8072 3.8079 1.3157 98.5963 -0.0137 0.0735 768.0 1030.7585 1030.7639 35.2707 35.2774 1500.55 1500.56 129.872 0.0
2017-10-14T12:30:45Z -46.0552 22.8008 at3901001 1 775.309 9.2901 9.2884 3.8013 3.8023 1.3155 98.5968 -0.0122 0.0678 769.0 1030.7624 1030.772 35.2582 35.2702 1500.37 1500.38 130.022 0.0
2017-10-14T12:30:45Z -46.0552 22.8008 at3901001 1 776.319 9.2494 9.2491 3.7976 3.7982 1.3143 98.597 -0.0224 0.0659 770.0 1030.7752 1030.7796 35.2594 35.2651 1500.24 1500.24 129.973 0.0
2017-10-14T12:30:45Z -46.0552 22.8008 at3901001 1 777.329 9.2392 9.2378 3.7965 3.797 1.3127 98.595 -0.0207 0.0657 771.0 1030.78 1030.785 35.2576 35.2636 1500.22 1500.22 129.766 0.0
2017-10-14T12:30:45Z -46.0552 22.8008 at3901001 1 778.339 9.2186 9.2174 3.7944 3.7949 1.3116 98.597 -0.0389 0.073 772.0 1030.7865 1030.7912 35.2553 35.2611 1500.15 1500.15 129.675 0.0
2017-10-14T12:30:45Z -46.0552 22.8008 at3901001 1 779.349 9.2092 9.2088 3.7935 3.794 1.3101 98.5975 -0.0198 0.0738 773.0 1030.7918 1030.7963 35.2542 35.2599 1500.13 1500.14 129.484 0.0
2017-10-14T12:30:45Z -46.0552 22.8008 at3901001 1 780.359 9.1951 9.195 3.7919 3.7926 1.3089 98.6003 -0.0462 0.0686 774.0 1030.7969 1030.802 35.2517 35.2583 1500.1 1500.1 129.354 0.0
2017-10-14T12:30:45Z -46.0552 22.8008 at3901001 1 781.369 9.1833 9.1825 3.7908 3.7913 1.3083 98.5962 -0.0468 0.063 775.0 1030.8031 1030.8079 35.2512 35.2571 1500.07 1500.07 129.309 0.0
2017-10-14T12:30:45Z -46.0552 22.8008 at3901001 1 782.379 9.1776 9.1771 3.7903 3.7908 1.3083 98.6004 -0.0367 0.0662 776.0 1030.8087 1030.8128 35.2512 35.2565 1500.06 1500.07 129.343 0.0
2017-10-14T12:30:45Z -46.0552 22.8008 at3901001 1 783.389 9.1745 9.174 3.7901 3.7905 1.3083 98.5985 -0.0188 0.0755 777.0 1030.8137 1030.8176 35.2512 35.2561 1500.07 1500.07 129.37 0.0
2017-10-14T12:30:45Z -46.0552 22.8008 at3901001 1 784.399 9.1736 9.1731 3.79 3.7905 1.3089 98.5967 -0.0303 0.0734 778.0 1030.8184 1030.8223 35.2512 35.2561 1500.08 1500.09 129.485 0.0
2017-10-14T12:30:45Z -46.0552 22.8008 at3901001 1 785.41 9.1714 9.1709 3.7898 3.7903 1.3091 98.6037 -0.0086 0.0769 779.0 1030.8229 1030.8273 35.2507 35.2562 1500.09 1500.1 129.54 0.0
2017-10-14T12:30:45Z -46.0552 22.8008 at3901001 1 786.42 9.1448 9.1451 3.7867 3.7875 1.3084 98.603 -0.0416 0.0616 780.0 1030.8266 1030.8336 35.2436 35.2525 1500.0 1500.01 129.534 0.0
2017-10-14T12:30:45Z -46.0552 22.8008 at3901001 1 787.43 9.1134 9.113 3.7835 3.7841 1.3081 98.6054 -0.0264 0.065 781.0 1030.835 1030.8403 35.2413 35.2481 1499.9 1499.91 129.593 0.0
2017-10-14T12:30:45Z -46.0552 22.8008 at3901001 1 788.44 9.0937 9.0933 3.7814 3.7821 1.307 98.6074 -0.0256 0.0726 782.0 1030.8408 1030.8463 35.2384 35.2454 1499.84 1499.85 129.5 0.0
2017-10-14T12:30:45Z -46.0552 22.8008 at3901001 1 789.45 9.067 9.0666 3.7787 3.7793 1.3061 98.6088 -0.0432 0.0762 783.0 1030.848 1030.8531 35.2358 35.2423 1499.76 1499.76 129.466 0.0
2017-10-14T12:30:45Z -46.0552 22.8008 at3901001 1 790.46 9.0564 9.056 3.7778 3.7782 1.3057 98.6006 -0.0442 0.0796 784.0 1030.8546 1030.8585 35.236 35.241 1499.73 1499.74 129.442 0.0
2017-10-14T12:30:45Z -46.0552 22.8008 at3901001 1 791.47 9.0545 9.0543 3.7777 3.7782 1.3059 98.595 -0.0217 0.0684 785.0 1030.8599 1030.8639 35.2366 35.2417 1499.74 1499.75 129.494 0.0
2017-10-14T12:30:45Z -46.0552 22.8008 at3901001 1 792.481 9.0476 9.0472 3.7773 3.7777 1.3071 98.6066 -0.0412 0.0668 786.0 1030.8671 1030.8707 35.2385 35.2431 1499.74 1499.74 129.723 0.0
2017-10-14T12:30:45Z -46.0552 22.8008 at3901001 1 793.491 9.0422 9.0418 3.7767 3.7773 1.3095 98.6034 -0.0288 0.0662 787.0 1030.8721 1030.877 35.2379 35.2441 1499.73 1499.74 130.149 0.0
2017-10-14T12:30:45Z -46.0552 22.8008 at3901001 1 794.501 9.0342 9.0342 3.7759 3.7765 1.3122 98.6086 -0.0055 0.0668 788.0 1030.8771 1030.8819 35.2367 35.2429 1499.72 1499.73 130.617 0.0
2017-10-14T12:30:45Z -46.0552 22.8008 at3901001 1 795.511 9.0117 9.0108 3.7735 3.774 1.3143 98.6037 -0.0202 0.0696 789.0 1030.8829 1030.8879 35.2332 35.2395 1499.65 1499.65 131.058 0.0
2017-10-14T12:30:45Z -46.0552 22.8008 at3901001 1 796.521 8.9914 8.9893 3.7712 3.7717 1.3146 98.6106 -0.0332 0.0731 790.0 1030.8879 1030.8936 35.2292 35.2361 1499.59 1499.59 131.19 0.0
2017-10-14T12:30:45Z -46.0552 22.8008 at3901001 1 797.531 8.9482 8.9475 3.7667 3.7672 1.3136 98.6154 -0.0485 0.0787 791.0 1030.8956 1030.9007 35.2234 35.2299 1499.44 1499.44 131.184 0.0
2017-10-14T12:30:45Z -46.0552 22.8008 at3901001 1 798.542 8.946 8.9453 3.7667 3.7671 1.3128 98.6168 -0.0305 0.0668 792.0 1030.9026 1030.9064 35.2262 35.2309 1499.45 1499.45 131.079 0.0
2017-10-14T12:30:45Z -46.0552 22.8008 at3901001 1 799.552 8.9379 8.9378 3.7657 3.7664 1.3129 98.6166 -0.0737 0.0676 793.0 1030.9062 1030.9116 35.2232 35.2301 1499.43 1499.44 131.141 0.0
2017-10-14T12:30:45Z -46.0552 22.8008 at3901001 1 800.562 8.9079 8.9082 3.7623 3.7633 1.3131 98.6087 -0.0229 0.0714 794.0 1030.9107 1030.9183 35.2163 35.2262 1499.33 1499.34 131.28 0.0
2017-10-14T12:30:45Z -46.0552 22.8008 at3901001 1 801.572 8.8534 8.8538 3.7565 3.7575 1.3125 98.6154 -0.0175 0.076 795.0 1030.9192 1030.9267 35.2092 35.2189 1499.14 1499.15 131.376 0.0
2017-10-14T12:30:45Z -46.0552 22.8008 at3901001 1 802.582 8.8234 8.8235 3.7537 3.7544 1.3115 98.6074 -0.0284 0.0714 796.0 1030.9283 1030.9338 35.2082 35.2153 1499.04 1499.05 131.327 0.0
2017-10-14T12:30:45Z -46.0552 22.8008 at3901001 1 803.593 8.7914 8.7907 3.7502 3.7509 1.3108 98.6136 -0.0313 0.0641 797.0 1030.9343 1030.9404 35.203 35.2107 1498.93 1498.94 131.34 0.0
2017-10-14T12:30:45Z -46.0552 22.8008 at3901001 1 804.603 8.758 8.7576 3.7467 3.7474 1.3099 98.6159 -0.0366 0.0631 798.0 1030.9419 1030.9477 35.1993 35.2068 1498.82 1498.83 131.322 0.0
2017-10-14T12:30:45Z -46.0552 22.8008 at3901001 1 805.613 8.7426 8.7414 3.7454 3.7458 1.3094 98.6169 -0.0356 0.0662 799.0 1030.9495 1030.9538 35.1999 35.2052 1498.78 1498.78 131.309 0.0
2017-10-14T12:30:45Z -46.0552 22.8008 at3901001 1 806.623 8.7347 8.7343 3.7446 3.7451 1.3084 98.6079 -0.0232 0.063 800.0 1030.9543 1030.959 35.1985 35.2044 1498.77 1498.77 131.181 0.0
2017-10-14T12:30:45Z -46.0552 22.8008 at3901001 1 807.633 8.7244 8.7248 3.7435 3.7441 1.3083 98.6172 -0.0386 0.0628 801.0 1030.9596 1030.9642 35.1971 35.2031 1498.74 1498.75 131.217 0.0
2017-10-14T12:30:45Z -46.0552 22.8008 at3901001 1 808.644 8.719 8.7188 3.743 3.7435 1.3083 98.6119 -0.0475 0.0719 802.0 1030.965 1030.969 35.197 35.2021 1498.74 1498.75 131.253 0.0
2017-10-14T12:30:45Z -46.0552 22.8008 at3901001 1 809.654 8.7177 8.7173 3.743 3.7434 1.3079 98.6158 -0.0242 0.0684 803.0 1030.9698 1030.9737 35.1971 35.202 1498.75 1498.76 131.203 0.0
2017-10-14T12:30:45Z -46.0552 22.8008 at3901001 1 810.664 8.7131 8.7129 3.7425 3.743 1.3072 98.618 -0.009 0.0704 804.0 1030.9743 1030.9787 35.1961 35.2017 1498.75 1498.76 131.132 0.0
2017-10-14T12:30:45Z -46.0552 22.8008 at3901001 1 811.674 8.7059 8.7054 3.7418 3.7422 1.3079 98.619 -0.0291 0.0686 805.0 1030.9795 1030.9839 35.1953 35.2008 1498.74 1498.75 131.28 0.0
2017-10-14T12:30:45Z -46.0552 22.8008 at3901001 1 812.685 8.6988 8.6986 3.7411 3.7416 1.3084 98.6159 -0.014 0.0753 806.0 1030.9847 1030.9889 35.1947 35.2 1498.73 1498.74 131.402 0.0
2017-10-14T12:30:45Z -46.0552 22.8008 at3901001 1 813.695 8.6737 8.6741 3.7381 3.7391 1.3077 98.617 -0.0468 0.0659 807.0 1030.9879 1030.9957 35.1873 35.1975 1498.64 1498.66 131.389 0.0
2017-10-14T12:30:45Z -46.0552 22.8008 at3901001 1 814.705 8.6225 8.6216 3.733 3.7336 1.3075 98.618 -0.0264 0.07 808.0 1030.9991 1031.0049 35.1844 35.1917 1498.47 1498.47 131.545 0.0
2017-10-14T12:30:45Z -46.0552 22.8008 at3901001 1 815.716 8.6075 8.6081 3.7316 3.7322 1.3072 98.618 -0.0204 0.0766 809.0 1031.006 1031.0103 35.1841 35.1898 1498.43 1498.44 131.565 0.0
2017-10-14T12:30:45Z -46.0552 22.8008 at3901001 1 816.726 8.6032 8.6032 3.7312 3.7318 1.3072 98.6138 -0.0378 0.076 810.0 1031.011 1031.0151 35.1838 35.1891 1498.43 1498.43 131.588 0.0
2017-10-14T12:30:45Z -46.0552 22.8008 at3901001 1 817.736 8.5992 8.599 3.7308 3.7314 1.3071 98.6142 -0.0358 0.0736 811.0 1031.0157 1031.0199 35.1831 35.1886 1498.43 1498.43 131.597 0.0
2017-10-14T12:30:45Z -46.0552 22.8008 at3901001 1 818.746 8.5936 8.5934 3.7303 3.7308 1.3073 98.6058 -0.0212 0.0775 812.0 1031.0206 1031.0249 35.1824 35.1879 1498.42 1498.43 131.672 0.0
2017-10-14T12:30:45Z -46.0552 22.8008 at3901001 1 819.757 8.5888 8.5886 3.7299 3.7303 1.3076 98.6151 -0.0438 0.0799 813.0 1031.0257 1031.0299 35.1821 35.1874 1498.42 1498.43 131.751 0.0
2017-10-14T12:30:45Z -46.0552 22.8008 at3901001 1 820.767 8.5795 8.5788 3.7289 3.7294 1.3075 98.6206 -0.0408 0.0707 814.0 1031.031 1031.0354 35.181 35.1865 1498.4 1498.41 131.787 0.0
2017-10-14T12:30:45Z -46.0552 22.8008 at3901001 1 821.777 8.5747 8.5739 3.7285 3.7289 1.3084 98.6202 -0.0265 0.072 815.0 1031.0363 1031.0403 35.181 35.1859 1498.4 1498.41 131.956 0.0
2017-10-14T12:30:45Z -46.0552 22.8008 at3901001 1 822.788 8.5723 8.5712 3.7282 3.7287 1.3079 98.6192 -0.0124 0.0734 816.0 1031.0405 1031.045 35.18 35.1856 1498.41 1498.41 131.91 0.0
2017-10-14T12:30:45Z -46.0552 22.8008 at3901001 1 823.798 8.5632 8.5624 3.7273 3.7278 1.3075 98.6196 -0.038 0.0674 817.0 1031.0457 1031.0502 35.1789 35.1845 1498.39 1498.39 131.885 0.0
2017-10-14T12:30:45Z -46.0552 22.8008 at3901001 1 824.808 8.5497 8.5495 3.7259 3.7265 1.3072 98.6195 -0.0397 0.0691 818.0 1031.0505 1031.0557 35.1762 35.1828 1498.35 1498.36 131.902 0.0
2017-10-14T12:30:45Z -46.0552 22.8008 at3901001 1 825.818 8.5408 8.5405 3.7251 3.7256 1.307 98.6258 -0.0266 0.0714 819.0 1031.0566 1031.061 35.1763 35.1818 1498.34 1498.34 131.917 0.0
2017-10-14T12:30:45Z -46.0552 22.8008 at3901001 1 826.829 8.5266 8.5261 3.7236 3.7241 1.3063 98.6198 -0.033 0.0684 820.0 1031.0617 1031.067 35.1739 35.1805 1498.3 1498.3 131.865 0.0
2017-10-14T12:30:45Z -46.0552 22.8008 at3901001 1 827.839 8.4964 8.4957 3.7204 3.721 1.3057 98.6189 -0.0504 0.0768 821.0 1031.0685 1031.0742 35.1701 35.1772 1498.2 1498.2 131.889 0.0
2017-10-14T12:30:45Z -46.0552 22.8008 at3901001 1 828.85 8.4614 8.4614 3.7168 3.7174 1.3049 98.6213 -0.0488 0.0789 822.0 1031.0758 1031.0812 35.1659 35.1728 1498.08 1498.09 131.891 0.0
2017-10-14T12:30:45Z -46.0552 22.8008 at3901001 1 829.86 8.4445 8.4442 3.7151 3.7156 1.3055 98.6229 -0.0185 0.0725 823.0 1031.082 1031.0869 35.1643 35.1704 1498.03 1498.04 132.049 0.0
2017-10-14T12:30:45Z -46.0552 22.8008 at3901001 1 830.87 8.4373 8.4372 3.7144 3.7149 1.306 98.6204 -0.0233 0.073 824.0 1031.0874 1031.0918 35.1639 35.1694 1498.02 1498.02 132.169 0.0
2017-10-14T12:30:45Z -46.0552 22.8008 at3901001 1 831.881 8.4327 8.4322 3.714 3.7144 1.3054 98.6239 -0.0262 0.0759 825.0 1031.0924 1031.0967 35.1635 35.1688 1498.02 1498.02 132.113 0.0
2017-10-14T12:30:45Z -46.0552 22.8008 at3901001 1 832.891 8.4245 8.4241 3.7131 3.7136 1.3055 98.6229 -0.0263 0.0755 826.0 1031.0973 1031.1018 35.162 35.1677 1498.0 1498.01 132.164 0.0
2017-10-14T12:30:45Z -46.0552 22.8008 at3901001 1 833.901 8.4217 8.4212 3.7129 3.7134 1.3055 98.6224 -0.0197 0.0738 827.0 1031.1026 1031.1065 35.1625 35.1673 1498.01 1498.01 132.197 0.0
2017-10-14T12:30:45Z -46.0552 22.8008 at3901001 1 834.912 8.4193 8.4187 3.7127 3.7131 1.3052 98.6289 -0.0196 0.0755 828.0 1031.1071 1031.1113 35.1619 35.1671 1498.02 1498.02 132.17 0.0
2017-10-14T12:30:45Z -46.0552 22.8008 at3901001 1 835.922 8.4165 8.4159 3.7124 3.7129 1.3048 98.6228 -0.0263 0.0766 829.0 1031.1117 1031.116 35.1613 35.1667 1498.02 1498.03 132.134 0.0
2017-10-14T12:30:45Z -46.0552 22.8008 at3901001 1 836.932 8.4094 8.4091 3.7118 3.7122 1.3049 98.6265 -0.0287 0.0727 830.0 1031.1171 1031.1211 35.161 35.166 1498.01 1498.02 132.183 0.0
2017-10-14T12:30:45Z -46.0552 22.8008 at3901001 1 837.943 8.4045 8.4044 3.7113 3.7118 1.305 98.6316 -0.0272 0.0733 831.0 1031.1219 1031.1259 35.1602 35.1653 1498.01 1498.01 132.233 0.0
2017-10-14T12:30:45Z -46.0552 22.8008 at3901001 1 838.953 8.4021 8.4014 3.7111 3.7115 1.305 98.6328 -0.027 0.0734 832.0 1031.1265 1031.1307 35.1598 35.1651 1498.02 1498.02 132.266 0.0
2017-10-14T12:30:45Z -46.0552 22.8008 at3901001 1 839.963 8.3906 8.3908 3.7099 3.7104 1.305 98.6288 -0.0194 0.0667 833.0 1031.1316 1031.1362 35.158 35.164 1497.99 1498.0 132.322 0.0
2017-10-14T12:30:45Z -46.0552 22.8008 at3901001 1 840.974 8.3805 8.3802 3.7088 3.7094 1.3046 98.6214 -0.0659 0.0669 834.0 1031.1368 1031.1414 35.1567 35.1625 1497.96 1497.97 132.301 0.0
2017-10-14T12:30:45Z -46.0552 22.8008 at3901001 1 841.984 8.3675 8.3673 3.7074 3.7081 1.3036 98.6313 -0.0261 0.0624 835.0 1031.1418 1031.1471 35.1543 35.1611 1497.93 1497.94 132.201 0.0
2017-10-14T12:30:45Z -46.0552 22.8008 at3901001 1 842.995 8.3434 8.3439 3.7048 3.7056 1.3027 98.6283 -0.0263 0.0703 836.0 1031.1468 1031.1534 35.1497 35.1582 1497.85 1497.86 132.145 0.0
2017-10-14T12:30:45Z -46.0552 22.8008 at3901001 1 844.005 8.3116 8.312 3.7016 3.7024 1.302 98.6269 -0.0263 0.0749 837.0 1031.1545 1031.1606 35.1468 35.1547 1497.74 1497.76 132.155 0.0
2017-10-14T12:30:45Z -46.0552 22.8008 at3901001 1 845.016 8.277 8.2772 3.6979 3.6988 1.3017 98.6346 -0.0237 0.0748 838.0 1031.1611 1031.1679 35.1419 35.1506 1497.62 1497.64 132.244 0.0
2017-10-14T12:30:45Z -46.0552 22.8008 at3901001 1 846.026 8.2574 8.2571 3.6962 3.6967 1.3019 98.6329 -0.0199 0.0658 839.0 1031.1697 1031.1741 35.1427 35.1484 1497.57 1497.57 132.353 0.0
2017-10-14T12:30:45Z -46.0552 22.8008 at3901001 1 847.036 8.2493 8.249 3.6953 3.6959 1.3013 98.6333 -0.0435 0.0688 840.0 1031.174 1031.1792 35.1407 35.1473 1497.55 1497.56 132.31 0.0
2017-10-14T12:30:45Z -46.0552 22.8008 at3901001 1 848.047 8.2246 8.2241 3.6928 3.6933 1.301 98.6387 -0.0227 0.072 841.0 1031.1804 1031.1855 35.1377 35.1442 1497.47 1497.48 132.344 0.0
2017-10-14T12:30:45Z -46.0552 22.8008 at3901001 1 849.057 8.2134 8.2132 3.6917 3.6922 1.3009 98.6347 -0.0173 0.0683 842.0 1031.1866 1031.191 35.1374 35.143 1497.45 1497.45 132.385 0.0
2017-10-14T12:30:45Z -46.0552 22.8008 at3901001 1 850.068 8.2065 8.2059 3.691 3.6915 1.301 98.6326 -0.0419 0.0765 843.0 1031.1912 1031.1959 35.136 35.1419 1497.44 1497.44 132.443 0.0
2017-10-14T12:30:45Z -46.0552 22.8008 at3901001 1 851.078 8.183 8.183 3.6884 3.6892 1.3007 98.6302 -0.0266 0.0724 844.0 1031.1962 1031.2026 35.1315 35.1397 1497.36 1497.37 132.494 0.0
2017-10-14T12:30:45Z -46.0552 22.8008 at3901001 1 852.089 8.1484 8.1482 3.6851 3.6856 1.2999 98.6378 -0.0277 0.0734 845.0 1031.2055 1031.21 35.1301 35.1358 1497.24 1497.25 132.499 0.0
2017-10-14T12:30:45Z -46.0552 22.8008 at3901001 1 853.099 8.136 8.1354 3.6837 3.6843 1.2994 98.6405 -0.0102 0.0654 846.0 1031.2096 1031.2153 35.1268 35.1339 1497.21 1497.22 132.466 0.0
2017-10-14T12:30:45Z -46.0552 22.8008 at3901001 1 854.109 8.1146 8.1141 3.6814 3.6821 1.2986 98.6379 -0.0223 0.066 847.0 1031.2154 1031.2214 35.1237 35.1314 1497.14 1497.15 132.428 0.0
2017-10-14T12:30:45Z -46.0552 22.8008 at3901001 1 855.12 8.0864 8.0857 3.6784 3.6792 1.2988 98.6383 -0.02 0.0673 848.0 1031.221 1031.2284 35.1191 35.1284 1497.05 1497.06 132.567 0.0
2017-10-14T12:30:45Z -46.0552 22.8008 at3901001 1 856.13 8.0545 8.0545 3.6754 3.6761 1.2986 98.6314 -2.0E-4 0.0717 849.0 1031.2301 1031.2358 35.118 35.1252 1496.94 1496.95 132.658 0.0
2017-10-14T12:30:45Z -46.0552 22.8008 at3901001 1 857.141 8.0366 8.0368 3.6736 3.6742 1.298 98.6261 -0.0298 0.0713 850.0 1031.2366 1031.2413 35.1167 35.1228 1496.89 1496.9 132.632 0.0
2017-10-14T12:30:45Z -46.0552 22.8008 at3901001 1 858.151 8.0293 8.0286 3.673 3.6734 1.298 98.6339 -0.026 0.0714 851.0 1031.2422 1031.2466 35.1164 35.1219 1496.88 1496.88 132.676 0.0
2017-10-14T12:30:45Z -46.0552 22.8008 at3901001 1 859.162 8.0151 8.0147 3.6715 3.6721 1.2987 98.6368 -0.0142 0.0727 852.0 1031.2474 1031.2526 35.1142 35.1208 1496.84 1496.85 132.863 0.0
2017-10-14T12:30:45Z -46.0552 22.8008 at3901001 1 860.172 8.0017 8.0011 3.6702 3.6707 1.2988 98.6402 -0.0252 0.0656 853.0 1031.2538 1031.2583 35.1137 35.1194 1496.8 1496.81 132.94 0.0
2017-10-14T12:30:45Z -46.0552 22.8008 at3901001 1 861.183 7.9961 7.9956 3.6697 3.6702 1.2987 98.6354 -0.0421 0.0716 854.0 1031.2587 1031.2632 35.113 35.1186 1496.8 1496.8 132.958 0.0
2017-10-14T12:30:45Z -46.0552 22.8008 at3901001 1 862.193 7.9859 7.9852 3.6686 3.6691 1.2986 98.6384 -0.0369 0.0684 855.0 1031.2635 1031.2684 35.1111 35.1173 1496.77 1496.78 133.001 0.0
2017-10-14T12:30:45Z -46.0552 22.8008 at3901001 1 863.204 7.9761 7.9756 3.6677 3.6682 1.2985 98.6444 -0.0402 0.0696 856.0 1031.2692 1031.2738 35.1105 35.1162 1496.75 1496.76 133.034 0.0
2017-10-14T12:30:45Z -46.0552 22.8008 at3901001 1 864.214 7.9712 7.9707 3.6672 3.6677 1.2985 98.6368 -0.0284 0.0724 857.0 1031.2743 1031.2785 35.1102 35.1155 1496.75 1496.76 133.057 0.0
2017-10-14T12:30:45Z -46.0552 22.8008 at3901001 1 865.225 7.9664 7.9661 3.6668 3.6673 1.2985 98.6318 -0.0215 0.0761 858.0 1031.2792 1031.2836 35.1096 35.1152 1496.75 1496.76 133.101 0.0
2017-10-14T12:30:45Z -46.0552 22.8008 at3901001 1 866.235 7.9543 7.9544 3.6655 3.6661 1.2978 98.6414 -0.0385 0.0777 859.0 1031.2842 1031.289 35.1076 35.1138 1496.72 1496.73 133.034 0.0
2017-10-14T12:30:45Z -46.0552 22.8008 at3901001 1 867.246 7.9372 7.9376 3.6636 3.6644 1.2974 98.6406 -0.037 0.075 860.0 1031.2891 1031.2948 35.1044 35.1118 1496.67 1496.68 133.041 0.0
2017-10-14T12:30:45Z -46.0552 22.8008 at3901001 1 868.256 7.9194 7.9195 3.662 3.6626 1.2972 98.6435 -0.0224 0.0763 861.0 1031.2963 1031.3009 35.104 35.11 1496.61 1496.62 133.088 0.0
2017-10-14T12:30:45Z -46.0552 22.8008 at3901001 1 869.267 7.9178 7.9179 3.662 3.6625 1.2972 98.6425 -0.0189 0.0794 862.0 1031.3022 1031.306 35.1055 35.1103 1496.63 1496.63 133.111 0.0
2017-10-14T12:30:45Z -46.0552 22.8008 at3901001 1 870.277 7.9089 7.9092 3.6611 3.6617 1.2974 98.6438 -0.0258 0.0724 863.0 1031.3066 1031.3119 35.1034 35.1101 1496.61 1496.62 133.188 0.0
2017-10-14T12:30:45Z -46.0552 22.8008 at3901001 1 871.288 7.8743 7.8746 3.6574 3.6582 1.297 98.6425 -0.043 0.0729 864.0 1031.3132 1031.3197 35.0985 35.107 1496.49 1496.5 133.254 0.0
2017-10-14T12:30:45Z -46.0552 22.8008 at3901001 1 872.298 7.8464 7.8466 3.6546 3.6553 1.2967 98.6364 -0.0325 0.0769 865.0 1031.3203 1031.326 35.0959 35.1032 1496.39 1496.41 133.313 0.0
2017-10-14T12:30:45Z -46.0552 22.8008 at3901001 1 873.309 7.8143 7.8137 3.6512 3.652 1.2967 98.6435 -0.0441 0.0747 866.0 1031.3265 1031.3332 35.0911 35.0996 1496.28 1496.29 133.441 0.0
2017-10-14T12:30:45Z -46.0552 22.8008 at3901001 1 874.32 7.7783 7.7757 3.6475 3.648 1.2963 98.638 -0.0337 0.0748 867.0 1031.3331 1031.3403 35.0861 35.0948 1496.16 1496.16 133.521 0.0
2017-10-14T12:30:45Z -46.0552 22.8008 at3901001 1 875.33 7.7549 7.7555 3.6454 3.646 1.2965 98.6422 -0.0177 0.0752 868.0 1031.3421 1031.3465 35.0868 35.0926 1496.09 1496.1 133.644 0.0
2017-10-14T12:30:45Z -46.0552 22.8008 at3901001 1 876.341 7.7537 7.7531 3.6453 3.6457 1.2969 98.6445 -0.018 0.0682 869.0 1031.3467 1031.3509 35.0867 35.092 1496.1 1496.1 133.733 0.0
2017-10-14T12:30:45Z -46.0552 22.8008 at3901001 1 877.351 7.7535 7.7523 3.6453 3.6457 1.2973 98.6464 -0.0144 0.0705 870.0 1031.351 1031.3555 35.0864 35.0918 1496.11 1496.12 133.828 0.0
2017-10-14T12:30:45Z -46.0552 22.8008 at3901001 1 878.362 7.7446 7.7445 3.6444 3.6449 1.2976 98.6445 -0.0192 0.0656 871.0 1031.3564 1031.3606 35.0855 35.091 1496.1 1496.1 133.921 0.0
2017-10-14T12:30:45Z -46.0552 22.8008 at3901001 1 879.373 7.7415 7.7408 3.6442 3.6446 1.2966 98.6462 -0.0668 0.0663 872.0 1031.3612 1031.3655 35.0852 35.0906 1496.1 1496.11 133.778 0.0
2017-10-14T12:30:45Z -46.0552 22.8008 at3901001 1 880.383 7.733 7.7331 3.6431 3.6438 1.2964 98.6429 -0.053 0.0645 873.0 1031.3647 1031.3706 35.0821 35.0897 1496.08 1496.09 133.791 0.0
2017-10-14T12:30:45Z -46.0552 22.8008 at3901001 1 881.394 7.7143 7.7139 3.6413 3.6419 1.2963 98.6427 -0.0472 0.0668 874.0 1031.3709 1031.3765 35.0803 35.0873 1496.02 1496.03 133.858 0.0
2017-10-14T12:30:45Z -46.0552 22.8008 at3901001 1 882.404 7.7036 7.7031 3.6403 3.6408 1.2963 98.6462 -0.0262 0.059 875.0 1031.3772 1031.3818 35.0802 35.0861 1496.0 1496.0 133.912 0.0
2017-10-14T12:30:45Z -46.0552 22.8008 at3901001 1 883.415 7.696 7.6956 3.6396 3.6401 1.2962 98.6435 -0.0166 0.0598 876.0 1031.3825 1031.387 35.0796 35.0852 1495.99 1495.99 133.943 0.0
2017-10-14T12:30:45Z -46.0552 22.8008 at3901001 1 884.425 7.7056 7.6995 3.6407 3.6405 1.2972 98.6466 -0.038 0.0724 877.0 1031.387 1031.3911 35.0816 35.0856 1496.04 1496.02 134.088 0.0
2017-10-14T12:30:45Z -46.0552 22.8008 at3901001 1 885.436 7.7026 7.6911 3.6401 3.6397 1.2975 98.6435 -0.0205 0.0715 878.0 1031.3893 1031.3967 35.0781 35.0852 1496.04 1496.01 134.166 0.0
2017-10-14T12:30:45Z -46.0552 22.8008 at3901001 1 886.447 7.6674 7.6699 3.6366 3.6375 1.2967 98.6488 -0.0263 0.068 879.0 1031.397 1031.4024 35.0746 35.0821 1495.92 1495.94 134.166 0.0
2017-10-14T12:30:45Z -46.0552 22.8008 at3901001 1 887.457 7.6511 7.6507 3.635 3.6356 1.2963 98.6429 -0.0482 0.0725 880.0 1031.4027 1031.4083 35.0728 35.0798 1495.87 1495.88 134.183 0.0
2017-10-14T12:30:45Z -46.0552 22.8008 at3901001 1 888.468 7.6254 7.6254 3.6321 3.633 1.296 98.6446 -0.0139 0.0772 881.0 1031.4072 1031.415 35.0672 35.0772 1495.79 1495.8 134.245 0.0
2017-10-14T12:30:45Z -46.0552 22.8008 at3901001 1 889.478 7.5987 7.5987 3.6297 3.6303 1.296 98.6446 -0.0316 0.0717 882.0 1031.4161 1031.4217 35.0671 35.0744 1495.7 1495.71 134.343 0.0
2017-10-14T12:30:45Z -46.0552 22.8008 at3901001 1 890.489 7.5717 7.5717 3.6266 3.6275 1.2955 98.6404 -0.063 0.0625 883.0 1031.4204 1031.428 35.0612 35.0709 1495.61 1495.62 134.37 0.0
2017-10-14T12:30:45Z -46.0552 22.8008 at3901001 1 891.5 7.54 7.54 3.6236 3.6243 1.2952 98.6454 -0.0172 0.0719 884.0 1031.4289 1031.4349 35.0596 35.0673 1495.5 1495.51 134.441 0.0
2017-10-14T12:30:45Z -46.0552 22.8008 at3901001 1 892.51 7.5252 7.5249 3.6223 3.6228 1.2956 98.6469 -0.0233 0.066 885.0 1031.4359 1031.4404 35.0596 35.0653 1495.46 1495.47 134.583 0.0
2017-10-14T12:30:45Z -46.0552 22.8008 at3901001 1 893.521 7.5178 7.5144 3.6214 3.6217 1.2962 98.6469 -0.0132 0.0704 886.0 1031.4394 1031.4453 35.0567 35.0636 1495.45 1495.44 134.734 0.0
2017-10-14T12:30:45Z -46.0552 22.8008 at3901001 1 894.532 7.4868 7.4859 3.6183 3.6188 1.2965 98.6523 -0.0271 0.0766 887.0 1031.4475 1031.4522 35.0547 35.0606 1495.34 1495.34 134.908 0.0
2017-10-14T12:30:45Z -46.0552 22.8008 at3901001 1 895.542 7.4849 7.4845 3.6183 3.6188 1.297 98.6522 -0.0416 0.0804 888.0 1031.4533 1031.4571 35.056 35.0609 1495.35 1495.36 135.014 0.0
2017-10-14T12:30:45Z -46.0552 22.8008 at3901001 1 896.553 7.4838 7.4833 3.6183 3.6187 1.297 98.6463 -0.0256 0.0718 889.0 1031.4581 1031.4621 35.0561 35.0612 1495.36 1495.37 135.03 0.0
2017-10-14T12:30:45Z -46.0552 22.8008 at3901001 1 897.564 7.4824 7.4818 3.6182 3.6186 1.2964 98.6593 -0.0271 0.0725 890.0 1031.4629 1031.4671 35.0562 35.0614 1495.38 1495.38 134.953 0.0
2017-10-14T12:30:45Z -46.0552 22.8008 at3901001 1 898.574 7.4805 7.4799 3.6181 3.6185 1.2964 98.6622 -0.0333 0.0718 891.0 1031.4679 1031.4719 35.0563 35.0613 1495.39 1495.39 134.975 0.0
2017-10-14T12:30:45Z -46.0552 22.8008 at3901001 1 899.585 7.4794 7.4789 3.618 3.6184 1.2964 98.6479 -0.0474 0.0727 892.0 1031.4724 1031.4765 35.0561 35.0613 1495.4 1495.4 134.996 0.0
2017-10-14T12:30:45Z -46.0552 22.8008 at3901001 1 900.596 7.4765 7.4761 3.6178 3.6182 1.2964 98.6494 -0.016 0.0768 893.0 1031.4771 1031.4814 35.0557 35.0611 1495.4 1495.41 135.016 0.0
2017-10-14T12:30:45Z -46.0552 22.8008 at3901001 1 901.606 7.4765 7.4729 3.6178 3.6179 1.2971 98.6502 -0.0404 0.0751 894.0 1031.4818 1031.4864 35.0558 35.061 1495.42 1495.41 135.168 0.0
2017-10-14T12:30:45Z -46.0552 22.8008 at3901001 1 902.617 7.4699 7.4692 3.6173 3.6177 1.2977 98.6507 -0.0251 0.0782 895.0 1031.4878 1031.4919 35.0564 35.0614 1495.41 1495.41 135.293 0.0
2017-10-14T12:30:45Z -46.0552 22.8008 at3901001 1 903.628 7.4508 7.451 3.6151 3.616 1.2977 98.6561 -0.0402 0.0719 896.0 1031.492 1031.4987 35.0519 35.0605 1495.35 1495.36 135.387 0.0
2017-10-14T12:30:45Z -46.0552 22.8008 at3901001 1 904.638 7.428 7.4281 3.6131 3.6136 1.2976 98.6543 -0.026 0.0656 897.0 1031.5003 1031.5047 35.052 35.0576 1495.28 1495.29 135.469 0.0
2017-10-14T12:30:45Z -46.0552 22.8008 at3901001 1 905.649 7.4245 7.423 3.6127 3.6131 1.2976 98.6552 -0.0256 0.0718 898.0 1031.5049 1031.5092 35.0513 35.0566 1495.28 1495.28 135.5 0.0
2017-10-14T12:30:45Z -46.0552 22.8008 at3901001 1 906.66 7.4127 7.414 3.6114 3.6122 1.2977 98.6615 -0.0184 0.0721 899.0 1031.5093 1031.5143 35.0486 35.0554 1495.25 1495.26 135.572 0.0
2017-10-14T12:30:45Z -46.0552 22.8008 at3901001 1 907.67 7.3969 7.3965 3.6099 3.6104 1.2976 98.6699 -0.0073 0.0702 900.0 1031.5152 1031.5202 35.0471 35.0535 1495.21 1495.21 135.633 0.0
2017-10-14T12:30:45Z -46.0552 22.8008 at3901001 1 908.681 7.3871 7.3864 3.6091 3.6095 1.2978 98.6607 -0.0064 0.0681 901.0 1031.5216 1031.526 35.0475 35.0529 1495.18 1495.19 135.712 0.0
2017-10-14T12:30:45Z -46.0552 22.8008 at3901001 1 909.692 7.3796 7.379 3.6084 3.6088 1.2986 98.6611 -0.0125 0.069 902.0 1031.5272 1031.5316 35.0473 35.0528 1495.17 1495.18 135.892 0.0
2017-10-14T12:30:45Z -46.0552 22.8008 at3901001 1 910.703 7.3686 7.3679 3.6072 3.6077 1.299 98.668 -0.0422 0.0664 903.0 1031.5313 1031.537 35.0444 35.0516 1495.14 1495.15 136.01 0.0
2017-10-14T12:30:45Z -46.0552 22.8008 at3901001 1 911.713 7.3319 7.3315 3.6033 3.604 1.2989 98.648 0.001 0.0725 904.0 1031.5375 1031.5442 35.0388 35.0473 1495.01 1495.02 136.147 0.0
2017-10-14T12:30:45Z -46.0552 22.8008 at3901001 1 912.724 7.2959 7.2956 3.5995 3.6003 1.2989 98.6479 -0.0247 0.0664 905.0 1031.5436 1031.551 35.0334 35.0427 1494.88 1494.89 136.293 0.0
2017-10-14T12:30:45Z -46.0552 22.8008 at3901001 1 913.735 7.2733 7.2726 3.5976 3.598 1.2989 98.6626 -0.0271 0.0686 906.0 1031.553 1031.5576 35.0348 35.0406 1494.81 1494.82 136.386 0.0
2017-10-14T12:30:45Z -46.0552 22.8008 at3901001 1 914.746 7.2641 7.2639 3.5966 3.5972 1.299 98.6585 -0.0232 0.0693 907.0 1031.5575 1031.5625 35.033 35.0393 1494.79 1494.8 136.448 0.0
2017-10-14T12:30:45Z -46.0552 22.8008 at3901001 1 915.756 7.2538 7.2533 3.5956 3.5961 1.2996 98.6597 -0.0203 0.0664 908.0 1031.5631 1031.5677 35.0321 35.038 1494.77 1494.77 136.618 0.0
2017-10-14T12:30:45Z -46.0552 22.8008 at3901001 1 916.767 7.2419 7.2404 3.5944 3.5948 1.3002 98.6663 -0.0161 0.0768 909.0 1031.5682 1031.5729 35.0304 35.0361 1494.74 1494.74 136.769 0.0
2017-10-14T12:30:45Z -46.0552 22.8008 at3901001 1 917.778 7.2391 7.2386 3.5942 3.5947 1.3002 98.6656 -0.0493 0.0732 910.0 1031.5738 1031.5777 35.0311 35.0361 1494.75 1494.75 136.8 0.0
2017-10-14T12:30:45Z -46.0552 22.8008 at3901001 1 918.789 7.2365 7.2362 3.594 3.5945 1.3002 98.6698 -0.0482 0.0777 911.0 1031.5785 1031.5828 35.0308 35.0363 1494.75 1494.76 136.827 0.0
2017-10-14T12:30:45Z -46.0552 22.8008 at3901001 1 919.799 7.2295 7.2293 3.5933 3.5938 1.2995 98.6711 -0.0312 0.0728 912.0 1031.5834 1031.5878 35.0298 35.0355 1494.74 1494.75 136.748 0.0
2017-10-14T12:30:45Z -46.0552 22.8008 at3901001 1 920.81 7.2259 7.2254 3.5931 3.5935 1.2997 98.6652 1.0E-4 0.068 913.0 1031.5887 1031.5928 35.0301 35.0353 1494.74 1494.75 136.815 0.0
2017-10-14T12:30:45Z -46.0552 22.8008 at3901001 1 921.821 7.224 7.2236 3.5929 3.5933 1.3 98.6627 -0.0036 0.0691 914.0 1031.5934 1031.5974 35.03 35.035 1494.75 1494.76 136.895 0.0
2017-10-14T12:30:45Z -46.0552 22.8008 at3901001 1 922.832 7.2223 7.2219 3.5928 3.5932 1.3001 98.6651 -0.0189 0.0713 915.0 1031.5981 1031.6021 35.0297 35.0348 1494.76 1494.77 136.939 0.0
2017-10-14T12:30:45Z -46.0552 22.8008 at3901001 1 923.843 7.2203 7.22 3.5926 3.5931 1.3003 98.6651 -0.024 0.069 916.0 1031.6029 1031.6068 35.0297 35.0346 1494.77 1494.78 136.982 0.0
2017-10-14T12:30:45Z -46.0552 22.8008 at3901001 1 924.853 7.2191 7.2188 3.5926 3.593 1.3001 98.6637 -0.0487 0.0707 917.0 1031.6075 1031.6116 35.0295 35.0346 1494.78 1494.79 136.97 0.0
2017-10-14T12:30:45Z -46.0552 22.8008 at3901001 1 925.864 7.2147 7.2144 3.5922 3.5926 1.3 98.671 -0.0373 0.0706 918.0 1031.6124 1031.6165 35.0291 35.0343 1494.78 1494.79 137.001 0.0
2017-10-14T12:30:45Z -46.0552 22.8008 at3901001 1 926.875 7.2114 7.2108 3.5919 3.5923 1.3001 98.6704 -0.0431 0.0668 919.0 1031.6173 1031.6213 35.0288 35.0339 1494.79 1494.79 137.04 0.0
2017-10-14T12:30:45Z -46.0552 22.8008 at3901001 1 927.886 7.2108 7.2104 3.5919 3.5923 1.3005 98.6642 -0.0427 0.0794 920.0 1031.6222 1031.6261 35.0292 35.034 1494.8 1494.81 137.131 0.0
2017-10-14T12:30:45Z -46.0552 22.8008 at3901001 1 928.897 7.2087 7.2082 3.5917 3.5921 1.3002 98.6697 -0.0255 0.0824 921.0 1031.6268 1031.6309 35.0288 35.034 1494.81 1494.81 137.102 0.0
2017-10-14T12:30:45Z -46.0552 22.8008 at3901001 1 929.907 7.2033 7.2029 3.5912 3.5917 1.2998 98.6695 -0.0128 0.077 922.0 1031.6318 1031.6361 35.0282 35.0336 1494.8 1494.81 137.078 0.0
2017-10-14T12:30:45Z -46.0552 22.8008 at3901001 1 930.918 7.2002 7.1998 3.5909 3.5914 1.2996 98.6711 -0.0226 0.0779 923.0 1031.6363 1031.6409 35.0276 35.0334 1494.81 1494.81 137.073 0.0
2017-10-14T12:30:45Z -46.0552 22.8008 at3901001 1 931.929 7.1922 7.1918 3.5901 3.5906 1.2992 98.6711 -0.0262 0.0763 924.0 1031.6412 1031.6459 35.0264 35.0323 1494.79 1494.8 137.036 0.0
2017-10-14T12:30:45Z -46.0552 22.8008 at3901001 1 932.94 7.1798 7.1796 3.5888 3.5894 1.299 98.67 -0.0275 0.0771 925.0 1031.6463 1031.6512 35.0246 35.0307 1494.76 1494.77 137.073 0.0
2017-10-14T12:30:45Z -46.0552 22.8008 at3901001 1 933.951 7.1803 7.1715 3.589 3.5886 1.2995 98.6687 -0.0184 0.0633 926.0 1031.6518 1031.6566 35.0259 35.0301 1494.78 1494.75 137.178 0.0
2017-10-14T12:30:45Z -46.0552 22.8008 at3901001 1 934.962 7.1515 7.1536 3.5858 3.5869 1.2997 98.6712 -0.0402 0.0708 927.0 1031.656 1031.6629 35.0194 35.0288 1494.68 1494.7 137.322 0.0
2017-10-14T12:30:45Z -46.0552 22.8008 at3901001 1 935.972 7.1204 7.1202 3.583 3.5835 1.2998 98.6698 -0.0099 0.0748 928.0 1031.6653 1031.6703 35.0191 35.0255 1494.57 1494.58 137.47 0.0
2017-10-14T12:30:45Z -46.0552 22.8008 at3901001 1 936.983 7.1092 7.1085 3.5819 3.5824 1.3 98.6712 0.0019 0.0652 929.0 1031.6707 1031.6758 35.018 35.0243 1494.55 1494.55 137.562 0.0
2017-10-14T12:30:45Z -46.0552 22.8008 at3901001 1 937.994 7.0999 7.0997 3.581 3.5815 1.3002 98.6711 -0.0425 0.0751 930.0 1031.6763 1031.681 35.0175 35.0234 1494.53 1494.53 137.655 0.0
2017-10-14T12:30:45Z -46.0552 22.8008 at3901001 1 939.005 7.0872 7.087 3.5797 3.5803 1.3004 98.6711 -0.0384 0.0744 931.0 1031.6816 1031.6866 35.0158 35.0221 1494.49 1494.5 137.752 0.0
2017-10-14T12:30:45Z -46.0552 22.8008 at3901001 1 940.016 7.0732 7.0731 3.5784 3.5789 1.3006 98.6711 -0.0344 0.0708 932.0 1031.6874 1031.6923 35.0145 35.0207 1494.45 1494.46 137.845 0.0
2017-10-14T12:30:45Z -46.0552 22.8008 at3901001 1 941.027 7.0653 7.0641 3.5777 3.5781 1.3015 98.672 -0.0558 0.0685 933.0 1031.6935 1031.6978 35.0149 35.02 1494.44 1494.44 138.048 0.0
2017-10-14T12:30:45Z -46.0552 22.8008 at3901001 1 942.038 7.0626 7.0625 3.5775 3.5779 1.3019 98.6729 -0.0458 0.0694 934.0 1031.6984 1031.7024 35.0148 35.0199 1494.44 1494.45 138.151 0.0
2017-10-14T12:30:45Z -46.0552 22.8008 at3901001 1 943.049 7.062 7.0615 3.5775 3.5779 1.3027 98.672 -0.032 0.0704 935.0 1031.7031 1031.7071 35.0149 35.0199 1494.46 1494.46 138.301 0.0
2017-10-14T12:30:45Z -46.0552 22.8008 at3901001 1 944.059 7.0569 7.0566 3.577 3.5775 1.303 98.67 -0.0254 0.0713 936.0 1031.7081 1031.7124 35.0143 35.0198 1494.46 1494.46 138.383 0.0
2017-10-14T12:30:45Z -46.0552 22.8008 at3901001 1 945.07 7.0503 7.0499 3.5764 3.5769 1.3026 98.6735 -0.0269 0.0707 937.0 1031.7134 1031.7178 35.014 35.0195 1494.45 1494.45 138.362 0.0
2017-10-14T12:30:45Z -46.0552 22.8008 at3901001 1 946.081 7.0428 7.0425 3.5757 3.5762 1.3026 98.6711 -0.0256 0.0702 938.0 1031.7183 1031.7231 35.0129 35.019 1494.43 1494.44 138.404 0.0
2017-10-14T12:30:45Z -46.0552 22.8008 at3901001 1 947.092 7.0299 7.0295 3.5745 3.575 1.3025 98.6796 -0.028 0.0761 939.0 1031.7245 1031.7292 35.0123 35.0183 1494.4 1494.4 138.464 0.0
2017-10-14T12:30:45Z -46.0552 22.8008 at3901001 1 948.103 7.0251 7.0247 3.5741 3.5745 1.3027 98.6723 -0.04 0.075 940.0 1031.7302 1031.7342 35.0128 35.0179 1494.4 1494.4 138.525 0.0
2017-10-14T12:30:45Z -46.0552 22.8008 at3901001 1 949.114 7.0189 7.0182 3.5734 3.5739 1.3027 98.6736 -0.0422 0.074 941.0 1031.7342 1031.739 35.0109 35.0169 1494.39 1494.39 138.574 0.0
2017-10-14T12:30:45Z -46.0552 22.8008 at3901001 1 950.125 7.0021 7.0015 3.5718 3.5723 1.3029 98.6712 -0.0283 0.0762 942.0 1031.7406 1031.7455 35.0098 35.016 1494.34 1494.34 138.677 0.0
2017-10-14T12:30:45Z -46.0552 22.8008 at3901001 1 951.136 6.9891 6.988 3.5706 3.5711 1.3035 98.6711 -0.0458 0.0752 943.0 1031.7469 1031.7519 35.0095 35.0156 1494.3 1494.31 138.845 0.0
2017-10-14T12:30:45Z -46.0552 22.8008 at3901001 1 952.147 6.9629 6.9622 3.568 3.5686 1.3036 98.6726 -0.031 0.076 944.0 1031.7532 1031.759 35.0064 35.0135 1494.22 1494.22 138.985 0.0
2017-10-14T12:30:45Z -46.0552 22.8008 at3901001 1 953.158 6.9347 6.935 3.5652 3.5659 1.3039 98.6781 -0.0547 0.0738 945.0 1031.7605 1031.766 35.0041 35.0112 1494.12 1494.13 139.151 0.0
2017-10-14T12:30:45Z -46.0552 22.8008 at3901001 1 954.168 6.9155 6.9144 3.5634 3.5639 1.3042 98.6747 -0.0273 0.0674 946.0 1031.7677 1031.7725 35.0036 35.0094 1494.06 1494.07 139.281 0.0
2017-10-14T12:30:45Z -46.0552 22.8008 at3901001 1 955.179 6.9076 6.907 3.5628 3.5632 1.3046 98.6805 -0.0263 0.0764 947.0 1031.7737 1031.7777 35.0038 35.0088 1494.05 1494.05 139.408 0.0
2017-10-14T12:30:45Z -46.0552 22.8008 at3901001 1 956.19 6.906 6.9046 3.5626 3.563 1.3051 98.671 -0.0476 0.074 948.0 1031.7782 1031.7824 35.0034 35.0085 1494.06 1494.06 139.504 0.0
2017-10-14T12:30:45Z -46.0552 22.8008 at3901001 1 957.201 6.8937 6.8926 3.5613 3.5618 1.3048 98.6741 -0.0327 0.0788 949.0 1031.7829 1031.788 35.0011 35.0074 1494.03 1494.03 139.523 0.0
2017-10-14T12:30:45Z -46.0552 22.8008 at3901001 1 958.212 6.8871 6.8872 3.5608 3.5613 1.3049 98.6831 -0.0155 0.0809 950.0 1031.7892 1031.793 35.002 35.0069 1494.02 1494.02 139.582 0.0
2017-10-14T12:30:45Z -46.0552 22.8008 at3901001 1 959.223 6.8807 6.8841 3.5602 3.5611 1.3054 98.675 -0.0271 0.0718 951.0 1031.7936 1031.7983 35.0005 35.0073 1494.01 1494.03 139.705 0.0
2017-10-14T12:30:45Z -46.0552 22.8008 at3901001 1 960.234 6.8652 6.8587 3.5588 3.5586 1.3066 98.6768 -0.0148 0.0689 952.0 1031.8004 1031.8048 35.0003 35.0046 1493.96 1493.94 139.984 0.0
2017-10-14T12:30:45Z -46.0552 22.8008 at3901001 1 961.245 6.8513 6.8512 3.5574 3.5579 1.3071 98.6865 -0.0049 0.0749 953.0 1031.8062 1031.8102 34.9991 35.0042 1493.92 1493.93 140.156 0.0
2017-10-14T12:30:45Z -46.0552 22.8008 at3901001 1 962.256 6.8456 6.8455 3.5569 3.5574 1.3077 98.6762 -0.0174 0.065 954.0 1031.8112 1031.8157 34.9985 35.0042 1493.92 1493.92 140.291 0.0
2017-10-14T12:30:45Z -46.0552 22.8008 at3901001 1 963.267 6.8402 6.8396 3.5565 3.5569 1.3076 98.6827 -0.0101 0.0648 955.0 1031.8174 1031.8212 34.9995 35.0043 1493.91 1493.92 140.316 0.0
2017-10-14T12:30:45Z -46.0552 22.8008 at3901001 1 964.278 6.8392 6.8388 3.5564 3.5569 1.3077 98.6809 -0.0434 0.0698 956.0 1031.8218 1031.8259 34.9992 35.0043 1493.93 1493.93 140.349 0.0
2017-10-14T12:30:45Z -46.0552 22.8008 at3901001 1 965.289 6.8282 6.8307 3.5553 3.5561 1.308 98.6825 -0.0385 0.0679 957.0 1031.8265 1031.8316 34.9971 35.004 1493.9 1493.92 140.463 0.0
2017-10-14T12:30:45Z -46.0552 22.8008 at3901001 1 966.3 6.8161 6.8157 3.5543 3.5548 1.3087 98.6775 -0.0268 0.0707 958.0 1031.8342 1031.8381 34.9986 35.0036 1493.87 1493.87 140.65 0.0
2017-10-14T12:30:45Z -46.0552 22.8008 at3901001 1 967.311 6.8161 6.8153 3.5544 3.5548 1.3093 98.6799 -0.0188 0.0732 959.0 1031.8387 1031.8427 34.9986 35.0035 1493.89 1493.89 140.767 0.0
2017-10-14T12:30:45Z -46.0552 22.8008 at3901001 1 968.322 6.816 6.8158 3.5544 3.5549 1.31 98.6825 -0.024 0.0717 960.0 1031.8431 1031.8472 34.9985 35.0035 1493.9 1493.91 140.912 0.0
2017-10-14T12:30:45Z -46.0552 22.8008 at3901001 1 969.333 6.8149 6.8147 3.5544 3.5548 1.31 98.6817 -0.0139 0.0712 961.0 1031.8481 1031.8519 34.9988 35.0035 1493.92 1493.92 140.929 0.0
2017-10-14T12:30:45Z -46.0552 22.8008 at3901001 1 970.344 6.8146 6.815 3.5544 3.5549 1.31 98.685 -0.0269 0.0824 962.0 1031.8524 1031.8565 34.9984 35.0036 1493.93 1493.94 140.955 0.0
2017-10-14T12:30:45Z -46.0552 22.8008 at3901001 1 971.355 6.8094 6.8098 3.5539 3.5544 1.3099 98.6745 -0.0488 0.0778 963.0 1031.8576 1031.8617 34.9982 35.0035 1493.93 1493.94 140.974 0.0
2017-10-14T12:30:45Z -46.0552 22.8008 at3901001 1 972.366 6.8053 6.805 3.5536 3.554 1.3095 98.6866 -0.0179 0.073 964.0 1031.8631 1031.8668 34.9986 35.0032 1493.93 1493.93 140.939 0.0
2017-10-14T12:30:45Z -46.0552 22.8008 at3901001 1 973.377 6.8055 6.8052 3.5537 3.554 1.3094 98.6856 -0.0244 0.0719 965.0 1031.8676 1031.8712 34.9985 35.003 1493.95 1493.95 140.937 0.0
2017-10-14T12:30:45Z -46.0552 22.8008 at3901001 1 974.388 6.8056 6.8048 3.5537 3.5541 1.3094 98.6901 -0.0263 0.0711 966.0 1031.8721 1031.876 34.9985 35.0033 1493.96 1493.97 140.949 0.0
2017-10-14T12:30:45Z -46.0552 22.8008 at3901001 1 975.399 6.7977 6.7976 3.5528 3.5534 1.3091 98.6785 -0.0401 0.0675 967.0 1031.876 1031.8813 34.9961 35.0028 1493.95 1493.95 140.948 0.0
2017-10-14T12:30:45Z -46.0552 22.8008 at3901001 1 976.41 6.7662 6.7665 3.5498 3.5505 1.3099 98.6856 -0.0312 0.0692 968.0 1031.8841 1031.8899 34.9942 35.0017 1493.84 1493.85 141.212 0.0
2017-10-14T12:30:45Z -46.0552 22.8008 at3901001 1 977.421 6.7483 6.7487 3.5481 3.5488 1.3109 98.6836 -0.0388 0.0751 969.0 1031.8909 1031.8963 34.9935 35.0005 1493.78 1493.79 141.479 0.0
2017-10-14T12:30:45Z -46.0552 22.8008 at3901001 1 978.432 6.7018 6.702 3.5435 3.5442 1.3125 98.684 -0.0525 0.0667 970.0 1031.8995 1031.9057 34.9893 34.9972 1493.61 1493.62 141.943 0.0
2017-10-14T12:30:45Z -46.0552 22.8008 at3901001 1 979.443 6.6673 6.6678 3.54 3.5408 1.3137 98.6878 -0.0411 0.0737 971.0 1031.9064 1031.9127 34.9854 34.9936 1493.49 1493.5 142.306 0.0
2017-10-14T12:30:45Z -46.0552 22.8008 at3901001 1 980.454 6.6377 6.6375 3.5372 3.5378 1.3149 98.6888 -0.0346 0.0754 972.0 1031.9143 1031.9195 34.9838 34.9903 1493.39 1493.4 142.64 0.0
2017-10-14T12:30:45Z -46.0552 22.8008 at3901001 1 981.466 6.6228 6.6221 3.5357 3.5363 1.316 98.683 -0.0507 0.0716 973.0 1031.92 1031.9253 34.9822 34.9888 1493.35 1493.35 142.915 0.0
2017-10-14T12:30:45Z -46.0552 22.8008 at3901001 1 982.477 6.6141 6.6135 3.535 3.5355 1.317 98.6893 0.0048 0.0725 974.0 1031.9262 1031.9306 34.9826 34.9881 1493.33 1493.33 143.13 0.0
2017-10-14T12:30:45Z -46.0552 22.8008 at3901001 1 983.488 6.6037 6.6033 3.5341 3.5346 1.3179 98.6865 -0.0043 0.0715 975.0 1031.9321 1031.9366 34.9822 34.9879 1493.3 1493.31 143.34 0.0
2017-10-14T12:30:45Z -46.0552 22.8008 at3901001 1 984.499 6.5992 6.5988 3.5338 3.5342 1.3189 98.6887 -0.0263 0.0724 976.0 1031.9378 1031.9419 34.9827 34.9879 1493.3 1493.31 143.564 0.0
2017-10-14T12:30:45Z -46.0552 22.8008 at3901001 1 985.51 6.601 6.5973 3.534 3.5341 1.32 98.69 -0.0343 0.0763 977.0 1031.9424 1031.9468 34.9832 34.9881 1493.33 1493.32 143.765 0.0
2017-10-14T12:30:45Z -46.0552 22.8008 at3901001 1 986.521 6.5953 6.5934 3.5335 3.5338 1.3205 98.6961 -0.022 0.0767 978.0 1031.9472 1031.9522 34.9824 34.9884 1493.32 1493.32 143.895 0.0
2017-10-14T12:30:45Z -46.0552 22.8008 at3901001 1 987.532 6.586 6.5861 3.5326 3.5332 1.3209 98.6966 -0.0302 0.0689 979.0 1031.9531 1031.9576 34.9823 34.988 1493.3 1493.31 144.008 0.0
2017-10-14T12:30:45Z -46.0552 22.8008 at3901001 1 988.543 6.5721 6.572 3.5313 3.5319 1.3214 98.6947 -0.0437 0.0716 980.0 1031.959 1031.9639 34.9812 34.9874 1493.26 1493.27 144.172 0.0
2017-10-14T12:30:45Z -46.0552 22.8008 at3901001 1 989.554 6.5571 6.557 3.5299 3.5305 1.3214 98.6947 -0.0255 0.0712 981.0 1031.9656 1031.9704 34.9808 34.9869 1493.22 1493.23 144.245 0.0
2017-10-14T12:30:45Z -46.0552 22.8008 at3901001 1 990.565 6.5445 6.5444 3.5288 3.5293 1.3224 98.6952 -0.0155 0.0647 982.0 1031.9716 1031.9765 34.9801 34.9864 1493.19 1493.19 144.481 0.0
2017-10-14T12:30:45Z -46.0552 22.8008 at3901001 1 991.576 6.5179 6.5179 3.526 3.5267 1.3232 98.6823 0.0 0.0712 983.0 1031.977 1031.9835 34.976 34.9843 1493.09 1493.11 144.748 0.0
2017-10-14T12:30:45Z -46.0552 22.8008 at3901001 1 992.588 6.4625 6.4631 3.5205 3.5214 1.325 98.6937 -0.0238 0.0729 984.0 1031.9863 1031.9934 34.9709 34.9802 1492.89 1492.9 145.287 0.0
2017-10-14T12:30:45Z -46.0552 22.8008 at3901001 1 993.599 6.4357 6.4352 3.5182 3.5186 1.3268 98.6954 -0.01 0.0762 985.0 1031.9959 1032.0002 34.9721 34.9775 1492.8 1492.81 145.738 0.0
2017-10-14T12:30:45Z -46.0552 22.8008 at3901001 1 994.61 6.4334 6.4331 3.518 3.5185 1.3286 98.6977 0.0094 0.0662 986.0 1032.001 1032.0049 34.9724 34.9773 1492.81 1492.81 146.071 0.0
2017-10-14T12:30:45Z -46.0552 22.8008 at3901001 1 995.621 6.4314 6.431 3.5179 3.5184 1.3297 98.6923 -0.0683 0.0777 987.0 1032.0062 1032.0102 34.9728 34.9778 1492.82 1492.82 146.297 0.0
2017-10-14T12:30:45Z -46.0552 22.8008 at3901001 1 996.632 6.429 6.4289 3.5178 3.5182 1.3309 98.6977 -0.0526 0.0666 988.0 1032.0113 1032.0154 34.973 34.9782 1492.83 1492.83 146.54 0.0
2017-10-14T12:30:45Z -46.0552 22.8008 at3901001 1 997.643 6.424 6.4245 3.5174 3.5179 1.3314 98.6966 -0.0521 0.0717 989.0 1032.0166 1032.0206 34.973 34.9782 1492.82 1492.83 146.653 0.0
2017-10-14T12:30:45Z -46.0552 22.8008 at3901001 1 998.654 6.42 6.4198 3.517 3.5175 1.3321 98.6977 -0.0267 0.0618 990.0 1032.0216 1032.0257 34.9728 34.9779 1492.82 1492.83 146.815 0.0
2017-10-14T12:30:45Z -46.0552 22.8008 at3901001 1 999.666 6.4173 6.4173 3.5168 3.5173 1.3324 98.6977 -0.0268 0.076 991.0 1032.0265 1032.0304 34.9726 34.9777 1492.83 1492.84 146.908 0.0
2017-10-14T12:30:45Z -46.0552 22.8008 at3901001 1 1000.677 6.4153 6.415 3.5167 3.5171 1.3325 98.6925 -0.0263 0.0709 992.0 1032.0313 1032.0353 34.9726 34.9777 1492.84 1492.84 146.937 0.0
2017-10-14T12:30:45Z -46.0552 22.8008 at3901001 1 1001.688 6.4155 6.415 3.5168 3.5171 1.3325 98.694 -0.0193 0.072 993.0 1032.0361 1032.0399 34.9729 34.9777 1492.86 1492.86 146.963 0.0
2017-10-14T12:30:45Z -46.0552 22.8008 at3901001 1 1002.699 6.4155 6.4152 3.5168 3.5172 1.3325 98.7019 -0.028 0.0714 994.0 1032.0407 1032.0444 34.973 34.9777 1492.87 1492.88 146.99 0.0
2017-10-14T12:30:45Z -46.0552 22.8008 at3901001 1 1003.71 6.4128 6.4124 3.5166 3.517 1.3325 98.6976 -0.0263 0.0741 995.0 1032.0453 1032.0494 34.9725 34.9777 1492.88 1492.88 147.011 0.0
2017-10-14T12:30:45Z -46.0552 22.8008 at3901001 1 1004.721 6.41 6.4095 3.5164 3.5168 1.3323 98.7036 -0.0352 0.0757 996.0 1032.0506 1032.0545 34.9729 34.9778 1492.88 1492.89 147.006 0.0
2017-10-14T12:30:45Z -46.0552 22.8008 at3901001 1 1005.733 6.4101 6.4097 3.5165 3.5168 1.3323 98.7007 -0.0492 0.0716 997.0 1032.0553 1032.0589 34.9731 34.9777 1492.9 1492.91 147.024 0.0
2017-10-14T12:30:45Z -46.0552 22.8008 at3901001 1 1006.744 6.4099 6.4096 3.5165 3.5169 1.3322 98.6991 -0.0141 0.0714 998.0 1032.0597 1032.0636 34.9729 34.9778 1492.92 1492.92 147.027 0.0
2017-10-14T12:30:45Z -46.0552 22.8008 at3901001 1 1007.755 6.4081 6.4078 3.5163 3.5167 1.332 98.7022 -0.0135 0.071 999.0 1032.0645 1032.0684 34.9729 34.9777 1492.93 1492.93 147.024 0.0
2017-10-14T12:30:45Z -46.0552 22.8008 at3901001 1 1008.766 6.407 6.4071 3.5163 3.5167 1.3324 98.6993 -0.0488 0.0773 1000.0 1032.0691 1032.0728 34.9726 34.9775 1492.94 1492.95 147.115 0.0
2017-10-14T12:30:45Z -46.0552 22.8008 at3901001 1 1009.777 6.3979 6.3976 3.5153 3.5158 1.3325 98.7053 -0.0486 0.0809 1001.0 1032.074 1032.0785 34.9713 34.9771 1492.92 1492.93 147.185 0.0
2017-10-14T12:30:45Z -46.0552 22.8008 at3901001 1 1010.788 6.3856 6.3856 3.5142 3.5147 1.3323 98.7089 -0.0429 0.0735 1002.0 1032.0803 1032.0842 34.9711 34.9761 1492.89 1492.89 147.223 0.0
2017-10-14T12:30:45Z -46.0552 22.8008 at3901001 1 1011.8 6.3761 6.3761 3.5133 3.5138 1.3323 98.6986 -0.0254 0.0756 1003.0 1032.085 1032.0897 34.9695 34.9754 1492.86 1492.87 147.28 0.0
2017-10-14T12:30:45Z -46.0552 22.8008 at3901001 1 1012.811 6.3622 6.3622 3.512 3.5125 1.3325 98.6989 -0.0384 0.0768 1004.0 1032.0913 1032.096 34.969 34.975 1492.83 1492.83 147.379 0.0
2017-10-14T12:30:45Z -46.0552 22.8008 at3901001 1 1013.822 6.3503 6.3508 3.511 3.5115 1.3332 98.7073 -0.0614 0.0746 1005.0 1032.0978 1032.1019 34.969 34.9745 1492.8 1492.8 147.565 0.0
2017-10-14T12:30:45Z -46.0552 22.8008 at3901001 1 1014.833 6.3449 6.3453 3.5104 3.511 1.3338 98.7031 -0.022 0.0753 1006.0 1032.1025 1032.1069 34.9682 34.9739 1492.79 1492.8 147.707 0.0
2017-10-14T12:30:45Z -46.0552 22.8008 at3901001 1 1015.845 6.3342 6.3347 3.5095 3.51 1.3345 98.704 -0.0303 0.0766 1007.0 1032.1089 1032.1128 34.9684 34.9735 1492.77 1492.77 147.898 0.0
2017-10-14T12:30:45Z -46.0552 22.8008 at3901001 1 1016.856 6.3293 6.3294 3.509 3.5095 1.335 98.7016 -0.0535 0.0772 1008.0 1032.1129 1032.1179 34.9667 34.9731 1492.76 1492.77 148.028 0.0
2017-10-14T12:30:45Z -46.0552 22.8008 at3901001 1 1017.867 6.3089 6.3078 3.5071 3.5075 1.3352 98.704 -0.0474 0.0766 1009.0 1032.1205 1032.1252 34.9666 34.9724 1492.7 1492.7 148.155 0.0
2017-10-14T12:30:45Z -46.0552 22.8008 at3901001 1 1018.878 6.3019 6.3014 3.5066 3.507 1.3358 98.7074 -0.0311 0.0732 1010.0 1032.1266 1032.1305 34.9672 34.9721 1492.69 1492.69 148.317 0.0
2017-10-14T12:30:45Z -46.0552 22.8008 at3901001 1 1019.89 6.3 6.2995 3.5064 3.5068 1.337 98.6985 -0.0225 0.0704 1011.0 1032.1313 1032.1352 34.967 34.9719 1492.69 1492.7 148.547 0.0
2017-10-14T12:30:45Z -46.0552 22.8008 at3901001 1 1020.901 6.2987 6.2986 3.5064 3.5068 1.3385 98.7105 0.0108 0.0775 1012.0 1032.136 1032.1398 34.967 34.9718 1492.71 1492.71 148.845 0.0
2017-10-14T12:30:45Z -46.0552 22.8008 at3901001 1 1021.912 6.2961 6.2953 3.5061 3.5065 1.339 98.7109 -0.0221 0.0763 1013.0 1032.1408 1032.1449 34.9667 34.9719 1492.71 1492.72 148.963 0.0
2017-10-14T12:30:45Z -46.0552 22.8008 at3901001 1 1022.923 6.2897 6.2895 3.5056 3.506 1.3388 98.7051 -0.0268 0.0763 1014.0 1032.1464 1032.1502 34.9668 34.9717 1492.71 1492.71 148.967 0.0
2017-10-14T12:30:45Z -46.0552 22.8008 at3901001 1 1023.935 6.2837 6.283 3.505 3.5055 1.3389 98.7121 -0.0275 0.0662 1015.0 1032.151 1032.1558 34.9657 34.9717 1492.7 1492.7 149.035 0.0
2017-10-14T12:30:45Z -46.0552 22.8008 at3901001 1 1024.946 6.2675 6.2673 3.5036 3.5041 1.339 98.699 -0.027 0.0644 1016.0 1032.1583 1032.1625 34.9661 34.9714 1492.65 1492.66 149.124 0.0
2017-10-14T12:30:45Z -46.0552 22.8008 at3901001 1 1025.957 6.2605 6.2595 3.503 3.5034 1.3396 98.7134 -0.0422 0.0641 1017.0 1032.164 1032.1685 34.9661 34.9717 1492.64 1492.64 149.282 0.0
2017-10-14T12:30:45Z -46.0552 22.8008 at3901001 1 1026.969 6.2516 6.2511 3.5023 3.5027 1.3408 98.7126 -0.0337 0.0625 1018.0 1032.1703 1032.1744 34.9666 34.9718 1492.62 1492.63 149.543 0.0
2017-10-14T12:30:45Z -46.0552 22.8008 at3901001 1 1027.98 6.2464 6.246 3.5019 3.5023 1.3421 98.7092 0.0032 0.0674 1019.0 1032.1759 1032.1797 34.9669 34.9718 1492.62 1492.62 149.815 0.0
2017-10-14T12:30:45Z -46.0552 22.8008 at3901001 1 1028.991 6.2442 6.2438 3.5017 3.5021 1.3438 98.7085 -8.0E-4 0.0718 1020.0 1032.1809 1032.1846 34.967 34.9717 1492.63 1492.63 150.148 0.0
2017-10-14T12:30:45Z -46.0552 22.8008 at3901001 1 1030.002 6.242 6.2415 3.5016 3.5019 1.3449 98.7162 -0.0148 0.0707 1021.0 1032.1858 1032.1896 34.9671 34.9718 1492.63 1492.64 150.373 0.0
2017-10-14T12:30:45Z -46.0552 22.8008 at3901001 1 1031.014 6.2409 6.2404 3.5015 3.5019 1.3452 98.7139 -0.0298 0.0715 1022.0 1032.1908 1032.1945 34.9674 34.9721 1492.65 1492.65 150.454 0.0
2017-10-14T12:30:45Z -46.0552 22.8008 at3901001 1 1032.025 6.2375 6.2373 3.5012 3.5017 1.3454 98.7123 -0.0297 0.0754 1023.0 1032.1954 1032.1996 34.9668 34.9721 1492.65 1492.66 150.514 0.0
2017-10-14T12:30:45Z -46.0552 22.8008 at3901001 1 1033.036 6.2344 6.2341 3.501 3.5014 1.346 98.7066 -0.0428 0.0803 1024.0 1032.2008 1032.2045 34.9673 34.972 1492.65 1492.66 150.662 0.0
2017-10-14T12:30:45Z -46.0552 22.8008 at3901001 1 1034.048 6.2316 6.2315 3.5008 3.5012 1.3463 98.7115 -0.0373 0.0831 1025.0 1032.2056 1032.2096 34.9671 34.9721 1492.66 1492.67 150.745 0.0
2017-10-14T12:30:45Z -46.0552 22.8008 at3901001 1 1035.059 6.2222 6.2217 3.5 3.5004 1.3473 98.7202 -0.0291 0.0769 1026.0 1032.2115 1032.2156 34.9669 34.9721 1492.64 1492.65 150.968 0.0
2017-10-14T12:30:45Z -46.0552 22.8008 at3901001 1 1036.07 6.2183 6.2179 3.4996 3.5 1.3482 98.7111 -0.0269 0.0708 1027.0 1032.2166 1032.2205 34.9668 34.9718 1492.64 1492.65 151.161 0.0
2017-10-14T12:30:45Z -46.0552 22.8008 at3901001 1 1037.082 6.2154 6.2152 3.4994 3.4998 1.3485 98.7154 -0.014 0.0646 1028.0 1032.2218 1032.2255 34.9671 34.9717 1492.65 1492.65 151.263 0.0
2017-10-14T12:30:45Z -46.0552 22.8008 at3901001 1 1038.093 6.2135 6.2129 3.4993 3.4997 1.3486 98.7176 -0.0275 0.0697 1029.0 1032.2266 1032.2304 34.9671 34.9718 1492.66 1492.66 151.299 0.0
2017-10-14T12:30:45Z -46.0552 22.8008 at3901001 1 1039.104 6.212 6.2116 3.4992 3.4996 1.3492 98.7139 -0.0296 0.0715 1030.0 1032.2313 1032.235 34.9669 34.9716 1492.67 1492.67 151.437 0.0
2017-10-14T12:30:45Z -46.0552 22.8008 at3901001 1 1040.116 6.2114 6.2114 3.4992 3.4996 1.3499 98.7177 -0.0488 0.0709 1031.0 1032.2359 1032.2395 34.9669 34.9715 1492.68 1492.69 151.581 0.0
2017-10-14T12:30:45Z -46.0552 22.8008 at3901001 1 1041.127 6.2107 6.2107 3.4992 3.4996 1.3498 98.7161 -0.0189 0.0715 1032.0 1032.2406 1032.2442 34.967 34.9716 1492.7 1492.7 151.58 0.0
2017-10-14T12:30:45Z -46.0552 22.8008 at3901001 1 1042.138 6.2085 6.208 3.499 3.4994 1.3499 98.7163 -0.0135 0.0646 1033.0 1032.2453 1032.2492 34.9667 34.9716 1492.7 1492.71 151.629 0.0
2017-10-14T12:30:45Z -46.0552 22.8008 at3901001 1 1043.15 6.2067 6.2071 3.4989 3.4993 1.3499 98.723 -0.0266 0.0601 1034.0 1032.25 1032.2537 34.9665 34.9713 1492.71 1492.72 151.656 0.0
2017-10-14T12:30:45Z -46.0552 22.8008 at3901001 1 1044.161 6.2048 6.205 3.4987 3.4992 1.3501 98.7234 -0.0162 0.0694 1035.0 1032.2547 1032.2585 34.9663 34.9712 1492.72 1492.73 151.72 0.0
2017-10-14T12:30:45Z -46.0552 22.8008 at3901001 1 1045.172 6.2022 6.2016 3.4985 3.4989 1.3503 98.7215 -0.02 0.0735 1036.0 1032.2595 1032.2633 34.9662 34.9708 1492.73 1492.73 151.784 0.0
2017-10-14T12:30:45Z -46.0552 22.8008 at3901001 1 1046.184 6.1933 6.1939 3.4976 3.4982 1.3506 98.7231 -0.0276 0.0769 1037.0 1032.2646 1032.2689 34.965 34.9707 1492.71 1492.72 151.892 0.0
2017-10-14T12:30:45Z -46.0552 22.8008 at3901001 1 1047.195 6.1735 6.1763 3.496 3.4967 1.3506 98.7197 -0.027 0.0753 1038.0 1032.2732 1032.2773 34.9664 34.9721 1492.65 1492.67 151.985 0.0
2017-10-14T12:30:45Z -46.0552 22.8008 at3901001 1 1048.207 6.1572 6.1571 3.4945 3.4951 1.3511 98.7229 -0.0283 0.0714 1039.0 1032.2803 1032.2853 34.9665 34.9728 1492.6 1492.61 152.165 0.0
2017-10-14T12:30:45Z -46.0552 22.8008 at3901001 1 1049.218 6.1499 6.1496 3.4941 3.4945 1.3521 98.7242 5.0E-4 0.0718 1040.0 1032.2873 1032.2911 34.9681 34.9728 1492.59 1492.59 152.381 0.0
2017-10-14T12:30:45Z -46.0552 22.8008 at3901001 1 1050.229 6.1463 6.1459 3.4937 3.4942 1.3538 98.7242 -0.0113 0.0704 1041.0 1032.2922 1032.2961 34.9678 34.9728 1492.59 1492.6 152.725 0.0
2017-10-14T12:30:45Z -46.0552 22.8008 at3901001 1 1051.241 6.1413 6.1411 3.4934 3.4938 1.3557 98.7169 -0.0124 0.0664 1042.0 1032.2978 1032.3015 34.9682 34.9729 1492.59 1492.6 153.104 0.0
2017-10-14T12:30:45Z -46.0552 22.8008 at3901001 1 1052.252 6.1387 6.1385 3.4932 3.4936 1.3578 98.7242 -0.0242 0.0708 1043.0 1032.3028 1032.3064 34.9682 34.9729 1492.6 1492.6 153.515 0.0
2017-10-14T12:30:45Z -46.0552 22.8008 at3901001 1 1053.264 6.1342 6.1339 3.4928 3.4932 1.359 98.7234 -0.013 0.0683 1044.0 1032.308 1032.3119 34.9683 34.9732 1492.6 1492.6 153.763 0.0
2017-10-14T12:30:45Z -46.0552 22.8008 at3901001 1 1054.275 6.1305 6.1302 3.4926 3.493 1.3601 98.7161 -0.0134 0.0731 1045.0 1032.3135 1032.3172 34.9687 34.9734 1492.6 1492.6 153.989 0.0
2017-10-14T12:30:45Z -46.0552 22.8008 at3901001 1 1055.286 6.1293 6.1292 3.4925 3.4929 1.361 98.7268 -0.0129 0.0676 1046.0 1032.3185 1032.3219 34.969 34.9733 1492.61 1492.62 154.174 0.0
2017-10-14T12:30:45Z -46.0552 22.8008 at3901001 1 1056.298 6.1287 6.1282 3.4925 3.4929 1.3613 98.7228 -0.0334 0.0652 1047.0 1032.3231 1032.3268 34.969 34.9736 1492.63 1492.63 154.263 0.0
2017-10-14T12:30:45Z -46.0552 22.8008 at3901001 1 1057.309 6.1275 6.1271 3.4924 3.4928 1.3617 98.7241 -0.0437 0.067 1048.0 1032.3279 1032.3315 34.9691 34.9735 1492.64 1492.64 154.357 0.0
2017-10-14T12:30:45Z -46.0552 22.8008 at3901001 1 1058.321 6.1264 6.1261 3.4924 3.4928 1.3615 98.7242 -0.028 0.0762 1049.0 1032.3327 1032.3363 34.9691 34.9737 1492.65 1492.66 154.336 0.0
2017-10-14T12:30:45Z -46.0552 22.8008 at3901001 1 1059.332 6.1256 6.1253 3.4924 3.4927 1.3616 98.7152 -0.027 0.0769 1050.0 1032.3373 1032.341 34.9691 34.9736 1492.66 1492.67 154.383 0.0
2017-10-14T12:30:45Z -46.0552 22.8008 at3901001 1 1060.344 6.1243 6.124 3.4923 3.4927 1.3612 98.722 -0.0152 0.0731 1051.0 1032.342 1032.3457 34.969 34.9736 1492.68 1492.68 154.345 0.0
2017-10-14T12:30:45Z -46.0552 22.8008 at3901001 1 1061.355 6.1224 6.1195 3.4922 3.4923 1.3622 98.7247 -0.0211 0.0676 1052.0 1032.3469 1032.3513 34.9691 34.9741 1492.68 1492.68 154.548 0.0
2017-10-14T12:30:45Z -46.0552 22.8008 at3901001 1 1062.367 6.1179 6.1173 3.4918 3.4922 1.3631 98.7224 -0.0222 0.0763 1053.0 1032.3524 1032.3564 34.9694 34.9744 1492.68 1492.69 154.745 0.0
2017-10-14T12:30:45Z -46.0552 22.8008 at3901001 1 1063.378 6.111 6.1112 3.4913 3.4917 1.3635 98.7243 -0.0149 0.0758 1054.0 1032.3587 1032.3623 34.9703 34.9749 1492.67 1492.68 154.866 0.0
2017-10-14T12:30:45Z -46.0552 22.8008 at3901001 1 1064.389 6.1073 6.1071 3.491 3.4914 1.3641 98.7256 -0.0481 0.0649 1055.0 1032.3639 1032.3677 34.9704 34.9751 1492.68 1492.68 155.001 0.0
2017-10-14T12:30:45Z -46.0552 22.8008 at3901001 1 1065.401 6.1034 6.103 3.4907 3.4911 1.3643 98.7292 -0.0331 0.0743 1056.0 1032.3692 1032.3732 34.9706 34.9756 1492.68 1492.68 155.08 0.0
2017-10-14T12:30:45Z -46.0552 22.8008 at3901001 1 1066.412 6.0991 6.0984 3.4904 3.4908 1.3646 98.7292 -0.0246 0.0748 1057.0 1032.3746 1032.3785 34.9707 34.9757 1492.68 1492.68 155.159 0.0
2017-10-14T12:30:45Z -46.0552 22.8008 at3901001 1 1067.424 6.0905 6.09 3.4896 3.4901 1.3652 98.7243 -0.016 0.0713 1058.0 1032.38 1032.3845 34.9702 34.9758 1492.66 1492.67 155.33 0.0
2017-10-14T12:30:45Z -46.0552 22.8008 at3901001 1 1068.435 6.0828 6.0828 3.489 3.4894 1.3659 98.7281 -0.0129 0.0702 1059.0 1032.3864 1032.3902 34.971 34.9758 1492.65 1492.65 155.498 0.0
2017-10-14T12:30:45Z -46.0552 22.8008 at3901001 1 1069.447 6.0739 6.0738 3.4883 3.4887 1.3675 98.7252 -0.0037 0.0706 1060.0 1032.3924 1032.3965 34.9711 34.9763 1492.63 1492.63 155.845 0.0
2017-10-14T12:30:45Z -46.0552 22.8008 at3901001 1 1070.458 6.0655 6.0627 3.4875 3.4877 1.3694 98.7265 -0.0376 0.0699 1061.0 1032.398 1032.4027 34.9709 34.9762 1492.61 1492.61 156.237 0.0
2017-10-14T12:30:45Z -46.0552 22.8008 at3901001 1 1071.47 6.0538 6.0534 3.4865 3.4869 1.3716 98.7299 -0.0584 0.073 1062.0 1032.4049 1032.4088 34.9715 34.9764 1492.58 1492.59 156.706 0.0
2017-10-14T12:30:45Z -46.0552 22.8008 at3901001 1 1072.481 6.0498 6.0497 3.4863 3.4867 1.373 98.728 -0.0148 0.0763 1063.0 1032.4105 1032.4141 34.9721 34.9766 1492.59 1492.59 156.997 0.0
2017-10-14T12:30:45Z -46.0552 22.8008 at3901001 1 1073.493 6.0451 6.045 3.4859 3.4863 1.3736 98.7255 -0.0116 0.0708 1064.0 1032.4156 1032.4195 34.9719 34.9768 1492.58 1492.59 157.139 0.0
2017-10-14T12:30:45Z -46.0552 22.8008 at3901001 1 1074.504 6.0371 6.0369 3.4852 3.4856 1.3743 98.7273 -0.0453 0.0709 1065.0 1032.4218 1032.4256 34.9724 34.9773 1492.57 1492.57 157.325 0.0
2017-10-14T12:30:45Z -46.0552 22.8008 at3901001 1 1075.516 6.0309 6.0309 3.4847 3.4851 1.375 98.7256 -0.033 0.0677 1066.0 1032.4271 1032.4312 34.9721 34.9774 1492.56 1492.57 157.499 0.0
2017-10-14T12:30:45Z -46.0552 22.8008 at3901001 1 1076.527 6.0166 6.0167 3.4834 3.4839 1.3762 98.7282 -0.0096 0.0647 1067.0 1032.4336 1032.4381 34.9718 34.9776 1492.52 1492.53 157.787 0.0
2017-10-14T12:30:45Z -46.0552 22.8008 at3901001 1 1077.539 6.0057 6.0064 3.4825 3.483 1.3772 98.7297 3.0E-4 0.0658 1068.0 1032.4404 1032.4444 34.9726 34.9778 1492.49 1492.51 158.029 0.0
2017-10-14T12:30:45Z -46.0552 22.8008 at3901001 1 1078.55 5.9979 5.9985 3.4819 3.4824 1.3789 98.7295 6.0E-4 0.0729 1069.0 1032.4464 1032.4502 34.9729 34.9779 1492.48 1492.49 158.387 0.0
2017-10-14T12:30:45Z -46.0552 22.8008 at3901001 1 1079.562 5.9919 5.9913 3.4814 3.4818 1.3809 98.7291 -0.007 0.0745 1070.0 1032.4521 1032.4559 34.9733 34.9779 1492.47 1492.48 158.793 0.0
2017-10-14T12:30:45Z -46.0552 22.8008 at3901001 1 1080.573 5.9888 5.989 3.4812 3.4816 1.3826 98.7371 -0.0177 0.071 1071.0 1032.4573 1032.4609 34.9734 34.978 1492.48 1492.49 159.135 0.0
2017-10-14T12:30:45Z -46.0552 22.8008 at3901001 1 1081.585 5.9853 5.9852 3.4809 3.4813 1.3838 98.733 -0.0421 0.0751 1072.0 1032.4625 1032.4662 34.9736 34.9782 1492.48 1492.49 159.386 0.0
2017-10-14T12:30:45Z -46.0552 22.8008 at3901001 1 1082.597 5.985 5.9849 3.4809 3.4813 1.3845 98.7227 -0.0123 0.0703 1073.0 1032.4674 1032.4707 34.9739 34.9781 1492.5 1492.5 159.532 0.0
2017-10-14T12:30:45Z -46.0552 22.8008 at3901001 1 1083.608 5.9832 5.9827 3.4808 3.4812 1.3852 98.744 -0.0259 0.0716 1074.0 1032.4723 1032.4759 34.974 34.9785 1492.51 1492.51 159.685 0.0
2017-10-14T12:30:45Z -46.0552 22.8008 at3901001 1 1084.62 5.9804 5.9802 3.4807 3.481 1.3857 98.7381 -0.0149 0.065 1075.0 1032.4775 1032.4811 34.9743 34.9789 1492.51 1492.52 159.816 0.0
2017-10-14T12:30:45Z -46.0552 22.8008 at3901001 1 1085.631 5.9794 5.9792 3.4806 3.481 1.3858 98.7269 -0.023 0.0756 1076.0 1032.4823 1032.4859 34.9745 34.9789 1492.53 1492.53 159.859 0.0
2017-10-14T12:30:45Z -46.0552 22.8008 at3901001 1 1086.643 5.975 5.9748 3.4803 3.4807 1.386 98.7367 -0.0212 0.0743 1077.0 1032.4875 1032.4912 34.9744 34.9791 1492.53 1492.53 159.932 0.0
2017-10-14T12:30:45Z -46.0552 22.8008 at3901001 1 1087.654 5.9697 5.9697 3.4798 3.4802 1.3859 98.7344 -0.0196 0.07 1078.0 1032.4926 1032.4966 34.9741 34.9792 1492.52 1492.53 159.956 0.0
2017-10-14T12:30:45Z -46.0552 22.8008 at3901001 1 1088.666 5.9566 5.9566 3.4787 3.4791 1.3871 98.7317 -0.0268 0.0738 1079.0 1032.4996 1032.5035 34.9746 34.9795 1492.48 1492.49 160.246 0.0
2017-10-14T12:30:45Z -46.0552 22.8008 at3901001 1 1089.677 5.9523 5.9518 3.4784 3.4787 1.3881 98.7416 -0.0282 0.0744 1080.0 1032.5051 1032.5086 34.975 34.9794 1492.49 1492.49 160.47 0.0
2017-10-14T12:30:45Z -46.0552 22.8008 at3901001 1 1090.689 5.9519 5.9517 3.4784 3.4787 1.3894 98.7419 -0.0161 0.0767 1081.0 1032.5098 1032.5132 34.9751 34.9794 1492.5 1492.51 160.722 0.0
2017-10-14T12:30:45Z -46.0552 22.8008 at3901001 1 1091.701 5.9516 5.9515 3.4784 3.4788 1.3897 98.7359 -0.014 0.0763 1082.0 1032.5144 1032.5177 34.9751 34.9793 1492.52 1492.52 160.798 0.0
2017-10-14T12:30:45Z -46.0552 22.8008 at3901001 1 1092.712 5.9504 5.9502 3.4783 3.4787 1.3907 98.7438 -0.0492 0.0716 1083.0 1032.5192 1032.5226 34.9752 34.9795 1492.53 1492.53 161.004 0.0
2017-10-14T12:30:45Z -46.0552 22.8008 at3901001 1 1093.724 5.9487 5.9488 3.4782 3.4786 1.3907 98.747 -0.0302 0.0702 1084.0 1032.5239 1032.5274 34.9751 34.9796 1492.54 1492.55 161.035 0.0
2017-10-14T12:30:45Z -46.0552 22.8008 at3901001 1 1094.736 5.9469 5.9471 3.4781 3.4785 1.3912 98.7452 -0.0473 0.0754 1085.0 1032.5287 1032.5321 34.9751 34.9794 1492.55 1492.56 161.146 0.0
2017-10-14T12:30:45Z -46.0552 22.8008 at3901001 1 1095.747 5.9448 5.9447 3.478 3.4783 1.3912 98.7477 -0.0087 0.0716 1086.0 1032.5338 1032.5372 34.9752 34.9796 1492.56 1492.56 161.18 0.0
2017-10-14T12:30:45Z -46.0552 22.8008 at3901001 1 1096.759 5.9375 5.9393 3.4772 3.4779 1.3911 98.7411 -0.0239 0.0754 1087.0 1032.5386 1032.5426 34.9742 34.9796 1492.54 1492.56 161.224 0.0
2017-10-14T12:30:45Z -46.0552 22.8008 at3901001 1 1097.77 5.9236 5.9234 3.4761 3.4765 1.3919 98.7476 -0.0498 0.0719 1088.0 1032.5459 1032.5498 34.975 34.9799 1492.51 1492.51 161.436 0.0
2017-10-14T12:30:45Z -46.0552 22.8008 at3901001 1 1098.782 5.9186 5.9183 3.4757 3.4761 1.3929 98.747 -0.0183 0.071 1089.0 1032.5515 1032.5552 34.9754 34.98 1492.5 1492.51 161.669 0.0
2017-10-14T12:30:45Z -46.0552 22.8008 at3901001 1 1099.794 5.9161 5.9159 3.4755 3.4759 1.3936 98.7484 -0.0151 0.0751 1090.0 1032.5566 1032.56 34.9755 34.9799 1492.51 1492.52 161.825 0.0
2017-10-14T12:30:45Z -46.0552 22.8008 at3901001 1 1100.805 5.915 5.9148 3.4755 3.4759 1.3944 98.7397 -0.0274 0.0766 1091.0 1032.5614 1032.5647 34.9756 34.9798 1492.52 1492.53 161.984 0.0
2017-10-14T12:30:45Z -46.0552 22.8008 at3901001 1 1101.817 5.9131 5.913 3.4754 3.4757 1.3944 98.743 -0.0263 0.0763 1092.0 1032.5661 1032.5695 34.9755 34.9798 1492.53 1492.54 162.029 0.0
2017-10-14T12:30:45Z -46.0552 22.8008 at3901001 1 1102.829 5.9109 5.9108 3.4752 3.4756 1.3945 98.7423 -0.0156 0.071 1093.0 1032.571 1032.5745 34.9754 34.9799 1492.54 1492.55 162.069 0.0
2017-10-14T12:30:45Z -46.0552 22.8008 at3901001 1 1103.84 5.9034 5.9033 3.4746 3.475 1.3951 98.7473 -0.0135 0.0645 1094.0 1032.5768 1032.5806 34.9756 34.9804 1492.53 1492.53 162.225 0.0
2017-10-14T12:30:45Z -46.0552 22.8008 at3901001 1 1104.852 5.8987 5.8985 3.4742 3.4746 1.3957 98.7497 -0.0293 0.0713 1095.0 1032.5824 1032.5861 34.976 34.9808 1492.53 1492.53 162.374 0.0
2017-10-14T12:30:45Z -46.0552 22.8008 at3901001 1 1105.863 5.8861 5.886 3.4731 3.4736 1.3967 98.7463 -0.0285 0.0645 1096.0 1032.589 1032.5933 34.9762 34.9816 1492.49 1492.5 162.632 0.0
2017-10-14T12:30:45Z -46.0552 22.8008 at3901001 1 1106.875 5.8765 5.8763 3.4724 3.4728 1.3979 98.7394 -0.0142 0.0648 1097.0 1032.5958 1032.5995 34.9772 34.9819 1492.47 1492.48 162.923 0.0
2017-10-14T12:30:45Z -46.0552 22.8008 at3901001 1 1107.887 5.8686 5.8691 3.4717 3.4722 1.3993 98.7427 -0.0321 0.071 1098.0 1032.6011 1032.6052 34.9766 34.9819 1492.46 1492.47 163.233 0.0
2017-10-14T12:30:45Z -46.0552 22.8008 at3901001 1 1108.898 5.8585 5.8584 3.4709 3.4713 1.4005 98.747 -0.0518 0.0719 1099.0 1032.6081 1032.6115 34.9777 34.9821 1492.44 1492.44 163.502 0.0
2017-10-14T12:30:45Z -46.0552 22.8008 at3901001 1 1109.91 5.8565 5.8563 3.4707 3.4711 1.4019 98.7508 -0.0174 0.071 1100.0 1032.6129 1032.6165 34.9777 34.9823 1492.44 1492.45 163.791 0.0
2017-10-14T12:30:45Z -46.0552 22.8008 at3901001 1 1110.922 5.8509 5.851 3.4703 3.4707 1.4032 98.7508 -0.0134 0.0604 1101.0 1032.6184 1032.6218 34.9779 34.9822 1492.44 1492.45 164.077 0.0
2017-10-14T12:30:45Z -46.0552 22.8008 at3901001 1 1111.934 5.8478 5.8476 3.4701 3.4704 1.4046 98.7499 -0.0276 0.0688 1102.0 1032.6235 1032.6271 34.978 34.9825 1492.44 1492.45 164.362 0.0
2017-10-14T12:30:45Z -46.0552 22.8008 at3901001 1 1112.945 5.8416 5.8414 3.4695 3.4699 1.4057 98.7508 -0.0244 0.0639 1103.0 1032.629 1032.6329 34.9779 34.9828 1492.44 1492.44 164.6 0.0
2017-10-14T12:30:45Z -46.0552 22.8008 at3901001 1 1113.957 5.834 5.8345 3.4689 3.4694 1.4063 98.7485 -0.001 0.0652 1104.0 1032.6347 1032.6386 34.9779 34.983 1492.42 1492.43 164.777 0.0
2017-10-14T12:30:45Z -46.0552 22.8008 at3901001 1 1114.969 5.828 5.8277 3.4685 3.4688 1.4068 98.7483 -0.0129 0.0711 1105.0 1032.6409 1032.6442 34.9788 34.9831 1492.42 1492.42 164.908 0.0
2017-10-14T12:30:45Z -46.0552 22.8008 at3901001 1 1115.98 5.8269 5.8266 3.4684 3.4688 1.4074 98.7496 -0.0272 0.0705 1106.0 1032.6457 1032.649 34.9789 34.9831 1492.43 1492.43 165.045 0.0
2017-10-14T12:30:45Z -46.0552 22.8008 at3901001 1 1116.992 5.8256 5.8254 3.4683 3.4687 1.4082 98.7518 -0.0279 0.0702 1107.0 1032.6504 1032.6537 34.9789 34.983 1492.44 1492.44 165.208 0.0
2017-10-14T12:30:45Z -46.0552 22.8008 at3901001 1 1118.004 5.8241 5.824 3.4682 3.4686 1.4091 98.7516 -0.0175 0.0811 1108.0 1032.6552 1032.6585 34.9789 34.9831 1492.45 1492.46 165.415 0.0
2017-10-14T12:30:45Z -46.0552 22.8008 at3901001 1 1119.016 5.8213 5.8209 3.468 3.4684 1.4101 98.7524 -0.0152 0.0707 1109.0 1032.6601 1032.6637 34.9788 34.9833 1492.46 1492.46 165.63 0.0
2017-10-14T12:30:45Z -46.0552 22.8008 at3901001 1 1120.027 5.8161 5.8156 3.4676 3.4679 1.4103 98.7508 -0.023 0.0683 1110.0 1032.6655 1032.6691 34.9789 34.9834 1492.45 1492.46 165.713 0.0
2017-10-14T12:30:45Z -46.0552 22.8008 at3901001 1 1121.039 5.8145 5.8148 3.4675 3.4679 1.4102 98.7508 -0.0279 0.073 1111.0 1032.6706 1032.6739 34.9793 34.9835 1492.46 1492.47 165.719 0.0
2017-10-14T12:30:45Z -46.0552 22.8008 at3901001 1 1122.051 5.8125 5.8123 3.4674 3.4678 1.4099 98.7524 -0.0271 0.0764 1112.0 1032.6752 1032.6789 34.9789 34.9836 1492.47 1492.48 165.694 0.0
2017-10-14T12:30:45Z -46.0552 22.8008 at3901001 1 1123.062 5.8036 5.8035 3.4666 3.467 1.4105 98.7508 8.0E-4 0.0763 1113.0 1032.6809 1032.6849 34.9787 34.9837 1492.45 1492.46 165.86 0.0
2017-10-14T12:30:45Z -46.0552 22.8008 at3901001 1 1124.074 5.7977 5.7973 3.4661 3.4665 1.4115 98.7519 -0.0193 0.0771 1114.0 1032.687 1032.6905 34.9794 34.9838 1492.45 1492.45 166.086 0.0
2017-10-14T12:30:45Z -46.0552 22.8008 at3901001 1 1125.086 5.7932 5.793 3.4658 3.4662 1.4129 98.7515 -0.0353 0.0738 1115.0 1032.6922 1032.6958 34.9795 34.9839 1492.44 1492.45 166.384 0.0
2017-10-14T12:30:45Z -46.0552 22.8008 at3901001 1 1126.098 5.7866 5.7856 3.4652 3.4656 1.4148 98.7508 -0.0414 0.07 1116.0 1032.6975 1032.7017 34.9791 34.9842 1492.44 1492.44 166.778 0.0
2017-10-14T12:30:45Z -46.0552 22.8008 at3901001 1 1127.109 5.7724 5.7744 3.464 3.4646 1.4156 98.7532 -0.0215 0.0735 1117.0 1032.7045 1032.7082 34.9795 34.9846 1492.4 1492.41 167.017 0.0
2017-10-14T12:30:45Z -46.0552 22.8008 at3901001 1 1128.121 5.7649 5.7647 3.4634 3.4638 1.4167 98.7581 -0.0469 0.071 1118.0 1032.711 1032.7145 34.9805 34.9849 1492.38 1492.39 167.258 0.0
2017-10-14T12:30:45Z -46.0552 22.8008 at3901001 1 1129.133 5.7644 5.7642 3.4634 3.4638 1.4173 98.7534 -0.0518 0.0685 1119.0 1032.7158 1032.7191 34.9807 34.9849 1492.4 1492.4 167.401 0.0
2017-10-14T12:30:45Z -46.0552 22.8008 at3901001 1 1130.145 5.7644 5.7643 3.4635 3.4638 1.4178 98.7546 -0.027 0.0658 1120.0 1032.7203 1032.7235 34.9807 34.9847 1492.42 1492.42 167.518 0.0
2017-10-14T12:30:45Z -46.0552 22.8008 at3901001 1 1131.157 5.7647 5.764 3.4635 3.4638 1.4182 98.7541 -0.0291 0.0713 1121.0 1032.7247 1032.7282 34.9805 34.9848 1492.43 1492.44 167.6 0.0
2017-10-14T12:30:45Z -46.0552 22.8008 at3901001 1 1132.168 5.764 5.7633 3.4635 3.4638 1.4182 98.7508 -0.0315 0.0737 1122.0 1032.7294 1032.7328 34.9806 34.9847 1492.45 1492.45 167.629 0.0
2017-10-14T12:30:45Z -46.0552 22.8008 at3901001 1 1133.18 5.7607 5.7595 3.4633 3.4635 1.4189 98.7529 -0.0393 0.0674 1123.0 1032.7344 1032.738 34.9805 34.9848 1492.45 1492.45 167.795 0.0
2017-10-14T12:30:45Z -46.0552 22.8008 at3901001 1 1134.192 5.7603 5.7601 3.4633 3.4636 1.4191 98.748 -0.0127 0.0717 1124.0 1032.7393 1032.7425 34.9809 34.9849 1492.47 1492.47 167.856 0.0
2017-10-14T12:30:45Z -46.0552 22.8008 at3901001 1 1135.204 5.7607 5.7607 3.4634 3.4637 1.4198 98.7606 -0.0134 0.0695 1125.0 1032.7438 1032.747 34.9808 34.985 1492.49 1492.49 168.009 0.0
2017-10-14T12:30:45Z -46.0552 22.8008 at3901001 1 1136.216 5.76 5.7603 3.4633 3.4637 1.4204 98.759 -0.0207 0.0731 1126.0 1032.7484 1032.7516 34.9808 34.9849 1492.5 1492.51 168.127 0.0
2017-10-14T12:30:45Z -46.0552 22.8008 at3901001 1 1137.227 5.7587 5.7583 3.4633 3.4636 1.4205 98.7621 -0.0088 0.0626 1127.0 1032.7532 1032.7566 34.9808 34.9851 1492.51 1492.51 168.18 0.0
2017-10-14T12:30:45Z -46.0552 22.8008 at3901001 1 1138.239 5.7542 5.7541 3.4629 3.4633 1.4208 98.754 -0.0232 0.0677 1128.0 1032.7585 1032.7619 34.9808 34.9852 1492.51 1492.52 168.275 0.0
2017-10-14T12:30:45Z -46.0552 22.8008 at3901001 1 1139.251 5.7546 5.7549 3.463 3.4634 1.4206 98.7533 -0.0281 0.0748 1129.0 1032.7634 1032.7664 34.9814 34.9853 1492.53 1492.54 168.259 0.0
2017-10-14T12:30:45Z -46.0552 22.8008 at3901001 1 1140.263 5.7489 5.7494 3.4625 3.463 1.4206 98.7554 -0.0226 0.0738 1130.0 1032.7678 1032.7718 34.9801 34.9854 1492.52 1492.53 168.301 0.0
2017-10-14T12:30:45Z -46.0552 22.8008 at3901001 1 1141.275 5.738 5.7378 3.4616 3.462 1.4207 98.7552 -0.0132 0.0716 1131.0 1032.7748 1032.7787 34.9811 34.9861 1492.5 1492.5 168.395 0.0
2017-10-14T12:30:45Z -46.0552 22.8008 at3901001 1 1142.286 5.7325 5.7324 3.4612 3.4616 1.4215 98.7558 3.0E-4 0.0711 1132.0 1032.7805 1032.7842 34.9816 34.9862 1492.49 1492.5 168.588 0.0
2017-10-14T12:30:45Z -46.0552 22.8008 at3901001 1 1143.298 5.7274 5.7242 3.4609 3.461 1.4233 98.7554 -0.0172 0.0706 1133.0 1032.7869 1032.7908 34.9829 34.9873 1492.49 1492.48 168.954 0.0
2017-10-14T12:30:45Z -46.0552 22.8008 at3901001 1 1144.31 5.7234 5.72 3.4605 3.4606 1.4253 98.7636 -0.0258 0.0752 1134.0 1032.7914 1032.7961 34.9821 34.9874 1492.49 1492.48 169.37 0.0
2017-10-14T12:30:45Z -46.0552 22.8008 at3901001 1 1145.322 5.717 5.7168 3.46 3.4604 1.4258 98.7561 -0.0142 0.0711 1135.0 1032.7979 1032.8011 34.9833 34.9874 1492.48 1492.49 169.512 0.0
2017-10-14T12:30:45Z -46.0552 22.8008 at3901001 1 1146.334 5.7144 5.7142 3.4598 3.4602 1.4265 98.7592 -0.0269 0.0765 1136.0 1032.8027 1032.8063 34.9831 34.9876 1492.49 1492.49 169.667 0.0
2017-10-14T12:30:45Z -46.0552 22.8008 at3901001 1 1147.346 5.7123 5.7121 3.4598 3.4601 1.4268 98.7596 -0.021 0.0728 1137.0 1032.8082 1032.8116 34.9839 34.9882 1492.5 1492.5 169.747 0.0
2017-10-14T12:30:45Z -46.0552 22.8008 at3901001 1 1148.358 5.7101 5.7099 3.4596 3.46 1.4273 98.7647 -0.0177 0.0717 1138.0 1032.8135 1032.8169 34.9845 34.9887 1492.51 1492.51 169.875 0.0
2017-10-14T12:30:45Z -46.0552 22.8008 at3901001 1 1149.369 5.7095 5.7093 3.4597 3.46 1.4284 98.7613 -0.0282 0.0756 1139.0 1032.8185 1032.8217 34.9849 34.989 1492.52 1492.53 170.1 0.0
2017-10-14T12:30:45Z -46.0552 22.8008 at3901001 1 1150.381 5.7083 5.708 3.4596 3.46 1.4293 98.7639 -0.0279 0.0732 1140.0 1032.8233 1032.8267 34.985 34.9892 1492.53 1492.54 170.3 0.0
2017-10-14T12:30:45Z -46.0552 22.8008 at3901001 1 1151.393 5.7023 5.7012 3.4591 3.4594 1.4305 98.7632 -0.0236 0.0674 1141.0 1032.8288 1032.8325 34.985 34.9896 1492.53 1492.53 170.559 0.0
2017-10-14T12:30:45Z -46.0552 22.8008 at3901001 1 1152.405 5.6947 5.6947 3.4585 3.4589 1.4311 98.7646 -0.0264 0.0708 1142.0 1032.8351 1032.8383 34.9857 34.9899 1492.51 1492.52 170.724 0.0
2017-10-14T12:30:45Z -46.0552 22.8008 at3901001 1 1153.417 5.6898 5.6899 3.4581 3.4585 1.4321 98.7689 -0.0269 0.0708 1143.0 1032.8402 1032.8439 34.9856 34.9902 1492.51 1492.52 170.959 0.0
2017-10-14T12:30:45Z -46.0552 22.8008 at3901001 1 1154.429 5.6834 5.6832 3.4577 3.458 1.4328 98.768 -0.0448 0.0759 1144.0 1032.8465 1032.8501 34.9865 34.9911 1492.5 1492.51 171.136 0.0
2017-10-14T12:30:45Z -46.0552 22.8008 at3901001 1 1155.441 5.6771 5.6771 3.4572 3.4576 1.4337 98.7667 -0.0359 0.0766 1145.0 1032.8525 1032.8559 34.9872 34.9915 1492.49 1492.5 171.35 0.0
2017-10-14T12:30:45Z -46.0552 22.8008 at3901001 1 1156.453 5.6745 5.6743 3.457 3.4574 1.435 98.7747 -0.0365 0.0702 1146.0 1032.858 1032.8613 34.9878 34.992 1492.5 1492.51 171.625 0.0
2017-10-14T12:30:45Z -46.0552 22.8008 at3901001 1 1157.465 5.674 5.6738 3.457 3.4574 1.436 98.771 -0.0386 0.0642 1147.0 1032.8627 1032.8658 34.9879 34.9919 1492.52 1492.52 171.841 0.0
2017-10-14T12:30:45Z -46.0552 22.8008 at3901001 1 1158.476 5.6731 5.6731 3.457 3.4574 1.4376 98.7621 -0.0199 0.0643 1148.0 1032.8673 1032.8705 34.9878 34.9919 1492.53 1492.54 172.147 0.0
2017-10-14T12:30:45Z -46.0552 22.8008 at3901001 1 1159.488 5.6716 5.6715 3.4569 3.4573 1.4384 98.7628 -0.0137 0.0724 1149.0 1032.8723 1032.8754 34.988 34.992 1492.54 1492.55 172.325 0.0
2017-10-14T12:30:45Z -46.0552 22.8008 at3901001 1 1160.5 5.6694 5.6692 3.4568 3.4571 1.4395 98.7623 -0.028 0.0716 1150.0 1032.8772 1032.8805 34.9881 34.9922 1492.55 1492.55 172.565 0.0
2017-10-14T12:30:45Z -46.0552 22.8008 at3901001 1 1161.512 5.6675 5.6674 3.4567 3.457 1.4396 98.7732 -0.0509 0.0707 1151.0 1032.8823 1032.8855 34.9884 34.9924 1492.56 1492.56 172.607 0.0
2017-10-14T12:30:45Z -46.0552 22.8008 at3901001 1 1162.524 5.666 5.6658 3.4566 3.4569 1.4402 98.7735 -0.0256 0.0702 1152.0 1032.8871 1032.8904 34.9884 34.9926 1492.57 1492.58 172.743 0.0
2017-10-14T12:30:45Z -46.0552 22.8008 at3901001 1 1163.536 5.6643 5.6641 3.4565 3.4568 1.4402 98.7717 -0.0249 0.083 1153.0 1032.8922 1032.8954 34.9887 34.9928 1492.58 1492.58 172.782 0.0
2017-10-14T12:30:45Z -46.0552 22.8008 at3901001 1 1164.548 5.6638 5.6636 3.4565 3.4568 1.4402 98.7678 -0.0156 0.0733 1154.0 1032.8969 1032.9 34.9889 34.9928 1492.6 1492.6 172.812 0.0
2017-10-14T12:30:45Z -46.0552 22.8008 at3901001 1 1165.56 5.6618 5.6617 3.4564 3.4567 1.44 98.7721 -0.0512 0.0661 1155.0 1032.9017 1032.9049 34.9888 34.9928 1492.6 1492.61 172.8 0.0
2017-10-14T12:30:45Z -46.0552 22.8008 at3901001 1 1166.572 5.6594 5.6594 3.4562 3.4566 1.4402 98.7715 -0.0262 0.0644 1156.0 1032.9066 1032.9099 34.9888 34.9929 1492.61 1492.62 172.868 0.0
2017-10-14T12:30:45Z -46.0552 22.8008 at3901001 1 1167.584 5.6543 5.6543 3.4557 3.4561 1.4409 98.7753 -0.0228 0.0641 1157.0 1032.9118 1032.9153 34.9886 34.9931 1492.61 1492.61 173.041 0.0
2017-10-14T12:30:45Z -46.0552 22.8008 at3901001 1 1168.596 5.6477 5.6475 3.4552 3.4556 1.4417 98.7686 -0.0271 0.0687 1158.0 1032.9177 1032.921 34.989 34.9933 1492.6 1492.6 173.242 0.0
2017-10-14T12:30:45Z -46.0552 22.8008 at3901001 1 1169.608 5.644 5.644 3.455 3.4553 1.4429 98.7615 -0.0301 0.0708 1159.0 1032.923 1032.9262 34.9893 34.9934 1492.6 1492.61 173.5 0.0
2017-10-14T12:30:45Z -46.0552 22.8008 at3901001 1 1170.62 5.6426 5.6425 3.4549 3.4552 1.4433 98.7699 -0.0385 0.0729 1160.0 1032.9277 1032.9309 34.9892 34.9933 1492.61 1492.62 173.609 0.0
2017-10-14T12:30:45Z -46.0552 22.8008 at3901001 1 1171.632 5.641 5.6407 3.4548 3.4551 1.4431 98.7761 -0.0055 0.0763 1161.0 1032.9327 1032.9359 34.9895 34.9935 1492.62 1492.63 173.6 0.0
2017-10-14T12:30:45Z -46.0552 22.8008 at3901001 1 1172.644 5.639 5.6386 3.4546 3.455 1.4435 98.7715 -0.0113 0.0763 1162.0 1032.9373 1032.9408 34.9891 34.9935 1492.63 1492.63 173.711 0.0
2017-10-14T12:30:45Z -46.0552 22.8008 at3901001 1 1173.656 5.6343 5.634 3.4542 3.4546 1.4436 98.7743 -0.0136 0.0763 1163.0 1032.9426 1032.9459 34.9892 34.9933 1492.63 1492.63 173.768 0.0
2017-10-14T12:30:45Z -46.0552 22.8008 at3901001 1 1174.668 5.63 5.6296 3.4539 3.4542 1.4436 98.7729 -0.0436 0.072 1164.0 1032.9474 1032.9508 34.9887 34.993 1492.63 1492.63 173.811 0.0
2017-10-14T12:30:45Z -46.0552 22.8008 at3901001 1 1175.68 5.627 5.6269 3.4536 3.454 1.4439 98.769 -0.0296 0.0712 1165.0 1032.9521 1032.9558 34.9883 34.993 1492.63 1492.64 173.902 0.0
2017-10-14T12:30:45Z -46.0552 22.8008 at3901001 1 1176.692 5.6132 5.6081 3.4524 3.4524 1.4456 98.761 -0.0054 0.0753 1166.0 1032.9591 1032.9636 34.9888 34.9935 1492.59 1492.58 174.296 0.0
2017-10-14T12:30:45Z -46.0552 22.8008 at3901001 1 1177.704 5.6033 5.603 3.4516 3.4519 1.4472 98.7763 -0.0097 0.0764 1167.0 1032.9654 1032.9687 34.989 34.9932 1492.57 1492.58 174.661 0.0
2017-10-14T12:30:45Z -46.0552 22.8008 at3901001 1 1178.716 5.6017 5.6019 3.4515 3.4519 1.4477 98.776 -0.041 0.0831 1168.0 1032.9707 1032.9734 34.9897 34.9932 1492.58 1492.59 174.794 0.0
2017-10-14T12:30:45Z -46.0552 22.8008 at3901001 1 1179.728 5.6001 5.6001 3.4514 3.4518 1.4478 98.7758 -0.0443 0.0841 1169.0 1032.9751 1032.9785 34.9892 34.9935 1492.59 1492.6 174.842 0.0
2017-10-14T12:30:45Z -46.0552 22.8008 at3901001 1 1180.74 5.595 5.5949 3.451 3.4514 1.4486 98.7773 -0.0246 0.0709 1170.0 1032.9807 1032.9841 34.9896 34.9939 1492.59 1492.6 175.022 0.0
2017-10-14T12:30:45Z -46.0552 22.8008 at3901001 1 1181.752 5.5916 5.5916 3.4508 3.4512 1.4491 98.7773 -0.0226 0.0702 1171.0 1032.9865 1032.9895 34.9905 34.9943 1492.59 1492.6 175.16 0.0
2017-10-14T12:30:45Z -46.0552 22.8008 at3901001 1 1182.764 5.5908 5.5907 3.4508 3.4511 1.4501 98.7773 -0.0192 0.0704 1172.0 1032.9913 1032.9943 34.9906 34.9944 1492.61 1492.61 175.371 0.0
2017-10-14T12:30:45Z -46.0552 22.8008 at3901001 1 1183.776 5.5923 5.5908 3.451 3.4512 1.4521 98.7768 -0.0219 0.0653 1173.0 1032.9955 1032.999 34.9905 34.9946 1492.63 1492.63 175.762 0.0
2017-10-14T12:30:45Z -46.0552 22.8008 at3901001 1 1184.788 5.5902 5.59 3.4509 3.4512 1.4526 98.7697 -0.048 0.0643 1174.0 1033.0013 1033.0043 34.9916 34.9955 1492.64 1492.64 175.879 0.0
2017-10-14T12:30:45Z -46.0552 22.8008 at3901001 1 1185.8 5.5896 5.5895 3.451 3.4513 1.4526 98.7734 -0.0227 0.0693 1175.0 1033.0063 1033.0093 34.9922 34.996 1492.66 1492.66 175.897 0.0
2017-10-14T12:30:45Z -46.0552 22.8008 at3901001 1 1186.812 5.588 5.5881 3.4508 3.4512 1.4526 98.7773 -0.0032 0.0736 1176.0 1033.0111 1033.0142 34.9921 34.9961 1492.66 1492.67 175.925 0.0
2017-10-14T12:30:45Z -46.0552 22.8008 at3901001 1 1187.824 5.5878 5.5875 3.4509 3.4512 1.4527 98.7773 -0.0128 0.0756 1177.0 1033.0157 1033.0188 34.992 34.9961 1492.68 1492.69 175.976 0.0
2017-10-14T12:30:45Z -46.0552 22.8008 at3901001 1 1188.836 5.5873 5.5866 3.4509 3.4512 1.4526 98.772 -0.0136 0.0702 1178.0 1033.0204 1033.0236 34.9923 34.9962 1492.7 1492.7 175.989 0.0
2017-10-14T12:30:45Z -46.0552 22.8008 at3901001 1 1189.848 5.5866 5.5866 3.4509 3.4512 1.4529 98.7718 -0.009 0.0647 1179.0 1033.0252 1033.0281 34.9923 34.996 1492.71 1492.72 176.063 0.0
2017-10-14T12:30:45Z -46.0552 22.8008 at3901001 1 1190.86 5.5868 5.5866 3.4509 3.4512 1.4532 98.7756 -0.0144 0.08 1180.0 1033.0295 1033.0327 34.9921 34.9961 1492.73 1492.73 176.15 0.0
2017-10-14T12:30:45Z -46.0552 22.8008 at3901001 1 1191.872 5.5868 5.5867 3.451 3.4513 1.4539 98.7774 -0.0398 0.0657 1181.0 1033.0342 1033.0371 34.9922 34.996 1492.75 1492.75 176.293 0.0
2017-10-14T12:30:45Z -46.0552 22.8008 at3901001 1 1192.884 5.5865 5.5864 3.451 3.4513 1.454 98.7783 -0.0282 0.0672 1182.0 1033.0389 1033.0419 34.9924 34.9962 1492.76 1492.77 176.328 0.0
2017-10-14T12:30:45Z -46.0552 22.8008 at3901001 1 1193.896 5.5852 5.5854 3.4509 3.4513 1.4539 98.7773 -0.0293 0.0721 1183.0 1033.0438 1033.0467 34.9927 34.9963 1492.77 1492.78 176.346 0.0
2017-10-14T12:30:45Z -46.0552 22.8008 at3901001 1 1194.909 5.5847 5.5848 3.451 3.4513 1.454 98.7749 -0.0318 0.0763 1184.0 1033.0486 1033.0514 34.9929 34.9965 1492.79 1492.79 176.383 0.0
2017-10-14T12:30:45Z -46.0552 22.8008 at3901001 1 1195.921 5.5841 5.5843 3.4509 3.4513 1.454 98.7772 -0.035 0.0763 1185.0 1033.0534 1033.0562 34.9929 34.9966 1492.8 1492.81 176.419 0.0
2017-10-14T12:30:45Z -46.0552 22.8008 at3901001 1 1196.933 5.5831 5.5833 3.4509 3.4513 1.4545 98.7762 -0.0418 0.0743 1186.0 1033.0582 1033.0611 34.9931 34.9968 1492.81 1492.82 176.537 0.0
2017-10-14T12:30:45Z -46.0552 22.8008 at3901001 1 1197.945 5.5827 5.5827 3.4509 3.4513 1.4551 98.7784 -0.0279 0.0676 1187.0 1033.063 1033.0659 34.9933 34.997 1492.83 1492.84 176.672 0.0
2017-10-14T12:30:45Z -46.0552 22.8008 at3901001 1 1198.957 5.5827 5.5826 3.451 3.4513 1.4553 98.7773 -0.0197 0.064 1188.0 1033.0676 1033.0705 34.9935 34.9971 1492.85 1492.85 176.733 0.0
2017-10-14T12:30:45Z -46.0552 22.8008 at3901001 1 1199.969 5.5828 5.5828 3.4511 3.4514 1.4554 98.7773 -0.0208 0.0677 1189.0 1033.0722 1033.0751 34.9935 34.9971 1492.87 1492.87 176.766 0.0
2017-10-14T12:30:45Z -46.0552 22.8008 at3901001 1 1200.981 5.5829 5.5828 3.4511 3.4514 1.4552 98.7763 -0.0085 0.0727 1190.0 1033.0767 1033.0796 34.9934 34.997 1492.88 1492.89 176.759 0.0
2017-10-14T12:30:45Z -46.0552 22.8008 at3901001 1 1201.993 5.5832 5.5832 3.4511 3.4515 1.4552 98.7773 -0.0102 0.0665 1191.0 1033.081 1033.0838 34.9931 34.9967 1492.9 1492.9 176.781 0.0
2017-10-14T12:30:45Z -46.0552 22.8008 at3901001 1 1203.005 5.5836 5.5834 3.4512 3.4515 1.4548 98.7773 -0.0142 0.0737 1192.0 1033.0853 1033.0883 34.9929 34.9966 1492.92 1492.92 176.735 0.0
2017-10-14T12:30:45Z -46.0552 22.8008 at3901001 1 1204.017 5.5836 5.5834 3.4513 3.4516 1.4546 98.7791 -0.0232 0.0679 1193.0 1033.09 1033.0928 34.993 34.9967 1492.93 1492.94 176.721 0.0
2017-10-14T12:30:45Z -46.0552 22.8008 at3901001 1 1205.03 5.5828 5.583 3.4512 3.4516 1.4549 98.7773 -0.0123 0.0692 1194.0 1033.0947 1033.0976 34.9931 34.9968 1492.95 1492.95 176.798 0.0
2017-10-14T12:30:45Z -46.0552 22.8008 at3901001 1 1206.042 5.5826 5.5827 3.4513 3.4516 1.4551 98.7784 -0.0294 0.0654 1195.0 1033.0995 1033.1021 34.9934 34.9968 1492.97 1492.97 176.857 0.0
2017-10-14T12:30:45Z -46.0552 22.8008 at3901001 1 1207.054 5.5826 5.5827 3.4513 3.4516 1.4551 98.7773 -0.0551 0.0704 1196.0 1033.1039 1033.1067 34.9931 34.9968 1492.98 1492.99 176.888 0.0
2017-10-14T12:30:45Z -46.0552 22.8008 at3901001 1 1208.066 5.5817 5.5818 3.4513 3.4516 1.4546 98.7816 -0.0331 0.066 1197.0 1033.1089 1033.1118 34.9936 34.9972 1493.0 1493.0 176.819 0.0
2017-10-14T12:30:45Z -46.0552 22.8008 at3901001 1 1209.078 5.5799 5.5801 3.4512 3.4516 1.4546 98.7774 -0.0311 0.0677 1198.0 1033.1141 1033.117 34.9941 34.9978 1493.0 1493.01 176.845 0.0
2017-10-14T12:30:45Z -46.0552 22.8008 at3901001 1 1210.09 5.5751 5.5756 3.4508 3.4512 1.4544 98.7773 -0.0305 0.0692 1199.0 1033.1188 1033.1225 34.9933 34.9981 1493.0 1493.01 176.864 0.0
2017-10-14T12:30:45Z -46.0552 22.8008 at3901001 1 1211.103 5.5654 5.5653 3.4501 3.4504 1.4549 98.7773 -0.0265 0.0633 1200.0 1033.1262 1033.1294 34.995 34.9991 1492.98 1492.99 177.022 0.0
2017-10-14T12:30:45Z -46.0552 22.8008 at3901001 1 1212.115 5.5647 5.5647 3.4501 3.4504 1.456 98.7792 -0.0332 0.0648 1201.0 1033.1309 1033.1339 34.9951 34.999 1492.99 1493.0 177.245 0.0
2017-10-14T12:30:45Z -46.0552 22.8008 at3901001 1 1213.127 5.5642 5.5643 3.4501 3.4504 1.4571 98.7797 -0.0179 0.0711 1202.0 1033.1355 1033.1384 34.9951 34.9988 1493.01 1493.02 177.481 0.0
2017-10-14T12:30:45Z -46.0552 22.8008 at3901001 1 1214.139 5.5609 5.5608 3.4498 3.4501 1.4575 98.782 -0.017 0.0702 1203.0 1033.1403 1033.1435 34.9948 34.9989 1493.01 1493.02 177.596 0.0
2017-10-14T12:30:45Z -46.0552 22.8008 at3901001 1 1215.151 5.5558 5.5556 3.4493 3.4497 1.4577 98.7718 -0.0162 0.0708 1204.0 1033.1454 1033.1489 34.9945 34.9989 1493.01 1493.01 177.672 0.0
2017-10-14T12:30:45Z -46.0552 22.8008 at3901001 1 1216.164 5.5485 5.5485 3.4487 3.449 1.4576 98.7773 -0.0061 0.0702 1205.0 1033.1507 1033.154 34.994 34.9982 1493.0 1493.0 177.707 0.0
2017-10-14T12:30:45Z -46.0552 22.8008 at3901001 1 1217.176 5.5438 5.5437 3.4482 3.4486 1.4577 98.7785 -0.0138 0.0702 1206.0 1033.1557 1033.1589 34.9936 34.9977 1492.99 1493.0 177.775 0.0
2017-10-14T12:30:45Z -46.0552 22.8008 at3901001 1 1218.188 5.5425 5.5426 3.4482 3.4485 1.4577 98.7796 -0.0395 0.0702 1207.0 1033.1606 1033.1634 34.9938 34.9975 1493.01 1493.01 177.804 0.0
2017-10-14T12:30:45Z -46.0552 22.8008 at3901001 1 1219.2 5.5409 5.5404 3.448 3.4484 1.458 98.7818 -0.0306 0.0666 1208.0 1033.1648 1033.1681 34.9931 34.9973 1493.02 1493.02 177.888 0.0
2017-10-14T12:30:45Z -46.0552 22.8008 at3901001 1 1220.212 5.5332 5.5331 3.4473 3.4477 1.4588 98.7772 -0.0409 0.0685 1209.0 1033.1699 1033.1735 34.9923 34.9969 1493.0 1493.01 178.104 0.0
2017-10-14T12:30:45Z -46.0552 22.8008 at3901001 1 1221.225 5.525 5.5252 3.4467 3.447 1.459 98.7773 -0.0525 0.0705 1210.0 1033.1763 1033.1794 34.993 34.997 1492.99 1492.99 178.199 0.0
2017-10-14T12:30:45Z -46.0552 22.8008 at3901001 1 1222.237 5.5215 5.5215 3.4464 3.4467 1.4596 98.7783 -0.0117 0.0662 1211.0 1033.1813 1033.1844 34.993 34.997 1492.99 1492.99 178.359 0.0
2017-10-14T12:30:45Z -46.0552 22.8008 at3901001 1 1223.249 5.5168 5.5169 3.446 3.4464 1.4606 98.779 -0.0386 0.0692 1212.0 1033.1866 1033.1896 34.993 34.9968 1492.99 1492.99 178.575 0.0
2017-10-14T12:30:45Z -46.0552 22.8008 at3901001 1 1224.261 5.51 5.51 3.4454 3.4458 1.4615 98.7782 -0.0505 0.0706 1213.0 1033.1922 1033.1955 34.993 34.9973 1492.97 1492.98 178.813 0.0
2017-10-14T12:30:45Z -46.0552 22.8008 at3901001 1 1225.273 5.5043 5.5043 3.445 3.4453 1.4627 98.7822 -0.0202 0.0738 1214.0 1033.1978 1033.2009 34.9933 34.9973 1492.97 1492.97 179.076 0.0
2017-10-14T12:30:45Z -46.0552 22.8008 at3901001 1 1226.286 5.5007 5.5009 3.4447 3.4451 1.4632 98.7837 -0.031 0.0888 1215.0 1033.2033 1033.2061 34.9938 34.9974 1492.97 1492.98 179.214 0.0
2017-10-14T12:30:45Z -46.0552 22.8008 at3901001 1 1227.298 5.5005 5.5 3.4448 3.4451 1.4637 98.7814 -0.0271 0.0956 1216.0 1033.2078 1033.211 34.9937 34.9976 1492.99 1492.99 179.328 0.0
2017-10-14T12:30:45Z -46.0552 22.8008 at3901001 1 1228.31 5.4982 5.4979 3.4446 3.4449 1.4639 98.7772 -0.002 0.0764 1217.0 1033.2129 1033.2161 34.9939 34.9979 1493.0 1493.0 179.407 0.0
2017-10-14T12:30:45Z -46.0552 22.8008 at3901001 1 1229.322 5.4978 5.4979 3.4446 3.445 1.4643 98.7788 -0.0159 0.0651 1218.0 1033.2177 1033.2205 34.9942 34.9978 1493.01 1493.02 179.504 0.0
2017-10-14T12:30:45Z -46.0552 22.8008 at3901001 1 1230.335 5.498 5.498 3.4447 3.445 1.4645 98.7898 -0.0129 0.0683 1219.0 1033.2223 1033.2251 34.9943 34.9978 1493.03 1493.03 179.559 0.0
2017-10-14T12:30:45Z -46.0552 22.8008 at3901001 1 1231.347 5.4984 5.4984 3.4448 3.4451 1.4643 98.7801 -0.0223 0.0701 1220.0 1033.2267 1033.2296 34.9942 34.9978 1493.05 1493.05 179.539 0.0
2017-10-14T12:30:45Z -46.0552 22.8008 at3901001 1 1232.359 5.4982 5.498 3.4448 3.4451 1.4651 98.7788 -0.0335 0.0736 1221.0 1033.2313 1033.2342 34.9941 34.9978 1493.06 1493.07 179.707 0.0
2017-10-14T12:30:45Z -46.0552 22.8008 at3901001 1 1233.371 5.4983 5.4978 3.4448 3.4451 1.4652 98.785 -8.0E-4 0.0604 1222.0 1033.2357 1033.2388 34.994 34.9979 1493.08 1493.09 179.754 0.0
2017-10-14T12:30:45Z -46.0552 22.8008 at3901001 1 1234.384 5.4943 5.4932 3.4446 3.4448 1.4651 98.7828 -0.0297 0.0699 1223.0 1033.2413 1033.2445 34.9946 34.9984 1493.08 1493.08 179.79 0.0
2017-10-14T12:30:45Z -46.0552 22.8008 at3901001 1 1235.396 5.4914 5.4918 3.4444 3.4447 1.4646 98.7815 -0.0312 0.0705 1224.0 1033.2465 1033.2492 34.9949 34.9984 1493.09 1493.09 179.718 0.0
2017-10-14T12:30:45Z -46.0552 22.8008 at3901001 1 1236.408 5.4842 5.4845 3.4437 3.4442 1.4646 98.7804 -0.0232 0.0702 1225.0 1033.252 1033.2556 34.9946 34.9993 1493.08 1493.08 179.789 0.0
2017-10-14T12:30:45Z -46.0552 22.8008 at3901001 1 1237.42 5.4779 5.4779 3.4433 3.4437 1.4652 98.7774 -0.0254 0.0705 1226.0 1033.2586 1033.2619 34.996 35.0002 1493.07 1493.07 179.941 0.0
2017-10-14T12:30:45Z -46.0552 22.8008 at3901001 1 1238.433 5.471 5.4708 3.4428 3.4431 1.4662 98.7773 -0.0308 0.0702 1227.0 1033.2643 1033.2677 34.9962 35.0005 1493.06 1493.06 180.18 0.0
2017-10-14T12:30:45Z -46.0552 22.8008 at3901001 1 1239.445 5.4655 5.4653 3.4423 3.4427 1.467 98.7759 -0.0317 0.0702 1228.0 1033.2699 1033.273 34.9964 35.0004 1493.05 1493.06 180.391 0.0
2017-10-14T12:30:45Z -46.0552 22.8008 at3901001 1 1240.457 5.4607 5.4609 3.442 3.4423 1.4686 98.7827 -0.0219 0.0704 1229.0 1033.2754 1033.2784 34.9967 35.0006 1493.05 1493.06 180.729 0.0
2017-10-14T12:30:45Z -46.0552 22.8008 at3901001 1 1241.47 5.4574 5.4574 3.4417 3.442 1.4701 98.779 -0.0203 0.0623 1230.0 1033.2804 1033.2834 34.9967 35.0005 1493.05 1493.06 181.046 0.0
2017-10-14T12:30:45Z -46.0552 22.8008 at3901001 1 1242.482 5.4554 5.4552 3.4416 3.4419 1.472 98.7808 -0.0088 0.0703 1231.0 1033.2852 1033.2883 34.9967 35.0005 1493.06 1493.07 181.436 0.0
2017-10-14T12:30:45Z -46.0552 22.8008 at3901001 1 1243.494 5.4549 5.4547 3.4416 3.4419 1.4727 98.786 -0.0388 0.066 1232.0 1033.29 1033.2929 34.9968 35.0005 1493.08 1493.08 181.593 0.0
2017-10-14T12:30:45Z -46.0552 22.8008 at3901001 1 1244.507 5.4542 5.4542 3.4415 3.4419 1.4727 98.7836 -0.0176 0.0697 1233.0 1033.2946 1033.2974 34.9967 35.0003 1493.09 1493.1 181.623 0.0
2017-10-14T12:30:45Z -46.0552 22.8008 at3901001 1 1245.519 5.4534 5.4533 3.4415 3.4418 1.4727 98.7853 0.0059 0.0705 1234.0 1033.2995 1033.3023 34.997 35.0005 1493.11 1493.11 181.65 0.0
2017-10-14T12:30:45Z -46.0552 22.8008 at3901001 1 1246.531 5.4533 5.4535 3.4416 3.4419 1.4728 98.7829 -0.0108 0.0737 1235.0 1033.3041 1033.3067 34.997 35.0004 1493.12 1493.13 181.698 0.0
2017-10-14T12:30:45Z -46.0552 22.8008 at3901001 1 1247.544 5.4527 5.4527 3.4416 3.4419 1.4729 98.7893 -0.0203 0.0729 1236.0 1033.3086 1033.3116 34.9969 35.0007 1493.14 1493.14 181.746 0.0
2017-10-14T12:30:45Z -46.0552 22.8008 at3901001 1 1248.556 5.4509 5.451 3.4414 3.4418 1.4727 98.7838 -0.028 0.0663 1237.0 1033.3134 1033.3163 34.9968 35.0005 1493.15 1493.15 181.735 0.0
2017-10-14T12:30:45Z -46.0552 22.8008 at3901001 1 1249.568 5.4479 5.4478 3.4412 3.4415 1.4728 98.7822 -0.0078 0.0761 1238.0 1033.3183 1033.3214 34.9967 35.0006 1493.15 1493.15 181.782 0.0
2017-10-14T12:30:45Z -46.0552 22.8008 at3901001 1 1250.581 5.4429 5.4429 3.4407 3.4411 1.4734 98.7826 0.0011 0.0765 1239.0 1033.3234 1033.3265 34.9964 35.0004 1493.15 1493.15 181.945 0.0
2017-10-14T12:30:45Z -46.0552 22.8008 at3901001 1 1251.593 5.4394 5.4392 3.4405 3.4408 1.474 98.7884 -0.0101 0.0748 1240.0 1033.3287 1033.3316 34.9966 35.0003 1493.15 1493.15 182.104 0.0
2017-10-14T12:30:45Z -46.0552 22.8008 at3901001 1 1252.605 5.4383 5.4383 3.4404 3.4408 1.4741 98.7881 -0.0194 0.0702 1241.0 1033.3334 1033.3362 34.9967 35.0003 1493.16 1493.17 182.159 0.0
2017-10-14T12:30:45Z -46.0552 22.8008 at3901001 1 1253.618 5.4351 5.4352 3.4402 3.4405 1.4746 98.7901 -0.0123 0.0736 1242.0 1033.3382 1033.3413 34.9964 35.0004 1493.17 1493.17 182.281 0.0
2017-10-14T12:30:45Z -46.0552 22.8008 at3901001 1 1254.63 5.4288 5.4289 3.4396 3.44 1.4751 98.7882 -0.0193 0.0696 1243.0 1033.3437 1033.3468 34.9964 35.0004 1493.16 1493.16 182.441 0.0
2017-10-14T12:30:45Z -46.0552 22.8008 at3901001 1 1255.643 5.4261 5.4262 3.4395 3.4398 1.4759 98.7871 -0.0509 0.0641 1244.0 1033.349 1033.3517 34.9967 35.0003 1493.16 1493.17 182.614 0.0
2017-10-14T12:30:45Z -46.0552 22.8008 at3901001 1 1256.655 5.4248 5.4248 3.4394 3.4397 1.4763 98.7882 -0.0388 0.0812 1245.0 1033.3537 1033.3566 34.9968 35.0004 1493.18 1493.18 182.728 0.0
2017-10-14T12:30:45Z -46.0552 22.8008 at3901001 1 1257.667 5.4224 5.4224 3.4392 3.4396 1.4763 98.7948 -0.0165 0.0705 1246.0 1033.3589 1033.3619 34.9971 35.0009 1493.18 1493.19 182.768 0.0
2017-10-14T12:30:45Z -46.0552 22.8008 at3901001 1 1258.68 5.4183 5.4183 3.439 3.4393 1.4766 98.7907 -0.0152 0.0702 1247.0 1033.3647 1033.3678 34.9979 35.0018 1493.18 1493.19 182.857 0.0
2017-10-14T12:30:45Z -46.0552 22.8008 at3901001 1 1259.692 5.4168 5.4168 3.439 3.4393 1.4768 98.7944 -0.0183 0.0737 1248.0 1033.3702 1033.3729 34.9989 35.0023 1493.2 1493.2 182.92 0.0
2017-10-14T12:30:45Z -46.0552 22.8008 at3901001 1 1260.704 5.4161 5.4163 3.439 3.4393 1.4775 98.7849 -0.0444 0.0753 1249.0 1033.3751 1033.3777 34.9991 35.0025 1493.21 1493.22 183.077 0.0
2017-10-14T12:30:45Z -46.0552 22.8008 at3901001 1 1261.717 5.415 5.4149 3.4389 3.4393 1.4778 98.7882 -0.0319 0.0708 1250.0 1033.38 1033.3829 34.9993 35.0031 1493.22 1493.23 183.159 0.0
2017-10-14T12:30:45Z -46.0552 22.8008 at3901001 1 1262.729 5.4142 5.4143 3.4389 3.4392 1.4783 98.7842 -0.0238 0.0731 1251.0 1033.3849 1033.3876 34.9997 35.0031 1493.24 1493.24 183.291 0.0
2017-10-14T12:30:45Z -46.0552 22.8008 at3901001 1 1263.742 5.4134 5.4135 3.4389 3.4392 1.4792 98.783 -0.0244 0.0695 1252.0 1033.3896 1033.3924 34.9997 35.0033 1493.25 1493.26 183.477 0.0
2017-10-14T12:30:45Z -46.0552 22.8008 at3901001 1 1264.754 5.413 5.4131 3.4389 3.4392 1.4798 98.7816 -0.0155 0.0801 1253.0 1033.3944 1033.397 34.9999 35.0032 1493.27 1493.27 183.621 0.0
2017-10-14T12:30:45Z -46.0552 22.8008 at3901001 1 1265.767 5.4129 5.4128 3.439 3.4393 1.4808 98.7934 -0.014 0.076 1254.0 1033.399 1033.4018 34.9999 35.0035 1493.28 1493.29 183.83 0.0
2017-10-14T12:30:45Z -46.0552 22.8008 at3901001 1 1266.779 5.4129 5.4131 3.439 3.4393 1.4812 98.796 -0.0329 0.0845 1255.0 1033.4037 1033.4062 35.0002 35.0033 1493.3 1493.3 183.938 0.0
2017-10-14T12:30:45Z -46.0552 22.8008 at3901001 1 1267.791 5.4123 5.4126 3.439 3.4394 1.4813 98.7972 -0.0095 0.0763 1256.0 1033.4084 1033.411 35.0002 35.0036 1493.31 1493.32 183.986 0.0
2017-10-14T12:30:45Z -46.0552 22.8008 at3901001 1 1268.804 5.4099 5.4101 3.4388 3.4392 1.4813 98.7936 0.0178 0.0763 1257.0 1033.413 1033.4159 34.9998 35.0035 1493.32 1493.33 184.022 0.0
2017-10-14T12:30:45Z -46.0552 22.8008 at3901001 1 1269.816 5.4076 5.4076 3.4387 3.439 1.4812 98.8008 0.0156 0.0763 1258.0 1033.4181 1033.4209 35.0001 35.0036 1493.33 1493.33 184.029 0.0
2017-10-14T12:30:45Z -46.0552 22.8008 at3901001 1 1270.829 5.4064 5.4063 3.4387 3.439 1.4803 98.792 -0.0025 0.0732 1259.0 1033.4236 1033.4263 35.001 35.0045 1493.34 1493.35 183.898 0.0
2017-10-14T12:30:45Z -46.0552 22.8008 at3901001 1 1271.841 5.4026 5.4027 3.4385 3.4388 1.4809 98.79 -0.0058 0.0691 1260.0 1033.4294 1033.4324 35.0019 35.0057 1493.35 1493.35 184.052 0.0
2017-10-14T12:30:45Z -46.0552 22.8008 at3901001 1 1272.854 5.4008 5.4007 3.4384 3.4387 1.4813 98.7884 -0.0148 0.0662 1261.0 1033.4346 1033.4374 35.0024 35.0059 1493.36 1493.36 184.16 0.0
2017-10-14T12:30:45Z -46.0552 22.8008 at3901001 1 1273.866 5.3988 5.3988 3.4383 3.4386 1.4822 98.7877 -0.0073 0.0734 1262.0 1033.4397 1033.4424 35.0026 35.006 1493.36 1493.37 184.352 0.0
2017-10-14T12:30:45Z -46.0552 22.8008 at3901001 1 1274.879 5.3965 5.3963 3.4381 3.4384 1.4841 98.7954 -0.0121 0.0728 1263.0 1033.4446 1033.4476 35.0027 35.0064 1493.37 1493.38 184.754 0.0
2017-10-14T12:30:45Z -46.0552 22.8008 at3901001 1 1275.891 5.3864 5.3867 3.4373 3.4377 1.4853 98.7946 -0.0245 0.0745 1264.0 1033.4515 1033.4546 35.0037 35.0078 1493.35 1493.36 185.038 0.0
2017-10-14T12:30:45Z -46.0552 22.8008 at3901001 1 1276.903 5.3794 5.3794 3.4369 3.4372 1.4862 98.7938 -0.0042 0.0701 1265.0 1033.4582 1033.4612 35.0051 35.009 1493.34 1493.34 185.276 0.0
2017-10-14T12:30:45Z -46.0552 22.8008 at3901001 1 1277.916 5.3761 5.3762 3.4367 3.437 1.4869 98.7913 -0.0155 0.0699 1266.0 1033.4645 1033.4671 35.0067 35.01 1493.35 1493.35 185.439 0.0
2017-10-14T12:30:45Z -46.0552 22.8008 at3901001 1 1278.929 5.3752 5.3753 3.4367 3.437 1.488 98.788 -0.0287 0.0642 1267.0 1033.4694 1033.472 35.007 35.0103 1493.36 1493.36 185.674 0.0
2017-10-14T12:30:45Z -46.0552 22.8008 at3901001 1 1279.941 5.375 5.375 3.4368 3.4371 1.4888 98.7934 -0.0138 0.0696 1268.0 1033.474 1033.4766 35.007 35.0104 1493.38 1493.38 185.858 0.0
2017-10-14T12:30:45Z -46.0552 22.8008 at3901001 1 1280.953 5.3745 5.3747 3.4368 3.4371 1.4897 98.7937 9.0E-4 0.0753 1269.0 1033.4788 1033.4813 35.0072 35.0105 1493.39 1493.4 186.053 0.0
2017-10-14T12:30:45Z -46.0552 22.8008 at3901001 1 1281.966 5.3742 5.3742 3.4368 3.4371 1.4906 98.7984 -0.0109 0.0659 1270.0 1033.4835 1033.4861 35.0073 35.0107 1493.41 1493.41 186.249 0.0
2017-10-14T12:30:45Z -46.0552 22.8008 at3901001 1 1282.978 5.3731 5.3732 3.4368 3.4371 1.4917 98.7993 -0.0117 0.0698 1271.0 1033.4884 1033.491 35.0075 35.011 1493.42 1493.42 186.482 0.0
2017-10-14T12:30:45Z -46.0552 22.8008 at3901001 1 1283.991 5.3692 5.3692 3.4365 3.4368 1.4925 98.7941 0.0019 0.0704 1272.0 1033.4936 1033.4966 35.0076 35.0114 1493.42 1493.42 186.678 0.0
2017-10-14T12:30:45Z -46.0552 22.8008 at3901001 1 1285.003 5.3636 5.3636 3.4361 3.4364 1.493 98.7945 -0.0219 0.0729 1273.0 1033.4998 1033.5025 35.0086 35.0121 1493.42 1493.42 186.819 0.0
2017-10-14T12:30:45Z -46.0552 22.8008 at3901001 1 1286.016 5.3609 5.3611 3.4359 3.4362 1.4939 98.7986 0.0036 0.0793 1274.0 1033.505 1033.5076 35.009 35.0123 1493.42 1493.43 187.014 0.0
2017-10-14T12:30:45Z -46.0552 22.8008 at3901001 1 1287.028 5.36 5.36 3.4359 3.4362 1.4945 98.8002 -0.0181 0.072 1275.0 1033.51 1033.5125 35.0093 35.0126 1493.44 1493.44 187.165 0.0
2017-10-14T12:30:45Z -46.0552 22.8008 at3901001 1 1288.041 5.36 5.3601 3.4359 3.4362 1.4948 98.7988 -0.0304 0.0826 1276.0 1033.5146 1033.5171 35.0094 35.0126 1493.45 1493.46 187.24 0.0
2017-10-14T12:30:45Z -46.0552 22.8008 at3901001 1 1289.054 5.3602 5.36 3.436 3.4363 1.4947 98.7976 -0.0083 0.0766 1277.0 1033.5191 1033.5219 35.0094 35.0129 1493.47 1493.47 187.246 0.0
2017-10-14T12:30:45Z -46.0552 22.8008 at3901001 1 1290.066 5.36 5.3601 3.436 3.4363 1.4951 98.8029 -0.0095 0.0754 1278.0 1033.5236 1033.5262 35.0093 35.0126 1493.49 1493.49 187.346 0.0
2017-10-14T12:30:45Z -46.0552 22.8008 at3901001 1 1291.079 5.3593 5.3589 3.436 3.4363 1.4952 98.7978 -0.0134 0.0703 1279.0 1033.5283 1033.5311 35.0093 35.0129 1493.5 1493.5 187.391 0.0
2017-10-14T12:30:45Z -46.0552 22.8008 at3901001 1 1292.091 5.3575 5.3575 3.4359 3.4362 1.4951 98.8006 -0.0071 0.0749 1280.0 1033.5332 1033.5359 35.0095 35.0128 1493.51 1493.51 187.41 0.0
2017-10-14T12:30:45Z -46.0552 22.8008 at3901001 1 1293.104 5.3556 5.3559 3.4358 3.4361 1.4952 98.7983 -0.0276 0.0766 1281.0 1033.5381 1033.5407 35.0095 35.0129 1493.52 1493.53 187.457 0.0
2017-10-14T12:30:45Z -46.0552 22.8008 at3901001 1 1294.116 5.3516 5.3518 3.4355 3.4358 1.4951 98.8007 -0.0286 0.0749 1282.0 1033.5434 1033.5462 35.0097 35.0133 1493.52 1493.53 187.49 0.0
2017-10-14T12:30:45Z -46.0552 22.8008 at3901001 1 1295.129 5.3498 5.3496 3.4354 3.4357 1.4952 98.8022 -0.0181 0.0703 1283.0 1033.5486 1033.5515 35.0102 35.0138 1493.53 1493.54 187.536 0.0
2017-10-14T12:30:45Z -46.0552 22.8008 at3901001 1 1296.141 5.3469 5.3468 3.4351 3.4355 1.4959 98.7999 -0.0229 0.0654 1284.0 1033.5534 1033.5564 35.0099 35.0137 1493.53 1493.54 187.707 0.0
2017-10-14T12:30:45Z -46.0552 22.8008 at3901001 1 1297.154 5.3411 5.3412 3.4346 3.435 1.4964 98.8016 -0.0192 0.0718 1285.0 1033.5586 1033.5615 35.0096 35.0134 1493.53 1493.53 187.869 0.0
2017-10-14T12:30:45Z -46.0552 22.8008 at3901001 1 1298.167 5.3393 5.3376 3.4345 3.4347 1.4977 98.7986 -0.0143 0.0739 1286.0 1033.5637 1033.5666 35.01 35.0133 1493.54 1493.54 188.146 0.0
2017-10-14T12:30:45Z -46.0552 22.8008 at3901001 1 1299.179 5.3381 5.3373 3.4344 3.4347 1.4987 98.7916 -0.0489 0.0749 1287.0 1033.568 1033.5712 35.0094 35.0133 1493.55 1493.55 188.364 0.0
2017-10-14T12:30:45Z -46.0552 22.8008 at3901001 1 1300.192 5.3349 5.3352 3.4342 3.4345 1.4984 98.8002 -0.0151 0.0716 1288.0 1033.5732 1033.5759 35.0097 35.0131 1493.55 1493.56 188.341 0.0
2017-10-14T12:30:45Z -46.0552 22.8008 at3901001 1 1301.204 5.3298 5.3299 3.4337 3.4341 1.498 98.8006 -0.0171 0.0824 1289.0 1033.5778 1033.5813 35.0087 35.0132 1493.55 1493.55 188.314 0.0
2017-10-14T12:30:45Z -46.0552 22.8008 at3901001 1 1302.217 5.3184 5.3185 3.4327 3.4332 1.4981 98.7923 -0.0045 0.0752 1290.0 1033.5844 1033.5879 35.0091 35.0137 1493.52 1493.53 188.424 0.0
2017-10-14T12:30:45Z -46.0552 22.8008 at3901001 1 1303.23 5.3118 5.3118 3.4323 3.4326 1.4985 98.8002 -0.0013 0.0707 1291.0 1033.5906 1033.5936 35.01 35.0138 1493.51 1493.52 188.546 0.0
2017-10-14T12:30:45Z -46.0552 22.8008 at3901001 1 1304.242 5.3079 5.3081 3.4319 3.4323 1.4989 98.7997 -0.0192 0.0702 1292.0 1033.5957 1033.5987 35.0099 35.0138 1493.51 1493.52 188.675 0.0
2017-10-14T12:30:45Z -46.0552 22.8008 at3901001 1 1305.255 5.3014 5.3015 3.4314 3.4318 1.5004 98.8019 -0.0241 0.0706 1293.0 1033.6016 1033.6044 35.0104 35.014 1493.5 1493.51 189.008 0.0
2017-10-14T12:30:45Z -46.0552 22.8008 at3901001 1 1306.267 5.3112 5.3073 3.4324 3.4323 1.5031 98.8021 -0.008 0.0829 1294.0 1033.6049 1033.6078 35.0107 35.0136 1493.56 1493.55 189.492 0.0
2017-10-14T12:30:45Z -46.0552 22.8008 at3901001 1 1307.28 5.2981 5.2968 3.4311 3.4315 1.5036 98.7986 -0.0201 0.0713 1295.0 1033.6103 1033.6146 35.0092 35.0145 1493.52 1493.52 189.681 0.0
2017-10-14T12:30:45Z -46.0552 22.8008 at3901001 1 1308.293 5.293 5.293 3.4309 3.4312 1.5037 98.8008 -0.0295 0.0644 1296.0 1033.6175 1033.6201 35.0116 35.0149 1493.52 1493.53 189.753 0.0
2017-10-14T12:30:45Z -46.0552 22.8008 at3901001 1 1309.305 5.2923 5.2922 3.4309 3.4312 1.5039 98.7966 -0.0051 0.0704 1297.0 1033.622 1033.6247 35.0114 35.0148 1493.54 1493.54 189.809 0.0
2017-10-14T12:30:45Z -46.0552 22.8008 at3901001 1 1310.318 5.2904 5.2904 3.4308 3.4311 1.5039 98.8006 -0.0118 0.0782 1298.0 1033.6272 1033.6297 35.0118 35.0151 1493.55 1493.55 189.857 0.0
2017-10-14T12:30:45Z -46.0552 22.8008 at3901001 1 1311.331 5.29 5.2901 3.4308 3.4311 1.5049 98.8053 -0.0197 0.0778 1299.0 1033.6319 1033.6344 35.012 35.0151 1493.56 1493.57 190.064 0.0
2017-10-14T12:30:45Z -46.0552 22.8008 at3901001 1 1312.343 5.2889 5.2888 3.4308 3.431 1.5053 98.8039 -0.0249 0.0729 1300.0 1033.6367 1033.6394 35.0121 35.0155 1493.57 1493.58 190.17 0.0
2017-10-14T12:30:45Z -46.0552 22.8008 at3901001 1 1313.356 5.2874 5.2877 3.4307 3.431 1.5063 98.803 -0.0235 0.0732 1301.0 1033.6415 1033.6442 35.0121 35.0156 1493.58 1493.59 190.388 0.0
2017-10-14T12:30:45Z -46.0552 22.8008 at3901001 1 1314.369 5.2842 5.2844 3.4304 3.4308 1.5069 98.8039 -0.0178 0.0703 1302.0 1033.6466 1033.6493 35.0121 35.0157 1493.59 1493.59 190.546 0.0
2017-10-14T12:30:45Z -46.0552 22.8008 at3901001 1 1315.381 5.2813 5.2812 3.4302 3.4305 1.5075 98.8039 -0.0161 0.0748 1303.0 1033.6515 1033.6543 35.0121 35.0157 1493.59 1493.6 190.693 0.0
2017-10-14T12:30:45Z -46.0552 22.8008 at3901001 1 1316.394 5.2795 5.2793 3.4301 3.4304 1.5079 98.8039 -0.0119 0.0728 1304.0 1033.6564 1033.6592 35.0122 35.0157 1493.6 1493.61 190.802 0.0
2017-10-14T12:30:45Z -46.0552 22.8008 at3901001 1 1317.406 5.2788 5.2791 3.4301 3.4304 1.5085 98.8039 -0.0179 0.073 1305.0 1033.6612 1033.6637 35.0123 35.0156 1493.62 1493.62 190.944 0.0
2017-10-14T12:30:45Z -46.0552 22.8008 at3901001 1 1318.419 5.2775 5.2777 3.43 3.4303 1.5077 98.8039 -0.0114 0.0726 1306.0 1033.6656 1033.6685 35.012 35.0156 1493.63 1493.63 190.842 0.0
2017-10-14T12:30:45Z -46.0552 22.8008 at3901001 1 1319.432 5.2721 5.2721 3.4295 3.4298 1.5077 98.8039 -0.0129 0.0763 1307.0 1033.6709 1033.6739 35.0119 35.0156 1493.62 1493.63 190.891 0.0
2017-10-14T12:30:45Z -46.0552 22.8008 at3901001 1 1320.445 5.2704 5.2706 3.4294 3.4297 1.5083 98.8039 -0.0145 0.0763 1308.0 1033.6759 1033.6786 35.012 35.0155 1493.63 1493.64 191.027 0.0
2017-10-14T12:30:45Z -46.0552 22.8008 at3901001 1 1321.457 5.2668 5.2669 3.4291 3.4295 1.5087 98.8039 -0.0194 0.0727 1309.0 1033.6811 1033.684 35.0122 35.0159 1493.64 1493.64 191.146 0.0
2017-10-14T12:30:45Z -46.0552 22.8008 at3901001 1 1322.47 5.2639 5.2639 3.4289 3.4292 1.5092 98.8007 -0.0185 0.0735 1310.0 1033.686 1033.6889 35.0121 35.0158 1493.64 1493.64 191.283 0.0
2017-10-14T12:30:45Z -46.0552 22.8008 at3901001 1 1323.483 5.2605 5.2607 3.4287 3.429 1.5098 98.8024 -0.0391 0.0762 1311.0 1033.6911 1033.6939 35.0122 35.0157 1493.64 1493.65 191.45 0.0
2017-10-14T12:30:45Z -46.0552 22.8008 at3901001 1 1324.495 5.2592 5.257 3.4286 3.4287 1.5112 98.8053 -0.0175 0.0732 1312.0 1033.6959 1033.699 35.0122 35.0158 1493.65 1493.65 191.732 0.0
2017-10-14T12:30:45Z -46.0552 22.8008 at3901001 1 1325.508 5.2546 5.255 3.4282 3.4286 1.5114 98.8048 -0.0135 0.0807 1313.0 1033.7012 1033.7039 35.0122 35.0158 1493.65 1493.66 191.826 0.0
2017-10-14T12:30:45Z -46.0552 22.8008 at3901001 1 1326.521 5.2513 5.251 3.428 3.4282 1.5114 98.8067 -0.007 0.0702 1314.0 1033.7065 1033.709 35.0125 35.0158 1493.66 1493.66 191.86 0.0
2017-10-14T12:30:45Z -46.0552 22.8008 at3901001 1 1327.533 5.2504 5.2507 3.428 3.4283 1.5114 98.8021 -0.0503 0.0653 1315.0 1033.7114 1033.7138 35.0128 35.016 1493.67 1493.68 191.905 0.0
2017-10-14T12:30:45Z -46.0552 22.8008 at3901001 1 1328.546 5.2498 5.2497 3.428 3.4282 1.5112 98.8022 -0.0532 0.0641 1316.0 1033.716 1033.7187 35.0128 35.0162 1493.69 1493.69 191.89 0.0
2017-10-14T12:30:45Z -46.0552 22.8008 at3901001 1 1329.559 5.2492 5.2492 3.4279 3.4282 1.5111 98.8039 -0.054 0.0641 1317.0 1033.7206 1033.7232 35.0127 35.016 1493.7 1493.7 191.904 0.0
2017-10-14T12:30:45Z -46.0552 22.8008 at3901001 1 1330.572 5.2484 5.2483 3.4279 3.4282 1.5116 98.801 -0.0232 0.0697 1318.0 1033.7254 1033.728 35.0129 35.0162 1493.71 1493.72 192.024 0.0
2017-10-14T12:30:45Z -46.0552 22.8008 at3901001 1 1331.584 5.2486 5.2488 3.428 3.4283 1.5124 98.8029 -0.0447 0.0743 1319.0 1033.7298 1033.7323 35.0128 35.016 1493.73 1493.74 192.204 0.0
2017-10-14T12:30:45Z -46.0552 22.8008 at3901001 1 1332.597 5.249 5.2485 3.428 3.4283 1.5131 98.8028 -0.0194 0.0734 1320.0 1033.7341 1033.7369 35.0125 35.016 1493.75 1493.75 192.353 0.0
2017-10-14T12:30:45Z -46.0552 22.8008 at3901001 1 1333.61 5.2455 5.2454 3.4278 3.428 1.5131 98.805 -0.0144 0.0709 1321.0 1033.7394 1033.7418 35.0127 35.0159 1493.75 1493.75 192.39 0.0
2017-10-14T12:30:45Z -46.0552 22.8008 at3901001 1 1334.623 5.2459 5.2464 3.4279 3.4282 1.5133 98.8062 -0.0285 0.0763 1322.0 1033.7441 1033.7464 35.013 35.016 1493.77 1493.78 192.454 0.0
2017-10-14T12:30:45Z -46.0552 22.8008 at3901001 1 1335.635 5.2379 5.2383 3.4271 3.4275 1.513 98.8039 -0.0096 0.0763 1323.0 1033.7487 1033.7522 35.0115 35.0161 1493.75 1493.76 192.471 0.0
2017-10-14T12:30:45Z -46.0552 22.8008 at3901001 1 1336.648 5.2274 5.2267 3.4262 3.4265 1.5137 98.8077 -0.0277 0.0809 1324.0 1033.7556 1033.7587 35.0126 35.0164 1493.73 1493.73 192.68 0.0
2017-10-14T12:30:45Z -46.0552 22.8008 at3901001 1 1337.661 5.2226 5.2226 3.4259 3.4262 1.5138 98.805 -0.0288 0.0872 1325.0 1033.7613 1033.7638 35.0131 35.0163 1493.73 1493.73 192.755 0.0
2017-10-14T12:30:45Z -46.0552 22.8008 at3901001 1 1338.674 5.2234 5.223 3.426 3.4263 1.5146 98.8073 -0.0236 0.0749 1326.0 1033.7658 1033.7682 35.0132 35.0162 1493.75 1493.75 192.911 0.0
2017-10-14T12:30:45Z -46.0552 22.8008 at3901001 1 1339.686 5.2233 5.2235 3.4261 3.4264 1.5149 98.8051 -0.0456 0.0746 1327.0 1033.7705 1033.7729 35.0133 35.0165 1493.76 1493.77 193.01 0.0
2017-10-14T12:30:45Z -46.0552 22.8008 at3901001 1 1340.699 5.2177 5.2195 3.4255 3.426 1.5153 98.8039 -0.0534 0.0726 1328.0 1033.7754 1033.7781 35.0127 35.0164 1493.76 1493.77 193.127 0.0
2017-10-14T12:30:45Z -46.0552 22.8008 at3901001 1 1341.712 5.2126 5.2127 3.4252 3.4255 1.5161 98.8051 -0.0368 0.0675 1329.0 1033.7811 1033.7838 35.0132 35.0167 1493.75 1493.76 193.339 0.0
2017-10-14T12:30:45Z -46.0552 22.8008 at3901001 1 1342.725 5.2106 5.2107 3.4251 3.4253 1.5163 98.8039 -0.0283 0.0688 1330.0 1033.7863 1033.7886 35.0136 35.0166 1493.76 1493.77 193.409 0.0
2017-10-14T12:30:45Z -46.0552 22.8008 at3901001 1 1343.738 5.2105 5.2105 3.4251 3.4254 1.5167 98.8048 -0.0219 0.0762 1331.0 1033.7907 1033.7932 35.0134 35.0166 1493.78 1493.78 193.518 0.0
2017-10-14T12:30:45Z -46.0552 22.8008 at3901001 1 1344.75 5.2107 5.2104 3.4251 3.4254 1.5178 98.8056 -0.0156 0.07 1332.0 1033.7953 1033.7978 35.0134 35.0166 1493.8 1493.8 193.743 0.0
2017-10-14T12:30:45Z -46.0552 22.8008 at3901001 1 1345.763 5.2105 5.2104 3.4252 3.4254 1.5186 98.8069 -6.0E-4 0.0764 1333.0 1033.7999 1033.8023 35.0135 35.0166 1493.81 1493.82 193.919 0.0
2017-10-14T12:30:45Z -46.0552 22.8008 at3901001 1 1346.776 5.2106 5.2108 3.4252 3.4255 1.5187 98.8052 0.0068 0.0806 1334.0 1033.8046 1033.807 35.0137 35.0168 1493.83 1493.84 193.962 0.0
2017-10-14T12:30:45Z -46.0552 22.8008 at3901001 1 1347.789 5.2106 5.2106 3.4253 3.4256 1.5188 98.8055 -0.005 0.0824 1335.0 1033.8092 1033.8115 35.0138 35.0167 1493.85 1493.85 194.011 0.0
2017-10-14T12:30:45Z -46.0552 22.8008 at3901001 1 1348.802 5.2099 5.2096 3.4253 3.4255 1.5184 98.8073 -0.0123 0.0824 1336.0 1033.8138 1033.8165 35.0137 35.0171 1493.86 1493.87 193.961 0.0
2017-10-14T12:30:45Z -46.0552 22.8008 at3901001 1 1349.814 5.2093 5.2092 3.4253 3.4255 1.5183 98.8068 -0.029 0.0654 1337.0 1033.8185 1033.8212 35.0138 35.0172 1493.88 1493.88 193.973 0.0
2017-10-14T12:30:45Z -46.0552 22.8008 at3901001 1 1350.827 5.2091 5.2091 3.4253 3.4256 1.5184 98.8027 -0.0169 0.0641 1338.0 1033.8232 1033.8256 35.0139 35.0169 1493.89 1493.9 194.013 0.0
2017-10-14T12:30:45Z -46.0552 22.8008 at3901001 1 1351.84 5.2075 5.2074 3.4252 3.4255 1.5186 98.8069 -0.0229 0.0707 1339.0 1033.8281 1033.8308 35.014 35.0175 1493.9 1493.91 194.082 0.0
2017-10-14T12:30:45Z -46.0552 22.8008 at3901001 1 1352.853 5.2008 5.2008 3.4247 3.425 1.5191 98.8062 -0.0281 0.0721 1340.0 1033.8342 1033.8371 35.0147 35.0184 1493.89 1493.9 194.244 0.0
2017-10-14T12:30:45Z -46.0552 22.8008 at3901001 1 1353.866 5.1936 5.1937 3.4241 3.4245 1.5202 98.8079 -0.0334 0.0702 1341.0 1033.8401 1033.843 35.0151 35.0188 1493.88 1493.89 194.519 0.0
2017-10-14T12:30:45Z -46.0552 22.8008 at3901001 1 1354.879 5.1868 5.187 3.4236 3.424 1.5212 98.8121 -0.0255 0.066 1342.0 1033.8463 1033.8491 35.0158 35.0195 1493.87 1493.88 194.776 0.0
2017-10-14T12:30:45Z -46.0552 22.8008 at3901001 1 1355.891 5.1778 5.1784 3.4229 3.4232 1.5221 98.8108 -0.0147 0.0696 1343.0 1033.8523 1033.8551 35.016 35.0197 1493.85 1493.86 195.017 0.0
2017-10-14T12:30:45Z -46.0552 22.8008 at3901001 1 1356.904 5.1721 5.1725 3.4224 3.4228 1.5226 98.8066 -0.0149 0.0795 1344.0 1033.8581 1033.8608 35.0165 35.0201 1493.85 1493.85 195.167 0.0
2017-10-14T12:30:45Z -46.0552 22.8008 at3901001 1 1357.917 5.1683 5.1684 3.4221 3.4224 1.5227 98.8085 -0.0261 0.0795 1345.0 1033.8633 1033.866 35.0166 35.02 1493.85 1493.85 195.231 0.0
2017-10-14T12:30:45Z -46.0552 22.8008 at3901001 1 1358.93 5.1659 5.166 3.422 3.4223 1.5237 98.8055 -0.027 0.0754 1346.0 1033.8684 1033.8709 35.0168 35.0201 1493.86 1493.86 195.453 0.0
2017-10-14T12:30:45Z -46.0552 22.8008 at3901001 1 1359.943 5.1644 5.1642 3.4219 3.4222 1.5241 98.804 -0.0277 0.0648 1347.0 1033.8731 1033.8759 35.0168 35.0203 1493.87 1493.87 195.574 0.0
2017-10-14T12:30:45Z -46.0552 22.8008 at3901001 1 1360.956 5.1636 5.1637 3.4219 3.4221 1.5249 98.8039 -0.0483 0.0696 1348.0 1033.8779 1033.8803 35.0169 35.02 1493.88 1493.89 195.746 0.0
2017-10-14T12:30:45Z -46.0552 22.8008 at3901001 1 1361.969 5.1637 5.1634 3.4219 3.4222 1.5259 98.8087 -0.0374 0.0731 1349.0 1033.8823 1033.885 35.0168 35.0201 1493.9 1493.9 195.967 0.0
2017-10-14T12:30:45Z -46.0552 22.8008 at3901001 1 1362.982 5.1633 5.1631 3.4219 3.4222 1.5274 98.8099 -0.0303 0.0651 1350.0 1033.8869 1033.8895 35.0167 35.02 1493.91 1493.92 196.27 0.0
2017-10-14T12:30:45Z -46.0552 22.8008 at3901001 1 1363.994 5.1626 5.1628 3.4219 3.4222 1.5275 98.8073 -0.0255 0.0706 1351.0 1033.8918 1033.894 35.017 35.0199 1493.93 1493.93 196.327 0.0
2017-10-14T12:30:45Z -46.0552 22.8008 at3901001 1 1365.007 5.1615 5.1618 3.4218 3.4222 1.5275 98.8038 -0.0126 0.0764 1352.0 1033.8963 1033.8989 35.0167 35.0201 1493.94 1493.94 196.357 0.0
2017-10-14T12:30:45Z -46.0552 22.8008 at3901001 1 1366.02 5.1587 5.159 3.4217 3.422 1.5274 98.8112 -0.0166 0.0652 1353.0 1033.9017 1033.9041 35.0172 35.0204 1493.94 1493.95 196.384 0.0
2017-10-14T12:30:45Z -46.0552 22.8008 at3901001 1 1367.033 5.1559 5.1557 3.4214 3.4217 1.5275 98.8039 -0.0216 0.0681 1354.0 1033.9063 1033.9092 35.0168 35.0204 1493.95 1493.95 196.438 0.0
2017-10-14T12:30:45Z -46.0552 22.8008 at3901001 1 1368.046 5.1519 5.1521 3.4212 3.4215 1.5275 98.8055 -0.0294 0.068 1355.0 1033.912 1033.9145 35.0175 35.0208 1493.95 1493.96 196.484 0.0
2017-10-14T12:30:45Z -46.0552 22.8008 at3901001 1 1369.059 5.1495 5.1495 3.421 3.4213 1.5275 98.8053 -0.0517 0.0651 1356.0 1033.9169 1033.9196 35.0174 35.0209 1493.96 1493.96 196.522 0.0
2017-10-14T12:30:45Z -46.0552 22.8008 at3901001 1 1370.072 5.1476 5.1477 3.4209 3.4212 1.5282 98.8072 -0.0298 0.0765 1357.0 1033.9219 1033.9244 35.0177 35.0208 1493.97 1493.97 196.687 0.0
2017-10-14T12:30:45Z -46.0552 22.8008 at3901001 1 1371.085 5.1453 5.1452 3.4207 3.421 1.5287 98.8039 -0.0351 0.0739 1358.0 1033.9268 1033.9295 35.0176 35.0211 1493.98 1493.98 196.83 0.0
2017-10-14T12:30:45Z -46.0552 22.8008 at3901001 1 1372.098 5.1415 5.1412 3.4204 3.4207 1.529 98.8122 -0.0346 0.0753 1359.0 1033.932 1033.9348 35.0178 35.0213 1493.98 1493.98 196.927 0.0
2017-10-14T12:30:45Z -46.0552 22.8008 at3901001 1 1373.111 5.1383 5.1385 3.4202 3.4205 1.5296 98.8046 -0.0215 0.0764 1360.0 1033.9372 1033.9397 35.018 35.0212 1493.98 1493.99 197.089 0.0
2017-10-14T12:30:45Z -46.0552 22.8008 at3901001 1 1374.124 5.1349 5.1349 3.4199 3.4202 1.5299 98.8072 -8.0E-4 0.0763 1361.0 1033.942 1033.9448 35.0177 35.0212 1493.98 1493.99 197.178 0.0
2017-10-14T12:30:45Z -46.0552 22.8008 at3901001 1 1375.137 5.1299 5.13 3.4195 3.4198 1.5301 98.8075 -0.0145 0.0763 1362.0 1033.9474 1033.9501 35.0178 35.0212 1493.98 1493.99 197.281 0.0
2017-10-14T12:30:45Z -46.0552 22.8008 at3901001 1 1376.149 5.1265 5.1268 3.4192 3.4195 1.5303 98.8166 -0.0135 0.0766 1363.0 1033.9525 1033.955 35.0178 35.021 1493.98 1493.99 197.356 0.0
2017-10-14T12:30:45Z -46.0552 22.8008 at3901001 1 1377.162 5.1232 5.123 3.419 3.4192 1.5304 98.813 -0.0302 0.0763 1364.0 1033.9575 1033.9603 35.0177 35.0213 1493.99 1493.99 197.422 0.0
2017-10-14T12:30:45Z -46.0552 22.8008 at3901001 1 1378.175 5.1221 5.1222 3.4189 3.4192 1.5305 98.8093 -0.0277 0.0652 1365.0 1033.9622 1033.9646 35.0178 35.0209 1494.0 1494.0 197.477 0.0
2017-10-14T12:30:45Z -46.0552 22.8008 at3901001 1 1379.188 5.1214 5.1216 3.4189 3.4192 1.5308 98.8098 -0.0322 0.0684 1366.0 1033.9668 1033.9693 35.0177 35.0209 1494.01 1494.02 197.558 0.0
2017-10-14T12:30:45Z -46.0552 22.8008 at3901001 1 1380.201 5.1195 5.1196 3.4187 3.419 1.531 98.8051 -0.0202 0.0702 1367.0 1033.9715 1033.9742 35.0175 35.0209 1494.02 1494.03 197.636 0.0
2017-10-14T12:30:45Z -46.0552 22.8008 at3901001 1 1381.214 5.1156 5.1156 3.4185 3.4188 1.5315 98.8128 -0.0225 0.0668 1368.0 1033.9775 1033.9801 35.0186 35.0219 1494.02 1494.03 197.779 0.0
2017-10-14T12:30:45Z -46.0552 22.8008 at3901001 1 1382.227 5.1153 5.1152 3.4186 3.4189 1.5325 98.8152 -0.0188 0.0695 1369.0 1033.9826 1033.9851 35.0193 35.0224 1494.04 1494.05 197.988 0.0
2017-10-14T12:30:45Z -46.0552 22.8008 at3901001 1 1383.24 5.115 5.1152 3.4187 3.4189 1.5329 98.8079 -0.0143 0.0674 1370.0 1033.9877 1033.9901 35.0199 35.023 1494.06 1494.06 198.098 0.0
2017-10-14T12:30:45Z -46.0552 22.8008 at3901001 1 1384.253 5.1138 5.1139 3.4186 3.4189 1.5333 98.8075 -0.0475 0.0671 1371.0 1033.9927 1033.9951 35.0202 35.0233 1494.07 1494.07 198.202 0.0
2017-10-14T12:30:45Z -46.0552 22.8008 at3901001 1 1385.266 5.1127 5.1127 3.4186 3.4189 1.5338 98.8148 -0.0428 0.0683 1372.0 1033.9974 1033.9999 35.0202 35.0234 1494.08 1494.09 198.333 0.0
2017-10-14T12:30:45Z -46.0552 22.8008 at3901001 1 1386.279 5.1121 5.1121 3.4185 3.4188 1.5338 98.8145 -0.0364 0.065 1373.0 1034.0019 1034.0045 35.02 35.0234 1494.1 1494.1 198.363 0.0
2017-10-14T12:30:45Z -46.0552 22.8008 at3901001 1 1387.292 5.11 5.11 3.4184 3.4187 1.5339 98.8143 -0.0664 0.0697 1374.0 1034.0069 1034.0094 35.0201 35.0234 1494.11 1494.11 198.42 0.0
2017-10-14T12:30:45Z -46.0552 22.8008 at3901001 1 1388.305 5.1062 5.1065 3.4181 3.4184 1.534 98.812 -0.0408 0.0646 1375.0 1034.0117 1034.0144 35.0199 35.0232 1494.11 1494.11 198.477 0.0
2017-10-14T12:30:45Z -46.0552 22.8008 at3901001 1 1389.318 5.1023 5.1023 3.4178 3.4181 1.5349 98.8096 -0.0126 0.0703 1376.0 1034.0171 1034.0196 35.0202 35.0234 1494.11 1494.11 198.695 0.0
2017-10-14T12:30:45Z -46.0552 22.8008 at3901001 1 1390.331 5.1008 5.1008 3.4177 3.418 1.535 98.8146 -0.0134 0.0702 1377.0 1034.022 1034.0245 35.0202 35.0234 1494.12 1494.12 198.748 0.0
2017-10-14T12:30:45Z -46.0552 22.8008 at3901001 1 1391.344 5.0971 5.0971 3.4174 3.4177 1.5354 98.8179 -0.0117 0.0657 1378.0 1034.027 1034.0296 35.0201 35.0234 1494.12 1494.13 198.887 0.0
2017-10-14T12:30:45Z -46.0552 22.8008 at3901001 1 1392.357 5.0937 5.0937 3.4171 3.4174 1.536 98.8121 -0.0133 0.0735 1379.0 1034.0322 1034.0347 35.0202 35.0235 1494.13 1494.13 199.041 0.0
2017-10-14T12:30:45Z -46.0552 22.8008 at3901001 1 1393.37 5.0903 5.0906 3.4169 3.4172 1.537 98.8158 -0.0124 0.0633 1380.0 1034.0374 1034.0399 35.0205 35.0237 1494.13 1494.13 199.274 0.0
2017-10-14T12:30:45Z -46.0552 22.8008 at3901001 1 1394.383 5.0891 5.0892 3.4169 3.4171 1.5373 98.8098 -0.0141 0.072 1381.0 1034.0423 1034.0447 35.0207 35.0237 1494.14 1494.14 199.373 0.0
2017-10-14T12:30:45Z -46.0552 22.8008 at3901001 1 1395.397 5.0881 5.0882 3.4168 3.4171 1.5376 98.817 -0.0248 0.0726 1382.0 1034.0471 1034.0494 35.0209 35.0238 1494.15 1494.16 199.46 0.0
2017-10-14T12:30:45Z -46.0552 22.8008 at3901001 1 1396.41 5.0878 5.0878 3.4168 3.4171 1.5375 98.8165 -0.02 0.0725 1383.0 1034.0518 1034.0542 35.0209 35.024 1494.17 1494.17 199.453 0.0
2017-10-14T12:30:45Z -46.0552 22.8008 at3901001 1 1397.423 5.087 5.0871 3.4168 3.4171 1.5377 98.8136 -0.0069 0.0751 1384.0 1034.0568 1034.0592 35.0213 35.0244 1494.18 1494.19 199.526 0.0
2017-10-14T12:30:45Z -46.0552 22.8008 at3901001 1 1398.436 5.0864 5.0864 3.4168 3.4171 1.5378 98.8091 -0.0349 0.0719 1385.0 1034.0615 1034.0638 35.0214 35.0243 1494.2 1494.2 199.579 0.0
2017-10-14T12:30:45Z -46.0552 22.8008 at3901001 1 1399.449 5.0871 5.0872 3.417 3.4172 1.5383 98.813 -0.0347 0.0763 1386.0 1034.0662 1034.0685 35.0217 35.0247 1494.22 1494.22 199.693 0.0
2017-10-14T12:30:45Z -46.0552 22.8008 at3901001 1 1400.462 5.0866 5.0866 3.417 3.4173 1.5388 98.8093 -0.0152 0.0763 1387.0 1034.0709 1034.0733 35.0219 35.025 1494.23 1494.24 199.824 0.0
2017-10-14T12:30:45Z -46.0552 22.8008 at3901001 1 1401.475 5.0839 5.084 3.4168 3.4171 1.5389 98.8174 -0.0267 0.0711 1388.0 1034.0759 1034.0784 35.0219 35.0252 1494.24 1494.24 199.873 0.0
2017-10-14T12:30:45Z -46.0552 22.8008 at3901001 1 1402.488 5.0826 5.0827 3.4167 3.417 1.5385 98.8184 -0.0275 0.0702 1389.0 1034.0808 1034.0832 35.022 35.0251 1494.25 1494.25 199.843 0.0
2017-10-14T12:30:45Z -46.0552 22.8008 at3901001 1 1403.501 5.0808 5.0808 3.4166 3.4169 1.5382 98.8092 -0.012 0.0702 1390.0 1034.0855 1034.088 35.022 35.0251 1494.26 1494.26 199.812 0.0
2017-10-14T12:30:45Z -46.0552 22.8008 at3901001 1 1404.514 5.0795 5.0796 3.4165 3.4168 1.5383 98.8187 -0.015 0.067 1391.0 1034.0905 1034.0928 35.0222 35.0252 1494.27 1494.28 199.862 0.0
2017-10-14T12:30:45Z -46.0552 22.8008 at3901001 1 1405.527 5.0778 5.0777 3.4164 3.4167 1.5387 98.8105 -0.02 0.0723 1392.0 1034.0952 1034.0976 35.022 35.0252 1494.28 1494.28 199.986 0.0
2017-10-14T12:30:45Z -46.0552 22.8008 at3901001 1 1406.54 5.0758 5.0761 3.4163 3.4166 1.5386 98.8165 -0.015 0.0655 1393.0 1034.1002 1034.1024 35.0223 35.0251 1494.29 1494.29 200.005 0.0
2017-10-14T12:30:45Z -46.0552 22.8008 at3901001 1 1407.553 5.0737 5.0738 3.4161 3.4164 1.5384 98.8201 -0.0146 0.0703 1394.0 1034.1047 1034.1073 35.0218 35.0252 1494.3 1494.3 199.994 0.0
2017-10-14T12:30:45Z -46.0552 22.8008 at3901001 1 1408.566 5.0669 5.0671 3.4155 3.4158 1.5378 98.8164 -0.0013 0.0702 1395.0 1034.1099 1034.1127 35.0214 35.0249 1494.29 1494.29 199.954 0.0
2017-10-14T12:30:45Z -46.0552 22.8008 at3901001 1 1409.58 5.0617 5.0618 3.4151 3.4154 1.5382 98.8136 -0.011 0.0804 1396.0 1034.1156 1034.118 35.0218 35.0249 1494.28 1494.29 200.072 0.0
2017-10-14T12:30:45Z -46.0552 22.8008 at3901001 1 1410.593 5.0579 5.0584 3.4147 3.4151 1.5387 98.811 -0.0238 0.0717 1397.0 1034.12 1034.1228 35.0209 35.0246 1494.28 1494.29 200.225 0.0
2017-10-14T12:30:45Z -46.0552 22.8008 at3901001 1 1411.606 5.0488 5.0491 3.4139 3.4143 1.5388 98.8165 -0.0215 0.07 1398.0 1034.1259 1034.1285 35.0209 35.0243 1494.26 1494.27 200.317 0.0
2017-10-14T12:30:45Z -46.0552 22.8008 at3901001 1 1412.619 5.041 5.0409 3.4133 3.4136 1.5406 98.8162 -0.0217 0.0755 1399.0 1034.1314 1034.1342 35.0206 35.0242 1494.25 1494.25 200.732 0.0
2017-10-14T12:30:45Z -46.0552 22.8008 at3901001 1 1413.632 5.0359 5.0359 3.4128 3.4131 1.5426 98.8163 -0.0132 0.0725 1400.0 1034.1367 1034.1393 35.0205 35.0239 1494.24 1494.25 201.176 0.0
2017-10-14T12:30:45Z -46.0552 22.8008 at3901001 1 1414.645 5.0326 5.0327 3.4125 3.4128 1.5432 98.8196 -0.0222 0.071 1401.0 1034.1414 1034.1441 35.0201 35.0236 1494.25 1494.25 201.324 0.0
2017-10-14T12:30:45Z -46.0552 22.8008 at3901001 1 1415.658 5.0269 5.0272 3.4121 3.4124 1.5437 98.8206 -0.0384 0.064 1402.0 1034.1467 1034.1493 35.02 35.0234 1494.24 1494.25 201.493 0.0
2017-10-14T12:30:45Z -46.0552 22.8008 at3901001 1 1416.671 5.0219 5.0221 3.4117 3.412 1.5438 98.8152 -0.0536 0.0641 1403.0 1034.1523 1034.1548 35.0204 35.0236 1494.24 1494.24 201.558 0.0
2017-10-14T12:30:45Z -46.0552 22.8008 at3901001 1 1417.685 5.0181 5.0184 3.4114 3.4117 1.544 98.8178 -0.0143 0.0701 1404.0 1034.1575 1034.16 35.0204 35.0237 1494.24 1494.25 201.641 0.0
2017-10-14T12:30:45Z -46.0552 22.8008 at3901001 1 1418.698 5.0136 5.0138 3.411 3.4113 1.5447 98.816 -0.0174 0.0702 1405.0 1034.1626 1034.1653 35.0204 35.0238 1494.24 1494.24 201.839 0.0
2017-10-14T12:30:45Z -46.0552 22.8008 at3901001 1 1419.711 5.0067 5.0072 3.4105 3.4108 1.5452 98.8232 -0.0292 0.0751 1406.0 1034.1685 1034.1711 35.0207 35.0241 1494.23 1494.23 201.998 0.0
2017-10-14T12:30:45Z -46.0552 22.8008 at3901001 1 1420.724 5.0017 5.002 3.4101 3.4104 1.5462 98.8209 -0.0342 0.0695 1407.0 1034.174 1034.1765 35.021 35.0242 1494.22 1494.23 202.236 0.0
2017-10-14T12:30:45Z -46.0552 22.8008 at3901001 1 1421.737 4.9996 4.9994 3.41 3.4102 1.547 98.8261 -0.0055 0.0658 1408.0 1034.1792 1034.1817 35.0214 35.0245 1494.23 1494.24 202.431 0.0
2017-10-14T12:30:45Z -46.0552 22.8008 at3901001 1 1422.75 4.9975 4.9975 3.4098 3.4101 1.5475 98.8262 -0.0168 0.0737 1409.0 1034.1842 1034.1866 35.0215 35.0246 1494.24 1494.24 202.564 0.0
2017-10-14T12:30:45Z -46.0552 22.8008 at3901001 1 1423.764 4.9946 4.9946 3.4096 3.4099 1.5483 98.8206 -0.0247 0.077 1410.0 1034.1893 1034.1917 35.0217 35.0248 1494.25 1494.25 202.75 0.0
2017-10-14T12:30:45Z -46.0552 22.8008 at3901001 1 1424.777 4.9927 4.9926 3.4095 3.4098 1.5486 98.8125 -0.0332 0.0661 1411.0 1034.1942 1034.1968 35.0218 35.025 1494.26 1494.26 202.853 0.0
2017-10-14T12:30:45Z -46.0552 22.8008 at3901001 1 1425.79 4.9903 4.9901 3.4093 3.4096 1.5488 98.8224 -0.0033 0.0687 1412.0 1034.1993 1034.2019 35.022 35.0253 1494.26 1494.27 202.934 0.0
2017-10-14T12:30:45Z -46.0552 22.8008 at3901001 1 1426.803 4.9896 4.9895 3.4093 3.4096 1.5488 98.8263 -0.0158 0.0738 1413.0 1034.2042 1034.2067 35.0223 35.0255 1494.28 1494.28 202.962 0.0
2017-10-14T12:30:45Z -46.0552 22.8008 at3901001 1 1427.816 4.9888 4.989 3.4093 3.4096 1.5488 98.8206 -0.0327 0.0755 1414.0 1034.209 1034.2114 35.0225 35.0256 1494.29 1494.3 202.993 0.0
2017-10-14T12:30:45Z -46.0552 22.8008 at3901001 1 1428.83 4.9877 4.9878 3.4093 3.4096 1.5487 98.8257 -0.0154 0.0703 1415.0 1034.2139 1034.2162 35.0227 35.0257 1494.3 1494.31 202.998 0.0
2017-10-14T12:30:45Z -46.0552 22.8008 at3901001 1 1429.843 4.986 4.986 3.4092 3.4095 1.5488 98.8254 -0.0142 0.066 1416.0 1034.2189 1034.2213 35.023 35.026 1494.31 1494.32 203.06 0.0
2017-10-14T12:30:45Z -46.0552 22.8008 at3901001 1 1430.856 4.9859 4.9843 3.4093 3.4094 1.5497 98.8215 -0.0247 0.0699 1417.0 1034.2237 1034.2263 35.0233 35.0263 1494.33 1494.33 203.262 0.0
2017-10-14T12:30:45Z -46.0552 22.8008 at3901001 1 1431.869 4.9866 4.9868 3.4093 3.4096 1.5505 98.8246 -0.0199 0.0744 1418.0 1034.2276 1034.2303 35.0225 35.026 1494.35 1494.36 203.442 0.0
2017-10-14T12:30:45Z -46.0552 22.8008 at3901001 1 1432.882 4.9799 4.9797 3.4088 3.4091 1.5503 98.8183 -0.0066 0.064 1419.0 1034.234 1034.2367 35.0236 35.027 1494.34 1494.34 203.467 0.0
2017-10-14T12:30:45Z -46.0552 22.8008 at3901001 1 1433.896 4.9765 4.9764 3.4086 3.4089 1.5502 98.8248 -0.0163 0.0659 1420.0 1034.2397 1034.2422 35.0245 35.0277 1494.35 1494.35 203.48 0.0
2017-10-14T12:30:45Z -46.0552 22.8008 at3901001 1 1434.909 4.9733 4.9734 3.4084 3.4087 1.5501 98.8275 -0.0028 0.0829 1421.0 1034.2448 1034.2475 35.0245 35.028 1494.35 1494.35 203.513 0.0
2017-10-14T12:30:45Z -46.0552 22.8008 at3901001 1 1435.922 4.9696 4.9697 3.4082 3.4085 1.5501 98.8271 -0.0253 0.0691 1422.0 1034.2505 1034.2529 35.0253 35.0284 1494.35 1494.36 203.559 0.0
2017-10-14T12:30:45Z -46.0552 22.8008 at3901001 1 1436.935 4.9674 4.9675 3.4081 3.4083 1.5499 98.8169 -0.0357 0.0652 1423.0 1034.2556 1034.258 35.0256 35.0286 1494.36 1494.36 203.549 0.0
2017-10-14T12:30:45Z -46.0552 22.8008 at3901001 1 1437.949 4.9662 4.9662 3.408 3.4083 1.55 98.8193 -0.0312 0.0702 1424.0 1034.2605 1034.2629 35.0258 35.0288 1494.37 1494.38 203.604 0.0
2017-10-14T12:30:45Z -46.0552 22.8008 at3901001 1 1438.962 4.9649 4.9651 3.4079 3.4082 1.5503 98.8279 -0.0172 0.0756 1425.0 1034.2652 1034.2676 35.0257 35.0288 1494.38 1494.39 203.706 0.0
2017-10-14T12:30:45Z -46.0552 22.8008 at3901001 1 1439.975 4.9662 4.9644 3.4081 3.4082 1.5518 98.8254 -0.02 0.0728 1426.0 1034.2695 1034.2723 35.0256 35.0289 1494.41 1494.4 204.01 0.0
2017-10-14T12:30:45Z -46.0552 22.8008 at3901001 1 1440.988 4.9641 4.963 3.4079 3.4081 1.5527 98.8275 -0.019 0.0728 1427.0 1034.2743 1034.2769 35.0256 35.0287 1494.41 1494.41 204.218 0.0
2017-10-14T12:30:45Z -46.0552 22.8008 at3901001 1 1442.001 4.9605 4.9606 3.4077 3.408 1.5526 98.8266 -0.0119 0.0765 1428.0 1034.2798 1034.2822 35.026 35.0292 1494.42 1494.42 204.253 0.0
2017-10-14T12:30:45Z -46.0552 22.8008 at3901001 1 1443.015 4.9601 4.9601 3.4077 3.408 1.5527 98.8275 6.0E-4 0.0756 1429.0 1034.2845 1034.2868 35.0261 35.0291 1494.43 1494.44 204.308 0.0
2017-10-14T12:30:45Z -46.0552 22.8008 at3901001 1 1444.028 4.9589 4.9588 3.4076 3.4079 1.5527 98.8287 -0.0153 0.0702 1430.0 1034.289 1034.2916 35.026 35.0292 1494.44 1494.45 204.331 0.0
2017-10-14T12:30:45Z -46.0552 22.8008 at3901001 1 1445.041 4.9572 4.9575 3.4075 3.4078 1.5528 98.8287 -0.0377 0.0666 1431.0 1034.2939 1034.296 35.0261 35.0288 1494.45 1494.46 204.381 0.0
2017-10-14T12:30:45Z -46.0552 22.8008 at3901001 1 1446.055 4.9565 4.9564 3.4075 3.4077 1.5528 98.8236 -0.046 0.0641 1432.0 1034.2985 1034.301 35.0259 35.0291 1494.47 1494.47 204.423 0.0
2017-10-14T12:30:45Z -46.0552 22.8008 at3901001 1 1447.068 4.9553 4.9554 3.4074 3.4077 1.5536 98.8276 -0.0381 0.0672 1433.0 1034.3032 1034.3055 35.0259 35.0289 1494.48 1494.49 204.602 0.0
2017-10-14T12:30:45Z -46.0552 22.8008 at3901001 1 1448.081 4.9554 4.9539 3.4074 3.4076 1.5538 98.8205 -0.0277 0.0737 1434.0 1034.3075 1034.3103 35.0257 35.0289 1494.5 1494.5 204.672 0.0
2017-10-14T12:30:45Z -46.0552 22.8008 at3901001 1 1449.094 4.9498 4.95 3.4069 3.4073 1.5538 98.8305 -0.0234 0.0743 1435.0 1034.3127 1034.3153 35.0254 35.0287 1494.49 1494.5 204.734 0.0
2017-10-14T12:30:45Z -46.0552 22.8008 at3901001 1 1450.108 4.945 4.9452 3.4065 3.4069 1.5541 98.8259 -0.0409 0.0718 1436.0 1034.3179 1034.3205 35.0252 35.0286 1494.49 1494.49 204.842 0.0
2017-10-14T12:30:45Z -46.0552 22.8008 at3901001 1 1451.121 4.9406 4.9406 3.4062 3.4065 1.5539 98.8273 -0.0445 0.0702 1437.0 1034.3228 1034.3256 35.0249 35.0285 1494.49 1494.49 204.858 0.0
2017-10-14T12:30:45Z -46.0552 22.8008 at3901001 1 1452.134 4.9361 4.9361 3.4058 3.4061 1.5539 98.8288 -0.0291 0.0702 1438.0 1034.328 1034.3307 35.0248 35.0283 1494.48 1494.49 204.911 0.0
2017-10-14T12:30:45Z -46.0552 22.8008 at3901001 1 1453.148 4.9336 4.9336 3.4056 3.4059 1.5541 98.8241 -0.0278 0.0647 1439.0 1034.3331 1034.3355 35.025 35.0282 1494.49 1494.5 204.993 0.0
2017-10-14T12:30:45Z -46.0552 22.8008 at3901001 1 1454.161 4.9319 4.9321 3.4055 3.4058 1.555 98.8262 -0.0363 0.0641 1440.0 1034.3378 1034.3402 35.0249 35.028 1494.5 1494.51 205.198 0.0
2017-10-14T12:30:45Z -46.0552 22.8008 at3901001 1 1455.174 4.9302 4.9303 3.4054 3.4057 1.5553 98.8277 -0.0217 0.0674 1441.0 1034.3425 1034.3449 35.0248 35.0278 1494.51 1494.52 205.291 0.0
2017-10-14T12:30:45Z -46.0552 22.8008 at3901001 1 1456.188 4.9312 4.9293 3.4055 3.4056 1.5568 98.8277 -0.0081 0.0764 1442.0 1034.3469 1034.3495 35.0248 35.0278 1494.53 1494.53 205.606 0.0
2017-10-14T12:30:45Z -46.0552 22.8008 at3901001 1 1457.201 4.9282 4.9259 3.4052 3.4053 1.5573 98.8261 -0.0336 0.0763 1443.0 1034.3515 1034.3546 35.0243 35.0278 1494.54 1494.53 205.758 0.0
2017-10-14T12:30:45Z -46.0552 22.8008 at3901001 1 1458.214 4.9241 4.9242 3.4049 3.4052 1.5572 98.8262 -0.029 0.0661 1444.0 1034.357 1034.3596 35.0247 35.028 1494.54 1494.54 205.772 0.0
2017-10-14T12:30:45Z -46.0552 22.8008 at3901001 1 1459.228 4.9202 4.9204 3.4046 3.4049 1.5565 98.8262 -0.0434 0.0641 1445.0 1034.3619 1034.3645 35.0244 35.0277 1494.54 1494.54 205.685 0.0
2017-10-14T12:30:45Z -46.0552 22.8008 at3901001 1 1460.241 4.915 4.9151 3.4042 3.4045 1.5573 98.829 -0.0489 0.0669 1446.0 1034.367 1034.3697 35.0242 35.0275 1494.53 1494.54 205.905 0.0
2017-10-14T12:30:45Z -46.0552 22.8008 at3901001 1 1461.254 4.9135 4.9136 3.4041 3.4044 1.5572 98.8255 -0.0251 0.0764 1447.0 1034.3723 1034.3745 35.0248 35.0277 1494.55 1494.55 205.921 0.0
2017-10-14T12:30:45Z -46.0552 22.8008 at3901001 1 1462.268 4.9129 4.9132 3.4041 3.4044 1.5576 98.8245 -0.0248 0.0723 1448.0 1034.3771 1034.3792 35.0249 35.0277 1494.56 1494.57 206.028 0.0
2017-10-14T12:30:45Z -46.0552 22.8008 at3901001 1 1463.281 4.9113 4.9114 3.404 3.4043 1.5577 98.8273 -0.041 0.0717 1449.0 1034.3821 1034.3844 35.0252 35.0282 1494.57 1494.57 206.085 0.0
2017-10-14T12:30:45Z -46.0552 22.8008 at3901001 1 1464.294 4.9097 4.9094 3.404 3.4042 1.5582 98.8258 -0.0369 0.0754 1450.0 1034.3871 1034.3895 35.0255 35.0285 1494.58 1494.58 206.208 0.0
2017-10-14T12:30:45Z -46.0552 22.8008 at3901001 1 1465.308 4.9049 4.9047 3.4035 3.4038 1.5579 98.8251 -0.0357 0.0647 1451.0 1034.3918 1034.3945 35.0248 35.0282 1494.58 1494.58 206.209 0.0
2017-10-14T12:30:45Z -46.0552 22.8008 at3901001 1 1466.321 4.8964 4.8967 3.4028 3.4031 1.5579 98.8269 -0.0284 0.0659 1452.0 1034.3974 1034.4003 35.0245 35.0283 1494.56 1494.57 206.284 0.0
2017-10-14T12:30:45Z -46.0552 22.8008 at3901001 1 1467.335 4.8906 4.8909 3.4023 3.4026 1.5587 98.8102 -0.0241 0.0742 1453.0 1034.4034 1034.4057 35.0253 35.0283 1494.55 1494.56 206.508 0.0
2017-10-14T12:30:45Z -46.0552 22.8008 at3901001 1 1468.348 4.8878 4.8878 3.4021 3.4024 1.5596 98.8265 -0.0373 0.0704 1454.0 1034.4085 1034.4109 35.0254 35.0285 1494.56 1494.56 206.728 0.0
2017-10-14T12:30:45Z -46.0552 22.8008 at3901001 1 1469.361 4.883 4.8832 3.4017 3.402 1.5607 98.8306 -0.03 0.0717 1455.0 1034.4132 1034.4159 35.0247 35.0281 1494.56 1494.56 206.984 0.0
2017-10-14T12:30:45Z -46.0552 22.8008 at3901001 1 1470.375 4.8783 4.8785 3.4013 3.4016 1.5613 98.8268 -0.0466 0.0741 1456.0 1034.4184 1034.421 35.0247 35.0279 1494.55 1494.56 207.169 0.0
2017-10-14T12:30:45Z -46.0552 22.8008 at3901001 1 1471.388 4.8726 4.8728 3.4007 3.4011 1.5614 98.8289 -0.0177 0.0642 1457.0 1034.4231 1034.4261 35.0236 35.0276 1494.55 1494.55 207.241 0.0
2017-10-14T12:30:45Z -46.0552 22.8008 at3901001 1 1472.402 4.8649 4.8649 3.4002 3.4004 1.5615 98.8304 -0.0152 0.0695 1458.0 1034.4293 1034.4319 35.0243 35.0276 1494.53 1494.54 207.323 0.0
2017-10-14T12:30:45Z -46.0552 22.8008 at3901001 1 1473.415 4.8636 4.8637 3.4001 3.4004 1.5621 98.829 -0.0225 0.0702 1459.0 1034.4342 1034.4365 35.0245 35.0275 1494.54 1494.55 207.476 0.0
2017-10-14T12:30:45Z -46.0552 22.8008 at3901001 1 1474.428 4.8625 4.8625 3.4 3.4003 1.5625 98.8304 -0.0294 0.0723 1460.0 1034.4387 1034.4412 35.0243 35.0274 1494.56 1494.56 207.587 0.0
2017-10-14T12:30:45Z -46.0552 22.8008 at3901001 1 1475.442 4.8606 4.8607 3.3999 3.4002 1.5627 98.8293 -0.0324 0.0763 1461.0 1034.4435 1034.4459 35.0242 35.0273 1494.56 1494.57 207.661 0.0
2017-10-14T12:30:45Z -46.0552 22.8008 at3901001 1 1476.455 4.8585 4.8586 3.3997 3.4 1.5636 98.8282 -0.0279 0.0733 1462.0 1034.4483 1034.4506 35.0241 35.0271 1494.57 1494.58 207.878 0.0
2017-10-14T12:30:45Z -46.0552 22.8008 at3901001 1 1477.469 4.8555 4.8557 3.3995 3.3997 1.5647 98.8304 -0.0208 0.0753 1463.0 1034.4531 1034.4554 35.0238 35.0268 1494.58 1494.58 208.142 0.0
2017-10-14T12:30:45Z -46.0552 22.8008 at3901001 1 1478.482 4.8514 4.8516 3.3991 3.3994 1.565 98.8293 -0.0238 0.0744 1464.0 1034.4579 1034.4604 35.0235 35.0267 1494.58 1494.58 208.258 0.0
2017-10-14T12:30:45Z -46.0552 22.8008 at3901001 1 1479.496 4.8487 4.8487 3.3989 3.3992 1.5653 98.8304 -0.0178 0.0716 1465.0 1034.4632 1034.4655 35.0238 35.0268 1494.58 1494.59 208.354 0.0
2017-10-14T12:30:45Z -46.0552 22.8008 at3901001 1 1480.509 4.8462 4.8463 3.3988 3.3991 1.5651 98.8304 -0.0312 0.0764 1466.0 1034.4685 1034.4714 35.0243 35.028 1494.59 1494.6 208.356 0.0
2017-10-14T12:30:45Z -46.0552 22.8008 at3901001 1 1481.522 4.8443 4.8441 3.3987 3.399 1.5654 98.8291 -0.0572 0.0709 1467.0 1034.4737 1034.4762 35.0247 35.028 1494.6 1494.6 208.456 0.0
2017-10-14T12:30:45Z -46.0552 22.8008 at3901001 1 1482.536 4.8403 4.8404 3.3984 3.3987 1.5656 98.8231 -0.027 0.0702 1468.0 1034.4789 1034.4813 35.0248 35.028 1494.6 1494.6 208.539 0.0
2017-10-14T12:30:45Z -46.0552 22.8008 at3901001 1 1483.549 4.8375 4.838 3.3982 3.3985 1.5663 98.8293 -0.0248 0.0746 1469.0 1034.4838 1034.4862 35.0247 35.0279 1494.61 1494.61 208.729 0.0
2017-10-14T12:30:45Z -46.0552 22.8008 at3901001 1 1484.563 4.8347 4.8348 3.398 3.3982 1.5664 98.828 -0.028 0.0713 1470.0 1034.4888 1034.4912 35.0247 35.0278 1494.61 1494.62 208.785 0.0
2017-10-14T12:30:45Z -46.0552 22.8008 at3901001 1 1485.576 4.8333 4.8334 3.3979 3.3982 1.5666 98.8303 -0.0526 0.0685 1471.0 1034.4935 1034.4959 35.0247 35.0277 1494.62 1494.63 208.853 0.0
2017-10-14T12:30:45Z -46.0552 22.8008 at3901001 1 1486.59 4.8314 4.8313 3.3978 3.398 1.5666 98.8304 -0.0461 0.0655 1472.0 1034.4984 1034.5007 35.0247 35.0277 1494.63 1494.64 208.892 0.0
2017-10-14T12:30:45Z -46.0552 22.8008 at3901001 1 1487.603 4.8304 4.8304 3.3977 3.398 1.5668 98.8291 -0.0225 0.0705 1473.0 1034.503 1034.5054 35.0246 35.0278 1494.64 1494.65 208.973 0.0
2017-10-14T12:30:45Z -46.0552 22.8008 at3901001 1 1488.617 4.8266 4.8268 3.3974 3.3976 1.5666 98.8304 -0.0157 0.0702 1474.0 1034.5078 1034.5102 35.0242 35.0274 1494.64 1494.65 208.972 0.0
2017-10-14T12:30:45Z -46.0552 22.8008 at3901001 1 1489.63 4.8231 4.8233 3.3971 3.3974 1.5668 98.8259 -0.0164 0.0702 1475.0 1034.5129 1034.5152 35.0243 35.0273 1494.65 1494.65 209.069 0.0
2017-10-14T12:30:45Z -46.0552 22.8008 at3901001 1 1490.644 4.8203 4.8204 3.3969 3.3972 1.5671 98.8302 -0.0154 0.07 1476.0 1034.5179 1034.5202 35.0244 35.0273 1494.65 1494.66 209.17 0.0
2017-10-14T12:30:45Z -46.0552 22.8008 at3901001 1 1491.657 4.8159 4.8159 3.3966 3.3968 1.5678 98.8207 -0.0399 0.0659 1477.0 1034.5233 1034.5258 35.0246 35.0277 1494.65 1494.66 209.366 0.0
2017-10-14T12:30:45Z -46.0552 22.8008 at3901001 1 1492.671 4.811 4.8112 3.3962 3.3965 1.5681 98.8311 -0.0403 0.0705 1478.0 1034.5287 1034.5312 35.0248 35.028 1494.65 1494.65 209.464 0.0
2017-10-14T12:30:45Z -46.0552 22.8008 at3901001 1 1493.684 4.8066 4.8068 3.3959 3.3961 1.5682 98.8304 -0.0196 0.0669 1479.0 1034.5344 1034.5366 35.0253 35.0282 1494.65 1494.65 209.549 0.0
2017-10-14T12:30:45Z -46.0552 22.8008 at3901001 1 1494.698 4.8024 4.8025 3.3955 3.3958 1.5683 98.829 -0.012 0.0641 1480.0 1034.5391 1034.5423 35.0248 35.0288 1494.65 1494.66 209.622 0.0
2017-10-14T12:30:45Z -46.0552 22.8008 at3901001 1 1495.711 4.7919 4.7921 3.3946 3.3949 1.5678 98.829 -0.005 0.0657 1481.0 1034.5454 1034.5482 35.025 35.0286 1494.62 1494.63 209.609 0.0
2017-10-14T12:30:45Z -46.0552 22.8008 at3901001 1 1496.725 4.7813 4.7815 3.3936 3.394 1.5683 98.8304 -0.0443 0.0829 1482.0 1034.5507 1034.5539 35.0238 35.028 1494.59 1494.6 209.795 0.0
2017-10-14T12:30:45Z -46.0552 22.8008 at3901001 1 1497.738 4.7729 4.7731 3.3929 3.3932 1.5695 98.8304 -0.0355 0.0813 1483.0 1034.5567 1034.5592 35.0241 35.0274 1494.58 1494.58 210.101 0.0
2017-10-14T12:30:45Z -46.0552 22.8008 at3901001 1 1498.752 4.7648 4.7649 3.3921 3.3924 1.5708 98.8296 -0.0242 0.0722 1484.0 1034.562 1034.5646 35.0236 35.0269 1494.56 1494.57 210.437 0.0
2017-10-14T12:30:45Z -46.0552 22.8008 at3901001 1 1499.765 4.7616 4.7617 3.3919 3.3922 1.5725 98.8304 -0.0103 0.0764 1485.0 1034.5674 1034.5698 35.024 35.0271 1494.57 1494.57 210.81 0.0
2017-10-14T12:30:45Z -46.0552 22.8008 at3901001 1 1500.779 4.7596 4.7597 3.3918 3.3921 1.5729 98.8326 -0.0463 0.0711 1486.0 1034.5722 1034.5746 35.024 35.027 1494.57 1494.58 210.935 0.0
2017-10-14T12:30:45Z -46.0552 22.8008 at3901001 1 1501.793 4.7574 4.7578 3.3916 3.3919 1.5735 98.8277 -0.0183 0.0702 1487.0 1034.5771 1034.5794 35.0239 35.027 1494.58 1494.59 211.08 0.0
2017-10-14T12:30:45Z -46.0552 22.8008 at3901001 1 1502.806 4.7554 4.7554 3.3915 3.3918 1.5739 98.8304 -0.0057 0.0702 1488.0 1034.5817 1034.5844 35.0236 35.0271 1494.59 1494.59 211.205 0.0
2017-10-14T12:30:45Z -46.0552 22.8008 at3901001 1 1503.82 4.7516 4.7521 3.3912 3.3915 1.5742 98.8318 -0.0127 0.0758 1489.0 1034.5873 1034.5895 35.0243 35.0272 1494.59 1494.6 211.319 0.0
2017-10-14T12:30:45Z -46.0552 22.8008 at3901001 1 1504.833 4.7487 4.7488 3.391 3.3913 1.5748 98.8317 -0.0298 0.0869 1490.0 1034.5922 1034.5947 35.0242 35.0273 1494.6 1494.6 211.485 0.0
2017-10-14T12:30:45Z -46.0552 22.8008 at3901001 1 1505.847 4.7459 4.746 3.3908 3.3911 1.5751 98.8314 -0.0228 0.0708 1491.0 1034.5975 1034.5998 35.0246 35.0276 1494.6 1494.61 211.577 0.0
2017-10-14T12:30:45Z -46.0552 22.8008 at3901001 1 1506.86 4.7443 4.7443 3.3907 3.391 1.5754 98.8278 -0.0484 0.0668 1492.0 1034.6022 1034.6046 35.0245 35.0276 1494.61 1494.62 211.667 0.0
2017-10-14T12:30:45Z -46.0552 22.8008 at3901001 1 1507.874 4.7429 4.743 3.3907 3.3909 1.5762 98.8304 -0.0098 0.0638 1493.0 1034.6072 1034.6096 35.0248 35.0278 1494.63 1494.63 211.875 0.0
2017-10-14T12:30:45Z -46.0552 22.8008 at3901001 1 1508.887 4.7405 4.7406 3.3905 3.3908 1.5765 98.8316 0.0013 0.0579 1494.0 1034.612 1034.6145 35.0247 35.0279 1494.63 1494.64 211.962 0.0
2017-10-14T12:30:45Z -46.0552 22.8008 at3901001 1 1509.901 4.7394 4.7395 3.3904 3.3907 1.5764 98.8304 -0.0146 0.0762 1495.0 1034.6169 1034.6191 35.0249 35.0277 1494.65 1494.65 211.983 0.0
2017-10-14T12:30:45Z -46.0552 22.8008 at3901001 1 1510.915 4.7385 4.7386 3.3904 3.3907 1.5764 98.8317 -0.0117 0.0705 1496.0 1034.6217 1034.6239 35.025 35.0279 1494.66 1494.66 212.016 0.0
2017-10-14T12:30:45Z -46.0552 22.8008 at3901001 1 1511.928 4.7374 4.7376 3.3903 3.3906 1.5763 98.8305 -0.0453 0.0748 1497.0 1034.6264 1034.6285 35.025 35.0278 1494.67 1494.67 212.038 0.0
2017-10-14T12:30:45Z -46.0552 22.8008 at3901001 1 1512.942 4.7357 4.7356 3.3902 3.3905 1.5763 98.8318 -0.0369 0.0763 1498.0 1034.6309 1034.6334 35.0246 35.0278 1494.68 1494.68 212.064 0.0
2017-10-14T12:30:45Z -46.0552 22.8008 at3901001 1 1513.955 4.7327 4.7329 3.39 3.3902 1.5764 98.8304 -0.0101 0.0763 1499.0 1034.6359 1034.6382 35.0246 35.0276 1494.68 1494.69 212.124 0.0
2017-10-14T12:30:45Z -46.0552 22.8008 at3901001 1 1514.969 4.7308 4.7308 3.3898 3.3901 1.5768 98.8312 -0.0112 0.0728 1500.0 1034.6406 1034.643 35.0245 35.0275 1494.69 1494.7 212.246 0.0
2017-10-14T12:30:45Z -46.0552 22.8008 at3901001 1 1515.983 4.7294 4.7295 3.3897 3.39 1.5776 98.8304 -0.0165 0.0753 1501.0 1034.6453 1034.6476 35.0244 35.0274 1494.7 1494.71 212.447 0.0
2017-10-14T12:30:45Z -46.0552 22.8008 at3901001 1 1516.996 4.7267 4.7269 3.3895 3.3898 1.5779 98.8314 -0.0159 0.0704 1502.0 1034.6501 1034.6525 35.0242 35.0273 1494.71 1494.71 212.552 0.0
2017-10-14T12:30:45Z -46.0552 22.8008 at3901001 1 1518.01 4.7224 4.7224 3.3892 3.3894 1.578 98.8334 -0.0174 0.0702 1503.0 1034.6552 1034.6577 35.0241 35.0272 1494.71 1494.71 212.614 0.0
2017-10-14T12:30:45Z -46.0552 22.8008 at3901001 1 1519.023 4.7184 4.7184 3.3889 3.3891 1.5779 98.8313 -0.0245 0.0702 1504.0 1034.6605 1034.6629 35.0243 35.0274 1494.71 1494.71 212.646 0.0
2017-10-14T12:30:45Z -46.0552 22.8008 at3901001 1 1520.037 4.7168 4.717 3.3888 3.389 1.5779 98.8317 -0.0363 0.0723 1505.0 1034.6655 1034.6677 35.0245 35.0273 1494.72 1494.72 212.684 0.0
2017-10-14T12:30:45Z -46.0552 22.8008 at3901001 1 1521.051 4.7157 4.7161 3.3887 3.389 1.5778 98.8318 -0.0196 0.0764 1506.0 1034.6702 1034.6724 35.0245 35.0274 1494.73 1494.74 212.696 0.0
2017-10-14T12:30:45Z -46.0552 22.8008 at3901001 1 1522.064 4.7149 4.715 3.3887 3.389 1.5777 98.8304 -0.0354 0.0763 1507.0 1034.675 1034.6772 35.0247 35.0274 1494.75 1494.75 212.715 0.0
2017-10-14T12:30:45Z -46.0552 22.8008 at3901001 1 1523.078 4.7142 4.7142 3.3887 3.3889 1.5778 98.8317 -0.0357 0.0674 1508.0 1034.6796 1034.6819 35.0246 35.0275 1494.76 1494.77 212.76 0.0
2017-10-14T12:30:45Z -46.0552 22.8008 at3901001 1 1524.092 4.7125 4.7126 3.3886 3.3888 1.5781 98.8305 -0.0395 0.0679 1509.0 1034.6844 1034.6868 35.0246 35.0277 1494.77 1494.78 212.862 0.0
2017-10-14T12:30:45Z -46.0552 22.8008 at3901001 1 1525.105 4.7109 4.7104 3.3885 3.3887 1.5785 98.8304 -0.045 0.0677 1510.0 1034.6893 1034.6918 35.0247 35.0278 1494.78 1494.78 212.983 0.0
2017-10-14T12:30:45Z -46.0552 22.8008 at3901001 1 1526.119 4.709 4.7092 3.3884 3.3886 1.5787 98.8304 -0.0389 0.0769 1511.0 1034.6943 1034.6965 35.025 35.0277 1494.79 1494.79 213.06 0.0
2017-10-14T12:30:45Z -46.0552 22.8008 at3901001 1 1527.133 4.7073 4.707 3.3882 3.3885 1.579 98.8348 -0.0253 0.067 1512.0 1034.699 1034.7014 35.0248 35.0278 1494.8 1494.8 213.158 0.0
2017-10-14T12:30:45Z -46.0552 22.8008 at3901001 1 1528.146 4.7043 4.7045 3.388 3.3883 1.579 98.8342 -0.025 0.0684 1513.0 1034.7042 1034.7066 35.0251 35.0282 1494.81 1494.81 213.201 0.0
2017-10-14T12:30:45Z -46.0552 22.8008 at3901001 1 1529.16 4.701 4.7017 3.3878 3.3881 1.5789 98.8318 -0.0434 0.0702 1514.0 1034.7094 1034.7116 35.0252 35.0282 1494.81 1494.82 213.236 0.0
2017-10-14T12:30:45Z -46.0552 22.8008 at3901001 1 1530.174 4.6964 4.6967 3.3874 3.3877 1.5789 98.8316 -0.0452 0.0727 1515.0 1034.7145 1034.7167 35.0251 35.028 1494.81 1494.81 213.292 0.0
2017-10-14T12:30:45Z -46.0552 22.8008 at3901001 1 1531.187 4.6951 4.6951 3.3874 3.3876 1.579 98.8304 -0.0305 0.0744 1516.0 1034.7195 1034.7218 35.0254 35.0283 1494.82 1494.82 213.338 0.0
2017-10-14T12:30:45Z -46.0552 22.8008 at3901001 1 1532.201 4.6942 4.6943 3.3873 3.3876 1.5791 98.8328 -0.0354 0.0716 1517.0 1034.7244 1034.7266 35.0257 35.0285 1494.83 1494.84 213.382 0.0
2017-10-14T12:30:45Z -46.0552 22.8008 at3901001 1 1533.215 4.6943 4.6943 3.3874 3.3876 1.5792 98.8316 -0.0524 0.0754 1518.0 1034.7289 1034.7311 35.0256 35.0285 1494.85 1494.85 213.431 0.0
2017-10-14T12:30:45Z -46.0552 22.8008 at3901001 1 1534.228 4.6943 4.6943 3.3874 3.3877 1.5796 98.8304 -0.0416 0.0703 1519.0 1034.7335 1034.7357 35.0257 35.0286 1494.87 1494.87 213.548 0.0
2017-10-14T12:30:45Z -46.0552 22.8008 at3901001 1 1535.242 4.6944 4.6943 3.3875 3.3877 1.5802 98.8346 -0.0187 0.0721 1520.0 1034.738 1034.7403 35.0256 35.0286 1494.88 1494.89 213.683 0.0
2017-10-14T12:30:45Z -46.0552 22.8008 at3901001 1 1536.256 4.6927 4.6929 3.3874 3.3877 1.5803 98.8371 -0.0205 0.0764 1521.0 1034.7427 1034.7452 35.0256 35.0287 1494.9 1494.9 213.748 0.0
2017-10-14T12:30:45Z -46.0552 22.8008 at3901001 1 1537.27 4.6889 4.6888 3.3871 3.3873 1.5803 98.8314 -0.0203 0.0713 1522.0 1034.7477 1034.7501 35.0254 35.0284 1494.9 1494.9 213.799 0.0
2017-10-14T12:30:45Z -46.0552 22.8008 at3901001 1 1538.283 4.6862 4.6861 3.3868 3.3871 1.5802 98.8315 0.0102 0.0592 1523.0 1034.7523 1034.755 35.025 35.0284 1494.9 1494.9 213.824 0.0
2017-10-14T12:30:45Z -46.0552 22.8008 at3901001 1 1539.297 4.6809 4.6811 3.3864 3.3867 1.5798 98.8304 -0.0266 0.0696 1524.0 1034.7577 1034.7601 35.0249 35.0281 1494.9 1494.9 213.812 0.0
2017-10-14T12:30:45Z -46.0552 22.8008 at3901001 1 1540.311 4.6787 4.6789 3.3862 3.3865 1.5802 98.837 -0.0303 0.0748 1525.0 1034.7628 1034.765 35.0252 35.0281 1494.9 1494.91 213.918 0.0
2017-10-14T12:30:45Z -46.0552 22.8008 at3901001 1 1541.324 4.6774 4.6774 3.3862 3.3864 1.5802 98.8306 -0.0402 0.0731 1526.0 1034.7676 1034.7698 35.0253 35.0282 1494.91 1494.92 213.953 0.0
2017-10-14T12:30:45Z -46.0552 22.8008 at3901001 1 1542.338 4.6772 4.6772 3.3862 3.3865 1.5795 98.8304 -0.0373 0.0703 1527.0 1034.7721 1034.7744 35.0253 35.0282 1494.93 1494.93 213.854 0.0
2017-10-14T12:30:45Z -46.0552 22.8008 at3901001 1 1543.352 4.676 4.6764 3.3861 3.3864 1.5796 98.8295 -0.0318 0.0723 1528.0 1034.7768 1034.779 35.0252 35.0281 1494.94 1494.95 213.912 0.0
2017-10-14T12:30:45Z -46.0552 22.8008 at3901001 1 1544.366 4.6749 4.6752 3.3861 3.3864 1.5802 98.8336 -0.0289 0.0804 1529.0 1034.7815 1034.7838 35.0252 35.0282 1494.96 1494.96 214.054 0.0
2017-10-14T12:30:45Z -46.0552 22.8008 at3901001 1 1545.379 4.674 4.6743 3.386 3.3863 1.5809 98.8334 -0.0445 0.0762 1530.0 1034.7863 1034.7884 35.0253 35.0281 1494.97 1494.98 214.228 0.0
2017-10-14T12:30:45Z -46.0552 22.8008 at3901001 1 1546.393 4.6732 4.6734 3.386 3.3863 1.5813 98.8365 -0.061 0.07 1531.0 1034.791 1034.7934 35.0253 35.0284 1494.98 1494.99 214.341 0.0
2017-10-14T12:30:45Z -46.0552 22.8008 at3901001 1 1547.407 4.6727 4.6726 3.386 3.3863 1.5811 98.8339 -0.0223 0.0763 1532.0 1034.7958 1034.7981 35.0256 35.0284 1495.0 1495.0 214.342 0.0
2017-10-14T12:30:45Z -46.0552 22.8008 at3901001 1 1548.421 4.6726 4.6728 3.3861 3.3863 1.5805 98.8328 -0.0123 0.0705 1533.0 1034.8006 1034.8027 35.0259 35.0286 1495.01 1495.02 214.24 0.0
2017-10-14T12:30:45Z -46.0552 22.8008 at3901001 1 1549.435 4.672 4.6724 3.3861 3.3864 1.5803 98.8327 -0.021 0.0754 1534.0 1034.8052 1034.8075 35.0258 35.0288 1495.03 1495.04 214.236 0.0
2017-10-14T12:30:45Z -46.0552 22.8008 at3901001 1 1550.448 4.6702 4.6707 3.386 3.3863 1.5803 98.834 -0.0172 0.0717 1535.0 1034.8101 1034.8123 35.0259 35.0289 1495.04 1495.04 214.274 0.0
2017-10-14T12:30:45Z -46.0552 22.8008 at3901001 1 1551.462 4.6686 4.6689 3.3858 3.3861 1.5803 98.8326 -0.0262 0.0745 1536.0 1034.8146 1034.817 35.0256 35.0287 1495.05 1495.05 214.312 0.0
2017-10-14T12:30:45Z -46.0552 22.8008 at3901001 1 1552.476 4.6656 4.6663 3.3856 3.3859 1.5803 98.8315 -0.0123 0.0719 1537.0 1034.8195 1034.8217 35.0253 35.0284 1495.05 1495.06 214.358 0.0
2017-10-14T12:30:45Z -46.0552 22.8008 at3901001 1 1553.49 4.6649 4.6658 3.3856 3.3859 1.5802 98.8324 -0.026 0.0702 1538.0 1034.8241 1034.8262 35.0254 35.0283 1495.07 1495.07 214.372 0.0
2017-10-14T12:30:45Z -46.0552 22.8008 at3901001 1 1554.503 4.6632 4.6646 3.3854 3.3858 1.5802 98.8354 -0.0233 0.0702 1539.0 1034.8289 1034.831 35.0253 35.0283 1495.08 1495.09 214.403 0.0
2017-10-14T12:30:45Z -46.0552 22.8008 at3901001 1 1555.517 4.6613 4.6626 3.3853 3.3857 1.5803 98.8381 -0.0117 0.0713 1540.0 1034.834 1034.836 35.0257 35.0285 1495.09 1495.1 214.469 0.0
2017-10-14T12:30:45Z -46.0552 22.8008 at3901001 1 1556.531 4.6607 4.6613 3.3853 3.3856 1.5805 98.8345 -0.0093 0.0747 1541.0 1034.8386 1034.8407 35.0256 35.0284 1495.1 1495.1 214.546 0.0
2017-10-14T12:30:45Z -46.0552 22.8008 at3901001 1 1557.545 4.6607 4.661 3.3854 3.3856 1.5804 98.8328 0.0044 0.069 1542.0 1034.8433 1034.8453 35.0258 35.0285 1495.12 1495.12 214.546 0.0
2017-10-14T12:30:45Z -46.0552 22.8008 at3901001 1 1558.559 4.6592 4.6595 3.3853 3.3856 1.5804 98.8368 -0.0147 0.0646 1543.0 1034.8481 1034.8506 35.0259 35.0291 1495.13 1495.14 214.584 0.0
2017-10-14T12:30:45Z -46.0552 22.8008 at3901001 1 1559.572 4.652 4.6523 3.3847 3.385 1.5801 98.8329 -0.0161 0.0703 1544.0 1034.8536 1034.8563 35.0257 35.0292 1495.12 1495.12 214.605 0.0
2017-10-14T12:30:45Z -46.0552 22.8008 at3901001 1 1560.586 4.6476 4.6482 3.3843 3.3847 1.5803 98.8326 -0.0225 0.0759 1545.0 1034.8589 1034.8613 35.0259 35.029 1495.12 1495.12 214.698 0.0
2017-10-14T12:30:45Z -46.0552 22.8008 at3901001 1 1561.6 4.6442 4.6471 3.3841 3.3846 1.5806 98.8346 -0.0229 0.0763 1546.0 1034.8641 1034.8657 35.026 35.0287 1495.12 1495.13 214.801 0.0
2017-10-14T12:30:45Z -46.0552 22.8008 at3901001 1 1562.614 4.6425 4.6436 3.384 3.3844 1.5815 98.8378 -0.0035 0.0787 1547.0 1034.8688 1034.8712 35.0259 35.0291 1495.13 1495.14 215.014 0.0
2017-10-14T12:30:45Z -46.0552 22.8008 at3901001 1 1563.628 4.6407 4.6413 3.3839 3.3842 1.5816 98.8361 -0.0059 0.0779 1548.0 1034.8738 1034.876 35.0261 35.029 1495.14 1495.14 215.073 0.0
2017-10-14T12:30:45Z -46.0552 22.8008 at3901001 1 1564.642 4.6385 4.6386 3.3837 3.384 1.5815 98.8371 -0.0145 0.0716 1549.0 1034.8788 1034.881 35.0262 35.029 1495.15 1495.15 215.1 0.0
2017-10-14T12:30:45Z -46.0552 22.8008 at3901001 1 1565.655 4.6385 4.6386 3.3838 3.384 1.5814 98.8342 -0.0135 0.076 1550.0 1034.8834 1034.8855 35.0263 35.0291 1495.16 1495.17 215.095 0.0
2017-10-14T12:30:45Z -46.0552 22.8008 at3901001 1 1566.669 4.6373 4.6374 3.3837 3.384 1.5812 98.8339 -0.0073 0.0705 1551.0 1034.8879 1034.8903 35.0261 35.0291 1495.18 1495.18 215.097 0.0
2017-10-14T12:30:45Z -46.0552 22.8008 at3901001 1 1567.683 4.6349 4.6357 3.3835 3.3838 1.5816 98.8429 -0.0436 0.0702 1552.0 1034.8931 1034.895 35.0263 35.0289 1495.18 1495.19 215.222 0.0
2017-10-14T12:30:45Z -46.0552 22.8008 at3901001 1 1568.697 4.6341 4.6345 3.3835 3.3838 1.5819 98.836 -0.0363 0.0704 1553.0 1034.8977 1034.8998 35.0263 35.029 1495.2 1495.2 215.305 0.0
2017-10-14T12:30:45Z -46.0552 22.8008 at3901001 1 1569.711 4.6325 4.6328 3.3834 3.3837 1.5824 98.8339 -0.0188 0.0612 1554.0 1034.9025 1034.9047 35.0264 35.0292 1495.21 1495.21 215.454 0.0
2017-10-14T12:30:45Z -46.0552 22.8008 at3901001 1 1570.725 4.6316 4.6317 3.3834 3.3836 1.5824 98.8357 -0.0445 0.0684 1555.0 1034.9074 1034.9096 35.0266 35.0293 1495.22 1495.22 215.474 0.0
2017-10-14T12:30:45Z -46.0552 22.8008 at3901001 1 1571.739 4.6302 4.6303 3.3833 3.3836 1.5822 98.8414 -0.0617 0.0726 1556.0 1034.9121 1034.9143 35.0265 35.0293 1495.23 1495.24 215.469 0.0
2017-10-14T12:30:45Z -46.0552 22.8008 at3901001 1 1572.753 4.628 4.6281 3.3831 3.3834 1.582 98.8334 -0.0341 0.0653 1557.0 1034.917 1034.9192 35.0265 35.0293 1495.24 1495.24 215.489 0.0
2017-10-14T12:30:45Z -46.0552 22.8008 at3901001 1 1573.766 4.6266 4.6269 3.383 3.3833 1.5823 98.8342 -0.0429 0.0728 1558.0 1034.9217 1034.9239 35.0265 35.0293 1495.25 1495.25 215.583 0.0
2017-10-14T12:30:45Z -46.0552 22.8008 at3901001 1 1574.78 4.6247 4.6252 3.3829 3.3832 1.5826 98.8361 -0.0257 0.0794 1559.0 1034.9265 1034.9286 35.0264 35.0292 1495.26 1495.26 215.667 0.0
2017-10-14T12:30:45Z -46.0552 22.8008 at3901001 1 1575.794 4.6182 4.6185 3.3823 3.3827 1.5818 98.84 -0.0458 0.0763 1560.0 1034.9317 1034.9344 35.0261 35.0295 1495.25 1495.25 215.581 0.0
2017-10-14T12:30:45Z -46.0552 22.8008 at3901001 1 1576.808 4.6127 4.613 3.3819 3.3822 1.5818 98.8478 -0.0314 0.0713 1561.0 1034.9374 1034.9398 35.0265 35.0296 1495.24 1495.25 215.648 0.0
2017-10-14T12:30:45Z -46.0552 22.8008 at3901001 1 1577.822 4.6125 4.6129 3.382 3.3822 1.5821 98.8406 -0.0245 0.0702 1562.0 1034.9421 1034.944 35.0266 35.0291 1495.26 1495.26 215.738 0.0
2017-10-14T12:30:45Z -46.0552 22.8008 at3901001 1 1578.836 4.6121 4.6121 3.382 3.3822 1.5826 98.8425 -0.0349 0.0669 1563.0 1034.9466 1034.9488 35.0265 35.0293 1495.28 1495.28 215.861 0.0
2017-10-14T12:30:45Z -46.0552 22.8008 at3901001 1 1579.85 4.6116 4.6116 3.3819 3.3822 1.5825 98.8424 -0.0517 0.0679 1564.0 1034.9512 1034.9533 35.0264 35.0291 1495.29 1495.29 215.866 0.0
2017-10-14T12:30:45Z -46.0552 22.8008 at3901001 1 1580.864 4.6113 4.6115 3.382 3.3822 1.5824 98.837 -0.0252 0.0795 1565.0 1034.9558 1034.9579 35.0264 35.0291 1495.31 1495.31 215.883 0.0
2017-10-14T12:30:45Z -46.0552 22.8008 at3901001 1 1581.878 4.6097 4.6098 3.3819 3.3821 1.5823 98.8412 -0.0323 0.0703 1566.0 1034.9606 1034.9629 35.0265 35.0294 1495.31 1495.32 215.901 0.0
2017-10-14T12:30:45Z -46.0552 22.8008 at3901001 1 1582.892 4.6079 4.6075 3.3817 3.382 1.582 98.8407 -0.0307 0.0765 1567.0 1034.9653 1034.9679 35.0262 35.0295 1495.32 1495.33 215.878 0.0
2017-10-14T12:30:45Z -46.0552 22.8008 at3901001 1 1583.905 4.6049 4.6053 3.3815 3.3818 1.5818 98.8402 -0.0342 0.0763 1568.0 1034.9705 1034.9726 35.0265 35.0293 1495.33 1495.34 215.89 0.0
2017-10-14T12:30:45Z -46.0552 22.8008 at3901001 1 1584.919 4.6015 4.6014 3.3812 3.3815 1.5821 98.8405 -0.0301 0.0737 1569.0 1034.9753 1034.9778 35.0262 35.0293 1495.33 1495.34 215.994 0.0
2017-10-14T12:30:45Z -46.0552 22.8008 at3901001 1 1585.933 4.5997 4.5998 3.3811 3.3814 1.5823 98.8416 -0.0349 0.0677 1570.0 1034.9802 1034.9824 35.0263 35.0292 1495.34 1495.35 216.084 0.0
2017-10-14T12:30:45Z -46.0552 22.8008 at3901001 1 1586.947 4.5957 4.5959 3.3807 3.381 1.5828 98.8335 -0.0198 0.0681 1571.0 1034.9849 1034.9872 35.0257 35.0288 1495.34 1495.35 216.228 0.0
2017-10-14T12:30:45Z -46.0552 22.8008 at3901001 1 1587.961 4.5841 4.5844 3.3797 3.38 1.583 98.8383 -0.0251 0.0727 1572.0 1034.9904 1034.9931 35.0248 35.0283 1495.31 1495.32 216.369 0.0
2017-10-14T12:30:45Z -46.0552 22.8008 at3901001 1 1588.975 4.5729 4.5734 3.3787 3.379 1.5838 98.8378 -0.0169 0.0765 1573.0 1034.9965 1034.9992 35.0247 35.0281 1495.28 1495.29 216.614 0.0
2017-10-14T12:30:45Z -46.0552 22.8008 at3901001 1 1589.989 4.5677 4.5679 3.3783 3.3785 1.5842 98.8371 -0.0242 0.0763 1574.0 1035.0023 1035.0043 35.0252 35.0278 1495.28 1495.28 216.766 0.0
2017-10-14T12:30:45Z -46.0552 22.8008 at3901001 1 1591.003 4.5664 4.5666 3.3782 3.3785 1.5844 98.8443 -0.0293 0.0763 1575.0 1035.0065 1035.0091 35.0245 35.0278 1495.29 1495.29 216.832 0.0
2017-10-14T12:30:45Z -46.0552 22.8008 at3901001 1 1592.017 4.5577 4.5575 3.3774 3.3777 1.5845 98.8458 -0.0312 0.0763 1576.0 1035.0121 1035.0148 35.0242 35.0276 1495.27 1495.27 216.948 0.0
2017-10-14T12:30:45Z -46.0552 22.8008 at3901001 1 1593.031 4.554 4.5542 3.3771 3.3774 1.5853 98.8415 -0.0219 0.0714 1577.0 1035.0175 1035.0198 35.0245 35.0275 1495.27 1495.28 217.153 0.0
2017-10-14T12:30:45Z -46.0552 22.8008 at3901001 1 1594.045 4.5524 4.5525 3.377 3.3773 1.5856 98.8399 -0.0083 0.0742 1578.0 1035.0224 1035.0245 35.0247 35.0275 1495.28 1495.28 217.238 0.0
2017-10-14T12:30:45Z -46.0552 22.8008 at3901001 1 1595.059 4.5517 4.5518 3.377 3.3773 1.5865 98.8345 -0.0361 0.0762 1579.0 1035.027 1035.0293 35.0246 35.0276 1495.3 1495.3 217.456 0.0
2017-10-14T12:30:45Z -46.0552 22.8008 at3901001 1 1596.073 4.5502 4.5504 3.3769 3.3772 1.5868 98.8426 -0.0055 0.0717 1580.0 1035.0318 1035.0338 35.0247 35.0273 1495.31 1495.31 217.555 0.0
2017-10-14T12:30:45Z -46.0552 22.8008 at3901001 1 1597.087 4.5479 4.5483 3.3767 3.377 1.587 98.8441 -0.0408 0.0756 1581.0 1035.0364 1035.0387 35.0243 35.0273 1495.31 1495.32 217.639 0.0
2017-10-14T12:30:45Z -46.0552 22.8008 at3901001 1 1598.101 4.546 4.5461 3.3766 3.3769 1.5872 98.8384 -0.0301 0.0637 1582.0 1035.0416 1035.0437 35.0247 35.0275 1495.32 1495.33 217.714 0.0
2017-10-14T12:30:45Z -46.0552 22.8008 at3901001 1 1599.115 4.5461 4.5462 3.3767 3.3769 1.5879 98.8456 -0.019 0.0769 1583.0 1035.0462 1035.0483 35.0248 35.0275 1495.34 1495.34 217.89 0.0
2017-10-14T12:30:45Z -46.0552 22.8008 at3901001 1 1600.129 4.545 4.5452 3.3766 3.3769 1.5877 98.8397 -0.0256 0.072 1584.0 1035.0507 1035.0529 35.0245 35.0274 1495.35 1495.36 217.883 0.0
2017-10-14T12:30:45Z -46.0552 22.8008 at3901001 1 1601.143 4.5404 4.5405 3.3762 3.3765 1.5879 98.8368 -0.0225 0.0665 1585.0 1035.0558 1035.0583 35.0244 35.0277 1495.35 1495.35 217.987 0.0
2017-10-14T12:30:45Z -46.0552 22.8008 at3901001 1 1602.157 4.5305 4.5309 3.3753 3.3757 1.5877 98.8442 -0.0205 0.0702 1586.0 1035.0612 1035.0642 35.0236 35.0275 1495.32 1495.33 218.026 0.0
2017-10-14T12:30:45Z -46.0552 22.8008 at3901001 1 1603.171 4.52 4.5205 3.3745 3.3747 1.5874 98.8392 -0.0422 0.0702 1587.0 1035.0677 1035.0698 35.0241 35.0269 1495.3 1495.31 218.068 0.0
2017-10-14T12:30:45Z -46.0552 22.8008 at3901001 1 1604.185 4.5162 4.5171 3.3741 3.3745 1.5879 98.8323 -0.012 0.0702 1588.0 1035.0726 1035.0748 35.0238 35.0268 1495.3 1495.31 218.216 0.0
2017-10-14T12:30:45Z -46.0552 22.8008 at3901001 1 1605.199 4.5146 4.5151 3.3741 3.3743 1.5881 98.8326 -0.0191 0.072 1589.0 1035.0776 1035.0795 35.024 35.0267 1495.31 1495.32 218.29 0.0
2017-10-14T12:30:45Z -46.0552 22.8008 at3901001 1 1606.213 4.5135 4.5138 3.374 3.3742 1.5884 98.8326 -0.0338 0.0742 1590.0 1035.0823 1035.0843 35.024 35.0266 1495.32 1495.33 218.383 0.0
2017-10-14T12:30:45Z -46.0552 22.8008 at3901001 1 1607.227 4.5125 4.5124 3.3739 3.3742 1.5892 98.8447 -0.0297 0.0702 1591.0 1035.0868 1035.0891 35.0239 35.0268 1495.34 1495.34 218.578 0.0
2017-10-14T12:30:45Z -46.0552 22.8008 at3901001 1 1608.241 4.511 4.511 3.3738 3.3741 1.5892 98.8459 -0.0214 0.073 1592.0 1035.0917 1035.0936 35.0239 35.0265 1495.35 1495.35 218.622 0.0
2017-10-14T12:30:45Z -46.0552 22.8008 at3901001 1 1609.255 4.5101 4.5105 3.3738 3.3741 1.5894 98.8471 -0.0418 0.0721 1593.0 1035.0963 1035.0983 35.0239 35.0265 1495.36 1495.36 218.69 0.0
2017-10-14T12:30:45Z -46.0552 22.8008 at3901001 1 1610.269 4.5091 4.5093 3.3738 3.374 1.5894 98.8478 -0.0218 0.0818 1594.0 1035.1011 1035.1031 35.024 35.0266 1495.37 1495.38 218.73 0.0
2017-10-14T12:30:45Z -46.0552 22.8008 at3901001 1 1611.284 4.5081 4.5085 3.3737 3.374 1.5894 98.8448 -0.0339 0.0765 1595.0 1035.1058 1035.1078 35.024 35.0266 1495.39 1495.39 218.753 0.0
2017-10-14T12:30:45Z -46.0552 22.8008 at3901001 1 1612.298 4.5056 4.5065 3.3735 3.3738 1.5894 98.8424 -0.0064 0.0763 1596.0 1035.1107 1035.1127 35.024 35.0266 1495.39 1495.4 218.811 0.0
2017-10-14T12:30:45Z -46.0552 22.8008 at3901001 1 1613.312 4.5018 4.5014 3.3732 3.3734 1.5893 98.8443 -0.001 0.08 1597.0 1035.1153 1035.118 35.0233 35.0266 1495.39 1495.39 218.838 0.0
2017-10-14T12:30:45Z -46.0552 22.8008 at3901001 1 1614.326 4.4942 4.494 3.3725 3.3728 1.5892 98.8424 -0.0159 0.0755 1598.0 1035.1209 1035.1235 35.0232 35.0265 1495.38 1495.38 218.9 0.0
2017-10-14T12:30:45Z -46.0552 22.8008 at3901001 1 1615.34 4.485 4.4847 3.3717 3.372 1.5891 98.8441 -0.0264 0.0713 1599.0 1035.1267 1035.1294 35.023 35.0265 1495.36 1495.36 218.954 0.0
2017-10-14T12:30:45Z -46.0552 22.8008 at3901001 1 1616.354 4.4738 4.4739 3.3707 3.371 1.5895 98.84 -0.0196 0.0787 1600.0 1035.1329 1035.1353 35.023 35.0261 1495.33 1495.33 219.126 0.0
2017-10-14T12:30:45Z -46.0552 22.8008 at3901001 1 1617.368 4.4674 4.4676 3.3702 3.3705 1.5902 98.8381 -0.0361 0.0719 1601.0 1035.1384 1035.1409 35.0231 35.0262 1495.32 1495.32 219.336 0.0
2017-10-14T12:30:45Z -46.0552 22.8008 at3901001 1 1618.382 4.4637 4.4641 3.37 3.3702 1.5906 98.8382 -0.0279 0.0787 1602.0 1035.1439 1035.1459 35.0236 35.0262 1495.32 1495.33 219.474 0.0
2017-10-14T12:30:45Z -46.0552 22.8008 at3901001 1 1619.396 4.4628 4.4628 3.3699 3.3702 1.591 98.8344 -0.0242 0.0809 1603.0 1035.1487 1035.1507 35.0237 35.0263 1495.34 1495.34 219.593 0.0
2017-10-14T12:30:45Z -46.0552 22.8008 at3901001 1 1620.41 4.4614 4.4617 3.3699 3.3701 1.5912 98.8429 -4.0E-4 0.0763 1604.0 1035.1534 1035.1553 35.0237 35.0261 1495.34 1495.35 219.667 0.0
2017-10-14T12:30:45Z -46.0552 22.8008 at3901001 1 1621.424 4.4607 4.461 3.3698 3.3701 1.5917 98.8389 -0.0342 0.0703 1605.0 1035.1581 1035.1601 35.0237 35.0262 1495.36 1495.36 219.795 0.0
2017-10-14T12:30:45Z -46.0552 22.8008 at3901001 1 1622.438 4.4604 4.4607 3.3699 3.3701 1.5918 98.8442 -0.0161 0.0702 1606.0 1035.1628 1035.1647 35.0238 35.0262 1495.38 1495.38 219.846 0.0
2017-10-14T12:30:45Z -46.0552 22.8008 at3901001 1 1623.453 4.4601 4.4601 3.3699 3.3701 1.592 98.8473 -0.0193 0.0795 1607.0 1035.1672 1035.1694 35.0236 35.0264 1495.39 1495.39 219.914 0.0
2017-10-14T12:30:45Z -46.0552 22.8008 at3901001 1 1624.467 4.4602 4.4605 3.3699 3.3701 1.5919 98.841 -0.0417 0.0762 1608.0 1035.1718 1035.1737 35.0236 35.0261 1495.41 1495.41 219.935 0.0
2017-10-14T12:30:45Z -46.0552 22.8008 at3901001 1 1625.481 4.4601 4.4602 3.37 3.3702 1.592 98.8512 -0.0328 0.0763 1609.0 1035.1766 1035.1786 35.0239 35.0265 1495.43 1495.43 219.968 0.0
2017-10-14T12:30:45Z -46.0552 22.8008 at3901001 1 1626.495 4.4601 4.4604 3.37 3.3703 1.592 98.846 -0.0326 0.0772 1610.0 1035.1812 1035.1831 35.024 35.0265 1495.44 1495.45 219.999 0.0
2017-10-14T12:30:45Z -46.0552 22.8008 at3901001 1 1627.509 4.4602 4.4602 3.3701 3.3703 1.5917 98.8417 -0.0327 0.0823 1611.0 1035.1857 1035.1878 35.024 35.0267 1495.46 1495.46 219.978 0.0
2017-10-14T12:30:45Z -46.0552 22.8008 at3901001 1 1628.523 4.4602 4.4605 3.3701 3.3703 1.5918 98.8443 -0.0263 0.0717 1612.0 1035.1902 1035.192 35.0239 35.0263 1495.48 1495.48 220.032 0.0
2017-10-14T12:30:45Z -46.0552 22.8008 at3901001 1 1629.537 4.46 4.4602 3.3701 3.3704 1.5918 98.8532 -0.051 0.0752 1613.0 1035.1947 1035.1967 35.0238 35.0264 1495.49 1495.5 220.047 0.0
2017-10-14T12:30:45Z -46.0552 22.8008 at3901001 1 1630.552 4.4585 4.4589 3.37 3.3703 1.5918 98.8436 -0.057 0.0763 1614.0 1035.1991 1035.2015 35.0234 35.0265 1495.5 1495.51 220.09 0.0
2017-10-14T12:30:45Z -46.0552 22.8008 at3901001 1 1631.566 4.4486 4.4487 3.3692 3.3694 1.591 98.8442 -0.0432 0.0763 1615.0 1035.2054 1035.2076 35.0236 35.0265 1495.48 1495.48 220.019 0.0
2017-10-14T12:30:45Z -46.0552 22.8008 at3901001 1 1632.58 4.4413 4.4417 3.3685 3.3688 1.5909 98.848 -0.0289 0.0785 1616.0 1035.2105 1035.2131 35.023 35.0264 1495.46 1495.47 220.065 0.0
2017-10-14T12:30:45Z -46.0552 22.8008 at3901001 1 1633.594 4.4333 4.4335 3.3679 3.3681 1.5908 98.8443 -0.0168 0.0824 1617.0 1035.2168 1035.219 35.0237 35.0266 1495.45 1495.45 220.122 0.0
2017-10-14T12:30:45Z -46.0552 22.8008 at3901001 1 1634.608 4.4314 4.4313 3.3678 3.368 1.5908 98.8437 -0.0481 0.0824 1618.0 1035.2218 1035.224 35.0239 35.0267 1495.46 1495.46 220.163 0.0
2017-10-14T12:30:45Z -46.0552 22.8008 at3901001 1 1635.622 4.4298 4.43 3.3677 3.3679 1.5911 98.8422 -0.0373 0.0824 1619.0 1035.2267 1035.2288 35.0241 35.0267 1495.47 1495.47 220.271 0.0
2017-10-14T12:30:45Z -46.0552 22.8008 at3901001 1 1636.637 4.4286 4.4286 3.3676 3.3678 1.5914 98.853 -0.0344 0.0686 1620.0 1035.2314 1035.2335 35.0241 35.0268 1495.48 1495.48 220.375 0.0
2017-10-14T12:30:45Z -46.0552 22.8008 at3901001 1 1637.651 4.4273 4.4275 3.3676 3.3678 1.5914 98.849 -0.0113 0.0671 1621.0 1035.2364 1035.2382 35.0243 35.0267 1495.49 1495.5 220.407 0.0
2017-10-14T12:30:45Z -46.0552 22.8008 at3901001 1 1638.665 4.4271 4.4272 3.3676 3.3678 1.5918 98.8458 -0.0164 0.0701 1622.0 1035.2407 1035.2428 35.024 35.0267 1495.51 1495.51 220.508 0.0
2017-10-14T12:30:45Z -46.0552 22.8008 at3901001 1 1639.679 4.4221 4.422 3.3671 3.3674 1.5919 98.8431 -0.0198 0.074 1623.0 1035.2452 1035.248 35.023 35.0266 1495.51 1495.51 220.587 0.0
2017-10-14T12:30:45Z -46.0552 22.8008 at3901001 1 1640.693 4.4113 4.4105 3.3661 3.3663 1.592 98.8486 -0.0305 0.0765 1624.0 1035.251 1035.2537 35.0225 35.0258 1495.48 1495.48 220.713 0.0
2017-10-14T12:30:45Z -46.0552 22.8008 at3901001 1 1641.708 4.3998 4.4001 3.3651 3.3654 1.5925 98.8516 -0.0191 0.0763 1625.0 1035.2571 1035.2595 35.0223 35.0254 1495.45 1495.45 220.906 0.0
2017-10-14T12:30:45Z -46.0552 22.8008 at3901001 1 1642.722 4.3994 4.3996 3.3651 3.3653 1.5926 98.8544 -0.0162 0.0726 1626.0 1035.2619 1035.2639 35.0226 35.0252 1495.46 1495.47 220.963 0.0
2017-10-14T12:30:45Z -46.0552 22.8008 at3901001 1 1643.736 4.3976 4.3979 3.3649 3.3652 1.5928 98.8456 -0.0285 0.0703 1627.0 1035.2662 1035.2687 35.022 35.0252 1495.47 1495.48 221.049 0.0
2017-10-14T12:30:45Z -46.0552 22.8008 at3901001 1 1644.75 4.3927 4.3926 3.3645 3.3648 1.5929 98.84 -0.0178 0.0702 1628.0 1035.2715 1035.2741 35.022 35.0252 1495.47 1495.47 221.132 0.0
2017-10-14T12:30:45Z -46.0552 22.8008 at3901001 1 1645.765 4.3856 4.3859 3.3639 3.3642 1.593 98.8517 -0.0245 0.0631 1629.0 1035.2768 1035.2794 35.0215 35.0249 1495.45 1495.46 221.212 0.0
2017-10-14T12:30:45Z -46.0552 22.8008 at3901001 1 1646.779 4.3813 4.3812 3.3636 3.3638 1.5929 98.8437 -0.0263 0.058 1630.0 1035.2824 1035.2846 35.022 35.0249 1495.45 1495.46 221.26 0.0
2017-10-14T12:30:45Z -46.0552 22.8008 at3901001 1 1647.793 4.38 4.3802 3.3635 3.3638 1.593 98.8449 -0.0269 0.0638 1631.0 1035.287 1035.2891 35.0218 35.0246 1495.47 1495.47 221.316 0.0
2017-10-14T12:30:45Z -46.0552 22.8008 at3901001 1 1648.807 4.3783 4.3784 3.3634 3.3636 1.5932 98.8434 -0.0306 0.0641 1632.0 1035.2917 1035.2939 35.0217 35.0246 1495.48 1495.48 221.394 0.0
2017-10-14T12:30:45Z -46.0552 22.8008 at3901001 1 1649.821 4.3767 4.3746 3.3632 3.3633 1.5941 98.8459 -0.0085 0.0794 1633.0 1035.2958 1035.2988 35.0209 35.0243 1495.48 1495.48 221.602 0.0
2017-10-14T12:30:45Z -46.0552 22.8008 at3901001 1 1650.836 4.3564 4.3565 3.3614 3.3617 1.5945 98.8437 -0.0123 0.0763 1634.0 1035.3033 1035.306 35.0208 35.0243 1495.42 1495.42 221.846 0.0
2017-10-14T12:30:45Z -46.0552 22.8008 at3901001 1 1651.85 4.3529 4.3531 3.3612 3.3615 1.5945 98.8459 -0.0123 0.0763 1635.0 1035.3089 1035.311 35.0215 35.0243 1495.42 1495.42 221.896 0.0
2017-10-14T12:30:45Z -46.0552 22.8008 at3901001 1 1652.864 4.3507 4.351 3.3611 3.3613 1.5945 98.8464 -0.0108 0.0745 1636.0 1035.3141 1035.316 35.0219 35.0244 1495.43 1495.43 221.938 0.0
2017-10-14T12:30:45Z -46.0552 22.8008 at3901001 1 1653.878 4.3499 4.3502 3.3611 3.3613 1.5945 98.8497 -0.0371 0.0705 1637.0 1035.3189 1035.3207 35.022 35.0244 1495.44 1495.45 221.972 0.0
2017-10-14T12:30:45Z -46.0552 22.8008 at3901001 1 1654.893 4.3485 4.3486 3.361 3.3612 1.5948 98.8414 -0.046 0.0763 1638.0 1035.3237 1035.3258 35.0221 35.0248 1495.45 1495.46 222.071 0.0
2017-10-14T12:30:45Z -46.0552 22.8008 at3901001 1 1655.907 4.3464 4.3465 3.3608 3.3611 1.5948 98.8502 -0.0283 0.067 1639.0 1035.3285 1035.3308 35.022 35.025 1495.46 1495.47 222.117 0.0
2017-10-14T12:30:45Z -46.0552 22.8008 at3901001 1 1656.921 4.3451 4.3453 3.3608 3.361 1.595 98.8461 -0.0348 0.0589 1640.0 1035.3334 1035.3355 35.0223 35.025 1495.47 1495.48 222.181 0.0
2017-10-14T12:30:45Z -46.0552 22.8008 at3901001 1 1657.935 4.3437 4.3437 3.3607 3.3609 1.5949 98.8444 -0.0508 0.0761 1641.0 1035.3381 1035.3404 35.0221 35.0251 1495.48 1495.49 222.21 0.0
2017-10-14T12:30:45Z -46.0552 22.8008 at3901001 1 1658.95 4.3359 4.3363 3.36 3.3603 1.5945 98.8478 -0.0424 0.0763 1642.0 1035.3432 1035.3458 35.0214 35.0248 1495.47 1495.48 222.206 0.0
2017-10-14T12:30:45Z -46.0552 22.8008 at3901001 1 1659.964 4.3314 4.3305 3.3597 3.3598 1.5949 98.8483 -0.0265 0.0786 1643.0 1035.349 1035.3513 35.0221 35.0249 1495.47 1495.47 222.341 0.0
2017-10-14T12:30:45Z -46.0552 22.8008 at3901001 1 1660.978 4.3258 4.3255 3.3591 3.3594 1.5955 98.8518 -0.0239 0.0771 1644.0 1035.3536 1035.3564 35.0212 35.0246 1495.46 1495.47 222.532 0.0
2017-10-14T12:30:45Z -46.0552 22.8008 at3901001 1 1661.993 4.3193 4.3199 3.3586 3.3589 1.5957 98.8485 -0.0177 0.0702 1645.0 1035.3597 1035.3618 35.0218 35.0246 1495.45 1495.46 222.639 0.0
2017-10-14T12:30:45Z -46.0552 22.8008 at3901001 1 1663.007 4.316 4.3167 3.3584 3.3587 1.5957 98.8469 0.0 0.0702 1646.0 1035.3646 1035.3669 35.0217 35.0248 1495.46 1495.46 222.697 0.0
2017-10-14T12:30:45Z -46.0552 22.8008 at3901001 1 1664.021 4.313 4.3137 3.3582 3.3585 1.5958 98.8555 -0.0135 0.0762 1647.0 1035.3697 1035.3718 35.0219 35.0246 1495.46 1495.47 222.755 0.0
2017-10-14T12:30:45Z -46.0552 22.8008 at3901001 1 1665.036 4.3116 4.3119 3.3581 3.3583 1.5957 98.8553 -0.0238 0.0763 1648.0 1035.3745 1035.3765 35.0219 35.0245 1495.47 1495.48 222.778 0.0
2017-10-14T12:30:45Z -46.0552 22.8008 at3901001 1 1666.05 4.3084 4.3089 3.3578 3.3581 1.5955 98.8555 -0.0322 0.0733 1649.0 1035.3793 1035.3817 35.0216 35.0248 1495.47 1495.48 222.789 0.0
2017-10-14T12:30:45Z -46.0552 22.8008 at3901001 1 1667.064 4.3015 4.3019 3.3572 3.3575 1.5951 98.847 -0.0215 0.0644 1650.0 1035.3845 1035.3869 35.0211 35.0242 1495.46 1495.47 222.783 0.0
2017-10-14T12:30:45Z -46.0552 22.8008 at3901001 1 1668.079 4.299 4.2991 3.357 3.3573 1.5949 98.8521 -0.026 0.0641 1651.0 1035.3895 1035.3917 35.0212 35.0241 1495.47 1495.47 222.782 0.0
2017-10-14T12:30:45Z -46.0552 22.8008 at3901001 1 1669.093 4.2943 4.2939 3.3566 3.3568 1.5955 98.852 -0.0373 0.0731 1652.0 1035.3944 1035.3968 35.0208 35.0238 1495.47 1495.47 222.953 0.0
2017-10-14T12:30:45Z -46.0552 22.8008 at3901001 1 1670.107 4.2916 4.2915 3.3564 3.3566 1.5961 98.8534 -0.0302 0.0701 1653.0 1035.3993 1035.4014 35.0207 35.0234 1495.47 1495.47 223.124 0.0
2017-10-14T12:30:45Z -46.0552 22.8008 at3901001 1 1671.122 4.2909 4.2912 3.3564 3.3566 1.5966 98.8496 -0.0211 0.084 1654.0 1035.404 1035.406 35.0209 35.0234 1495.49 1495.49 223.262 0.0
2017-10-14T12:30:45Z -46.0552 22.8008 at3901001 1 1672.136 4.2908 4.291 3.3564 3.3566 1.5971 98.849 -0.0337 0.0878 1655.0 1035.4087 1035.4106 35.021 35.0234 1495.5 1495.51 223.386 0.0
2017-10-14T12:30:45Z -46.0552 22.8008 at3901001 1 1673.15 4.2909 4.2909 3.3565 3.3567 1.5966 98.8559 -0.0263 0.0806 1656.0 1035.4132 1035.4153 35.0209 35.0236 1495.52 1495.52 223.32 0.0
2017-10-14T12:30:45Z -46.0552 22.8008 at3901001 1 1674.165 4.2905 4.2906 3.3564 3.3567 1.5964 98.8538 -0.0119 0.0792 1657.0 1035.4176 1035.4198 35.0207 35.0235 1495.54 1495.54 223.308 0.0
2017-10-14T12:30:45Z -46.0552 22.8008 at3901001 1 1675.179 4.2857 4.2859 3.356 3.3563 1.5963 98.8503 -0.0084 0.0691 1658.0 1035.4227 1035.4248 35.0204 35.0232 1495.53 1495.54 223.351 0.0
2017-10-14T12:30:45Z -46.0552 22.8008 at3901001 1 1676.194 4.2845 4.2849 3.356 3.3562 1.5966 98.8547 -0.0111 0.0722 1659.0 1035.4275 1035.4294 35.0205 35.023 1495.54 1495.55 223.452 0.0
2017-10-14T12:30:45Z -46.0552 22.8008 at3901001 1 1677.208 4.2839 4.2841 3.356 3.3562 1.5962 98.8543 -0.0235 0.066 1660.0 1035.4322 1035.4342 35.0206 35.0232 1495.56 1495.56 223.41 0.0
2017-10-14T12:30:45Z -46.0552 22.8008 at3901001 1 1678.222 4.2833 4.2835 3.356 3.3562 1.5961 98.8524 -0.0169 0.0764 1661.0 1035.4369 1035.439 35.0207 35.0234 1495.57 1495.58 223.404 0.0
2017-10-14T12:30:45Z -46.0552 22.8008 at3901001 1 1679.237 4.2785 4.2789 3.3556 3.3559 1.5964 98.8546 -0.0505 0.0766 1662.0 1035.4422 1035.4444 35.0207 35.0236 1495.57 1495.57 223.531 0.0
2017-10-14T12:30:45Z -46.0552 22.8008 at3901001 1 1680.251 4.2765 4.2767 3.3555 3.3557 1.5959 98.8519 -0.0012 0.0816 1663.0 1035.4471 1035.4493 35.0208 35.0236 1495.58 1495.58 223.476 0.0
2017-10-14T12:30:45Z -46.0552 22.8008 at3901001 1 1681.266 4.2712 4.2718 3.355 3.3553 1.5959 98.856 -0.0274 0.075 1664.0 1035.4519 1035.4543 35.0202 35.0233 1495.57 1495.58 223.536 0.0
2017-10-14T12:30:45Z -46.0552 22.8008 at3901001 1 1682.28 4.2656 4.2659 3.3545 3.3548 1.5959 98.8485 -0.0183 0.0685 1665.0 1035.4572 1035.4595 35.02 35.023 1495.57 1495.57 223.591 0.0
2017-10-14T12:30:45Z -46.0552 22.8008 at3901001 1 1683.294 4.2572 4.2577 3.3537 3.354 1.596 98.8437 -0.0308 0.0672 1666.0 1035.462 1035.4648 35.0187 35.0224 1495.55 1495.55 223.695 0.0
2017-10-14T12:30:45Z -46.0552 22.8008 at3901001 1 1684.309 4.2481 4.2482 3.353 3.3532 1.5959 98.8488 -0.05 0.0738 1667.0 1035.4688 1035.4709 35.0199 35.0226 1495.53 1495.53 223.77 0.0
2017-10-14T12:30:45Z -46.0552 22.8008 at3901001 1 1685.323 4.2474 4.2477 3.353 3.3532 1.596 98.8547 -0.0302 0.0659 1668.0 1035.4734 1035.4754 35.0199 35.0224 1495.54 1495.55 223.813 0.0
2017-10-14T12:30:45Z -46.0552 22.8008 at3901001 1 1686.337 4.2455 4.2458 3.3528 3.3531 1.596 98.8536 -0.0276 0.071 1669.0 1035.4781 1035.4804 35.0197 35.0226 1495.55 1495.56 223.856 0.0
2017-10-14T12:30:45Z -46.0552 22.8008 at3901001 1 1687.352 4.2424 4.2427 3.3526 3.3528 1.5965 98.8547 -0.0328 0.0764 1670.0 1035.4833 1035.4851 35.0199 35.0223 1495.55 1495.56 224.021 0.0
2017-10-14T12:30:45Z -46.0552 22.8008 at3901001 1 1688.366 4.2413 4.2415 3.3525 3.3528 1.5967 98.8571 -0.0301 0.0763 1671.0 1035.4879 1035.4901 35.0198 35.0226 1495.56 1495.57 224.096 0.0
2017-10-14T12:30:45Z -46.0552 22.8008 at3901001 1 1689.381 4.2402 4.2405 3.3525 3.3527 1.5961 98.852 -0.0256 0.0763 1672.0 1035.4928 1035.4946 35.02 35.0224 1495.58 1495.58 224.0 0.0
2017-10-14T12:30:45Z -46.0552 22.8008 at3901001 1 1690.395 4.2395 4.2395 3.3525 3.3527 1.596 98.8571 -0.0526 0.0763 1673.0 1035.4974 1035.4994 35.0199 35.0225 1495.59 1495.6 224.019 0.0
2017-10-14T12:30:45Z -46.0552 22.8008 at3901001 1 1691.41 4.239 4.2393 3.3525 3.3527 1.596 98.857 -0.0347 0.0706 1674.0 1035.5021 1035.504 35.02 35.0225 1495.61 1495.61 224.052 0.0
2017-10-14T12:30:45Z -46.0552 22.8008 at3901001 1 1692.424 4.2384 4.2388 3.3525 3.3527 1.5953 98.851 -0.025 0.0757 1675.0 1035.5066 1035.5086 35.0199 35.0225 1495.62 1495.63 223.936 0.0
2017-10-14T12:30:45Z -46.0552 22.8008 at3901001 1 1693.439 4.2376 4.2381 3.3524 3.3527 1.5949 98.8543 -0.0629 0.0745 1676.0 1035.5112 1035.5132 35.0197 35.0224 1495.64 1495.64 223.89 0.0
2017-10-14T12:30:45Z -46.0552 22.8008 at3901001 1 1694.453 4.2342 4.2343 3.3521 3.3524 1.5947 98.855 -0.0453 0.0689 1677.0 1035.5162 1035.5184 35.0198 35.0225 1495.64 1495.64 223.904 0.0
2017-10-14T12:30:45Z -46.0552 22.8008 at3901001 1 1695.467 4.2332 4.2335 3.3521 3.3523 1.5947 98.8557 -0.026 0.0791 1678.0 1035.5212 1035.5229 35.0201 35.0223 1495.65 1495.66 223.94 0.0
2017-10-14T12:30:45Z -46.0552 22.8008 at3901001 1 1696.482 4.2323 4.2325 3.3521 3.3523 1.5948 98.8527 -0.0175 0.0636 1679.0 1035.5258 1035.5278 35.02 35.0226 1495.66 1495.67 223.997 0.0
2017-10-14T12:30:45Z -46.0552 22.8008 at3901001 1 1697.496 4.2313 4.2312 3.352 3.3523 1.5946 98.8532 -0.0319 0.0753 1680.0 1035.5305 1035.5326 35.02 35.0227 1495.68 1495.68 223.981 0.0
2017-10-14T12:30:45Z -46.0552 22.8008 at3901001 1 1698.511 4.2304 4.2303 3.352 3.3522 1.5947 98.8517 -0.0277 0.0811 1681.0 1035.535 1035.5372 35.0198 35.0225 1495.69 1495.7 224.04 0.0
2017-10-14T12:30:45Z -46.0552 22.8008 at3901001 1 1699.525 4.2294 4.2294 3.3519 3.3522 1.5947 98.8559 -0.0094 0.0742 1682.0 1035.5398 1035.5418 35.0198 35.0225 1495.7 1495.71 224.082 0.0
2017-10-14T12:30:45Z -46.0552 22.8008 at3901001 1 1700.54 4.2292 4.2294 3.352 3.3522 1.5947 98.857 -0.0133 0.0656 1683.0 1035.5444 1035.5462 35.0199 35.0223 1495.72 1495.72 224.115 0.0
2017-10-14T12:30:45Z -46.0552 22.8008 at3901001 1 1701.554 4.2289 4.2291 3.352 3.3522 1.5946 98.855 0.0021 0.0808 1684.0 1035.5489 1035.5509 35.0198 35.0224 1495.74 1495.74 224.126 0.0
2017-10-14T12:30:45Z -46.0552 22.8008 at3901001 1 1702.569 4.2265 4.2276 3.3518 3.3521 1.5944 98.8571 -0.0186 0.0706 1685.0 1035.5537 1035.5557 35.0197 35.0224 1495.74 1495.75 224.136 0.0
2017-10-14T12:30:45Z -46.0552 22.8008 at3901001 1 1703.583 4.2252 4.2253 3.3517 3.3519 1.5943 98.857 -0.0312 0.0766 1686.0 1035.5584 1035.5605 35.0195 35.0223 1495.75 1495.76 224.145 0.0
2017-10-14T12:30:45Z -46.0552 22.8008 at3901001 1 1704.598 4.2234 4.2236 3.3516 3.3518 1.5939 98.8519 -0.023 0.0763 1687.0 1035.5631 1035.5653 35.0194 35.0222 1495.76 1495.77 224.112 0.0
2017-10-14T12:30:45Z -46.0552 22.8008 at3901001 1 1705.612 4.2221 4.2223 3.3515 3.3517 1.5937 98.8556 -0.019 0.0763 1688.0 1035.5679 1035.5699 35.0195 35.0221 1495.78 1495.78 224.093 0.0
2017-10-14T12:30:45Z -46.0552 22.8008 at3901001 1 1706.627 4.2204 4.2209 3.3514 3.3516 1.5937 98.8514 -0.0157 0.0689 1689.0 1035.5726 1035.5745 35.0194 35.0219 1495.78 1495.79 224.146 0.0
2017-10-14T12:30:45Z -46.0552 22.8008 at3901001 1 1707.641 4.2203 4.2195 3.3514 3.3516 1.5938 98.8547 -0.0166 0.0699 1690.0 1035.5773 1035.5794 35.0195 35.022 1495.8 1495.8 224.195 0.0
2017-10-14T12:30:45Z -46.0552 22.8008 at3901001 1 1708.656 4.2162 4.2152 3.351 3.3512 1.5939 98.8502 -0.0316 0.0704 1691.0 1035.5819 1035.5843 35.0189 35.0218 1495.8 1495.8 224.277 0.0
2017-10-14T12:30:45Z -46.0552 22.8008 at3901001 1 1709.67 4.2144 4.2146 3.351 3.3512 1.5939 98.8543 -0.0477 0.0683 1692.0 1035.587 1035.5889 35.0193 35.0217 1495.81 1495.81 224.305 0.0
2017-10-14T12:30:45Z -46.0552 22.8008 at3901001 1 1710.685 4.2148 4.2151 3.351 3.3513 1.5938 98.8569 -0.0284 0.0804 1693.0 1035.5916 1035.5934 35.0193 35.0217 1495.83 1495.83 224.315 0.0
2017-10-14T12:30:45Z -46.0552 22.8008 at3901001 1 1711.699 4.2149 4.2153 3.3511 3.3513 1.5943 98.8546 -0.0328 0.0773 1694.0 1035.5962 1035.598 35.0194 35.0218 1495.85 1495.85 224.443 0.0
2017-10-14T12:30:45Z -46.0552 22.8008 at3901001 1 1712.714 4.2151 4.2153 3.3512 3.3514 1.5944 98.8448 -0.0062 0.0714 1695.0 1035.6007 1035.6026 35.0194 35.0218 1495.86 1495.87 224.49 0.0
2017-10-14T12:30:45Z -46.0552 22.8008 at3901001 1 1713.728 4.2153 4.2154 3.3512 3.3514 1.5943 98.8546 -0.0475 0.0805 1696.0 1035.6051 1035.607 35.0192 35.0217 1495.88 1495.89 224.499 0.0
2017-10-14T12:30:45Z -46.0552 22.8008 at3901001 1 1714.743 4.2135 4.2136 3.3511 3.3513 1.594 98.8505 -0.0673 0.0777 1697.0 1035.6099 1035.6119 35.0192 35.0218 1495.89 1495.9 224.474 0.0
2017-10-14T12:30:45Z -46.0552 22.8008 at3901001 1 1715.758 4.2104 4.2107 3.3508 3.3511 1.5939 98.8445 -0.0347 0.0763 1698.0 1035.6145 1035.6168 35.0188 35.0217 1495.9 1495.9 224.513 0.0
2017-10-14T12:30:45Z -46.0552 22.8008 at3901001 1 1716.772 4.2092 4.2094 3.3508 3.351 1.5937 98.8539 -0.0183 0.0713 1699.0 1035.6195 1035.6215 35.019 35.0217 1495.91 1495.91 224.502 0.0
2017-10-14T12:30:45Z -46.0552 22.8008 at3901001 1 1717.787 4.2073 4.2083 3.3506 3.3509 1.5936 98.8532 -0.0279 0.0681 1700.0 1035.6243 1035.6259 35.0191 35.0213 1495.92 1495.92 224.527 0.0
2017-10-14T12:30:45Z -46.0552 22.8008 at3901001 1 1718.801 4.2046 4.2046 3.3504 3.3506 1.5935 98.855 -0.0226 0.0819 1701.0 1035.6287 1035.631 35.0183 35.0212 1495.92 1495.93 224.549 0.0
2017-10-14T12:30:45Z -46.0552 22.8008 at3901001 1 1719.816 4.1981 4.198 3.3498 3.35 1.5936 98.857 -0.0182 0.0791 1702.0 1035.6337 1035.6362 35.0177 35.0209 1495.91 1495.91 224.654 0.0
2017-10-14T12:30:45Z -46.0552 22.8008 at3901001 1 1720.831 4.1953 4.1952 3.3496 3.3498 1.5939 98.854 -0.0314 0.071 1703.0 1035.6392 1035.6409 35.0184 35.0205 1495.92 1495.92 224.761 0.0
2017-10-14T12:30:45Z -46.0552 22.8008 at3901001 1 1721.845 4.1904 4.192 3.3491 3.3495 1.5941 98.8535 -0.0494 0.076 1704.0 1035.6433 1035.6456 35.0169 35.0201 1495.91 1495.92 224.863 0.0
2017-10-14T12:30:45Z -46.0552 22.8008 at3901001 1 1722.86 4.1873 4.1873 3.3489 3.3492 1.5938 98.8503 -0.0282 0.0861 1705.0 1035.6488 1035.651 35.0175 35.0203 1495.92 1495.92 224.848 0.0
2017-10-14T12:30:45Z -46.0552 22.8008 at3901001 1 1723.874 4.1869 4.1868 3.3489 3.3491 1.5937 98.8569 -0.0336 0.0851 1706.0 1035.6534 1035.6555 35.0174 35.0201 1495.93 1495.93 224.857 0.0
2017-10-14T12:30:45Z -46.0552 22.8008 at3901001 1 1724.889 4.1855 4.1855 3.3488 3.349 1.5931 98.8541 -0.0293 0.0801 1707.0 1035.6582 1035.6601 35.0175 35.02 1495.94 1495.95 224.762 0.0
2017-10-14T12:30:45Z -46.0552 22.8008 at3901001 1 1725.903 4.1844 4.184 3.3487 3.3489 1.5933 98.8504 -0.0162 0.0702 1708.0 1035.6625 1035.6649 35.017 35.0199 1495.95 1495.96 224.851 0.0
2017-10-14T12:30:45Z -46.0552 22.8008 at3901001 1 1726.918 4.1816 4.182 3.3485 3.3488 1.5929 98.8558 -0.0427 0.0762 1709.0 1035.6675 1035.6694 35.017 35.0195 1495.96 1495.97 224.816 0.0
2017-10-14T12:30:45Z -46.0552 22.8008 at3901001 1 1727.933 4.1805 4.1807 3.3484 3.3487 1.5932 98.8553 -0.0355 0.0716 1710.0 1035.672 1035.6741 35.0168 35.0195 1495.97 1495.98 224.923 0.0
2017-10-14T12:30:45Z -46.0552 22.8008 at3901001 1 1728.947 4.1763 4.1766 3.3481 3.3484 1.5934 98.857 -0.028 0.0788 1711.0 1035.6768 1035.6791 35.0163 35.0193 1495.97 1495.98 225.012 0.0
2017-10-14T12:30:45Z -46.0552 22.8008 at3901001 1 1729.962 4.1727 4.1728 3.3478 3.348 1.5937 98.8488 -0.0459 0.0751 1712.0 1035.682 1035.6841 35.0165 35.0192 1495.97 1495.98 225.114 0.0
2017-10-14T12:30:45Z -46.0552 22.8008 at3901001 1 1730.977 4.1714 4.1716 3.3477 3.3479 1.593 98.8536 -0.0385 0.0701 1713.0 1035.6868 1035.6885 35.0165 35.0188 1495.98 1495.99 225.021 0.0
2017-10-14T12:30:45Z -46.0552 22.8008 at3901001 1 1731.991 4.1707 4.171 3.3477 3.3479 1.5928 98.857 -0.0269 0.0736 1714.0 1035.6913 1035.6932 35.0164 35.0189 1496.0 1496.0 225.014 0.0
2017-10-14T12:30:45Z -46.0552 22.8008 at3901001 1 1733.006 4.1687 4.1686 3.3476 3.3478 1.5926 98.8544 -0.0329 0.0763 1715.0 1035.6961 1035.6981 35.0163 35.0189 1496.01 1496.01 225.017 0.0
2017-10-14T12:30:45Z -46.0552 22.8008 at3901001 1 1734.021 4.167 4.1675 3.3474 3.3477 1.5929 98.8571 -0.0351 0.0751 1716.0 1035.7007 1035.7026 35.016 35.0186 1496.02 1496.02 225.107 0.0
2017-10-14T12:30:45Z -46.0552 22.8008 at3901001 1 1735.035 4.1636 4.1639 3.3472 3.3474 1.5928 98.857 -0.0262 0.0701 1717.0 1035.7058 1035.7077 35.0161 35.0186 1496.02 1496.02 225.145 0.0
2017-10-14T12:30:45Z -46.0552 22.8008 at3901001 1 1736.05 4.1631 4.1633 3.3472 3.3474 1.593 98.857 -0.0335 0.0762 1718.0 1035.7104 1035.7123 35.0161 35.0186 1496.04 1496.04 225.217 0.0
2017-10-14T12:30:45Z -46.0552 22.8008 at3901001 1 1737.065 4.1627 4.163 3.3472 3.3474 1.5926 98.8559 -0.0167 0.0817 1719.0 1035.7151 1035.7169 35.0161 35.0185 1496.05 1496.06 225.161 0.0
2017-10-14T12:30:45Z -46.0552 22.8008 at3901001 1 1738.079 4.1597 4.1601 3.3469 3.3472 1.5927 98.8579 -0.0263 0.0769 1720.0 1035.7197 1035.7219 35.0156 35.0185 1496.05 1496.06 225.242 0.0
2017-10-14T12:30:45Z -46.0552 22.8008 at3901001 1 1739.094 4.1576 4.1577 3.3468 3.347 1.5927 98.8533 -0.0155 0.0727 1721.0 1035.7248 1035.7268 35.0159 35.0185 1496.06 1496.07 225.286 0.0
2017-10-14T12:30:45Z -46.0552 22.8008 at3901001 1 1740.108 4.1549 4.1551 3.3465 3.3468 1.5926 98.8548 -0.0274 0.0661 1722.0 1035.7294 1035.7315 35.0155 35.0182 1496.07 1496.07 225.309 0.0
2017-10-14T12:30:45Z -46.0552 22.8008 at3901001 1 1741.123 4.1529 4.1535 3.3464 3.3467 1.5924 98.857 -0.0353 0.0728 1723.0 1035.7345 1035.7363 35.0159 35.0182 1496.08 1496.08 225.317 0.0
2017-10-14T12:30:45Z -46.0552 22.8008 at3901001 1 1742.138 4.1521 4.1522 3.3464 3.3466 1.5927 98.8531 -0.0346 0.0817 1724.0 1035.739 1035.741 35.0156 35.0182 1496.09 1496.09 225.403 0.0
2017-10-14T12:30:45Z -46.0552 22.8008 at3901001 1 1743.152 4.15 4.1503 3.3462 3.3465 1.5927 98.857 -0.0669 0.0703 1725.0 1035.7438 1035.7458 35.0155 35.0181 1496.1 1496.1 225.44 0.0
2017-10-14T12:30:45Z -46.0552 22.8008 at3901001 1 1744.167 4.148 4.148 3.3461 3.3463 1.5926 98.8545 -0.045 0.0702 1726.0 1035.7485 1035.7506 35.0153 35.0181 1496.11 1496.11 225.47 0.0
2017-10-14T12:30:45Z -46.0552 22.8008 at3901001 1 1745.182 4.1434 4.1435 3.3456 3.3459 1.5925 98.8559 -0.0444 0.0702 1727.0 1035.7531 1035.7557 35.0146 35.0179 1496.11 1496.11 225.506 0.0
2017-10-14T12:30:45Z -46.0552 22.8008 at3901001 1 1746.197 4.1326 4.1328 3.3447 3.345 1.5924 98.857 -0.0207 0.0752 1728.0 1035.7589 1035.7612 35.0141 35.0172 1496.07 1496.08 225.593 0.0
2017-10-14T12:30:45Z -46.0552 22.8008 at3901001 1 1747.211 4.13 4.1303 3.3445 3.3447 1.5926 98.857 -0.016 0.0763 1729.0 1035.764 1035.7659 35.0144 35.0168 1496.08 1496.09 225.675 0.0
2017-10-14T12:30:45Z -46.0552 22.8008 at3901001 1 1748.226 4.1293 4.1293 3.3445 3.3447 1.5926 98.858 -0.0327 0.081 1730.0 1035.7686 1035.7706 35.0143 35.0167 1496.1 1496.1 225.708 0.0
2017-10-14T12:30:45Z -46.0552 22.8008 at3901001 1 1749.241 4.129 4.1291 3.3445 3.3447 1.5926 98.857 -0.0161 0.0718 1731.0 1035.7731 1035.7751 35.0142 35.0167 1496.11 1496.12 225.73 0.0
2017-10-14T12:30:45Z -46.0552 22.8008 at3901001 1 1750.255 4.1265 4.1265 3.3443 3.3445 1.5925 98.858 -0.0149 0.081 1732.0 1035.778 1035.7799 35.0141 35.0165 1496.12 1496.12 225.767 0.0
2017-10-14T12:30:45Z -46.0552 22.8008 at3901001 1 1751.27 4.1255 4.1258 3.3442 3.3445 1.5923 98.8592 -0.019 0.0646 1733.0 1035.7826 1035.7844 35.0139 35.0164 1496.13 1496.14 225.771 0.0
2017-10-14T12:30:45Z -46.0552 22.8008 at3901001 1 1752.285 4.124 4.1244 3.3441 3.3444 1.5921 98.857 -0.0123 0.0701 1734.0 1035.7873 1035.7891 35.0139 35.0162 1496.14 1496.14 225.751 0.0
2017-10-14T12:30:45Z -46.0552 22.8008 at3901001 1 1753.3 4.122 4.1222 3.344 3.3442 1.5921 98.8557 -0.0268 0.0648 1735.0 1035.7921 1035.794 35.0138 35.0163 1496.15 1496.15 225.804 0.0
2017-10-14T12:30:45Z -46.0552 22.8008 at3901001 1 1754.314 4.1201 4.1202 3.3439 3.3441 1.592 98.857 -0.0574 0.0724 1736.0 1035.7969 1035.7989 35.0138 35.0163 1496.16 1496.16 225.822 0.0
2017-10-14T12:30:45Z -46.0552 22.8008 at3901001 1 1755.329 4.1199 4.1201 3.3439 3.3441 1.592 98.8559 -0.0371 0.0798 1737.0 1035.8015 1035.8033 35.0138 35.0162 1496.18 1496.18 225.863 0.0
2017-10-14T12:30:45Z -46.0552 22.8008 at3901001 1 1756.344 4.1196 4.1198 3.3439 3.3441 1.5921 98.857 -0.0393 0.0785 1738.0 1035.806 1035.8079 35.0137 35.0162 1496.19 1496.2 225.907 0.0
2017-10-14T12:30:45Z -46.0552 22.8008 at3901001 1 1757.359 4.1193 4.1195 3.3439 3.3441 1.5926 98.8548 -0.0534 0.0676 1739.0 1035.8107 1035.8126 35.0138 35.0162 1496.21 1496.21 226.032 0.0
2017-10-14T12:30:45Z -46.0552 22.8008 at3901001 1 1758.373 4.1182 4.1183 3.3438 3.3441 1.5925 98.8521 -0.0513 0.0728 1740.0 1035.8152 1035.8173 35.0136 35.0163 1496.22 1496.22 226.054 0.0
2017-10-14T12:30:45Z -46.0552 22.8008 at3901001 1 1759.388 4.1141 4.1143 3.3435 3.3437 1.5921 98.8558 -0.0399 0.0763 1741.0 1035.8198 1035.8223 35.0129 35.0161 1496.22 1496.22 226.027 0.0
2017-10-14T12:30:45Z -46.0552 22.8008 at3901001 1 1760.403 4.107 4.1072 3.3428 3.3431 1.5919 98.857 -0.0304 0.0726 1742.0 1035.8252 1035.8274 35.0126 35.0154 1496.2 1496.21 226.06 0.0
2017-10-14T12:30:45Z -46.0552 22.8008 at3901001 1 1761.418 4.1017 4.1019 3.3424 3.3426 1.5914 98.857 -0.0452 0.0703 1743.0 1035.8304 1035.8326 35.0124 35.0152 1496.2 1496.2 226.027 0.0
2017-10-14T12:30:45Z -46.0552 22.8008 at3901001 1 1762.433 4.0954 4.0956 3.3418 3.3421 1.5916 98.857 -0.0389 0.0747 1744.0 1035.8356 1035.8378 35.0121 35.015 1496.19 1496.19 226.134 0.0
2017-10-14T12:30:45Z -46.0552 22.8008 at3901001 1 1763.447 4.0907 4.0911 3.3414 3.3417 1.5915 98.8581 -0.0325 0.0763 1745.0 1035.8409 1035.8429 35.0121 35.0148 1496.19 1496.19 226.176 0.0
2017-10-14T12:30:45Z -46.0552 22.8008 at3901001 1 1764.462 4.0837 4.0839 3.3408 3.3411 1.5915 98.857 -0.0182 0.0763 1746.0 1035.8458 1035.8483 35.0113 35.0146 1496.17 1496.18 226.241 0.0
2017-10-14T12:30:45Z -46.0552 22.8008 at3901001 1 1765.477 4.0778 4.0781 3.3404 3.3406 1.5914 98.8557 -0.0154 0.0684 1747.0 1035.8517 1035.8536 35.0119 35.0143 1496.17 1496.17 226.295 0.0
2017-10-14T12:30:45Z -46.0552 22.8008 at3901001 1 1766.492 4.0759 4.076 3.3402 3.3405 1.5914 98.857 -0.011 0.0702 1748.0 1035.8567 1035.8588 35.0121 35.0148 1496.18 1496.18 226.334 0.0
2017-10-14T12:30:45Z -46.0552 22.8008 at3901001 1 1767.507 4.0741 4.0742 3.3401 3.3404 1.5914 98.857 -0.0254 0.0744 1749.0 1035.8615 1035.8636 35.0121 35.0149 1496.19 1496.19 226.385 0.0
2017-10-14T12:30:45Z -46.0552 22.8008 at3901001 1 1768.521 4.072 4.0722 3.34 3.3402 1.5914 98.857 -0.0346 0.0702 1750.0 1035.8662 1035.8683 35.0119 35.0146 1496.2 1496.2 226.43 0.0
2017-10-14T12:30:45Z -46.0552 22.8008 at3901001 1 1769.536 4.0688 4.0689 3.3397 3.34 1.591 98.858 -0.0245 0.0713 1751.0 1035.8712 1035.8733 35.0118 35.0146 1496.2 1496.2 226.38 0.0
2017-10-14T12:30:45Z -46.0552 22.8008 at3901001 1 1770.551 4.0667 4.0669 3.3396 3.3398 1.5907 98.857 -0.0436 0.0762 1752.0 1035.876 1035.8781 35.0118 35.0145 1496.21 1496.21 226.369 0.0
2017-10-14T12:30:45Z -46.0552 22.8008 at3901001 1 1771.566 4.0666 4.0667 3.3396 3.3398 1.5902 98.857 -0.0284 0.0763 1753.0 1035.8808 1035.8826 35.012 35.0143 1496.22 1496.23 226.302 0.0
2017-10-14T12:30:45Z -46.0552 22.8008 at3901001 1 1772.58 4.0657 4.0661 3.3395 3.3398 1.5904 98.8548 -0.0268 0.0763 1754.0 1035.8853 1035.8872 35.0118 35.0143 1496.24 1496.24 226.371 0.0
2017-10-14T12:30:45Z -46.0552 22.8008 at3901001 1 1773.595 4.0621 4.0624 3.3392 3.3395 1.5908 98.8609 -0.0205 0.0763 1755.0 1035.8901 1035.8921 35.0115 35.0141 1496.24 1496.24 226.5 0.0
2017-10-14T12:30:45Z -46.0552 22.8008 at3901001 1 1774.61 4.06 4.0601 3.3391 3.3393 1.5909 98.8592 -0.0297 0.0763 1756.0 1035.8951 1035.897 35.0116 35.0141 1496.24 1496.25 226.563 0.0
2017-10-14T12:30:45Z -46.0552 22.8008 at3901001 1 1775.625 4.0593 4.0597 3.3391 3.3393 1.5907 98.8559 -0.0335 0.0763 1757.0 1035.8997 1035.9016 35.0116 35.0141 1496.26 1496.27 226.56 0.0
2017-10-14T12:30:45Z -46.0552 22.8008 at3901001 1 1776.64 4.0587 4.0591 3.3391 3.3393 1.5904 98.8556 -0.0327 0.0763 1758.0 1035.9044 1035.9061 35.0116 35.014 1496.27 1496.28 226.533 0.0
2017-10-14T12:30:45Z -46.0552 22.8008 at3901001 1 1777.655 4.059 4.059 3.3392 3.3394 1.5903 98.8541 -0.0294 0.0763 1759.0 1035.9089 1035.9109 35.0117 35.0142 1496.29 1496.3 226.545 0.0
2017-10-14T12:30:45Z -46.0552 22.8008 at3901001 1 1778.67 4.0591 4.0592 3.3392 3.3394 1.5903 98.857 -0.0179 0.0763 1760.0 1035.9134 1035.9154 35.0117 35.0141 1496.31 1496.31 226.574 0.0
2017-10-14T12:30:45Z -46.0552 22.8008 at3901001 1 1779.684 4.0589 4.059 3.3392 3.3394 1.5903 98.857 -0.0187 0.0715 1761.0 1035.9178 1035.9199 35.0114 35.0141 1496.33 1496.33 226.597 0.0
2017-10-14T12:30:45Z -46.0552 22.8008 at3901001 1 1780.699 4.0572 4.0569 3.3391 3.3393 1.5901 98.8585 -0.0236 0.0743 1762.0 1035.9224 1035.9248 35.0112 35.0142 1496.34 1496.34 226.612 0.0
2017-10-14T12:30:45Z -46.0552 22.8008 at3901001 1 1781.714 4.051 4.0511 3.3385 3.3388 1.59 98.8569 -0.0254 0.0699 1763.0 1035.9274 1035.9298 35.0105 35.0137 1496.32 1496.33 226.648 0.0
2017-10-14T12:30:45Z -46.0552 22.8008 at3901001 1 1782.729 4.0486 4.0487 3.3384 3.3386 1.5902 98.8595 -0.0367 0.0769 1764.0 1035.9326 1035.9344 35.0109 35.0132 1496.33 1496.34 226.738 0.0
2017-10-14T12:30:45Z -46.0552 22.8008 at3901001 1 1783.744 4.0484 4.0483 3.3384 3.3386 1.5899 98.8556 -0.0419 0.0773 1765.0 1035.937 1035.9392 35.0106 35.0134 1496.35 1496.35 226.71 0.0
2017-10-14T12:30:45Z -46.0552 22.8008 at3901001 1 1784.759 4.0473 4.0473 3.3383 3.3385 1.5896 98.857 -0.0164 0.0644 1766.0 1035.9417 1035.9436 35.0107 35.0132 1496.36 1496.37 226.678 0.0
2017-10-14T12:30:45Z -46.0552 22.8008 at3901001 1 1785.774 4.0455 4.0455 3.3381 3.3384 1.5892 98.8597 -0.0316 0.0641 1767.0 1035.9462 1035.9484 35.0102 35.013 1496.37 1496.37 226.65 0.0
2017-10-14T12:30:45Z -46.0552 22.8008 at3901001 1 1786.789 4.0413 4.0416 3.3378 3.3381 1.5891 98.8569 -0.0289 0.0682 1768.0 1035.9511 1035.9532 35.01 35.0127 1496.37 1496.38 226.678 0.0
2017-10-14T12:30:45Z -46.0552 22.8008 at3901001 1 1787.803 4.0388 4.0391 3.3376 3.3378 1.5889 98.8549 -0.0304 0.0818 1769.0 1035.956 1035.9579 35.01 35.0124 1496.38 1496.38 226.686 0.0
2017-10-14T12:30:45Z -46.0552 22.8008 at3901001 1 1788.818 4.0344 4.0348 3.3372 3.3375 1.5887 98.857 -0.0313 0.0756 1770.0 1035.9608 1035.9629 35.0094 35.0121 1496.37 1496.38 226.709 0.0
2017-10-14T12:30:45Z -46.0552 22.8008 at3901001 1 1789.833 4.0309 4.0311 3.3369 3.3372 1.5886 98.8599 -0.0183 0.0752 1771.0 1035.9659 1035.968 35.0094 35.0121 1496.38 1496.38 226.728 0.0
2017-10-14T12:30:45Z -46.0552 22.8008 at3901001 1 1790.848 4.0279 4.0277 3.3367 3.3369 1.5882 98.8562 -0.0309 0.0763 1772.0 1035.9708 1035.9729 35.0094 35.012 1496.38 1496.38 226.698 0.0
2017-10-14T12:30:45Z -46.0552 22.8008 at3901001 1 1791.863 4.0266 4.0268 3.3366 3.3369 1.5882 98.8601 -0.0268 0.0742 1773.0 1035.9757 1035.9774 35.0095 35.0118 1496.39 1496.4 226.74 0.0
2017-10-14T12:30:45Z -46.0552 22.8008 at3901001 1 1792.878 4.0265 4.0268 3.3367 3.3369 1.5879 98.8582 -0.0149 0.0682 1774.0 1035.9803 1035.982 35.0096 35.0118 1496.41 1496.41 226.7 0.0
2017-10-14T12:30:45Z -46.0552 22.8008 at3901001 1 1793.893 4.0261 4.0262 3.3367 3.3369 1.5879 98.857 -0.0151 0.064 1775.0 1035.9847 1035.9866 35.0094 35.0118 1496.43 1496.43 226.736 0.0
2017-10-14T12:30:45Z -46.0552 22.8008 at3901001 1 1794.908 4.0243 4.0243 3.3366 3.3368 1.5877 98.8479 -0.019 0.0641 1776.0 1035.9896 1035.9916 35.0094 35.012 1496.44 1496.44 226.734 0.0
2017-10-14T12:30:45Z -46.0552 22.8008 at3901001 1 1795.923 4.0175 4.0179 3.3359 3.3362 1.5876 98.8557 -0.0285 0.0729 1777.0 1035.9942 1035.9969 35.0082 35.0117 1496.42 1496.43 226.787 0.0
2017-10-14T12:30:45Z -46.0552 22.8008 at3901001 1 1796.938 4.0107 4.011 3.3354 3.3356 1.587 98.8571 -0.0329 0.0765 1778.0 1036.0001 1036.0023 35.0087 35.0116 1496.41 1496.42 226.748 0.0
2017-10-14T12:30:45Z -46.0552 22.8008 at3901001 1 1797.953 4.0081 4.0084 3.3352 3.3354 1.5868 98.8581 -0.0347 0.0737 1779.0 1036.0054 1036.0072 35.0091 35.0115 1496.42 1496.42 226.74 0.0
2017-10-14T12:30:45Z -46.0552 22.8008 at3901001 1 1798.968 4.0066 4.0069 3.3351 3.3353 1.5867 98.8581 -0.0249 0.0701 1780.0 1036.01 1036.0119 35.0089 35.0114 1496.43 1496.43 226.759 0.0
2017-10-14T12:30:45Z -46.0552 22.8008 at3901001 1 1799.983 4.0061 4.0064 3.3351 3.3353 1.5867 98.859 -0.0362 0.0702 1781.0 1036.0146 1036.0164 35.009 35.0112 1496.44 1496.45 226.784 0.0
2017-10-14T12:30:45Z -46.0552 22.8008 at3901001 1 1800.998 4.0058 4.006 3.3351 3.3353 1.5867 98.8597 -0.0533 0.0741 1782.0 1036.0191 1036.0211 35.0088 35.0113 1496.46 1496.46 226.825 0.0
2017-10-14T12:30:45Z -46.0552 22.8008 at3901001 1 1802.013 4.0041 4.0044 3.335 3.3352 1.5871 98.8473 -0.0194 0.0709 1783.0 1036.0238 1036.0258 35.0087 35.0112 1496.47 1496.47 226.959 0.0
2017-10-14T12:30:45Z -46.0552 22.8008 at3901001 1 1803.027 4.0027 4.0028 3.3349 3.3351 1.5873 98.8561 -0.0349 0.0702 1784.0 1036.0287 1036.0306 35.0088 35.0112 1496.48 1496.48 227.024 0.0
2017-10-14T12:30:45Z -46.0552 22.8008 at3901001 1 1804.042 4.0018 4.002 3.3349 3.3351 1.587 98.857 -0.033 0.0764 1785.0 1036.0333 1036.0352 35.0088 35.0112 1496.49 1496.5 226.994 0.0
2017-10-14T12:30:45Z -46.0552 22.8008 at3901001 1 1805.057 4.0011 4.0012 3.3348 3.3351 1.5867 98.8583 -0.0364 0.0815 1786.0 1036.038 1036.0399 35.0088 35.0112 1496.51 1496.51 226.975 0.0
2017-10-14T12:30:45Z -46.0552 22.8008 at3901001 1 1806.072 4.0 4.0001 3.3348 3.335 1.5868 98.857 -0.0459 0.0786 1787.0 1036.0425 1036.0445 35.0085 35.011 1496.52 1496.52 227.026 0.0
2017-10-14T12:30:45Z -46.0552 22.8008 at3901001 1 1807.087 3.9988 3.999 3.3347 3.3349 1.5868 98.8585 -0.0335 0.078 1788.0 1036.0473 1036.0491 35.0086 35.011 1496.53 1496.53 227.08 0.0
2017-10-14T12:30:45Z -46.0552 22.8008 at3901001 1 1808.102 3.9975 3.9978 3.3346 3.3348 1.5868 98.857 -0.0199 0.0803 1789.0 1036.0519 1036.0537 35.0085 35.0108 1496.54 1496.55 227.1 0.0
2017-10-14T12:30:45Z -46.0552 22.8008 at3901001 1 1809.117 3.9973 3.9976 3.3346 3.3349 1.5867 98.8559 -0.03 0.0714 1790.0 1036.0565 1036.0582 35.0084 35.0107 1496.56 1496.56 227.114 0.0
2017-10-14T12:30:45Z -46.0552 22.8008 at3901001 1 1810.132 3.9974 3.9976 3.3347 3.3349 1.5868 98.857 -0.0161 0.0762 1791.0 1036.0609 1036.0628 35.0084 35.0108 1496.58 1496.58 227.169 0.0
2017-10-14T12:30:45Z -46.0552 22.8008 at3901001 1 1811.147 3.9958 3.9961 3.3346 3.3348 1.5867 98.8579 -0.0287 0.0763 1792.0 1036.0655 1036.0675 35.0081 35.0107 1496.59 1496.59 227.19 0.0
2017-10-14T12:30:45Z -46.0552 22.8008 at3901001 1 1812.162 3.9938 3.994 3.3344 3.3346 1.586 98.857 -0.0346 0.0763 1793.0 1036.0706 1036.0723 35.0083 35.0106 1496.59 1496.6 227.095 0.0
2017-10-14T12:30:45Z -46.0552 22.8008 at3901001 1 1813.177 3.9936 3.9938 3.3344 3.3347 1.5858 98.857 -0.0311 0.0721 1794.0 1036.075 1036.0769 35.0082 35.0106 1496.61 1496.61 227.081 0.0
2017-10-14T12:30:45Z -46.0552 22.8008 at3901001 1 1814.192 3.9923 3.9925 3.3343 3.3346 1.5855 98.8544 -0.0356 0.0729 1795.0 1036.0795 1036.0817 35.0079 35.0107 1496.62 1496.63 227.052 0.0
2017-10-14T12:30:45Z -46.0552 22.8008 at3901001 1 1815.208 3.9892 3.9895 3.3341 3.3343 1.5854 98.8569 -0.0396 0.0762 1796.0 1036.0846 1036.0864 35.008 35.0103 1496.63 1496.63 227.077 0.0
2017-10-14T12:30:45Z -46.0552 22.8008 at3901001 1 1816.223 3.9889 3.9891 3.3342 3.3344 1.5853 98.8583 -0.0487 0.0763 1797.0 1036.0894 1036.0911 35.0082 35.0105 1496.64 1496.65 227.088 0.0
2017-10-14T12:30:45Z -46.0552 22.8008 at3901001 1 1817.238 3.9859 3.9857 3.3339 3.3341 1.5853 98.8581 -0.0157 0.0756 1798.0 1036.0939 1036.0961 35.0076 35.0103 1496.65 1496.65 227.138 0.0
2017-10-14T12:30:45Z -46.0552 22.8008 at3901001 1 1818.253 3.9829 3.9831 3.3337 3.3339 1.5854 98.8589 -0.0143 0.0703 1799.0 1036.0991 1036.101 35.0079 35.0104 1496.65 1496.66 227.212 0.0
2017-10-14T12:30:45Z -46.0552 22.8008 at3901001 1 1819.268 3.9828 3.983 3.3337 3.3339 1.5855 98.8579 -0.0239 0.0702 1800.0 1036.1038 1036.1055 35.008 35.0103 1496.67 1496.67 227.264 0.0
2017-10-14T12:30:45Z -46.0552 22.8008 at3901001 1 1820.283 3.9824 3.9826 3.3337 3.3339 1.5857 98.8593 -0.0235 0.0736 1801.0 1036.1084 1036.1102 35.008 35.0104 1496.68 1496.69 227.326 0.0
2017-10-14T12:30:45Z -46.0552 22.8008 at3901001 1 1821.298 3.9811 3.9812 3.3336 3.3338 1.5855 98.8594 -0.0239 0.0764 1802.0 1036.1129 1036.1149 35.0077 35.0103 1496.7 1496.7 227.34 0.0
2017-10-14T12:30:45Z -46.0552 22.8008 at3901001 1 1822.313 3.9761 3.9764 3.3331 3.3334 1.5854 98.8583 -0.0343 0.0742 1803.0 1036.1176 1036.1198 35.007 35.0098 1496.69 1496.69 227.379 0.0
2017-10-14T12:30:45Z -46.0552 22.8008 at3901001 1 1823.328 3.975 3.9751 3.3331 3.3333 1.5854 98.8609 -0.0279 0.0703 1804.0 1036.1226 1036.1245 35.0074 35.0098 1496.7 1496.71 227.403 0.0
2017-10-14T12:30:45Z -46.0552 22.8008 at3901001 1 1824.343 3.9743 3.9744 3.3331 3.3333 1.5853 98.8572 -0.0184 0.0702 1805.0 1036.1272 1036.1292 35.0073 35.0098 1496.72 1496.72 227.428 0.0
2017-10-14T12:30:45Z -46.0552 22.8008 at3901001 1 1825.358 3.9737 3.9739 3.3331 3.3333 1.5852 98.8581 -0.0506 0.087 1806.0 1036.1316 1036.1337 35.007 35.0097 1496.73 1496.74 227.435 0.0
2017-10-14T12:30:45Z -46.0552 22.8008 at3901001 1 1826.373 3.968 3.9686 3.3325 3.3328 1.5845 98.8581 -0.0221 0.0723 1807.0 1036.1364 1036.1385 35.0062 35.0091 1496.72 1496.73 227.362 0.0
2017-10-14T12:30:45Z -46.0552 22.8008 at3901001 1 1827.388 3.9658 3.966 3.3324 3.3326 1.5846 98.8603 -0.0262 0.0755 1808.0 1036.1414 1036.1433 35.0064 35.0088 1496.73 1496.74 227.423 0.0
2017-10-14T12:30:45Z -46.0552 22.8008 at3901001 1 1828.403 3.9643 3.9645 3.3323 3.3325 1.5846 98.857 -0.0321 0.0763 1809.0 1036.146 1036.148 35.0062 35.0087 1496.74 1496.75 227.472 0.0
2017-10-14T12:30:45Z -46.0552 22.8008 at3901001 1 1829.418 3.9632 3.9635 3.3322 3.3324 1.5847 98.8589 -0.034 0.0656 1810.0 1036.1508 1036.1525 35.0062 35.0086 1496.75 1496.76 227.522 0.0
2017-10-14T12:30:45Z -46.0552 22.8008 at3901001 1 1830.433 3.9628 3.9631 3.3322 3.3324 1.5844 98.8617 -0.0438 0.0766 1811.0 1036.1552 1036.1571 35.006 35.0085 1496.77 1496.77 227.49 0.0
2017-10-14T12:30:45Z -46.0552 22.8008 at3901001 1 1831.449 3.962 3.9623 3.3322 3.3324 1.5844 98.8579 -0.0081 0.0763 1812.0 1036.16 1036.1617 35.0062 35.0084 1496.78 1496.79 227.536 0.0
2017-10-14T12:30:45Z -46.0552 22.8008 at3901001 1 1832.464 3.9616 3.962 3.3322 3.3324 1.5844 98.857 -0.0402 0.0779 1813.0 1036.1646 1036.1662 35.0062 35.0083 1496.8 1496.8 227.558 0.0
2017-10-14T12:30:45Z -46.0552 22.8008 at3901001 1 1833.479 3.9615 3.9617 3.3322 3.3325 1.5842 98.8607 -0.048 0.0809 1814.0 1036.1693 1036.171 35.0063 35.0086 1496.82 1496.82 227.554 0.0
2017-10-14T12:30:45Z -46.0552 22.8008 at3901001 1 1834.494 3.9616 3.9618 3.3323 3.3325 1.5835 98.8599 -0.0155 0.0701 1815.0 1036.1737 1036.1755 35.0062 35.0086 1496.83 1496.84 227.435 0.0
2017-10-14T12:30:45Z -46.0552 22.8008 at3901001 1 1835.509 3.9615 3.9616 3.3323 3.3325 1.5837 98.857 -0.0167 0.0702 1816.0 1036.1784 1036.1802 35.0063 35.0087 1496.85 1496.85 227.493 0.0
2017-10-14T12:30:45Z -46.0552 22.8008 at3901001 1 1836.524 3.9607 3.9609 3.3323 3.3325 1.5836 98.857 -0.0274 0.0702 1817.0 1036.1829 1036.1848 35.0062 35.0087 1496.86 1496.87 227.526 0.0
2017-10-14T12:30:45Z -46.0552 22.8008 at3901001 1 1837.539 3.9601 3.9601 3.3323 3.3325 1.5834 98.857 -0.0301 0.0702 1818.0 1036.1875 1036.1895 35.0062 35.0087 1496.88 1496.88 227.502 0.0
2017-10-14T12:30:45Z -46.0552 22.8008 at3901001 1 1838.554 3.9594 3.9595 3.3322 3.3324 1.5834 98.86 -0.0167 0.0755 1819.0 1036.1922 1036.1939 35.0061 35.0084 1496.89 1496.89 227.549 0.0
2017-10-14T12:30:45Z -46.0552 22.8008 at3901001 1 1839.57 3.9591 3.9594 3.3323 3.3325 1.5832 98.8633 -0.0144 0.0785 1820.0 1036.1967 1036.1986 35.006 35.0085 1496.91 1496.91 227.533 0.0
2017-10-14T12:30:45Z -46.0552 22.8008 at3901001 1 1840.585 3.9571 3.9573 3.3321 3.3323 1.5832 98.8643 -0.0171 0.0756 1821.0 1036.2013 1036.2034 35.0057 35.0085 1496.91 1496.92 227.586 0.0
2017-10-14T12:30:45Z -46.0552 22.8008 at3901001 1 1841.6 3.9515 3.9515 3.3316 3.3318 1.583 98.8602 -0.0276 0.0709 1822.0 1036.2065 1036.2086 35.0055 35.0082 1496.91 1496.91 227.611 0.0
2017-10-14T12:30:45Z -46.0552 22.8008 at3901001 1 1842.615 3.9507 3.951 3.3316 3.3318 1.583 98.8623 -6.0E-4 0.0763 1823.0 1036.2114 1036.213 35.0058 35.0079 1496.92 1496.93 227.627 0.0
2017-10-14T12:30:45Z -46.0552 22.8008 at3901001 1 1843.63 3.9505 3.9504 3.3316 3.3318 1.5826 98.8544 -0.0148 0.0709 1824.0 1036.2159 1036.2179 35.0057 35.0082 1496.94 1496.94 227.584 0.0
2017-10-14T12:30:45Z -46.0552 22.8008 at3901001 1 1844.645 3.9495 3.9497 3.3316 3.3318 1.5825 98.8594 -0.0258 0.0702 1825.0 1036.2205 1036.2222 35.0056 35.0079 1496.95 1496.96 227.589 0.0
2017-10-14T12:30:45Z -46.0552 22.8008 at3901001 1 1845.66 3.946 3.9463 3.3312 3.3315 1.5821 98.8571 -0.0386 0.0782 1826.0 1036.2251 1036.2272 35.005 35.0078 1496.95 1496.96 227.564 0.0
2017-10-14T12:30:45Z -46.0552 22.8008 at3901001 1 1846.676 3.9407 3.941 3.3308 3.331 1.5821 98.857 -0.0397 0.0861 1827.0 1036.2302 1036.2323 35.0048 35.0074 1496.95 1496.95 227.624 0.0
2017-10-14T12:30:45Z -46.0552 22.8008 at3901001 1 1847.691 3.9383 3.9385 3.3306 3.3308 1.582 98.8602 -0.0212 0.0823 1828.0 1036.2352 1036.2371 35.0049 35.0073 1496.95 1496.96 227.646 0.0
2017-10-14T12:30:45Z -46.0552 22.8008 at3901001 1 1848.706 3.9379 3.938 3.3306 3.3308 1.582 98.859 -0.03 0.0798 1829.0 1036.2399 1036.2417 35.005 35.0073 1496.97 1496.97 227.68 0.0
2017-10-14T12:30:45Z -46.0552 22.8008 at3901001 1 1849.721 3.9378 3.938 3.3307 3.3309 1.582 98.8569 -0.0246 0.0732 1830.0 1036.2445 1036.2462 35.005 35.0072 1496.99 1496.99 227.719 0.0
2017-10-14T12:30:45Z -46.0552 22.8008 at3901001 1 1850.736 3.9376 3.9377 3.3307 3.3309 1.582 98.8633 -0.0423 0.0734 1831.0 1036.2491 1036.2507 35.005 35.0071 1497.0 1497.01 227.755 0.0
2017-10-14T12:30:45Z -46.0552 22.8008 at3901001 1 1851.752 3.937 3.9372 3.3307 3.3309 1.5821 98.8582 -0.0235 0.0763 1832.0 1036.2537 1036.2553 35.0049 35.0071 1497.02 1497.02 227.806 0.0
2017-10-14T12:30:45Z -46.0552 22.8008 at3901001 1 1852.767 3.9365 3.9368 3.3307 3.3309 1.5818 98.8593 -0.0158 0.0763 1833.0 1036.2583 1036.2599 35.005 35.0072 1497.03 1497.04 227.778 0.0
2017-10-14T12:30:45Z -46.0552 22.8008 at3901001 1 1853.782 3.9363 3.9365 3.3307 3.3309 1.5812 98.86 -0.0251 0.0763 1834.0 1036.2628 1036.2645 35.0049 35.0072 1497.05 1497.05 227.674 0.0
2017-10-14T12:30:45Z -46.0552 22.8008 at3901001 1 1854.797 3.9362 3.9365 3.3307 3.3309 1.5816 98.8581 -0.0323 0.0763 1835.0 1036.2674 1036.2691 35.0049 35.0072 1497.06 1497.07 227.786 0.0
2017-10-14T12:30:45Z -46.0552 22.8008 at3901001 1 1855.812 3.9363 3.9366 3.3308 3.331 1.5812 98.8606 -0.0312 0.0727 1836.0 1036.272 1036.2736 35.005 35.0072 1497.08 1497.09 227.731 0.0
2017-10-14T12:30:45Z -46.0552 22.8008 at3901001 1 1856.828 3.9349 3.9352 3.3307 3.3309 1.5809 98.8583 -0.016 0.0673 1837.0 1036.2765 1036.2784 35.0047 35.0072 1497.09 1497.1 227.722 0.0
2017-10-14T12:30:45Z -46.0552 22.8008 at3901001 1 1857.843 3.9329 3.9331 3.3305 3.3308 1.5809 98.8635 -0.0143 0.0657 1838.0 1036.2814 1036.2832 35.0048 35.0071 1497.1 1497.11 227.76 0.0
2017-10-14T12:30:45Z -46.0552 22.8008 at3901001 1 1858.858 3.932 3.9322 3.3305 3.3307 1.5809 98.8623 -0.0156 0.071 1839.0 1036.2859 1036.2878 35.0045 35.0071 1497.12 1497.12 227.796 0.0
2017-10-14T12:30:45Z -46.0552 22.8008 at3901001 1 1859.873 3.9247 3.9249 3.3298 3.3301 1.5809 98.8592 -0.0318 0.0816 1840.0 1036.2908 1036.2933 35.0037 35.0068 1497.1 1497.11 227.885 0.0
2017-10-14T12:30:45Z -46.0552 22.8008 at3901001 1 1860.889 3.9163 3.9166 3.3291 3.3293 1.5809 98.8579 -0.0407 0.0716 1841.0 1036.2967 1036.2988 35.0038 35.0064 1497.08 1497.09 227.949 0.0
2017-10-14T12:30:45Z -46.0552 22.8008 at3901001 1 1861.904 3.9094 3.9095 3.3285 3.3287 1.581 98.8596 -0.0234 0.0765 1842.0 1036.3019 1036.3041 35.0033 35.0061 1497.07 1497.07 228.059 0.0
2017-10-14T12:30:45Z -46.0552 22.8008 at3901001 1 1862.919 3.9043 3.9046 3.328 3.3283 1.5809 98.8605 -0.033 0.0798 1843.0 1036.3071 1036.309 35.0031 35.0056 1497.07 1497.07 228.096 0.0
2017-10-14T12:30:45Z -46.0552 22.8008 at3901001 1 1863.934 3.8982 3.8985 3.3275 3.3278 1.5803 98.8664 -0.0378 0.0775 1844.0 1036.3117 1036.3142 35.0021 35.0053 1497.06 1497.06 228.039 0.0
2017-10-14T12:30:45Z -46.0552 22.8008 at3901001 1 1864.95 3.8856 3.8858 3.3263 3.3266 1.5803 98.8599 -0.0628 0.0693 1845.0 1036.3175 1036.3202 35.0012 35.0048 1497.02 1497.02 228.16 0.0
2017-10-14T12:30:45Z -46.0552 22.8008 at3901001 1 1865.965 3.8787 3.8788 3.3258 3.326 1.58 98.8584 -0.053 0.0643 1846.0 1036.3239 1036.3259 35.0023 35.0049 1497.01 1497.01 228.165 0.0
2017-10-14T12:30:45Z -46.0552 22.8008 at3901001 1 1866.98 3.8772 3.8775 3.3257 3.3259 1.5799 98.8667 -0.0191 0.0804 1847.0 1036.3285 1036.3303 35.0022 35.0045 1497.02 1497.02 228.177 0.0
2017-10-14T12:30:45Z -46.0552 22.8008 at3901001 1 1867.995 3.8751 3.8753 3.3256 3.3258 1.5799 98.8604 -0.0267 0.0824 1848.0 1036.3335 1036.3353 35.0023 35.0046 1497.03 1497.03 228.225 0.0
2017-10-14T12:30:45Z -46.0552 22.8008 at3901001 1 1869.011 3.8736 3.8738 3.3255 3.3257 1.58 98.8569 -0.0145 0.0824 1849.0 1036.3383 1036.3401 35.0023 35.0047 1497.04 1497.04 228.293 0.0
2017-10-14T12:30:45Z -46.0552 22.8008 at3901001 1 1870.026 3.8733 3.8736 3.3255 3.3257 1.5802 98.8623 -0.0292 0.0685 1850.0 1036.3429 1036.3448 35.0024 35.0048 1497.05 1497.06 228.37 0.0
2017-10-14T12:30:45Z -46.0552 22.8008 at3901001 1 1871.041 3.8726 3.873 3.3255 3.3257 1.5806 98.8579 -0.0218 0.066 1851.0 1036.3475 1036.3492 35.0024 35.0046 1497.07 1497.07 228.474 0.0
2017-10-14T12:30:45Z -46.0552 22.8008 at3901001 1 1872.057 3.8702 3.8705 3.3253 3.3255 1.5805 98.8648 -0.0298 0.0719 1852.0 1036.3524 1036.3542 35.0023 35.0047 1497.08 1497.08 228.503 0.0
2017-10-14T12:30:45Z -46.0552 22.8008 at3901001 1 1873.072 3.8679 3.8683 3.3251 3.3254 1.5804 98.8633 -0.0198 0.0758 1853.0 1036.357 1036.359 35.002 35.0046 1497.08 1497.09 228.525 0.0
2017-10-14T12:30:45Z -46.0552 22.8008 at3901001 1 1874.087 3.8635 3.8637 3.3247 3.325 1.5801 98.8597 -0.017 0.0703 1854.0 1036.362 1036.3641 35.0017 35.0044 1497.08 1497.09 228.523 0.0
2017-10-14T12:30:45Z -46.0552 22.8008 at3901001 1 1875.102 3.8606 3.861 3.3245 3.3248 1.5797 98.8592 -0.0306 0.0647 1855.0 1036.3671 1036.3689 35.0018 35.0042 1497.08 1497.09 228.489 0.0
2017-10-14T12:30:45Z -46.0552 22.8008 at3901001 1 1876.118 3.8597 3.8598 3.3245 3.3247 1.5798 98.859 -0.004 0.0697 1856.0 1036.3718 1036.3736 35.0019 35.0042 1497.1 1497.1 228.534 0.0
2017-10-14T12:30:45Z -46.0552 22.8008 at3901001 1 1877.133 3.8591 3.8595 3.3245 3.3247 1.5794 98.8605 1.0E-4 0.0762 1857.0 1036.3765 1036.3782 35.0019 35.0041 1497.11 1497.12 228.5 0.0
2017-10-14T12:30:45Z -46.0552 22.8008 at3901001 1 1878.148 3.8576 3.8581 3.3244 3.3246 1.5792 98.8608 -0.0163 0.0763 1858.0 1036.3812 1036.3829 35.0018 35.0041 1497.12 1497.13 228.488 0.0
2017-10-14T12:30:45Z -46.0552 22.8008 at3901001 1 1879.164 3.8554 3.8558 3.3242 3.3245 1.579 98.8569 -0.0186 0.0763 1859.0 1036.3859 1036.3879 35.0017 35.0043 1497.13 1497.14 228.495 0.0
2017-10-14T12:30:45Z -46.0552 22.8008 at3901001 1 1880.179 3.8524 3.8527 3.324 3.3242 1.5786 98.8656 -0.0255 0.0698 1860.0 1036.3909 1036.3927 35.0017 35.004 1497.14 1497.14 228.453 0.0
2017-10-14T12:30:45Z -46.0552 22.8008 at3901001 1 1881.194 3.8517 3.8519 3.3239 3.3242 1.5786 98.8601 -0.0237 0.0702 1861.0 1036.3954 1036.3973 35.0015 35.0039 1497.15 1497.15 228.494 0.0
2017-10-14T12:30:45Z -46.0552 22.8008 at3901001 1 1882.21 3.8513 3.8513 3.3239 3.3242 1.5785 98.8629 -0.0286 0.0764 1862.0 1036.4 1036.402 35.0015 35.004 1497.16 1497.17 228.513 0.0
2017-10-14T12:30:45Z -46.0552 22.8008 at3901001 1 1883.225 3.8507 3.8509 3.3239 3.3242 1.5785 98.868 -0.035 0.0763 1863.0 1036.4046 1036.4065 35.0015 35.0039 1497.18 1497.18 228.549 0.0
2017-10-14T12:30:45Z -46.0552 22.8008 at3901001 1 1884.241 3.8502 3.8505 3.3239 3.3242 1.5785 98.8717 -0.0336 0.0763 1864.0 1036.4093 1036.411 35.0015 35.0037 1497.2 1497.2 228.573 0.0
2017-10-14T12:30:45Z -46.0552 22.8008 at3901001 1 1885.256 3.8495 3.8495 3.3239 3.3241 1.5777 98.8687 -0.0353 0.0826 1865.0 1036.414 1036.4159 35.0015 35.004 1497.21 1497.21 228.432 0.0
2017-10-14T12:30:45Z -46.0552 22.8008 at3901001 1 1886.271 3.8484 3.8485 3.3239 3.3241 1.5774 98.8583 -0.0345 0.0745 1866.0 1036.4186 1036.4205 35.0015 35.0039 1497.22 1497.23 228.404 0.0
2017-10-14T12:30:45Z -46.0552 22.8008 at3901001 1 1887.287 3.8477 3.8479 3.3238 3.324 1.5773 98.857 -0.0398 0.0721 1867.0 1036.4233 1036.425 35.0015 35.0037 1497.24 1497.24 228.425 0.0
2017-10-14T12:30:45Z -46.0552 22.8008 at3901001 1 1888.302 3.8477 3.8479 3.3239 3.3241 1.5767 98.8653 -0.0458 0.0762 1868.0 1036.4278 1036.4295 35.0014 35.0037 1497.25 1497.26 228.331 0.0
2017-10-14T12:30:45Z -46.0552 22.8008 at3901001 1 1889.317 3.8468 3.847 3.3238 3.324 1.5765 98.8587 -0.0247 0.0729 1869.0 1036.4323 1036.4341 35.0012 35.0036 1497.27 1497.27 228.317 0.0
2017-10-14T12:30:45Z -46.0552 22.8008 at3901001 1 1890.333 3.8451 3.8454 3.3237 3.3239 1.5766 98.8628 -0.0162 0.0701 1870.0 1036.4369 1036.4387 35.001 35.0033 1497.27 1497.28 228.39 0.0
2017-10-14T12:30:45Z -46.0552 22.8008 at3901001 1 1891.348 3.843 3.8433 3.3236 3.3238 1.5768 98.8646 -0.0065 0.0746 1871.0 1036.4419 1036.4436 35.0012 35.0034 1497.28 1497.29 228.479 0.0
2017-10-14T12:30:45Z -46.0552 22.8008 at3901001 1 1892.363 3.8417 3.8419 3.3235 3.3237 1.5768 98.8682 -0.0171 0.0731 1872.0 1036.4466 1036.4485 35.0011 35.0036 1497.29 1497.3 228.51 0.0
2017-10-14T12:30:45Z -46.0552 22.8008 at3901001 1 1893.379 3.8402 3.8406 3.3234 3.3236 1.5765 98.8607 -0.0283 0.0702 1873.0 1036.4514 1036.453 35.0011 35.0033 1497.31 1497.31 228.492 0.0
2017-10-14T12:30:45Z -46.0552 22.8008 at3901001 1 1894.394 3.8379 3.8381 3.3232 3.3234 1.5765 98.8651 -0.0304 0.0742 1874.0 1036.4561 1036.458 35.0009 35.0034 1497.31 1497.32 228.52 0.0
2017-10-14T12:30:45Z -46.0552 22.8008 at3901001 1 1895.41 3.8356 3.8357 3.323 3.3232 1.5764 98.8649 -0.0528 0.0794 1875.0 1036.461 1036.4627 35.0009 35.0031 1497.32 1497.32 228.555 0.0
2017-10-14T12:30:45Z -46.0552 22.8008 at3901001 1 1896.425 3.835 3.8352 3.323 3.3232 1.5763 98.8665 -0.0191 0.0802 1876.0 1036.4656 1036.4674 35.001 35.0032 1497.33 1497.34 228.564 0.0
2017-10-14T12:30:45Z -46.0552 22.8008 at3901001 1 1897.44 3.8333 3.8337 3.3229 3.3231 1.5762 98.8592 0.0104 0.0691 1877.0 1036.4704 1036.4722 35.0009 35.0033 1497.34 1497.35 228.578 0.0
2017-10-14T12:30:45Z -46.0552 22.8008 at3901001 1 1898.456 3.8318 3.832 3.3228 3.3231 1.5761 98.8606 -0.0153 0.0679 1878.0 1036.4754 1036.4772 35.0012 35.0035 1497.36 1497.36 228.613 0.0
2017-10-14T12:30:45Z -46.0552 22.8008 at3901001 1 1899.471 3.8319 3.8321 3.3229 3.3231 1.5755 98.8703 -0.0344 0.0671 1879.0 1036.4799 1036.4815 35.0011 35.0033 1497.37 1497.38 228.518 0.0
2017-10-14T12:30:45Z -46.0552 22.8008 at3901001 1 1900.487 3.832 3.8321 3.3229 3.3231 1.5757 98.8667 -0.0319 0.0653 1880.0 1036.4844 1036.4862 35.0011 35.0034 1497.39 1497.39 228.585 0.0
2017-10-14T12:30:45Z -46.0552 22.8008 at3901001 1 1901.502 3.8306 3.8307 3.3228 3.3231 1.5754 98.8658 -0.0176 0.0707 1881.0 1036.4891 1036.491 35.001 35.0035 1497.4 1497.41 228.552 0.0
2017-10-14T12:30:45Z -46.0552 22.8008 at3901001 1 1902.518 3.8295 3.8297 3.3228 3.323 1.5752 98.8634 -0.0024 0.0817 1882.0 1036.4937 1036.4955 35.0009 35.0032 1497.41 1497.42 228.553 0.0
2017-10-14T12:30:45Z -46.0552 22.8008 at3901001 1 1903.533 3.8289 3.8292 3.3228 3.323 1.575 98.8718 -0.0221 0.0776 1883.0 1036.4982 1036.5 35.0007 35.0031 1497.43 1497.43 228.552 0.0
2017-10-14T12:30:45Z -46.0552 22.8008 at3901001 1 1904.548 3.8289 3.8291 3.3228 3.323 1.575 98.8665 -0.0438 0.0804 1884.0 1036.5029 1036.5046 35.0009 35.0032 1497.45 1497.45 228.562 0.0
2017-10-14T12:30:45Z -46.0552 22.8008 at3901001 1 1905.564 3.8291 3.8295 3.3229 3.3231 1.575 98.8714 -0.0335 0.0763 1885.0 1036.5075 1036.5089 35.001 35.003 1497.46 1497.47 228.601 0.0
2017-10-14T12:30:45Z -46.0552 22.8008 at3901001 1 1906.579 3.8291 3.8294 3.3229 3.3231 1.5749 98.8638 -0.0381 0.0741 1886.0 1036.512 1036.5135 35.001 35.003 1497.48 1497.49 228.618 0.0
2017-10-14T12:30:45Z -46.0552 22.8008 at3901001 1 1907.595 3.8289 3.829 3.3229 3.3231 1.5748 98.8659 -0.0466 0.0719 1887.0 1036.5165 1036.5183 35.0009 35.0032 1497.5 1497.5 228.628 0.0
2017-10-14T12:30:45Z -46.0552 22.8008 at3901001 1 1908.61 3.8282 3.8287 3.3229 3.3231 1.5746 98.8623 -0.0294 0.0724 1888.0 1036.5211 1036.5227 35.0009 35.003 1497.51 1497.52 228.619 0.0
2017-10-14T12:30:45Z -46.0552 22.8008 at3901001 1 1909.626 3.8268 3.827 3.3228 3.323 1.5741 98.8669 -0.0201 0.0679 1889.0 1036.5258 1036.5277 35.0007 35.0032 1497.52 1497.53 228.541 0.0
2017-10-14T12:30:45Z -46.0552 22.8008 at3901001 1 1910.641 3.8244 3.8248 3.3226 3.3229 1.5739 98.862 -0.0173 0.0764 1890.0 1036.5305 1036.5322 35.0006 35.0028 1497.53 1497.53 228.545 0.0
2017-10-14T12:30:45Z -46.0552 22.8008 at3901001 1 1911.657 3.8181 3.8185 3.322 3.3223 1.5737 98.8691 -0.0196 0.0755 1891.0 1036.5352 1036.5375 34.9995 35.0025 1497.52 1497.52 228.571 0.0
2017-10-14T12:30:45Z -46.0552 22.8008 at3901001 1 1912.672 3.8132 3.8135 3.3216 3.3219 1.5738 98.8676 -0.0342 0.0702 1892.0 1036.5407 1036.5425 34.9998 35.0021 1497.52 1497.52 228.661 0.0
2017-10-14T12:30:45Z -46.0552 22.8008 at3901001 1 1913.688 3.8117 3.8119 3.3216 3.3218 1.5739 98.8662 -0.0207 0.0754 1893.0 1036.5456 1036.5473 35.0 35.0022 1497.53 1497.53 228.712 0.0
2017-10-14T12:30:45Z -46.0552 22.8008 at3901001 1 1914.703 3.811 3.8112 3.3215 3.3217 1.5735 98.8652 -0.0181 0.0763 1894.0 1036.5501 1036.5519 34.9998 35.0021 1497.54 1497.54 228.674 0.0
2017-10-14T12:30:45Z -46.0552 22.8008 at3901001 1 1915.719 3.8087 3.8088 3.3213 3.3216 1.5734 98.8711 -0.0422 0.0752 1895.0 1036.5547 1036.5568 34.9994 35.0021 1497.55 1497.55 228.695 0.0
2017-10-14T12:30:45Z -46.0552 22.8008 at3901001 1 1916.734 3.8052 3.8054 3.321 3.3213 1.573 98.8657 -0.0176 0.074 1896.0 1036.5596 1036.5616 34.9992 35.0017 1497.55 1497.55 228.668 0.0
2017-10-14T12:30:45Z -46.0552 22.8008 at3901001 1 1917.75 3.8029 3.8031 3.3209 3.3211 1.5732 98.8608 -0.0189 0.0811 1897.0 1036.5646 1036.5664 34.9994 35.0017 1497.56 1497.56 228.753 0.0
2017-10-14T12:30:45Z -46.0552 22.8008 at3901001 1 1918.765 3.8029 3.803 3.3209 3.3211 1.5728 98.8661 -0.0189 0.0761 1898.0 1036.5692 1036.5709 34.9995 35.0017 1497.57 1497.58 228.692 0.0
2017-10-14T12:30:45Z -46.0552 22.8008 at3901001 1 1919.781 3.8028 3.803 3.321 3.3212 1.5726 98.8711 -0.0171 0.0591 1899.0 1036.5737 1036.5754 34.9993 35.0016 1497.59 1497.59 228.684 0.0
2017-10-14T12:30:45Z -46.0552 22.8008 at3901001 1 1920.796 3.8027 3.8029 3.321 3.3212 1.5726 98.8658 -0.0187 0.0706 1900.0 1036.5782 1036.5799 34.9993 35.0015 1497.61 1497.61 228.716 0.0
2017-10-14T12:30:45Z -46.0552 22.8008 at3901001 1 1921.812 3.8022 3.8024 3.321 3.3212 1.5724 98.8648 -0.0402 0.0764 1901.0 1036.5828 1036.5844 34.9992 35.0013 1497.62 1497.63 228.698 0.0
2017-10-14T12:30:45Z -46.0552 22.8008 at3901001 1 1922.827 3.8006 3.8007 3.3208 3.3211 1.5723 98.8709 -0.0648 0.0763 1902.0 1036.5873 1036.5893 34.9989 35.0014 1497.63 1497.63 228.737 0.0
2017-10-14T12:30:45Z -46.0552 22.8008 at3901001 1 1923.843 3.7989 3.7992 3.3207 3.321 1.5726 98.8702 -0.0173 0.07 1903.0 1036.5922 1036.5938 34.999 35.0011 1497.64 1497.65 228.833 0.0
2017-10-14T12:30:45Z -46.0552 22.8008 at3901001 1 1924.858 3.7984 3.7986 3.3207 3.3209 1.5724 98.8647 -0.0174 0.0702 1904.0 1036.5968 1036.5985 34.999 35.0012 1497.66 1497.66 228.83 0.0
2017-10-14T12:30:45Z -46.0552 22.8008 at3901001 1 1925.874 3.7977 3.798 3.3207 3.3209 1.5725 98.872 -0.0174 0.0702 1905.0 1036.6014 1036.603 34.9989 35.0011 1497.67 1497.67 228.887 0.0
2017-10-14T12:30:45Z -46.0552 22.8008 at3901001 1 1926.889 3.7949 3.7952 3.3205 3.3207 1.5718 98.8686 -0.0181 0.0702 1906.0 1036.606 1036.6079 34.9985 35.001 1497.67 1497.68 228.773 0.0
2017-10-14T12:30:45Z -46.0552 22.8008 at3901001 1 1927.905 3.7904 3.7907 3.3201 3.3203 1.5715 98.8665 -0.0191 0.0796 1907.0 1036.611 1036.613 34.9982 35.0008 1497.67 1497.68 228.765 0.0
2017-10-14T12:30:45Z -46.0552 22.8008 at3901001 1 1928.92 3.7874 3.7875 3.3199 3.3201 1.5715 98.8697 -0.0184 0.0659 1908.0 1036.616 1036.618 34.9982 35.0008 1497.68 1497.68 228.821 0.0
2017-10-14T12:30:45Z -46.0552 22.8008 at3901001 1 1929.936 3.7857 3.7861 3.3198 3.32 1.5715 98.872 -0.017 0.0702 1909.0 1036.6208 1036.6224 34.9982 35.0004 1497.69 1497.69 228.855 0.0
2017-10-14T12:30:45Z -46.0552 22.8008 at3901001 1 1930.952 3.7849 3.7851 3.3197 3.3199 1.5713 98.8667 -0.0346 0.0702 1910.0 1036.6255 1036.6271 34.9983 35.0004 1497.7 1497.7 228.868 0.0
2017-10-14T12:30:45Z -46.0552 22.8008 at3901001 1 1931.968 3.783 3.7833 3.3196 3.3198 1.571 98.8689 -0.0194 0.0806 1911.0 1036.63 1036.6319 34.9979 35.0003 1497.71 1497.71 228.847 0.0
2017-10-14T12:30:45Z -46.0552 22.8008 at3901001 1 1932.983 3.7803 3.7804 3.3194 3.3196 1.5707 98.8696 -0.0288 0.078 1912.0 1036.6349 1036.6368 34.9978 35.0002 1497.72 1497.72 228.824 0.0
2017-10-14T12:30:45Z -46.0552 22.8008 at3901001 1 1933.999 3.7772 3.7773 3.3191 3.3193 1.5706 98.8666 -0.0216 0.073 1913.0 1036.6398 1036.6417 34.9976 35.0001 1497.72 1497.72 228.847 0.0
2017-10-14T12:30:45Z -46.0552 22.8008 at3901001 1 1935.014 3.7747 3.7748 3.3189 3.3191 1.5708 98.8739 -0.0268 0.0702 1914.0 1036.6447 1036.6465 34.9976 35.0 1497.73 1497.73 228.934 0.0
2017-10-14T12:30:45Z -46.0552 22.8008 at3901001 1 1936.03 3.7733 3.7735 3.3188 3.319 1.571 98.8668 -0.0475 0.0702 1915.0 1036.6494 1036.6511 34.9976 34.9998 1497.74 1497.74 229.02 0.0
2017-10-14T12:30:45Z -46.0552 22.8008 at3901001 1 1937.045 3.7719 3.7722 3.3187 3.319 1.5712 98.8674 -0.0256 0.0702 1916.0 1036.654 1036.6558 34.9974 34.9998 1497.75 1497.75 229.102 0.0
2017-10-14T12:30:45Z -46.0552 22.8008 at3901001 1 1938.061 3.7694 3.7695 3.3185 3.3188 1.5713 98.8624 -0.02 0.0759 1917.0 1036.6589 1036.6608 34.9973 34.9999 1497.75 1497.76 229.161 0.0
2017-10-14T12:30:45Z -46.0552 22.8008 at3901001 1 1939.076 3.7625 3.7627 3.3179 3.3182 1.5712 98.8692 -0.001 0.0709 1918.0 1036.6638 1036.666 34.9964 34.9994 1497.74 1497.75 229.222 0.0
2017-10-14T12:30:45Z -46.0552 22.8008 at3901001 1 1940.092 3.758 3.7584 3.3176 3.3178 1.5704 98.8733 -0.0165 0.0702 1919.0 1036.6691 1036.6709 34.9967 34.999 1497.74 1497.74 229.114 0.0
2017-10-14T12:30:45Z -46.0552 22.8008 at3901001 1 1941.108 3.7562 3.7564 3.3174 3.3177 1.5705 98.8686 -0.0324 0.0702 1920.0 1036.6739 1036.6757 34.9966 34.999 1497.75 1497.75 229.185 0.0
2017-10-14T12:30:45Z -46.0552 22.8008 at3901001 1 1942.123 3.7545 3.7546 3.3173 3.3175 1.5704 98.8678 -0.0332 0.0746 1921.0 1036.6786 1036.6804 34.9965 34.9988 1497.76 1497.76 229.187 0.0
2017-10-14T12:30:45Z -46.0552 22.8008 at3901001 1 1943.139 3.7534 3.7535 3.3172 3.3175 1.5702 98.8718 -0.0186 0.0814 1922.0 1036.6832 1036.6851 34.9963 34.9987 1497.77 1497.77 229.194 0.0
2017-10-14T12:30:45Z -46.0552 22.8008 at3901001 1 1944.154 3.7517 3.752 3.3171 3.3173 1.5704 98.8702 -0.0162 0.0765 1923.0 1036.688 1036.6896 34.9964 34.9985 1497.78 1497.79 229.28 0.0
2017-10-14T12:30:45Z -46.0552 22.8008 at3901001 1 1945.17 3.7501 3.7505 3.317 3.3172 1.5702 98.861 -0.0336 0.0648 1924.0 1036.6927 1036.6943 34.9963 34.9984 1497.79 1497.8 229.282 0.0
2017-10-14T12:30:45Z -46.0552 22.8008 at3901001 1 1946.186 3.749 3.7491 3.3169 3.3172 1.5701 98.8681 -0.0229 0.0686 1925.0 1036.6973 1036.6992 34.9961 34.9985 1497.8 1497.81 229.29 0.0
2017-10-14T12:30:45Z -46.0552 22.8008 at3901001 1 1947.201 3.7434 3.7438 3.3164 3.3167 1.5695 98.8625 -0.0142 0.0702 1926.0 1036.7018 1036.7042 34.995 34.9981 1497.8 1497.8 229.226 0.0
2017-10-14T12:30:45Z -46.0552 22.8008 at3901001 1 1948.217 3.7367 3.7369 3.3159 3.3161 1.5695 98.8654 -0.0326 0.075 1927.0 1036.7075 1036.7095 34.9952 34.9979 1497.78 1497.79 229.298 0.0
2017-10-14T12:30:45Z -46.0552 22.8008 at3901001 1 1949.233 3.7345 3.7346 3.3157 3.3159 1.5692 98.8688 -0.041 0.0787 1928.0 1036.7123 1036.7141 34.9951 34.9974 1497.79 1497.8 229.296 0.0
2017-10-14T12:30:45Z -46.0552 22.8008 at3901001 1 1950.249 3.7334 3.7336 3.3156 3.3159 1.569 98.8693 -0.0194 0.0704 1929.0 1036.717 1036.7189 34.9951 34.9975 1497.8 1497.81 229.277 0.0
2017-10-14T12:30:45Z -46.0552 22.8008 at3901001 1 1951.264 3.7278 3.7281 3.3152 3.3154 1.5691 98.8678 -0.0184 0.0763 1930.0 1036.7221 1036.7243 34.9948 34.9976 1497.8 1497.8 229.357 0.0
2017-10-14T12:30:45Z -46.0552 22.8008 at3901001 1 1952.28 3.7243 3.7245 3.3149 3.3151 1.5691 98.8696 -0.018 0.0763 1931.0 1036.7276 1036.7294 34.9953 34.9976 1497.8 1497.81 229.421 0.0
2017-10-14T12:30:45Z -46.0552 22.8008 at3901001 1 1953.296 3.7224 3.7221 3.3148 3.315 1.569 98.8721 -0.0301 0.0711 1932.0 1036.7323 1036.7342 34.9952 34.9976 1497.81 1497.81 229.45 0.0
2017-10-14T12:30:45Z -46.0552 22.8008 at3901001 1 1954.311 3.7212 3.7218 3.3147 3.315 1.5691 98.8692 -0.0319 0.0702 1933.0 1036.7367 1036.7387 34.9948 34.9975 1497.82 1497.83 229.502 0.0
2017-10-14T12:30:45Z -46.0552 22.8008 at3901001 1 1955.327 3.7185 3.7193 3.3145 3.3148 1.5688 98.867 -0.0475 0.0702 1934.0 1036.7417 1036.7434 34.9948 34.9972 1497.83 1497.83 229.481 0.0
2017-10-14T12:30:45Z -46.0552 22.8008 at3901001 1 1956.343 3.7172 3.7174 3.3144 3.3146 1.5683 98.8662 -0.0517 0.0657 1935.0 1036.7465 1036.7481 34.9948 34.9969 1497.84 1497.84 229.416 0.0
2017-10-14T12:30:45Z -46.0552 22.8008 at3901001 1 1957.358 3.7169 3.717 3.3144 3.3146 1.5682 98.8754 -0.0381 0.0738 1936.0 1036.7511 1036.7526 34.9949 34.9968 1497.86 1497.86 229.419 0.0
2017-10-14T12:30:45Z -46.0552 22.8008 at3901001 1 1958.374 3.7163 3.7165 3.3144 3.3146 1.5679 98.8613 -0.0058 0.0763 1937.0 1036.756 1036.7576 34.9952 34.9973 1497.87 1497.87 229.396 0.0
2017-10-14T12:30:45Z -46.0552 22.8008 at3901001 1 1959.39 3.7153 3.7155 3.3144 3.3146 1.5678 98.8743 0.0 0.0675 1938.0 1036.7606 1036.7625 34.9951 34.9975 1497.88 1497.89 229.422 0.0
2017-10-14T12:30:45Z -46.0552 22.8008 at3901001 1 1960.405 3.7124 3.7126 3.3142 3.3144 1.5677 98.8629 -0.0235 0.0641 1939.0 1036.7658 1036.7676 34.9954 34.9978 1497.89 1497.89 229.432 0.0
2017-10-14T12:30:45Z -46.0552 22.8008 at3901001 1 1961.421 3.7116 3.7118 3.3142 3.3144 1.5676 98.8621 -0.0232 0.0678 1940.0 1036.7707 1036.7723 34.9957 34.9978 1497.9 1497.91 229.443 0.0
2017-10-14T12:30:45Z -46.0552 22.8008 at3901001 1 1962.437 3.711 3.7111 3.3142 3.3144 1.5673 98.8677 -0.0288 0.0701 1941.0 1036.7752 1036.7771 34.9955 34.998 1497.92 1497.92 229.416 0.0
2017-10-14T12:30:45Z -46.0552 22.8008 at3901001 1 1963.452 3.7085 3.7088 3.314 3.3142 1.5674 98.8717 -0.0201 0.074 1942.0 1036.7802 1036.7819 34.9957 34.9979 1497.92 1497.93 229.486 0.0
2017-10-14T12:30:45Z -46.0552 22.8008 at3901001 1 1964.468 3.7073 3.7071 3.3139 3.3141 1.567 98.8707 -0.0298 0.0718 1943.0 1036.7846 1036.7868 34.9953 34.9981 1497.93 1497.94 229.454 0.0
2017-10-14T12:30:45Z -46.0552 22.8008 at3901001 1 1965.484 3.7011 3.7018 3.3134 3.3136 1.5674 98.8736 -0.0092 0.075 1944.0 1036.7899 1036.7918 34.9951 34.9977 1497.93 1497.93 229.605 0.0
2017-10-14T12:30:45Z -46.0552 22.8008 at3901001 1 1966.5 3.7008 3.7009 3.3134 3.3136 1.5677 98.8766 -0.0355 0.0718 1945.0 1036.7948 1036.7964 34.9954 34.9975 1497.94 1497.94 229.706 0.0
2017-10-14T12:30:45Z -46.0552 22.8008 at3901001 1 1967.515 3.7001 3.7006 3.3133 3.3136 1.5677 98.8716 -0.031 0.0763 1946.0 1036.799 1036.8009 34.9949 34.9974 1497.96 1497.96 229.724 0.0
2017-10-14T12:30:45Z -46.0552 22.8008 at3901001 1 1968.532 3.6954 3.6956 3.313 3.3132 1.5673 98.8742 -2.0E-4 0.0763 1947.0 1036.8045 1036.8064 34.9952 34.9977 1497.95 1497.96 229.713 0.0
2017-10-14T12:30:45Z -46.0552 22.8008 at3901001 1 1969.547 3.6949 3.6949 3.313 3.3132 1.5669 98.8647 -0.0233 0.0807 1948.0 1036.8092 1036.811 34.9954 34.9976 1497.97 1497.97 229.656 0.0
2017-10-14T12:30:45Z -46.0552 22.8008 at3901001 1 1970.563 3.6947 3.6949 3.313 3.3132 1.5668 98.8725 -0.0271 0.0824 1949.0 1036.8137 1036.8154 34.9953 34.9974 1497.98 1497.99 229.656 0.0
2017-10-14T12:30:45Z -46.0552 22.8008 at3901001 1 1971.579 3.6947 3.6949 3.3131 3.3133 1.5666 98.8642 -0.0159 0.0799 1950.0 1036.8183 1036.8199 34.9953 34.9974 1498.0 1498.0 229.662 0.0
2017-10-14T12:30:45Z -46.0552 22.8008 at3901001 1 1972.594 3.6942 3.6944 3.313 3.3132 1.5667 98.8733 -0.0272 0.0727 1951.0 1036.8227 1036.8244 34.995 34.9973 1498.01 1498.02 229.7 0.0
2017-10-14T12:30:45Z -46.0552 22.8008 at3901001 1 1973.61 3.6935 3.6927 3.313 3.3131 1.5667 98.8695 -0.0317 0.0752 1952.0 1036.8271 1036.8293 34.9947 34.9974 1498.03 1498.03 229.738 0.0
2017-10-14T12:30:45Z -46.0552 22.8008 at3901001 1 1974.626 3.6881 3.6876 3.3125 3.3127 1.5673 98.8737 -0.0436 0.07 1953.0 1036.8324 1036.8345 34.9947 34.9972 1498.02 1498.02 229.943 0.0
2017-10-14T12:30:45Z -46.0552 22.8008 at3901001 1 1975.642 3.6844 3.6852 3.3122 3.3125 1.5669 98.8737 -0.0477 0.0715 1954.0 1036.8373 1036.8392 34.9944 34.997 1498.02 1498.03 229.905 0.0
2017-10-14T12:30:45Z -46.0552 22.8008 at3901001 1 1976.657 3.6797 3.6798 3.3118 3.3121 1.567 98.8717 -0.0221 0.0762 1955.0 1036.8424 1036.8444 34.9942 34.9969 1498.02 1498.03 229.987 0.0
2017-10-14T12:30:45Z -46.0552 22.8008 at3901001 1 1977.673 3.6769 3.6772 3.3116 3.3119 1.567 98.8654 -0.0229 0.0711 1956.0 1036.8472 1036.8492 34.9941 34.9966 1498.03 1498.03 230.044 0.0
2017-10-14T12:30:45Z -46.0552 22.8008 at3901001 1 1978.689 3.6749 3.6754 3.3115 3.3117 1.5667 98.8667 -0.0353 0.0729 1957.0 1036.8521 1036.854 34.9941 34.9966 1498.04 1498.04 230.022 0.0
2017-10-14T12:30:45Z -46.0552 22.8008 at3901001 1 1979.705 3.673 3.6733 3.3114 3.3116 1.5668 98.8678 -0.047 0.0761 1958.0 1036.857 1036.8587 34.9942 34.9964 1498.04 1498.05 230.08 0.0
2017-10-14T12:30:45Z -46.0552 22.8008 at3901001 1 1980.72 3.6725 3.6726 3.3113 3.3115 1.5664 98.8758 -0.039 0.0707 1959.0 1036.8615 1036.8633 34.994 34.9963 1498.06 1498.06 230.028 0.0
2017-10-14T12:30:45Z -46.0552 22.8008 at3901001 1 1981.736 3.671 3.6709 3.3112 3.3114 1.5661 98.8699 -0.0259 0.0687 1960.0 1036.8662 1036.8681 34.9939 34.9964 1498.07 1498.07 230.012 0.0
2017-10-14T12:30:45Z -46.0552 22.8008 at3901001 1 1982.752 3.6698 3.6701 3.3112 3.3114 1.5663 98.8736 -0.0218 0.0822 1961.0 1036.8709 1036.8725 34.9939 34.9961 1498.08 1498.09 230.077 0.0
2017-10-14T12:30:45Z -46.0552 22.8008 at3901001 1 1983.768 3.6682 3.6684 3.3111 3.3113 1.5657 98.872 -0.0222 0.0763 1962.0 1036.8757 1036.8773 34.994 34.9961 1498.09 1498.1 229.991 0.0
2017-10-14T12:30:45Z -46.0552 22.8008 at3901001 1 1984.784 3.6661 3.6663 3.3109 3.3111 1.5656 98.8672 -0.005 0.0763 1963.0 1036.8799 1036.8822 34.9931 34.9961 1498.1 1498.11 230.025 0.0
2017-10-14T12:30:45Z -46.0552 22.8008 at3901001 1 1985.799 3.6531 3.6531 3.3096 3.3099 1.5654 98.8683 -0.044 0.0763 1964.0 1036.885 1036.8875 34.9914 34.9945 1498.06 1498.07 230.102 0.0
2017-10-14T12:30:45Z -46.0552 22.8008 at3901001 1 1986.815 3.6467 3.6473 3.3091 3.3093 1.5655 98.8761 -0.0327 0.0804 1965.0 1036.8905 1036.8923 34.9913 34.9938 1498.05 1498.06 230.186 0.0
2017-10-14T12:30:45Z -46.0552 22.8008 at3901001 1 1987.831 3.6414 3.642 3.3086 3.3089 1.5655 98.8734 -0.0335 0.0782 1966.0 1036.8957 1036.8974 34.9913 34.9934 1498.04 1498.05 230.266 0.0
2017-10-14T12:30:45Z -46.0552 22.8008 at3901001 1 1988.847 3.6411 3.6412 3.3086 3.3088 1.565 98.8708 -0.0381 0.0719 1967.0 1036.9005 1036.902 34.9915 34.9935 1498.06 1498.06 230.186 0.0
2017-10-14T12:30:45Z -46.0552 22.8008 at3901001 1 1989.863 3.6414 3.6416 3.3087 3.3089 1.5651 98.8736 -0.0116 0.0702 1968.0 1036.9051 1036.9065 34.9915 34.9934 1498.08 1498.08 230.233 0.0
2017-10-14T12:30:45Z -46.0552 22.8008 at3901001 1 1990.879 3.6426 3.6422 3.3089 3.309 1.5645 98.8702 -0.0257 0.0702 1969.0 1036.9096 1036.9113 34.9917 34.9939 1498.1 1498.1 230.133 0.0
2017-10-14T12:30:45Z -46.0552 22.8008 at3901001 1 1991.895 3.643 3.643 3.309 3.3091 1.5644 98.8755 -0.0363 0.0735 1970.0 1036.9143 1036.9157 34.992 34.9938 1498.12 1498.12 230.129 0.0
2017-10-14T12:30:45Z -46.0552 22.8008 at3901001 1 1992.91 3.6429 3.6433 3.309 3.3092 1.5642 98.8731 -0.0304 0.0763 1971.0 1036.9186 1036.9203 34.9917 34.994 1498.14 1498.14 230.123 0.0
2017-10-14T12:30:45Z -46.0552 22.8008 at3901001 1 1993.927 3.6369 3.6369 3.3084 3.3087 1.5643 98.8711 -0.0207 0.0728 1972.0 1036.9234 1036.9255 34.991 34.9936 1498.13 1498.13 230.213 0.0
2017-10-14T12:30:45Z -46.0552 22.8008 at3901001 1 1994.943 3.6317 3.6308 3.3079 3.3081 1.5644 98.8743 -0.041 0.0742 1973.0 1036.928 1036.9305 34.99 34.993 1498.12 1498.12 230.29 0.0
2017-10-14T12:30:45Z -46.0552 22.8008 at3901001 1 1995.958 3.6246 3.6249 3.3073 3.3075 1.5642 98.8801 -0.0479 0.0701 1974.0 1036.9331 1036.9352 34.9894 34.9922 1498.11 1498.11 230.335 0.0
2017-10-14T12:30:45Z -46.0552 22.8008 at3901001 1 1996.974 3.6206 3.621 3.307 3.3072 1.5638 98.8749 -0.0394 0.0712 1975.0 1036.9382 1036.9401 34.9893 34.9918 1498.11 1498.11 230.304 0.0
2017-10-14T12:30:45Z -46.0552 22.8008 at3901001 1 1997.99 3.615 3.615 3.3064 3.3067 1.5636 98.8661 -0.0373 0.0828 1976.0 1036.9431 1036.9455 34.9887 34.9918 1498.1 1498.11 230.331 0.0
2017-10-14T12:30:45Z -46.0552 22.8008 at3901001 1 1999.006 3.6113 3.6114 3.3062 3.3064 1.5632 98.8631 -0.0293 0.0739 1977.0 1036.9485 1036.9503 34.9892 34.9915 1498.1 1498.11 230.292 0.0
2017-10-14T12:30:45Z -46.0552 22.8008 at3901001 1 2000.022 3.6106 3.6106 3.3062 3.3064 1.5635 98.8659 -0.0255 0.0732 1978.0 1036.9533 1036.955 34.9892 34.9915 1498.12 1498.12 230.388 0.0
2017-10-14T12:30:45Z -46.0552 22.8008 at3901001 1 2001.038 3.6104 3.6104 3.3062 3.3064 1.5634 98.8729 -0.037 0.0804 1979.0 1036.9577 1036.9594 34.9892 34.9913 1498.13 1498.14 230.396 0.0
2017-10-14T12:30:45Z -46.0552 22.8008 at3901001 1 2002.054 3.6101 3.6102 3.3062 3.3064 1.5633 98.8732 -0.0384 0.0665 1980.0 1036.9622 1036.964 34.989 34.9913 1498.15 1498.15 230.419 0.0
2017-10-14T12:30:45Z -46.0552 22.8008 at3901001 1 2003.07 3.6104 3.61 3.3063 3.3065 1.5633 98.8712 -0.025 0.0786 1981.0 1036.9668 1036.9688 34.9891 34.9916 1498.17 1498.17 230.448 0.0
2017-10-14T12:30:45Z -46.0552 22.8008 at3901001 1 2004.086 3.6105 3.6106 3.3063 3.3065 1.5634 98.8711 -0.0282 0.0826 1982.0 1036.9714 1036.9731 34.9892 34.9914 1498.19 1498.19 230.487 0.0
2017-10-14T12:30:45Z -46.0552 22.8008 at3901001 1 2005.101 3.6107 3.611 3.3064 3.3066 1.5633 98.8755 -0.0257 0.0794 1983.0 1036.9762 1036.9777 34.9895 34.9915 1498.2 1498.21 230.491 0.0
2017-10-14T12:30:45Z -46.0552 22.8008 at3901001 1 2006.117 3.6109 3.6111 3.3065 3.3067 1.5631 98.8769 -0.054 0.0699 1984.0 1036.9807 1036.9822 34.9896 34.9915 1498.22 1498.22 230.495 0.0
2017-10-14T12:30:45Z -46.0552 22.8008 at3901001 1 2007.133 3.611 3.6113 3.3065 3.3067 1.5628 98.8746 -0.0161 0.0702 1985.0 1036.9853 1036.9868 34.9896 34.9917 1498.24 1498.24 230.45 0.0
2017-10-14T12:30:45Z -46.0552 22.8008 at3901001 1 2008.149 3.6111 3.6114 3.3066 3.3068 1.5627 98.8693 -0.0275 0.0657 1986.0 1036.9898 1036.9913 34.9896 34.9916 1498.26 1498.26 230.461 0.0
2017-10-14T12:30:45Z -46.0552 22.8008 at3901001 1 2009.165 3.611 3.6114 3.3066 3.3068 1.5623 98.8703 -0.0355 0.0658 1987.0 1036.9944 1036.9959 34.9896 34.9917 1498.27 1498.28 230.409 0.0
2017-10-14T12:30:45Z -46.0552 22.8008 at3901001 1 2010.181 3.6098 3.6102 3.3066 3.3068 1.5623 98.8781 -0.0333 0.0706 1988.0 1036.9991 1037.0007 34.9896 34.9918 1498.28 1498.29 230.446 0.0
2017-10-14T12:30:45Z -46.0552 22.8008 at3901001 1 2011.197 3.6096 3.6099 3.3066 3.3068 1.562 98.8777 3.0E-4 0.0639 1989.0 1037.0036 1037.0053 34.9895 34.9918 1498.3 1498.31 230.419 0.0
2017-10-14T12:30:45Z -46.0552 22.8008 at3901001 1 2012.213 3.6096 3.6091 3.3066 3.3068 1.562 98.8756 -0.0387 0.0729 1990.0 1037.0081 1037.0101 34.9896 34.9919 1498.32 1498.32 230.441 0.0
2017-10-14T12:30:45Z -46.0552 22.8008 at3901001 1 2013.229 3.6082 3.6082 3.3065 3.3067 1.5619 98.8764 -0.0029 0.0767 1991.0 1037.0126 1037.0147 34.9892 34.9918 1498.33 1498.33 230.463 0.0
2017-10-14T12:30:45Z -46.0552 22.8008 at3901001 1 2014.245 3.6043 3.6043 3.3062 3.3064 1.5618 98.8772 0.0 0.0798 1992.0 1037.018 1037.0197 34.9895 34.9918 1498.33 1498.33 230.486 0.0
2017-10-14T12:30:45Z -46.0552 22.8008 at3901001 1 2015.261 3.6025 3.6025 3.3061 3.3063 1.5617 98.8686 -0.0044 0.0824 1993.0 1037.0229 1037.0247 34.9897 34.992 1498.34 1498.34 230.513 0.0
2017-10-14T12:30:45Z -46.0552 22.8008 at3901001 1 2016.277 3.6022 3.6023 3.3061 3.3063 1.5614 98.871 -0.0157 0.0824 1994.0 1037.0275 1037.0292 34.9897 34.9918 1498.36 1498.36 230.475 0.0
2017-10-14T12:30:45Z -46.0552 22.8008 at3901001 1 2017.293 3.6001 3.5999 3.3059 3.3062 1.5611 98.8561 -0.0164 0.0736 1995.0 1037.032 1037.0341 34.9892 34.9919 1498.36 1498.37 230.468 0.0
2017-10-14T12:30:45Z -46.0552 22.8008 at3901001 1 2018.309 3.5986 3.5993 3.3059 3.3061 1.5609 98.869 -0.0275 0.0703 1996.0 1037.0368 1037.0386 34.9893 34.9917 1498.37 1498.38 230.468 0.0
2017-10-14T12:30:45Z -46.0552 22.8008 at3901001 1 2019.325 3.5985 3.5989 3.3059 3.3061 1.5608 98.8732 -0.0509 0.0705 1997.0 1037.0416 1037.0431 34.9895 34.9916 1498.39 1498.4 230.455 0.0
2017-10-14T12:30:45Z -46.0552 22.8008 at3901001 1 2020.341 3.5956 3.5958 3.3056 3.3059 1.5608 98.8795 -0.027 0.076 1998.0 1037.046 1037.0479 34.9888 34.9913 1498.39 1498.4 230.516 0.0
2017-10-14T12:30:45Z -46.0552 22.8008 at3901001 1 2021.357 3.5947 3.5938 3.3056 3.3057 1.5608 98.8763 -0.0227 0.0763 1999.0 1037.0505 1037.0523 34.9887 34.9908 1498.41 1498.41 230.554 0.0
2017-10-14T12:30:45Z -46.0552 22.8008 at3901001 1 2022.373 3.5939 3.5943 3.3056 3.3058 1.5608 98.8725 -0.0017 0.0769 2000.0 1037.0553 1037.057 34.9888 34.991 1498.42 1498.43 230.599 0.0
2017-10-14T12:30:45Z -46.0552 22.8008 at3901001 1 2023.388 3.5938 3.5942 3.3056 3.3058 1.5608 98.8743 -0.0176 0.0819 2001.0 1037.0598 1037.0612 34.9888 34.9907 1498.44 1498.44 230.623 0.0
2017-10-14T12:30:45Z -46.0552 22.8008 at3901001 1 2024.404 3.5943 3.5945 3.3057 3.3059 1.5608 98.8731 -0.0193 0.0759 2002.0 1037.0645 1037.066 34.989 34.991 1498.46 1498.46 230.656 0.0
2017-10-14T12:30:45Z -46.0552 22.8008 at3901001 1 2025.42 3.5944 3.5944 3.3057 3.3059 1.5608 98.8709 -0.0524 0.0703 2003.0 1037.0689 1037.0706 34.9888 34.9911 1498.48 1498.48 230.686 0.0
2017-10-14T12:30:45Z -46.0552 22.8008 at3901001 1 2026.436 3.5914 3.5903 3.3054 3.3056 1.5606 98.8763 -0.0395 0.0702 2004.0 1037.0733 1037.0755 34.9882 34.9907 1498.48 1498.48 230.693 0.0
2017-10-14T12:30:45Z -46.0552 22.8008 at3901001 1 2027.452 3.5868 3.5867 3.305 3.3052 1.5604 98.8752 -0.0362 0.0702 2005.0 1037.078 1037.0801 34.9875 34.9901 1498.48 1498.48 230.709 0.0
2017-10-14T12:30:45Z -46.0552 22.8008 at3901001 1 2028.468 3.5825 3.5826 3.3047 3.3049 1.5598 98.8759 -0.0216 0.0702 2006.0 1037.0834 1037.0851 34.9877 34.9899 1498.47 1498.48 230.633 0.0
2017-10-14T12:30:45Z -46.0552 22.8008 at3901001 1 2029.485 3.5794 3.5796 3.3044 3.3046 1.5596 98.879 -0.011 0.0702 2007.0 1037.088 1037.0898 34.9872 34.9896 1498.48 1498.48 230.641 0.0
2017-10-14T12:30:45Z -46.0552 22.8008 at3901001 1 2030.501 3.5781 3.5786 3.3043 3.3046 1.5595 98.8797 -0.0415 0.0725 2008.0 1037.0926 1037.0944 34.9871 34.9895 1498.49 1498.5 230.65 0.0
2017-10-14T12:30:45Z -46.0552 22.8008 at3901001 1 2031.517 3.5766 3.5767 3.3043 3.3044 1.5597 98.8769 -0.0528 0.0763 2009.0 1037.0975 1037.0992 34.9872 34.9894 1498.5 1498.5 230.731 0.0
2017-10-14T12:30:45Z -46.0552 22.8008 at3901001 1 2032.533 3.576 3.5761 3.3042 3.3044 1.5598 98.879 -0.0376 0.0757 2010.0 1037.1021 1037.1037 34.9872 34.9892 1498.52 1498.52 230.794 0.0
2017-10-14T12:30:45Z -46.0552 22.8008 at3901001 1 2033.549 3.5751 3.5753 3.3042 3.3044 1.5597 98.8769 -0.0341 0.064 2011.0 1037.1067 1037.1084 34.9871 34.9893 1498.53 1498.53 230.812 0.0
2017-10-14T12:30:45Z -46.0552 22.8008 at3901001 1 2034.565 3.5751 3.5755 3.3042 3.3044 1.5596 98.8733 -0.0379 0.0641 2012.0 1037.1114 1037.1128 34.9872 34.9891 1498.55 1498.55 230.815 0.0
2017-10-14T12:30:45Z -46.0552 22.8008 at3901001 1 2035.581 3.5747 3.5751 3.3043 3.3044 1.5593 98.8786 -0.0182 0.0697 2013.0 1037.116 1037.1174 34.9873 34.9892 1498.56 1498.56 230.793 0.0
2017-10-14T12:30:45Z -46.0552 22.8008 at3901001 1 2036.597 3.5743 3.5747 3.3042 3.3044 1.5587 98.8769 -0.0176 0.0745 2014.0 1037.1205 1037.1219 34.9872 34.989 1498.58 1498.58 230.695 0.0
2017-10-14T12:30:45Z -46.0552 22.8008 at3901001 1 2037.613 3.573 3.5732 3.3042 3.3044 1.5585 98.8782 -0.0169 0.0729 2015.0 1037.1251 1037.1268 34.987 34.9892 1498.59 1498.59 230.686 0.0
2017-10-14T12:30:45Z -46.0552 22.8008 at3901001 1 2038.629 3.5715 3.5718 3.3041 3.3043 1.5584 98.8727 -0.0196 0.068 2016.0 1037.1297 1037.1314 34.9868 34.989 1498.6 1498.6 230.701 0.0
2017-10-14T12:30:45Z -46.0552 22.8008 at3901001 1 2039.645 3.5691 3.5694 3.3039 3.3041 1.5578 98.8757 -0.029 0.0661 2017.0 1037.1345 1037.1361 34.9867 34.9888 1498.6 1498.61 230.622 0.0
2017-10-14T12:30:45Z -46.0552 22.8008 at3901001 1 2040.662 3.5683 3.5684 3.3038 3.304 1.5574 98.875 -0.0379 0.0729 2018.0 1037.1391 1037.1408 34.9866 34.9888 1498.62 1498.62 230.573 0.0
2017-10-14T12:30:45Z -46.0552 22.8008 at3901001 1 2041.677 3.568 3.5681 3.3038 3.304 1.5576 98.8691 -0.0432 0.0801 2019.0 1037.1437 1037.1455 34.9866 34.9889 1498.64 1498.64 230.642 0.0
2017-10-14T12:30:45Z -46.0552 22.8008 at3901001 1 2042.694 3.5676 3.5677 3.3038 3.304 1.5584 98.8675 -0.0489 0.0726 2020.0 1037.1483 1037.15 34.9866 34.9888 1498.65 1498.65 230.855 0.0
2017-10-14T12:30:45Z -46.0552 22.8008 at3901001 1 2043.71 3.5669 3.5673 3.3038 3.304 1.5582 98.8826 -0.0354 0.0807 2021.0 1037.1529 1037.1544 34.9865 34.9886 1498.66 1498.67 230.841 0.0
2017-10-14T12:30:45Z -46.0552 22.8008 at3901001 1 2044.726 3.565 3.5648 3.3037 3.3038 1.5577 98.8714 -0.037 0.0756 2022.0 1037.1576 1037.1593 34.9863 34.9885 1498.67 1498.68 230.783 0.0
2017-10-14T12:30:45Z -46.0552 22.8008 at3901001 1 2045.742 3.5634 3.564 3.3035 3.3038 1.5571 98.879 -0.0382 0.0703 2023.0 1037.1622 1037.1639 34.9861 34.9885 1498.68 1498.69 230.689 0.0
2017-10-14T12:30:45Z -46.0552 22.8008 at3901001 1 2046.758 3.5592 3.5598 3.3032 3.3034 1.5571 98.8737 -0.0258 0.0702 2024.0 1037.1671 1037.1688 34.9858 34.9881 1498.68 1498.69 230.757 0.0
2017-10-14T12:30:45Z -46.0552 22.8008 at3901001 1 2047.774 3.5574 3.5578 3.3031 3.3033 1.5565 98.8788 -0.0224 0.0702 2025.0 1037.1719 1037.1736 34.9858 34.988 1498.69 1498.7 230.651 0.0
2017-10-14T12:30:45Z -46.0552 22.8008 at3901001 1 2048.791 3.5566 3.5569 3.303 3.3033 1.5562 98.8772 -0.0212 0.0705 2026.0 1037.1765 1037.1782 34.9857 34.9879 1498.71 1498.71 230.63 0.0
2017-10-14T12:30:45Z -46.0552 22.8008 at3901001 1 2049.807 3.5557 3.5557 3.303 3.3032 1.5563 98.8731 -0.0316 0.0761 2027.0 1037.1811 1037.1828 34.9856 34.9878 1498.72 1498.72 230.682 0.0
2017-10-14T12:30:45Z -46.0552 22.8008 at3901001 1 2050.823 3.5542 3.5528 3.3028 3.3029 1.5566 98.8771 -0.0243 0.0703 2028.0 1037.1853 1037.1876 34.9849 34.9876 1498.73 1498.73 230.791 0.0
2017-10-14T12:30:45Z -46.0552 22.8008 at3901001 1 2051.839 3.5465 3.5468 3.3022 3.3024 1.557 98.8737 -0.043 0.067 2029.0 1037.1911 1037.1929 34.9851 34.9874 1498.71 1498.72 230.963 0.0
2017-10-14T12:30:45Z -46.0552 22.8008 at3901001 1 2052.855 3.5452 3.5452 3.3021 3.3023 1.5561 98.8742 -0.0514 0.0749 2030.0 1037.1957 1037.1974 34.9849 34.9871 1498.72 1498.73 230.803 0.0
2017-10-14T12:30:45Z -46.0552 22.8008 at3901001 1 2053.871 3.5451 3.5451 3.3022 3.3024 1.5562 98.8732 -0.0398 0.0642 2031.0 1037.2005 1037.2021 34.9853 34.9873 1498.74 1498.74 230.852 0.0
2017-10-14T12:30:45Z -46.0552 22.8008 at3901001 1 2054.887 3.5454 3.5464 3.3022 3.3025 1.5561 98.8757 -0.0389 0.0734 2032.0 1037.2048 1037.2063 34.985 34.9871 1498.76 1498.77 230.867 0.0
2017-10-14T12:30:45Z -46.0552 22.8008 at3901001 1 2055.903 3.5454 3.5452 3.3023 3.3024 1.5558 98.8779 -0.0383 0.0737 2033.0 1037.2095 1037.2112 34.9852 34.9873 1498.78 1498.78 230.842 0.0
2017-10-14T12:30:45Z -46.0552 22.8008 at3901001 1 2056.92 3.544 3.5436 3.3022 3.3023 1.5554 98.8727 -0.0349 0.0719 2034.0 1037.214 1037.2159 34.9848 34.9872 1498.79 1498.79 230.784 0.0
2017-10-14T12:30:45Z -46.0552 22.8008 at3901001 1 2057.936 3.544 3.5441 3.3022 3.3024 1.555 98.8746 -0.0238 0.0762 2035.0 1037.2187 1037.2202 34.985 34.987 1498.8 1498.81 230.724 0.0
2017-10-14T12:30:45Z -46.0552 22.8008 at3901001 1 2058.952 3.544 3.544 3.3022 3.3024 1.5551 98.8802 -0.0441 0.0763 2036.0 1037.223 1037.2249 34.9848 34.9871 1498.82 1498.82 230.772 0.0
2017-10-14T12:30:45Z -46.0552 22.8008 at3901001 1 2059.968 3.5436 3.5437 3.3023 3.3024 1.555 98.8792 -0.0361 0.0763 2037.0 1037.2277 1037.2292 34.9849 34.9868 1498.84 1498.84 230.801 0.0
2017-10-14T12:30:45Z -46.0552 22.8008 at3901001 1 2060.984 3.5432 3.5436 3.3023 3.3025 1.555 98.8811 -0.0231 0.0763 2038.0 1037.2324 1037.2339 34.985 34.987 1498.85 1498.86 230.827 0.0
2017-10-14T12:30:45Z -46.0552 22.8008 at3901001 1 2062.0 3.5428 3.5427 3.3023 3.3024 1.5549 98.881 -0.0225 0.0816 2039.0 1037.2368 1037.2386 34.9847 34.987 1498.87 1498.87 230.835 0.0
2017-10-14T12:30:45Z -46.0552 22.8008 at3901001 1 2063.017 3.5412 3.541 3.3022 3.3023 1.5548 98.873 -0.0216 0.0782 2040.0 1037.2417 1037.2432 34.9848 34.9868 1498.88 1498.88 230.851 0.0
2017-10-14T12:30:45Z -46.0552 22.8008 at3901001 1 2064.033 3.5402 3.5399 3.3021 3.3023 1.5544 98.8823 -0.0205 0.0731 2041.0 1037.246 1037.248 34.9845 34.9868 1498.89 1498.89 230.812 0.0
2017-10-14T12:30:45Z -46.0552 22.8008 at3901001 1 2065.049 3.5384 3.5388 3.302 3.3022 1.5539 98.8805 -0.0398 0.0703 2042.0 1037.2509 1037.2526 34.9845 34.9867 1498.9 1498.91 230.738 0.0
2017-10-14T12:30:45Z -46.0552 22.8008 at3901001 1 2066.065 3.5372 3.5377 3.3019 3.3021 1.5537 98.8784 -0.053 0.0744 2043.0 1037.2556 1037.257 34.9845 34.9863 1498.91 1498.92 230.743 0.0
2017-10-14T12:30:45Z -46.0552 22.8008 at3901001 1 2067.081 3.5366 3.5369 3.3019 3.3021 1.5538 98.8811 -0.0429 0.0763 2044.0 1037.2602 1037.2617 34.9844 34.9864 1498.93 1498.93 230.79 0.0
2017-10-14T12:30:45Z -46.0552 22.8008 at3901001 1 2068.098 3.5365 3.5367 3.3019 3.3021 1.5537 98.8835 -0.0159 0.0763 2045.0 1037.2648 1037.2663 34.9844 34.9865 1498.94 1498.95 230.799 0.0
2017-10-14T12:30:45Z -46.0552 22.8008 at3901001 1 2069.114 3.5361 3.5364 3.3019 3.3021 1.5537 98.8811 -0.0129 0.0763 2046.0 1037.2693 1037.2707 34.9844 34.9863 1498.96 1498.96 230.832 0.0
2017-10-14T12:30:45Z -46.0552 22.8008 at3901001 1 2070.13 3.5358 3.5361 3.3019 3.3021 1.5537 98.8824 -0.0293 0.0736 2047.0 1037.2739 1037.2754 34.9844 34.9863 1498.97 1498.98 230.864 0.0
2017-10-14T12:30:45Z -46.0552 22.8008 at3901001 1 2071.146 3.5356 3.5358 3.3019 3.3021 1.5537 98.8798 -0.0232 0.0735 2048.0 1037.2784 1037.28 34.9843 34.9864 1498.99 1498.99 230.896 0.0
2017-10-14T12:30:45Z -46.0552 22.8008 at3901001 1 2072.162 3.5354 3.5356 3.302 3.3022 1.5537 98.878 -0.0322 0.0682 2049.0 1037.2829 1037.2846 34.9842 34.9864 1499.01 1499.01 230.919 0.0
2017-10-14T12:30:45Z -46.0552 22.8008 at3901001 1 2073.179 3.5352 3.5354 3.302 3.3022 1.5536 98.8825 -0.036 0.069 2050.0 1037.2876 1037.2892 34.9844 34.9865 1499.02 1499.03 230.939 0.0
2017-10-14T12:30:45Z -46.0552 22.8008 at3901001 1 2074.195 3.5356 3.5359 3.3021 3.3023 1.5534 98.8785 -0.0498 0.0751 2051.0 1037.2921 1037.2935 34.9844 34.9863 1499.04 1499.05 230.926 0.0
2017-10-14T12:30:45Z -46.0552 22.8008 at3901001 1 2075.211 3.5357 3.5359 3.3021 3.3023 1.5531 98.8793 -0.0433 0.0724 2052.0 1037.2966 1037.2982 34.9843 34.9864 1499.06 1499.06 230.884 0.0
2017-10-14T12:30:45Z -46.0552 22.8008 at3901001 1 2076.227 3.5354 3.5357 3.3021 3.3023 1.5526 98.8823 -0.0461 0.0731 2053.0 1037.3012 1037.3026 34.9844 34.9863 1499.07 1499.08 230.814 0.0
2017-10-14T12:30:45Z -46.0552 22.8008 at3901001 1 2077.244 3.5353 3.5355 3.3022 3.3023 1.5527 98.8808 -0.0455 0.0761 2054.0 1037.3056 1037.3072 34.9843 34.9863 1499.09 1499.1 230.868 0.0
2017-10-14T12:30:45Z -46.0552 22.8008 at3901001 1 2078.26 3.5348 3.5351 3.3021 3.3023 1.5525 98.8834 -0.0395 0.0763 2055.0 1037.3102 1037.3117 34.9842 34.9862 1499.11 1499.11 230.863 0.0
2017-10-14T12:30:45Z -46.0552 22.8008 at3901001 1 2079.276 3.5331 3.5334 3.302 3.3022 1.5525 98.8802 -0.0243 0.071 2056.0 1037.3149 1037.3164 34.9841 34.9862 1499.12 1499.12 230.894 0.0
2017-10-14T12:30:45Z -46.0552 22.8008 at3901001 1 2080.292 3.5318 3.5321 3.302 3.3022 1.5526 98.8782 -0.0344 0.0653 2057.0 1037.3196 1037.3212 34.9841 34.9861 1499.13 1499.13 230.949 0.0
2017-10-14T12:30:45Z -46.0552 22.8008 at3901001 1 2081.309 3.5317 3.5319 3.302 3.3022 1.552 98.8808 -0.029 0.0716 2058.0 1037.3242 1037.3258 34.9841 34.9862 1499.15 1499.15 230.857 0.0
2017-10-14T12:30:45Z -46.0552 22.8008 at3901001 1 2082.325 3.5315 3.5317 3.302 3.3022 1.5517 98.876 -0.0282 0.0786 2059.0 1037.3287 1037.3304 34.9841 34.9862 1499.16 1499.17 230.829 0.0
2017-10-14T12:30:45Z -46.0552 22.8008 at3901001 1 2083.341 3.5315 3.5317 3.302 3.3022 1.5516 98.8728 -0.0334 0.0777 2060.0 1037.3333 1037.3348 34.9841 34.9861 1499.18 1499.18 230.83 0.0
2017-10-14T12:30:45Z -46.0552 22.8008 at3901001 1 2084.358 3.5313 3.5316 3.3021 3.3023 1.5514 98.8769 -0.02 0.0712 2061.0 1037.3377 1037.3392 34.9839 34.9859 1499.19 1499.2 230.808 0.0
2017-10-14T12:30:45Z -46.0552 22.8008 at3901001 1 2085.374 3.5311 3.5312 3.3021 3.3023 1.5514 98.8779 -0.022 0.0783 2062.0 1037.3423 1037.3439 34.9839 34.986 1499.21 1499.21 230.843 0.0
2017-10-14T12:30:45Z -46.0552 22.8008 at3901001 1 2086.39 3.5312 3.5314 3.3021 3.3023 1.5513 98.8806 -0.0374 0.0694 2063.0 1037.3469 1037.3483 34.984 34.9859 1499.23 1499.23 230.861 0.0
2017-10-14T12:30:45Z -46.0552 22.8008 at3901001 1 2087.407 3.5313 3.5314 3.3022 3.3024 1.5511 98.8835 -0.0531 0.0641 2064.0 1037.3515 1037.3531 34.9841 34.9861 1499.25 1499.25 230.842 0.0
2017-10-14T12:30:45Z -46.0552 22.8008 at3901001 1 2088.423 3.5311 3.5312 3.3022 3.3024 1.5508 98.8807 -0.0043 0.0641 2065.0 1037.356 1037.3576 34.984 34.986 1499.26 1499.26 230.802 0.0
2017-10-14T12:30:45Z -46.0552 22.8008 at3901001 1 2089.439 3.5304 3.5306 3.3022 3.3024 1.551 98.8786 -0.0086 0.0712 2066.0 1037.3607 1037.3621 34.9841 34.986 1499.28 1499.28 230.886 0.0
2017-10-14T12:30:45Z -46.0552 22.8008 at3901001 1 2090.455 3.5296 3.5297 3.3022 3.3024 1.5502 98.8808 -0.0186 0.0762 2067.0 1037.3652 1037.3669 34.9839 34.9862 1499.29 1499.29 230.746 0.0
2017-10-14T12:30:45Z -46.0552 22.8008 at3901001 1 2091.472 3.529 3.5293 3.3021 3.3023 1.5502 98.8772 -0.0165 0.0763 2068.0 1037.3697 1037.3713 34.9837 34.9859 1499.3 1499.31 230.774 0.0
2017-10-14T12:30:45Z -46.0552 22.8008 at3901001 1 2092.488 3.5283 3.5284 3.3021 3.3023 1.5501 98.8786 -0.0169 0.074 2069.0 1037.3744 1037.376 34.9838 34.9859 1499.32 1499.32 230.79 0.0
2017-10-14T12:30:45Z -46.0552 22.8008 at3901001 1 2093.504 3.5277 3.5276 3.3021 3.3023 1.5503 98.8794 -0.0287 0.0698 2070.0 1037.3788 1037.3807 34.9836 34.986 1499.33 1499.33 230.88 0.0
2017-10-14T12:30:45Z -46.0552 22.8008 at3901001 1 2094.521 3.5265 3.5267 3.302 3.3022 1.55 98.8837 -0.0024 0.0761 2071.0 1037.3836 1037.3852 34.9836 34.9857 1499.35 1499.35 230.845 0.0
2017-10-14T12:30:45Z -46.0552 22.8008 at3901001 1 2095.537 3.5221 3.5225 3.3016 3.3018 1.5497 98.8835 -0.0516 0.0702 2072.0 1037.388 1037.3901 34.9826 34.9854 1499.34 1499.35 230.836 0.0
2017-10-14T12:30:45Z -46.0552 22.8008 at3901001 1 2096.554 3.5164 3.5167 3.3011 3.3013 1.5497 98.875 -0.0338 0.0646 2073.0 1037.3937 1037.3952 34.983 34.985 1499.34 1499.34 230.9 0.0
2017-10-14T12:30:45Z -46.0552 22.8008 at3901001 1 2097.57 3.515 3.5151 3.301 3.3012 1.549 98.881 -0.0126 0.0676 2074.0 1037.3983 1037.3999 34.9828 34.9849 1499.35 1499.35 230.787 0.0
2017-10-14T12:30:45Z -46.0552 22.8008 at3901001 1 2098.586 3.513 3.5132 3.3009 3.3011 1.5489 98.8807 -0.0036 0.0702 2075.0 1037.4029 1037.4046 34.9825 34.9847 1499.35 1499.36 230.819 0.0
2017-10-14T12:30:45Z -46.0552 22.8008 at3901001 1 2099.603 3.5104 3.5105 3.3007 3.3009 1.5488 98.8776 -0.0289 0.0738 2076.0 1037.4077 1037.4094 34.9824 34.9846 1499.36 1499.36 230.853 0.0
2017-10-14T12:30:45Z -46.0552 22.8008 at3901001 1 2100.619 3.5098 3.5099 3.3007 3.3009 1.549 98.8773 -0.0364 0.0774 2077.0 1037.4124 1037.4141 34.9824 34.9846 1499.38 1499.38 230.934 0.0
2017-10-14T12:30:45Z -46.0552 22.8008 at3901001 1 2101.635 3.5095 3.5094 3.3007 3.3009 1.549 98.8769 -0.0419 0.0786 2078.0 1037.4169 1037.4187 34.9823 34.9847 1499.39 1499.39 230.948 0.0
2017-10-14T12:30:45Z -46.0552 22.8008 at3901001 1 2102.652 3.5086 3.5089 3.3006 3.3008 1.549 98.8838 -0.0326 0.07 2079.0 1037.4215 1037.4231 34.9823 34.9844 1499.4 1499.41 230.993 0.0
2017-10-14T12:30:45Z -46.0552 22.8008 at3901001 1 2103.668 3.5056 3.5061 3.3004 3.3006 1.5489 98.8726 -0.0323 0.0764 2080.0 1037.4262 1037.4278 34.9818 34.984 1499.41 1499.41 231.029 0.0
2017-10-14T12:30:45Z -46.0552 22.8008 at3901001 1 2104.685 3.5019 3.502 3.3001 3.3003 1.5488 98.8773 -0.0182 0.0665 2081.0 1037.4314 1037.4331 34.9821 34.9842 1499.41 1499.41 231.065 0.0
2017-10-14T12:30:45Z -46.0552 22.8008 at3901001 1 2105.701 3.5007 3.5006 3.3 3.3002 1.5489 98.8791 -0.0296 0.0689 2082.0 1037.4359 1037.4377 34.9818 34.984 1499.42 1499.42 231.107 0.0
2017-10-14T12:30:45Z -46.0552 22.8008 at3901001 1 2106.717 3.4988 3.4991 3.2999 3.3001 1.5483 98.8835 -0.0426 0.0747 2083.0 1037.4408 1037.4423 34.9818 34.9838 1499.43 1499.43 231.021 0.0
2017-10-14T12:30:45Z -46.0552 22.8008 at3901001 1 2107.734 3.4978 3.4979 3.2998 3.3 1.5486 98.8812 -0.0224 0.0731 2084.0 1037.4454 1037.447 34.9818 34.9838 1499.44 1499.45 231.131 0.0
2017-10-14T12:30:45Z -46.0552 22.8008 at3901001 1 2108.75 3.4971 3.497 3.2998 3.3 1.5483 98.8819 -0.0318 0.0667 2085.0 1037.4499 1037.4518 34.9815 34.9839 1499.46 1499.46 231.089 0.0
2017-10-14T12:30:45Z -46.0552 22.8008 at3901001 1 2109.767 3.4961 3.4964 3.2998 3.2999 1.5483 98.8691 6.0E-4 0.0703 2086.0 1037.4548 1037.4562 34.9818 34.9836 1499.47 1499.47 231.126 0.0
2017-10-14T12:30:45Z -46.0552 22.8008 at3901001 1 2110.783 3.4958 3.4959 3.2998 3.3 1.548 98.8812 -0.0146 0.0812 2087.0 1037.4593 1037.4608 34.9817 34.9837 1499.49 1499.49 231.097 0.0
2017-10-14T12:30:45Z -46.0552 22.8008 at3901001 1 2111.799 3.4937 3.494 3.2996 3.2998 1.5478 98.8776 -0.0264 0.0745 2088.0 1037.464 1037.4657 34.9816 34.9838 1499.49 1499.5 231.103 0.0
2017-10-14T12:30:45Z -46.0552 22.8008 at3901001 1 2112.816 3.4932 3.4935 3.2996 3.2998 1.5477 98.8822 -0.0313 0.0721 2089.0 1037.4686 1037.4701 34.9816 34.9836 1499.51 1499.52 231.123 0.0
2017-10-14T12:30:45Z -46.0552 22.8008 at3901001 1 2113.832 3.4928 3.4933 3.2996 3.2998 1.5475 98.8758 -0.0263 0.0748 2090.0 1037.4733 1037.4747 34.9816 34.9835 1499.52 1499.53 231.104 0.0
2017-10-14T12:30:45Z -46.0552 22.8008 at3901001 1 2114.849 3.4923 3.4922 3.2996 3.2998 1.5472 98.8825 -0.0349 0.0677 2091.0 1037.4777 1037.4793 34.9814 34.9834 1499.54 1499.54 231.074 0.0
2017-10-14T12:30:45Z -46.0552 22.8008 at3901001 1 2115.865 3.4917 3.4916 3.2996 3.2998 1.547 98.8827 -0.0281 0.0681 2092.0 1037.4823 1037.484 34.9813 34.9835 1499.56 1499.56 231.055 0.0
2017-10-14T12:30:45Z -46.0552 22.8008 at3901001 1 2116.882 3.4916 3.4918 3.2996 3.2998 1.5469 98.8835 -0.018 0.0759 2093.0 1037.4869 1037.4884 34.9814 34.9834 1499.57 1499.57 231.071 0.0
2017-10-14T12:30:45Z -46.0552 22.8008 at3901001 1 2117.898 3.4909 3.4911 3.2996 3.2998 1.5467 98.8808 -0.0127 0.0656 2094.0 1037.4913 1037.4931 34.9811 34.9834 1499.59 1499.59 231.067 0.0
2017-10-14T12:30:45Z -46.0552 22.8008 at3901001 1 2118.915 3.4849 3.4851 3.299 3.2992 1.5467 98.8807 -0.0301 0.0641 2095.0 1037.4963 1037.4981 34.9806 34.9829 1499.58 1499.58 231.141 0.0
2017-10-14T12:30:45Z -46.0552 22.8008 at3901001 1 2119.931 3.4831 3.4828 3.2989 3.2991 1.5465 98.8795 -0.0323 0.0708 2096.0 1037.5014 1037.5032 34.9809 34.9831 1499.59 1499.59 231.128 0.0
2017-10-14T12:30:45Z -46.0552 22.8008 at3901001 1 2120.947 3.4803 3.4804 3.2987 3.2989 1.5466 98.8793 -0.0173 0.0763 2097.0 1037.5061 1037.5078 34.9805 34.9828 1499.59 1499.59 231.194 0.0
2017-10-14T12:30:45Z -46.0552 22.8008 at3901001 1 2121.964 3.4776 3.4778 3.2985 3.2987 1.5466 98.8811 -0.0263 0.0733 2098.0 1037.5109 1037.5126 34.9804 34.9826 1499.6 1499.6 231.245 0.0
2017-10-14T12:30:45Z -46.0552 22.8008 at3901001 1 2122.98 3.4757 3.476 3.2983 3.2985 1.5466 98.8825 -0.0313 0.0827 2099.0 1037.5156 1037.5172 34.9803 34.9824 1499.61 1499.61 231.286 0.0
2017-10-14T12:30:45Z -46.0552 22.8008 at3901001 1 2123.997 3.4735 3.474 3.2982 3.2984 1.5463 98.8785 -0.028 0.0777 2100.0 1037.5205 1037.5218 34.9803 34.982 1499.61 1499.62 231.267 0.0
2017-10-14T12:30:45Z -46.0552 22.8008 at3901001 1 2125.013 3.4723 3.4727 3.2981 3.2983 1.5456 98.8738 -0.0251 0.069 2101.0 1037.525 1037.5265 34.9801 34.9821 1499.63 1499.63 231.15 0.0
2017-10-14T12:30:45Z -46.0552 22.8008 at3901001 1 2126.029 3.4711 3.4712 3.2981 3.2982 1.5453 98.8793 -0.0221 0.0689 2102.0 1037.5299 1037.5313 34.9803 34.982 1499.64 1499.64 231.14 0.0
2017-10-14T12:30:45Z -46.0552 22.8008 at3901001 1 2127.046 3.4701 3.4706 3.298 3.2982 1.5453 98.8797 -0.0199 0.0764 2103.0 1037.5343 1037.5359 34.9798 34.982 1499.65 1499.65 231.179 0.0
2017-10-14T12:30:45Z -46.0552 22.8008 at3901001 1 2128.062 3.4632 3.4636 3.2973 3.2976 1.5451 98.8804 -0.0078 0.0749 2104.0 1037.5391 1037.5412 34.9789 34.9817 1499.64 1499.64 231.198 0.0
2017-10-14T12:30:45Z -46.0552 22.8008 at3901001 1 2129.079 3.459 3.4593 3.297 3.2972 1.545 98.8818 -0.0416 0.0729 2105.0 1037.5445 1037.5461 34.9792 34.9814 1499.64 1499.64 231.237 0.0
2017-10-14T12:30:45Z -46.0552 22.8008 at3901001 1 2130.095 3.4589 3.4592 3.2971 3.2972 1.5449 98.8643 -0.0454 0.0764 2106.0 1037.5492 1037.5506 34.9793 34.9812 1499.65 1499.66 231.247 0.0
2017-10-14T12:30:45Z -46.0552 22.8008 at3901001 1 2131.112 3.4589 3.459 3.2971 3.2973 1.5452 98.8824 -0.0213 0.071 2107.0 1037.5536 1037.5552 34.9793 34.9813 1499.67 1499.67 231.349 0.0
2017-10-14T12:30:45Z -46.0552 22.8008 at3901001 1 2132.129 3.4585 3.4588 3.2971 3.2973 1.5453 98.8822 -0.0283 0.0755 2108.0 1037.5582 1037.5598 34.9793 34.9813 1499.68 1499.69 231.39 0.0
2017-10-14T12:30:45Z -46.0552 22.8008 at3901001 1 2133.145 3.4576 3.4579 3.2971 3.2973 1.5452 98.8795 -0.041 0.0805 2109.0 1037.5629 1037.5645 34.9793 34.9814 1499.7 1499.7 231.424 0.0
2017-10-14T12:30:45Z -46.0552 22.8008 at3901001 1 2134.162 3.4555 3.4557 3.2969 3.2971 1.5448 98.8835 -0.0349 0.077 2110.0 1037.5675 1037.5693 34.979 34.9813 1499.71 1499.71 231.375 0.0
2017-10-14T12:30:45Z -46.0552 22.8008 at3901001 1 2135.178 3.4512 3.4514 3.2965 3.2967 1.5446 98.8835 -0.0175 0.0685 2111.0 1037.5725 1037.5744 34.9787 34.9812 1499.7 1499.71 231.381 0.0
2017-10-14T12:30:45Z -46.0552 22.8008 at3901001 1 2136.195 3.4485 3.4489 3.2963 3.2965 1.5446 98.8799 -0.0159 0.0658 2112.0 1037.5774 1037.579 34.9787 34.9808 1499.71 1499.71 231.438 0.0
2017-10-14T12:30:45Z -46.0552 22.8008 at3901001 1 2137.211 3.4483 3.4487 3.2964 3.2965 1.5442 98.8824 -0.0469 0.0762 2113.0 1037.582 1037.5834 34.9788 34.9806 1499.73 1499.73 231.379 0.0
2017-10-14T12:30:45Z -46.0552 22.8008 at3901001 1 2138.228 3.4473 3.4476 3.2963 3.2965 1.5442 98.8784 -0.0203 0.0763 2114.0 1037.5866 1037.5881 34.9786 34.9806 1499.74 1499.74 231.419 0.0
2017-10-14T12:30:45Z -46.0552 22.8008 at3901001 1 2139.244 3.4458 3.4461 3.2962 3.2964 1.5442 98.8826 -0.0205 0.0713 2115.0 1037.5913 1037.5928 34.9785 34.9805 1499.75 1499.75 231.46 0.0
2017-10-14T12:30:45Z -46.0552 22.8008 at3901001 1 2140.261 3.4449 3.4452 3.2961 3.2963 1.5441 98.8835 -0.0069 0.068 2116.0 1037.5959 1037.5974 34.9784 34.9805 1499.76 1499.77 231.478 0.0
2017-10-14T12:30:45Z -46.0552 22.8008 at3901001 1 2141.277 3.4438 3.4441 3.2961 3.2963 1.5438 98.8835 -0.007 0.0799 2117.0 1037.6007 1037.6022 34.9786 34.9805 1499.78 1499.78 231.452 0.0
2017-10-14T12:30:45Z -46.0552 22.8008 at3901001 1 2142.294 3.4435 3.4438 3.2961 3.2963 1.543 98.8835 -0.0124 0.0779 2118.0 1037.6054 1037.6067 34.9786 34.9804 1499.79 1499.8 231.308 0.0
2017-10-14T12:30:45Z -46.0552 22.8008 at3901001 1 2143.311 3.4436 3.4439 3.2962 3.2963 1.5429 98.8822 -0.0182 0.0763 2119.0 1037.6098 1037.6112 34.9786 34.9805 1499.81 1499.81 231.302 0.0
2017-10-14T12:30:45Z -46.0552 22.8008 at3901001 1 2144.327 3.4433 3.4434 3.2962 3.2963 1.543 98.8847 -0.0261 0.0763 2120.0 1037.6144 1037.6159 34.9785 34.9805 1499.82 1499.83 231.355 0.0
2017-10-14T12:30:45Z -46.0552 22.8008 at3901001 1 2145.344 3.4425 3.4428 3.2961 3.2963 1.543 98.8835 -0.0257 0.0763 2121.0 1037.619 1037.6205 34.9784 34.9804 1499.84 1499.84 231.392 0.0
2017-10-14T12:30:45Z -46.0552 22.8008 at3901001 1 2146.36 3.4415 3.4417 3.2961 3.2963 1.5426 98.8835 -0.0501 0.0752 2122.0 1037.6236 1037.6251 34.9784 34.9804 1499.85 1499.86 231.353 0.0
2017-10-14T12:30:45Z -46.0552 22.8008 at3901001 1 2147.377 3.4411 3.4415 3.2961 3.2963 1.5425 98.8823 -0.0337 0.0707 2123.0 1037.6282 1037.6295 34.9784 34.9802 1499.87 1499.87 231.347 0.0
2017-10-14T12:30:45Z -46.0552 22.8008 at3901001 1 2148.394 3.4407 3.4409 3.2961 3.2963 1.5423 98.8823 -0.008 0.076 2124.0 1037.6327 1037.6342 34.9783 34.9802 1499.88 1499.89 231.339 0.0
2017-10-14T12